<?xml version='1.0' encoding='UTF-8'?><gpx version="1.1" creator="JPX - https://github.com/jenetics/jpx" xmlns="http://www.topografix.com/GPX/1/1"><trk><trkseg><trkpt lat="36.8868095" lon="15.0721439"><ele>92.0</ele><time>2026-04-04T06:10:10.256Z</time></trkpt><trkpt lat="36.8868885" lon="15.0723735"><ele>92.0</ele><time>2026-04-04T06:10:54.214Z</time></trkpt><trkpt lat="36.886904" lon="15.0726321"><ele>92.0</ele><time>2026-04-04T06:10:55.266Z</time></trkpt><trkpt lat="36.8868779" lon="15.0727808"><ele>91.5</ele><time>2026-04-04T06:10:56.263Z</time></trkpt><trkpt lat="36.8868466" lon="15.0729226"><ele>91.0</ele><time>2026-04-04T06:10:57.264Z</time></trkpt><trkpt lat="36.8868076" lon="15.0730571"><ele>90.5</ele><time>2026-04-04T06:10:58.276Z</time></trkpt><trkpt lat="36.8867529" lon="15.0731933"><ele>90.0</ele><time>2026-04-04T06:10:59.28Z</time></trkpt><trkpt lat="36.8866915" lon="15.0733383"><ele>89.0</ele><time>2026-04-04T06:11:00.272Z</time></trkpt><trkpt lat="36.8866275" lon="15.0734623"><ele>88.0</ele><time>2026-04-04T06:11:01.246Z</time></trkpt><trkpt lat="36.8865472" lon="15.0735766"><ele>87.0</ele><time>2026-04-04T06:11:02.294Z</time></trkpt><trkpt lat="36.8864584" lon="15.0736755"><ele>86.0</ele><time>2026-04-04T06:11:03.281Z</time></trkpt><trkpt lat="36.886362" lon="15.0737727"><ele>86.0</ele><time>2026-04-04T06:11:04.27Z</time></trkpt><trkpt lat="36.8862665" lon="15.0738763"><ele>86.0</ele><time>2026-04-04T06:11:05.273Z</time></trkpt><trkpt lat="36.8861699" lon="15.0739953"><ele>86.0</ele><time>2026-04-04T06:11:06.272Z</time></trkpt><trkpt lat="36.8860675" lon="15.0741148"><ele>86.0</ele><time>2026-04-04T06:11:07.275Z</time></trkpt><trkpt lat="36.8859545" lon="15.0742289"><ele>86.25</ele><time>2026-04-04T06:11:08.275Z</time></trkpt><trkpt lat="36.8858431" lon="15.074336"><ele>86.5</ele><time>2026-04-04T06:11:09.252Z</time></trkpt><trkpt lat="36.8857308" lon="15.0744407"><ele>86.75</ele><time>2026-04-04T06:11:10.284Z</time></trkpt><trkpt lat="36.8856227" lon="15.0745377"><ele>87.0</ele><time>2026-04-04T06:11:11.262Z</time></trkpt><trkpt lat="36.8855144" lon="15.0746348"><ele>87.0</ele><time>2026-04-04T06:11:12.282Z</time></trkpt><trkpt lat="36.8854146" lon="15.0747383"><ele>87.0</ele><time>2026-04-04T06:11:13.277Z</time></trkpt><trkpt lat="36.8853243" lon="15.0748466"><ele>87.0</ele><time>2026-04-04T06:11:14.246Z</time></trkpt><trkpt lat="36.8852387" lon="15.074962"><ele>87.0</ele><time>2026-04-04T06:11:15.24Z</time></trkpt><trkpt lat="36.8851636" lon="15.0750786"><ele>86.83333333333333</ele><time>2026-04-04T06:11:16.278Z</time></trkpt><trkpt lat="36.8851006" lon="15.0751866"><ele>86.66666666666667</ele><time>2026-04-04T06:11:17.271Z</time></trkpt><trkpt lat="36.8850504" lon="15.0752909"><ele>86.5</ele><time>2026-04-04T06:11:18.255Z</time></trkpt><trkpt lat="36.8850054" lon="15.0753843"><ele>86.33333333333334</ele><time>2026-04-04T06:11:19.245Z</time></trkpt><trkpt lat="36.8849687" lon="15.0754674"><ele>86.16666666666667</ele><time>2026-04-04T06:11:20.246Z</time></trkpt><trkpt lat="36.8849407" lon="15.0755381"><ele>86.0</ele><time>2026-04-04T06:11:21.276Z</time></trkpt><trkpt lat="36.8849191" lon="15.0756527"><ele>86.0</ele><time>2026-04-04T06:11:23.293Z</time></trkpt><trkpt lat="36.8850055" lon="15.0757469"><ele>86.0</ele><time>2026-04-04T06:11:25.281Z</time></trkpt><trkpt lat="36.8851003" lon="15.0757938"><ele>86.0</ele><time>2026-04-04T06:11:26.279Z</time></trkpt><trkpt lat="36.8852101" lon="15.0758393"><ele>86.0</ele><time>2026-04-04T06:11:27.281Z</time></trkpt><trkpt lat="36.8853342" lon="15.0758852"><ele>88.5</ele><time>2026-04-04T06:11:28.249Z</time></trkpt><trkpt lat="36.8854572" lon="15.0758942"><ele>91.0</ele><time>2026-04-04T06:11:29.271Z</time></trkpt><trkpt lat="36.8855957" lon="15.0758622"><ele>93.5</ele><time>2026-04-04T06:11:30.27Z</time></trkpt><trkpt lat="36.8857309" lon="15.0758252"><ele>96.0</ele><time>2026-04-04T06:11:31.282Z</time></trkpt><trkpt lat="36.8858622" lon="15.075799"><ele>97.0</ele><time>2026-04-04T06:11:32.351Z</time></trkpt><trkpt lat="36.8860014" lon="15.0757472"><ele>98.0</ele><time>2026-04-04T06:11:33.291Z</time></trkpt><trkpt lat="36.8861437" lon="15.0756943"><ele>99.0</ele><time>2026-04-04T06:11:34.28Z</time></trkpt><trkpt lat="36.8862783" lon="15.0756453"><ele>100.0</ele><time>2026-04-04T06:11:35.285Z</time></trkpt><trkpt lat="36.8864207" lon="15.0755894"><ele>100.0</ele><time>2026-04-04T06:11:36.281Z</time></trkpt><trkpt lat="36.8865711" lon="15.0755351"><ele>100.0</ele><time>2026-04-04T06:11:37.28Z</time></trkpt><trkpt lat="36.8867204" lon="15.0754929"><ele>100.0</ele><time>2026-04-04T06:11:38.276Z</time></trkpt><trkpt lat="36.886877" lon="15.0754564"><ele>101.66666666666667</ele><time>2026-04-04T06:11:39.35Z</time></trkpt><trkpt lat="36.8870337" lon="15.0754227"><ele>103.33333333333334</ele><time>2026-04-04T06:11:40.28Z</time></trkpt><trkpt lat="36.8871958" lon="15.0753901"><ele>105.0</ele><time>2026-04-04T06:11:41.274Z</time></trkpt><trkpt lat="36.8873604" lon="15.0753524"><ele>105.0</ele><time>2026-04-04T06:11:42.284Z</time></trkpt><trkpt lat="36.8875147" lon="15.0753159"><ele>105.0</ele><time>2026-04-04T06:11:43.301Z</time></trkpt><trkpt lat="36.887658" lon="15.0753064"><ele>105.0</ele><time>2026-04-04T06:11:44.292Z</time></trkpt><trkpt lat="36.8877848" lon="15.0752791"><ele>105.0</ele><time>2026-04-04T06:11:45.287Z</time></trkpt><trkpt lat="36.8878913" lon="15.0752557"><ele>105.8</ele><time>2026-04-04T06:11:46.265Z</time></trkpt><trkpt lat="36.8879589" lon="15.075233"><ele>106.6</ele><time>2026-04-04T06:11:47.282Z</time></trkpt><trkpt lat="36.8880203" lon="15.0752124"><ele>107.4</ele><time>2026-04-04T06:11:49.274Z</time></trkpt><trkpt lat="36.8879558" lon="15.0753859"><ele>108.2</ele><time>2026-04-04T06:11:51.284Z</time></trkpt><trkpt lat="36.8879202" lon="15.0755353"><ele>109.0</ele><time>2026-04-04T06:11:52.25Z</time></trkpt><trkpt lat="36.8878961" lon="15.0756687"><ele>108.50000000000001</ele><time>2026-04-04T06:11:53.284Z</time></trkpt><trkpt lat="36.8878626" lon="15.0757915"><ele>108.0</ele><time>2026-04-04T06:11:54.284Z</time></trkpt><trkpt lat="36.8878431" lon="15.0758949"><ele>107.5</ele><time>2026-04-04T06:11:55.291Z</time></trkpt><trkpt lat="36.8878429" lon="15.0760029"><ele>107.0</ele><time>2026-04-04T06:11:57.29Z</time></trkpt><trkpt lat="36.8879236" lon="15.0760762"><ele>106.50000000000001</ele><time>2026-04-04T06:11:59.284Z</time></trkpt><trkpt lat="36.8879924" lon="15.0760979"><ele>106.0</ele><time>2026-04-04T06:12:00.234Z</time></trkpt><trkpt lat="36.8880706" lon="15.0761194"><ele>106.0</ele><time>2026-04-04T06:12:01.281Z</time></trkpt><trkpt lat="36.8881945" lon="15.0761334"><ele>106.0</ele><time>2026-04-04T06:12:02.28Z</time></trkpt><trkpt lat="36.8883107" lon="15.0761603"><ele>106.0</ele><time>2026-04-04T06:12:03.28Z</time></trkpt><trkpt lat="36.8884146" lon="15.0762074"><ele>106.0</ele><time>2026-04-04T06:12:04.291Z</time></trkpt><trkpt lat="36.8885464" lon="15.0762422"><ele>106.0</ele><time>2026-04-04T06:12:05.291Z</time></trkpt><trkpt lat="36.8886734" lon="15.0762897"><ele>106.0</ele><time>2026-04-04T06:12:06.28Z</time></trkpt><trkpt lat="36.8887873" lon="15.0763332"><ele>106.0</ele><time>2026-04-04T06:12:07.289Z</time></trkpt><trkpt lat="36.8889112" lon="15.0763706"><ele>106.0</ele><time>2026-04-04T06:12:08.291Z</time></trkpt><trkpt lat="36.889028" lon="15.0764095"><ele>106.0</ele><time>2026-04-04T06:12:09.292Z</time></trkpt><trkpt lat="36.889134" lon="15.0764257"><ele>106.0</ele><time>2026-04-04T06:12:10.261Z</time></trkpt><trkpt lat="36.8892481" lon="15.0764337"><ele>106.0</ele><time>2026-04-04T06:12:11.287Z</time></trkpt><trkpt lat="36.8893627" lon="15.0764277"><ele>106.0</ele><time>2026-04-04T06:12:12.284Z</time></trkpt><trkpt lat="36.8894778" lon="15.0764119"><ele>106.8</ele><time>2026-04-04T06:12:13.292Z</time></trkpt><trkpt lat="36.8895856" lon="15.0763845"><ele>107.6</ele><time>2026-04-04T06:12:14.285Z</time></trkpt><trkpt lat="36.8896907" lon="15.0763498"><ele>108.4</ele><time>2026-04-04T06:12:15.29Z</time></trkpt><trkpt lat="36.8898001" lon="15.0763108"><ele>109.2</ele><time>2026-04-04T06:12:16.296Z</time></trkpt><trkpt lat="36.8899093" lon="15.0762795"><ele>110.0</ele><time>2026-04-04T06:12:17.27Z</time></trkpt><trkpt lat="36.8900125" lon="15.0762604"><ele>110.66666666666666</ele><time>2026-04-04T06:12:18.278Z</time></trkpt><trkpt lat="36.8901097" lon="15.0762349"><ele>111.33333333333333</ele><time>2026-04-04T06:12:19.284Z</time></trkpt><trkpt lat="36.8901999" lon="15.0762125"><ele>112.0</ele><time>2026-04-04T06:12:20.304Z</time></trkpt><trkpt lat="36.8902787" lon="15.0761861"><ele>112.66666666666666</ele><time>2026-04-04T06:12:21.294Z</time></trkpt><trkpt lat="36.8903547" lon="15.0761681"><ele>113.33333333333333</ele><time>2026-04-04T06:12:22.292Z</time></trkpt><trkpt lat="36.8904271" lon="15.0761514"><ele>114.0</ele><time>2026-04-04T06:12:23.258Z</time></trkpt><trkpt lat="36.8905044" lon="15.0761417"><ele>114.0</ele><time>2026-04-04T06:12:24.263Z</time></trkpt><trkpt lat="36.8905723" lon="15.0761273"><ele>114.0</ele><time>2026-04-04T06:12:25.279Z</time></trkpt><trkpt lat="36.890635" lon="15.0761168"><ele>114.0</ele><time>2026-04-04T06:12:26.285Z</time></trkpt><trkpt lat="36.8907616" lon="15.0760873"><ele>114.0</ele><time>2026-04-04T06:12:28.292Z</time></trkpt><trkpt lat="36.8908264" lon="15.0760619"><ele>114.0</ele><time>2026-04-04T06:12:29.283Z</time></trkpt><trkpt lat="36.8908916" lon="15.0760412"><ele>114.0</ele><time>2026-04-04T06:12:30.288Z</time></trkpt><trkpt lat="36.8910038" lon="15.0759845"><ele>114.6</ele><time>2026-04-04T06:12:32.291Z</time></trkpt><trkpt lat="36.8910623" lon="15.0759525"><ele>115.2</ele><time>2026-04-04T06:12:33.276Z</time></trkpt><trkpt lat="36.8911564" lon="15.0758704"><ele>115.79999999999998</ele><time>2026-04-04T06:12:35.283Z</time></trkpt><trkpt lat="36.8912208" lon="15.075814"><ele>116.39999999999999</ele><time>2026-04-04T06:12:37.288Z</time></trkpt><trkpt lat="36.8913478" lon="15.0758739"><ele>117.0</ele><time>2026-04-04T06:12:39.256Z</time></trkpt><trkpt lat="36.8914155" lon="15.0759059"><ele>117.0</ele><time>2026-04-04T06:12:40.276Z</time></trkpt><trkpt lat="36.8915353" lon="15.0759208"><ele>117.0</ele><time>2026-04-04T06:12:42.292Z</time></trkpt><trkpt lat="36.8916017" lon="15.0758924"><ele>117.0</ele><time>2026-04-04T06:12:45.26Z</time></trkpt><trkpt lat="36.8916693" lon="15.0759075"><ele>117.0</ele><time>2026-04-04T06:12:47.257Z</time></trkpt><trkpt lat="36.8917538" lon="15.0759349"><ele>117.0</ele><time>2026-04-04T06:12:49.289Z</time></trkpt><trkpt lat="36.8918114" lon="15.0759668"><ele>117.0</ele><time>2026-04-04T06:12:50.296Z</time></trkpt><trkpt lat="36.891872" lon="15.0760013"><ele>117.57142857142858</ele><time>2026-04-04T06:12:51.295Z</time></trkpt><trkpt lat="36.8919352" lon="15.0760404"><ele>118.14285714285715</ele><time>2026-04-04T06:12:52.274Z</time></trkpt><trkpt lat="36.8919844" lon="15.0760967"><ele>118.71428571428572</ele><time>2026-04-04T06:12:53.241Z</time></trkpt><trkpt lat="36.892033" lon="15.0761562"><ele>119.28571428571428</ele><time>2026-04-04T06:12:54.287Z</time></trkpt><trkpt lat="36.8920781" lon="15.0762212"><ele>119.85714285714285</ele><time>2026-04-04T06:12:55.286Z</time></trkpt><trkpt lat="36.8921116" lon="15.0762958"><ele>120.42857142857142</ele><time>2026-04-04T06:12:56.289Z</time></trkpt><trkpt lat="36.8921532" lon="15.0763564"><ele>121.0</ele><time>2026-04-04T06:12:57.294Z</time></trkpt><trkpt lat="36.8922022" lon="15.0764089"><ele>121.00000000000001</ele><time>2026-04-04T06:12:58.281Z</time></trkpt><trkpt lat="36.8922605" lon="15.0764613"><ele>121.0</ele><time>2026-04-04T06:12:59.287Z</time></trkpt><trkpt lat="36.8923351" lon="15.0764836"><ele>121.0</ele><time>2026-04-04T06:13:00.278Z</time></trkpt><trkpt lat="36.8924187" lon="15.0764951"><ele>121.0</ele><time>2026-04-04T06:13:01.294Z</time></trkpt><trkpt lat="36.8925057" lon="15.0765111"><ele>121.00000000000001</ele><time>2026-04-04T06:13:02.281Z</time></trkpt><trkpt lat="36.8925975" lon="15.0765238"><ele>121.0</ele><time>2026-04-04T06:13:03.284Z</time></trkpt><trkpt lat="36.8926947" lon="15.0765393"><ele>121.66666666666667</ele><time>2026-04-04T06:13:04.285Z</time></trkpt><trkpt lat="36.8927809" lon="15.0765489"><ele>122.33333333333334</ele><time>2026-04-04T06:13:05.291Z</time></trkpt><trkpt lat="36.8928583" lon="15.0765634"><ele>123.0</ele><time>2026-04-04T06:13:06.279Z</time></trkpt><trkpt lat="36.8929364" lon="15.0765762"><ele>123.66666666666666</ele><time>2026-04-04T06:13:07.289Z</time></trkpt><trkpt lat="36.893008" lon="15.0765929"><ele>124.33333333333333</ele><time>2026-04-04T06:13:08.279Z</time></trkpt><trkpt lat="36.8930742" lon="15.0766122"><ele>125.0</ele><time>2026-04-04T06:13:09.311Z</time></trkpt><trkpt lat="36.8931378" lon="15.0766353"><ele>121.83333333333333</ele><time>2026-04-04T06:13:10.3Z</time></trkpt><trkpt lat="36.8932447" lon="15.0766882"><ele>118.66666666666666</ele><time>2026-04-04T06:13:12.285Z</time></trkpt><trkpt lat="36.8933373" lon="15.0767398"><ele>115.5</ele><time>2026-04-04T06:13:14.27Z</time></trkpt><trkpt lat="36.8934199" lon="15.076788"><ele>112.33333333333334</ele><time>2026-04-04T06:13:16.288Z</time></trkpt><trkpt lat="36.8934741" lon="15.0768284"><ele>109.16666666666667</ele><time>2026-04-04T06:13:18.255Z</time></trkpt><trkpt lat="36.8935267" lon="15.076885"><ele>106.0</ele><time>2026-04-04T06:13:23.281Z</time></trkpt><trkpt lat="36.8936169" lon="15.0769773"><ele>106.0</ele><time>2026-04-04T06:15:45.288Z</time></trkpt><trkpt lat="36.8936831" lon="15.0770468"><ele>106.0</ele><time>2026-04-04T06:15:46.295Z</time></trkpt><trkpt lat="36.8937498" lon="15.0771345"><ele>106.0</ele><time>2026-04-04T06:15:47.277Z</time></trkpt><trkpt lat="36.8938234" lon="15.0772132"><ele>106.0</ele><time>2026-04-04T06:15:48.253Z</time></trkpt><trkpt lat="36.893911" lon="15.0772942"><ele>106.0</ele><time>2026-04-04T06:15:49.271Z</time></trkpt><trkpt lat="36.8940309" lon="15.077339"><ele>106.0</ele><time>2026-04-04T06:15:50.274Z</time></trkpt><trkpt lat="36.8941701" lon="15.0773619"><ele>106.0</ele><time>2026-04-04T06:15:51.304Z</time></trkpt><trkpt lat="36.894302" lon="15.0773667"><ele>106.0</ele><time>2026-04-04T06:15:52.29Z</time></trkpt><trkpt lat="36.8944205" lon="15.077386"><ele>106.0</ele><time>2026-04-04T06:15:53.296Z</time></trkpt><trkpt lat="36.8945286" lon="15.0774265"><ele>103.25</ele><time>2026-04-04T06:15:54.285Z</time></trkpt><trkpt lat="36.8946257" lon="15.0774739"><ele>100.5</ele><time>2026-04-04T06:15:55.292Z</time></trkpt><trkpt lat="36.8947173" lon="15.0775514"><ele>97.75</ele><time>2026-04-04T06:15:56.287Z</time></trkpt><trkpt lat="36.8948081" lon="15.077646"><ele>95.0</ele><time>2026-04-04T06:15:57.282Z</time></trkpt><trkpt lat="36.8948935" lon="15.077753"><ele>95.0</ele><time>2026-04-04T06:15:58.276Z</time></trkpt><trkpt lat="36.894983" lon="15.077869"><ele>95.0</ele><time>2026-04-04T06:15:59.28Z</time></trkpt><trkpt lat="36.8950776" lon="15.0779789"><ele>95.0</ele><time>2026-04-04T06:16:00.282Z</time></trkpt><trkpt lat="36.8951788" lon="15.0780909"><ele>95.0</ele><time>2026-04-04T06:16:01.28Z</time></trkpt><trkpt lat="36.8952848" lon="15.0782149"><ele>93.5</ele><time>2026-04-04T06:16:02.273Z</time></trkpt><trkpt lat="36.8953933" lon="15.0783466"><ele>92.0</ele><time>2026-04-04T06:16:03.279Z</time></trkpt><trkpt lat="36.8954991" lon="15.0784679"><ele>90.5</ele><time>2026-04-04T06:16:04.295Z</time></trkpt><trkpt lat="36.8955938" lon="15.0785884"><ele>89.0</ele><time>2026-04-04T06:16:05.292Z</time></trkpt><trkpt lat="36.8956928" lon="15.0786997"><ele>89.0</ele><time>2026-04-04T06:16:06.309Z</time></trkpt><trkpt lat="36.8957808" lon="15.078809"><ele>89.0</ele><time>2026-04-04T06:16:07.279Z</time></trkpt><trkpt lat="36.8958823" lon="15.0789133"><ele>89.0</ele><time>2026-04-04T06:16:08.303Z</time></trkpt><trkpt lat="36.8959948" lon="15.0789978"><ele>89.0</ele><time>2026-04-04T06:16:09.294Z</time></trkpt><trkpt lat="36.896118" lon="15.0790645"><ele>90.5</ele><time>2026-04-04T06:16:10.292Z</time></trkpt><trkpt lat="36.8962449" lon="15.0791305"><ele>92.0</ele><time>2026-04-04T06:16:11.29Z</time></trkpt><trkpt lat="36.8963761" lon="15.079201"><ele>93.5</ele><time>2026-04-04T06:16:12.285Z</time></trkpt><trkpt lat="36.8965104" lon="15.0792705"><ele>95.0</ele><time>2026-04-04T06:16:13.308Z</time></trkpt><trkpt lat="36.8966309" lon="15.0793404"><ele>95.0</ele><time>2026-04-04T06:16:14.297Z</time></trkpt><trkpt lat="36.8967387" lon="15.0794138"><ele>95.0</ele><time>2026-04-04T06:16:15.29Z</time></trkpt><trkpt lat="36.8968398" lon="15.0794923"><ele>95.0</ele><time>2026-04-04T06:16:16.283Z</time></trkpt><trkpt lat="36.8969143" lon="15.079581"><ele>95.0</ele><time>2026-04-04T06:16:17.308Z</time></trkpt><trkpt lat="36.8969713" lon="15.0796917"><ele>94.4</ele><time>2026-04-04T06:16:18.303Z</time></trkpt><trkpt lat="36.8970223" lon="15.0798196"><ele>93.8</ele><time>2026-04-04T06:16:19.284Z</time></trkpt><trkpt lat="36.8970586" lon="15.0799541"><ele>93.19999999999999</ele><time>2026-04-04T06:16:20.295Z</time></trkpt><trkpt lat="36.8970681" lon="15.0800905"><ele>92.6</ele><time>2026-04-04T06:16:21.275Z</time></trkpt><trkpt lat="36.8970586" lon="15.0802218"><ele>92.0</ele><time>2026-04-04T06:16:22.282Z</time></trkpt><trkpt lat="36.8970465" lon="15.0803396"><ele>93.0</ele><time>2026-04-04T06:16:23.281Z</time></trkpt><trkpt lat="36.8970252" lon="15.0804535"><ele>94.0</ele><time>2026-04-04T06:16:24.286Z</time></trkpt><trkpt lat="36.8969983" lon="15.0805465"><ele>95.0</ele><time>2026-04-04T06:16:25.293Z</time></trkpt><trkpt lat="36.896962" lon="15.080617"><ele>96.0</ele><time>2026-04-04T06:16:26.293Z</time></trkpt><trkpt lat="36.8969129" lon="15.080687"><ele>96.99999999999999</ele><time>2026-04-04T06:16:27.285Z</time></trkpt><trkpt lat="36.8968671" lon="15.0807547"><ele>98.0</ele><time>2026-04-04T06:16:28.357Z</time></trkpt><trkpt lat="36.8968148" lon="15.0808435"><ele>99.4</ele><time>2026-04-04T06:16:30.296Z</time></trkpt><trkpt lat="36.8968492" lon="15.0809328"><ele>100.80000000000001</ele><time>2026-04-04T06:16:32.284Z</time></trkpt><trkpt lat="36.8969154" lon="15.0809838"><ele>102.2</ele><time>2026-04-04T06:16:33.277Z</time></trkpt><trkpt lat="36.8970123" lon="15.081052"><ele>103.6</ele><time>2026-04-04T06:16:34.284Z</time></trkpt><trkpt lat="36.8971231" lon="15.081155"><ele>105.0</ele><time>2026-04-04T06:16:35.298Z</time></trkpt><trkpt lat="36.8972475" lon="15.0812948"><ele>105.0</ele><time>2026-04-04T06:16:36.3Z</time></trkpt><trkpt lat="36.8973669" lon="15.0814244"><ele>105.0</ele><time>2026-04-04T06:16:37.297Z</time></trkpt><trkpt lat="36.8975188" lon="15.0815405"><ele>105.0</ele><time>2026-04-04T06:16:38.292Z</time></trkpt><trkpt lat="36.8976843" lon="15.0816331"><ele>108.0</ele><time>2026-04-04T06:16:39.304Z</time></trkpt><trkpt lat="36.8978557" lon="15.0817039"><ele>111.0</ele><time>2026-04-04T06:16:40.291Z</time></trkpt><trkpt lat="36.8980355" lon="15.0817704"><ele>114.0</ele><time>2026-04-04T06:16:41.298Z</time></trkpt><trkpt lat="36.8982101" lon="15.0818576"><ele>114.0</ele><time>2026-04-04T06:16:42.262Z</time></trkpt><trkpt lat="36.8983593" lon="15.0819418"><ele>114.0</ele><time>2026-04-04T06:16:43.291Z</time></trkpt><trkpt lat="36.8984753" lon="15.0820327"><ele>114.0</ele><time>2026-04-04T06:16:44.291Z</time></trkpt><trkpt lat="36.8985433" lon="15.0821527"><ele>114.0</ele><time>2026-04-04T06:16:45.287Z</time></trkpt><trkpt lat="36.8986095" lon="15.082299"><ele>115.0</ele><time>2026-04-04T06:16:46.287Z</time></trkpt><trkpt lat="36.89868" lon="15.0824505"><ele>116.0</ele><time>2026-04-04T06:16:47.276Z</time></trkpt><trkpt lat="36.8987583" lon="15.0826143"><ele>117.0</ele><time>2026-04-04T06:16:48.289Z</time></trkpt><trkpt lat="36.8988361" lon="15.0827793"><ele>118.0</ele><time>2026-04-04T06:16:49.286Z</time></trkpt><trkpt lat="36.8989085" lon="15.0829428"><ele>118.0</ele><time>2026-04-04T06:16:50.3Z</time></trkpt><trkpt lat="36.8989754" lon="15.0831141"><ele>118.0</ele><time>2026-04-04T06:16:51.288Z</time></trkpt><trkpt lat="36.8990359" lon="15.0832871"><ele>118.0</ele><time>2026-04-04T06:16:52.306Z</time></trkpt><trkpt lat="36.8990906" lon="15.0834626"><ele>122.0</ele><time>2026-04-04T06:16:53.298Z</time></trkpt><trkpt lat="36.8991278" lon="15.0836546"><ele>126.0</ele><time>2026-04-04T06:16:54.276Z</time></trkpt><trkpt lat="36.8991661" lon="15.0838465"><ele>130.0</ele><time>2026-04-04T06:16:55.294Z</time></trkpt><trkpt lat="36.8992229" lon="15.0840105"><ele>132.66666666666669</ele><time>2026-04-04T06:16:56.293Z</time></trkpt><trkpt lat="36.8993099" lon="15.0841579"><ele>135.33333333333334</ele><time>2026-04-04T06:16:57.287Z</time></trkpt><trkpt lat="36.8994236" lon="15.0842837"><ele>138.0</ele><time>2026-04-04T06:16:58.304Z</time></trkpt><trkpt lat="36.8995525" lon="15.0843881"><ele>138.0</ele><time>2026-04-04T06:16:59.29Z</time></trkpt><trkpt lat="36.8996826" lon="15.0844867"><ele>138.0</ele><time>2026-04-04T06:17:00.312Z</time></trkpt><trkpt lat="36.899809" lon="15.0845839"><ele>138.0</ele><time>2026-04-04T06:17:01.299Z</time></trkpt><trkpt lat="36.8999205" lon="15.084698"><ele>138.0</ele><time>2026-04-04T06:17:02.288Z</time></trkpt><trkpt lat="36.9000244" lon="15.0848237"><ele>139.0</ele><time>2026-04-04T06:17:03.295Z</time></trkpt><trkpt lat="36.9001248" lon="15.0849558"><ele>140.0</ele><time>2026-04-04T06:17:04.287Z</time></trkpt><trkpt lat="36.9002185" lon="15.0850898"><ele>141.0</ele><time>2026-04-04T06:17:05.278Z</time></trkpt><trkpt lat="36.9003115" lon="15.0852203"><ele>142.0</ele><time>2026-04-04T06:17:06.268Z</time></trkpt><trkpt lat="36.9004109" lon="15.0853498"><ele>142.0</ele><time>2026-04-04T06:17:07.292Z</time></trkpt><trkpt lat="36.9005196" lon="15.0854781"><ele>142.0</ele><time>2026-04-04T06:17:08.284Z</time></trkpt><trkpt lat="36.9006236" lon="15.0855951"><ele>142.0</ele><time>2026-04-04T06:17:09.286Z</time></trkpt><trkpt lat="36.9007257" lon="15.0856991"><ele>142.0</ele><time>2026-04-04T06:17:10.281Z</time></trkpt><trkpt lat="36.9008225" lon="15.0857902"><ele>140.4</ele><time>2026-04-04T06:17:11.297Z</time></trkpt><trkpt lat="36.9009129" lon="15.0858717"><ele>138.79999999999998</ele><time>2026-04-04T06:17:12.284Z</time></trkpt><trkpt lat="36.9009959" lon="15.085945"><ele>137.2</ele><time>2026-04-04T06:17:13.282Z</time></trkpt><trkpt lat="36.9010781" lon="15.0859978"><ele>135.6</ele><time>2026-04-04T06:17:14.276Z</time></trkpt><trkpt lat="36.9011447" lon="15.0860358"><ele>134.0</ele><time>2026-04-04T06:17:15.299Z</time></trkpt><trkpt lat="36.9012201" lon="15.0861033"><ele>133.8</ele><time>2026-04-04T06:17:17.295Z</time></trkpt><trkpt lat="36.9011905" lon="15.0861987"><ele>133.60000000000002</ele><time>2026-04-04T06:17:19.282Z</time></trkpt><trkpt lat="36.9011473" lon="15.0862675"><ele>133.4</ele><time>2026-04-04T06:17:20.418Z</time></trkpt><trkpt lat="36.9010176" lon="15.0864011"><ele>133.20000000000002</ele><time>2026-04-04T06:17:22.421Z</time></trkpt><trkpt lat="36.9009296" lon="15.0864881"><ele>133.0</ele><time>2026-04-04T06:17:23.339Z</time></trkpt><trkpt lat="36.9008413" lon="15.0865952"><ele>133.0</ele><time>2026-04-04T06:17:24.292Z</time></trkpt><trkpt lat="36.9007592" lon="15.0867021"><ele>133.0</ele><time>2026-04-04T06:17:25.352Z</time></trkpt><trkpt lat="36.9006808" lon="15.0868059"><ele>133.0</ele><time>2026-04-04T06:17:26.277Z</time></trkpt><trkpt lat="36.9005943" lon="15.0869079"><ele>133.0</ele><time>2026-04-04T06:17:27.305Z</time></trkpt><trkpt lat="36.9005095" lon="15.0870018"><ele>133.0</ele><time>2026-04-04T06:17:28.278Z</time></trkpt><trkpt lat="36.9004294" lon="15.0870902"><ele>133.0</ele><time>2026-04-04T06:17:29.297Z</time></trkpt><trkpt lat="36.9003681" lon="15.0871779"><ele>133.0</ele><time>2026-04-04T06:17:30.288Z</time></trkpt><trkpt lat="36.9003354" lon="15.0872678"><ele>133.0</ele><time>2026-04-04T06:17:31.262Z</time></trkpt><trkpt lat="36.9003216" lon="15.0873788"><ele>133.0</ele><time>2026-04-04T06:17:32.302Z</time></trkpt><trkpt lat="36.9003269" lon="15.087513"><ele>133.25</ele><time>2026-04-04T06:17:33.298Z</time></trkpt><trkpt lat="36.9003478" lon="15.0876772"><ele>133.5</ele><time>2026-04-04T06:17:34.304Z</time></trkpt><trkpt lat="36.9003733" lon="15.0878618"><ele>133.75</ele><time>2026-04-04T06:17:35.286Z</time></trkpt><trkpt lat="36.9004057" lon="15.0880479"><ele>134.0</ele><time>2026-04-04T06:17:36.272Z</time></trkpt><trkpt lat="36.9004419" lon="15.0882167"><ele>133.5</ele><time>2026-04-04T06:17:37.302Z</time></trkpt><trkpt lat="36.9004698" lon="15.0883733"><ele>133.0</ele><time>2026-04-04T06:17:38.295Z</time></trkpt><trkpt lat="36.9004913" lon="15.0885225"><ele>132.5</ele><time>2026-04-04T06:17:39.279Z</time></trkpt><trkpt lat="36.9004937" lon="15.0886614"><ele>132.0</ele><time>2026-04-04T06:17:40.285Z</time></trkpt><trkpt lat="36.9004909" lon="15.0888107"><ele>132.0</ele><time>2026-04-04T06:17:41.271Z</time></trkpt><trkpt lat="36.9004985" lon="15.0889664"><ele>132.0</ele><time>2026-04-04T06:17:42.284Z</time></trkpt><trkpt lat="36.9005186" lon="15.0891305"><ele>132.0</ele><time>2026-04-04T06:17:43.292Z</time></trkpt><trkpt lat="36.9005369" lon="15.0892887"><ele>132.0</ele><time>2026-04-04T06:17:44.297Z</time></trkpt><trkpt lat="36.9005572" lon="15.0894328"><ele>131.6</ele><time>2026-04-04T06:17:45.301Z</time></trkpt><trkpt lat="36.9005924" lon="15.0895634"><ele>131.2</ele><time>2026-04-04T06:17:46.261Z</time></trkpt><trkpt lat="36.9006363" lon="15.0896782"><ele>130.8</ele><time>2026-04-04T06:17:47.284Z</time></trkpt><trkpt lat="36.9006901" lon="15.0897844"><ele>130.4</ele><time>2026-04-04T06:17:48.289Z</time></trkpt><trkpt lat="36.900737" lon="15.089886"><ele>130.0</ele><time>2026-04-04T06:17:49.29Z</time></trkpt><trkpt lat="36.9007682" lon="15.0899887"><ele>129.33333333333334</ele><time>2026-04-04T06:17:50.298Z</time></trkpt><trkpt lat="36.9007858" lon="15.090089"><ele>128.66666666666669</ele><time>2026-04-04T06:17:51.276Z</time></trkpt><trkpt lat="36.9007976" lon="15.0901818"><ele>128.0</ele><time>2026-04-04T06:17:52.303Z</time></trkpt><trkpt lat="36.9007961" lon="15.0902866"><ele>127.33333333333334</ele><time>2026-04-04T06:17:53.318Z</time></trkpt><trkpt lat="36.900774" lon="15.0903948"><ele>126.66666666666667</ele><time>2026-04-04T06:17:54.256Z</time></trkpt><trkpt lat="36.900741" lon="15.0905098"><ele>126.0</ele><time>2026-04-04T06:17:55.416Z</time></trkpt><trkpt lat="36.9006196" lon="15.0907361"><ele>126.19999999999999</ele><time>2026-04-04T06:17:57.292Z</time></trkpt><trkpt lat="36.9005487" lon="15.0908549"><ele>126.39999999999999</ele><time>2026-04-04T06:17:58.272Z</time></trkpt><trkpt lat="36.9004786" lon="15.0909777"><ele>126.6</ele><time>2026-04-04T06:17:59.42Z</time></trkpt><trkpt lat="36.9004164" lon="15.0910935"><ele>126.8</ele><time>2026-04-04T06:18:00.355Z</time></trkpt><trkpt lat="36.9003655" lon="15.0911986"><ele>127.0</ele><time>2026-04-04T06:18:01.27Z</time></trkpt><trkpt lat="36.9003314" lon="15.0912936"><ele>127.0</ele><time>2026-04-04T06:18:02.293Z</time></trkpt><trkpt lat="36.9003119" lon="15.0913807"><ele>127.0</ele><time>2026-04-04T06:18:03.375Z</time></trkpt><trkpt lat="36.9002968" lon="15.0916068"><ele>127.0</ele><time>2026-04-04T06:18:05.361Z</time></trkpt><trkpt lat="36.9002989" lon="15.0917414"><ele>127.0</ele><time>2026-04-04T06:18:06.29Z</time></trkpt><trkpt lat="36.9003018" lon="15.0918739"><ele>127.8</ele><time>2026-04-04T06:18:07.434Z</time></trkpt><trkpt lat="36.9003029" lon="15.0920046"><ele>128.6</ele><time>2026-04-04T06:18:08.366Z</time></trkpt><trkpt lat="36.9003026" lon="15.092143"><ele>129.39999999999998</ele><time>2026-04-04T06:18:09.297Z</time></trkpt><trkpt lat="36.9002928" lon="15.0922653"><ele>130.2</ele><time>2026-04-04T06:18:10.302Z</time></trkpt><trkpt lat="36.9002712" lon="15.0923893"><ele>131.0</ele><time>2026-04-04T06:18:11.265Z</time></trkpt><trkpt lat="36.9002397" lon="15.0925134"><ele>131.0</ele><time>2026-04-04T06:18:12.296Z</time></trkpt><trkpt lat="36.9002031" lon="15.092644"><ele>131.0</ele><time>2026-04-04T06:18:13.297Z</time></trkpt><trkpt lat="36.9001718" lon="15.0927744"><ele>131.0</ele><time>2026-04-04T06:18:14.239Z</time></trkpt><trkpt lat="36.9001544" lon="15.0929195"><ele>131.0</ele><time>2026-04-04T06:18:15.251Z</time></trkpt><trkpt lat="36.900149" lon="15.0930819"><ele>130.75</ele><time>2026-04-04T06:18:16.262Z</time></trkpt><trkpt lat="36.9001557" lon="15.0932574"><ele>130.5</ele><time>2026-04-04T06:18:17.287Z</time></trkpt><trkpt lat="36.9001714" lon="15.0934453"><ele>130.25</ele><time>2026-04-04T06:18:18.258Z</time></trkpt><trkpt lat="36.9001833" lon="15.0936271"><ele>130.0</ele><time>2026-04-04T06:18:19.258Z</time></trkpt><trkpt lat="36.9001868" lon="15.0938098"><ele>130.0</ele><time>2026-04-04T06:18:20.261Z</time></trkpt><trkpt lat="36.9001795" lon="15.0939705"><ele>130.0</ele><time>2026-04-04T06:18:21.285Z</time></trkpt><trkpt lat="36.9001665" lon="15.0940918"><ele>130.0</ele><time>2026-04-04T06:18:22.255Z</time></trkpt><trkpt lat="36.9001476" lon="15.0941973"><ele>130.0</ele><time>2026-04-04T06:18:23.278Z</time></trkpt><trkpt lat="36.9001173" lon="15.0942778"><ele>130.0</ele><time>2026-04-04T06:18:24.277Z</time></trkpt><trkpt lat="36.9000581" lon="15.0943549"><ele>126.0</ele><time>2026-04-04T06:18:25.281Z</time></trkpt><trkpt lat="36.8999803" lon="15.0944368"><ele>122.0</ele><time>2026-04-04T06:18:26.289Z</time></trkpt><trkpt lat="36.8998866" lon="15.0945252"><ele>118.0</ele><time>2026-04-04T06:18:27.286Z</time></trkpt><trkpt lat="36.8997712" lon="15.0946227"><ele>114.0</ele><time>2026-04-04T06:18:28.289Z</time></trkpt><trkpt lat="36.8996513" lon="15.0947338"><ele>114.0</ele><time>2026-04-04T06:18:29.275Z</time></trkpt><trkpt lat="36.8995469" lon="15.0948575"><ele>114.0</ele><time>2026-04-04T06:18:30.306Z</time></trkpt><trkpt lat="36.8994431" lon="15.0949897"><ele>114.0</ele><time>2026-04-04T06:18:31.298Z</time></trkpt><trkpt lat="36.8993504" lon="15.0951494"><ele>114.66666666666666</ele><time>2026-04-04T06:18:32.292Z</time></trkpt><trkpt lat="36.8992587" lon="15.0953357"><ele>115.33333333333333</ele><time>2026-04-04T06:18:33.271Z</time></trkpt><trkpt lat="36.8991582" lon="15.0955315"><ele>116.0</ele><time>2026-04-04T06:18:34.276Z</time></trkpt><trkpt lat="36.8990662" lon="15.0956911"><ele>120.33333333333333</ele><time>2026-04-04T06:18:35.297Z</time></trkpt><trkpt lat="36.8989756" lon="15.0958361"><ele>124.66666666666666</ele><time>2026-04-04T06:18:36.313Z</time></trkpt><trkpt lat="36.8988703" lon="15.0959794"><ele>129.0</ele><time>2026-04-04T06:18:37.291Z</time></trkpt><trkpt lat="36.8987639" lon="15.0961156"><ele>129.0</ele><time>2026-04-04T06:18:38.45Z</time></trkpt><trkpt lat="36.8985312" lon="15.0963643"><ele>129.0</ele><time>2026-04-04T06:18:40.465Z</time></trkpt><trkpt lat="36.89833" lon="15.0965841"><ele>133.25</ele><time>2026-04-04T06:18:42.417Z</time></trkpt><trkpt lat="36.8982272" lon="15.0967378"><ele>137.5</ele><time>2026-04-04T06:18:44.261Z</time></trkpt><trkpt lat="36.8981282" lon="15.0968397"><ele>141.75</ele><time>2026-04-04T06:18:46.261Z</time></trkpt><trkpt lat="36.898052" lon="15.0968937"><ele>146.0</ele><time>2026-04-04T06:18:47.289Z</time></trkpt><trkpt lat="36.8979726" lon="15.0969365"><ele>146.0</ele><time>2026-04-04T06:18:48.305Z</time></trkpt><trkpt lat="36.8978815" lon="15.0969802"><ele>146.0</ele><time>2026-04-04T06:18:49.287Z</time></trkpt><trkpt lat="36.89778" lon="15.0970212"><ele>146.0</ele><time>2026-04-04T06:18:50.288Z</time></trkpt><trkpt lat="36.8976706" lon="15.0970545"><ele>146.0</ele><time>2026-04-04T06:18:51.294Z</time></trkpt><trkpt lat="36.8975456" lon="15.0970842"><ele>146.0</ele><time>2026-04-04T06:18:52.302Z</time></trkpt><trkpt lat="36.8974232" lon="15.0971262"><ele>145.8</ele><time>2026-04-04T06:18:53.29Z</time></trkpt><trkpt lat="36.8973091" lon="15.0971655"><ele>145.6</ele><time>2026-04-04T06:18:54.347Z</time></trkpt><trkpt lat="36.8972144" lon="15.0972055"><ele>145.4</ele><time>2026-04-04T06:18:55.291Z</time></trkpt><trkpt lat="36.8971171" lon="15.097227"><ele>145.2</ele><time>2026-04-04T06:18:56.343Z</time></trkpt><trkpt lat="36.8970151" lon="15.0972321"><ele>145.0</ele><time>2026-04-04T06:18:57.279Z</time></trkpt><trkpt lat="36.8969185" lon="15.0972231"><ele>145.0</ele><time>2026-04-04T06:18:58.318Z</time></trkpt><trkpt lat="36.8968274" lon="15.0971981"><ele>145.0</ele><time>2026-04-04T06:18:59.29Z</time></trkpt><trkpt lat="36.8967404" lon="15.0971696"><ele>145.0</ele><time>2026-04-04T06:19:00.261Z</time></trkpt><trkpt lat="36.8966473" lon="15.0971576"><ele>145.0</ele><time>2026-04-04T06:19:01.289Z</time></trkpt><trkpt lat="36.8965652" lon="15.0971588"><ele>145.0</ele><time>2026-04-04T06:19:02.295Z</time></trkpt><trkpt lat="36.8964996" lon="15.0971841"><ele>145.0</ele><time>2026-04-04T06:19:03.291Z</time></trkpt><trkpt lat="36.8964369" lon="15.0972137"><ele>144.16666666666669</ele><time>2026-04-04T06:19:04.312Z</time></trkpt><trkpt lat="36.8963839" lon="15.0972577"><ele>143.33333333333334</ele><time>2026-04-04T06:19:05.298Z</time></trkpt><trkpt lat="36.896322" lon="15.0973923"><ele>142.5</ele><time>2026-04-04T06:19:07.277Z</time></trkpt><trkpt lat="36.8963018" lon="15.0974825"><ele>141.66666666666666</ele><time>2026-04-04T06:19:08.285Z</time></trkpt><trkpt lat="36.896281" lon="15.0975719"><ele>140.83333333333331</ele><time>2026-04-04T06:19:09.292Z</time></trkpt><trkpt lat="36.8962549" lon="15.0976707"><ele>140.0</ele><time>2026-04-04T06:19:10.291Z</time></trkpt><trkpt lat="36.8962282" lon="15.0977651"><ele>137.16666666666666</ele><time>2026-04-04T06:19:11.241Z</time></trkpt><trkpt lat="36.8962067" lon="15.0978618"><ele>134.33333333333331</ele><time>2026-04-04T06:19:12.292Z</time></trkpt><trkpt lat="36.8961767" lon="15.0979602"><ele>131.5</ele><time>2026-04-04T06:19:13.289Z</time></trkpt><trkpt lat="36.8961566" lon="15.0980636"><ele>128.66666666666666</ele><time>2026-04-04T06:19:14.3Z</time></trkpt><trkpt lat="36.8961298" lon="15.0981612"><ele>125.83333333333333</ele><time>2026-04-04T06:19:15.296Z</time></trkpt><trkpt lat="36.8960925" lon="15.0982681"><ele>123.0</ele><time>2026-04-04T06:19:16.244Z</time></trkpt><trkpt lat="36.8960526" lon="15.0983786"><ele>120.83333333333333</ele><time>2026-04-04T06:19:17.282Z</time></trkpt><trkpt lat="36.8960159" lon="15.098477"><ele>118.66666666666666</ele><time>2026-04-04T06:19:18.261Z</time></trkpt><trkpt lat="36.895976" lon="15.09856"><ele>116.5</ele><time>2026-04-04T06:19:19.278Z</time></trkpt><trkpt lat="36.8959275" lon="15.0986425"><ele>114.33333333333333</ele><time>2026-04-04T06:19:20.351Z</time></trkpt><trkpt lat="36.8958625" lon="15.098714"><ele>112.16666666666666</ele><time>2026-04-04T06:19:21.289Z</time></trkpt><trkpt lat="36.8957855" lon="15.0987769"><ele>110.0</ele><time>2026-04-04T06:19:22.295Z</time></trkpt><trkpt lat="36.8957125" lon="15.0988386"><ele>108.2</ele><time>2026-04-04T06:19:23.261Z</time></trkpt><trkpt lat="36.8956572" lon="15.0989152"><ele>106.4</ele><time>2026-04-04T06:19:24.266Z</time></trkpt><trkpt lat="36.8956139" lon="15.0990186"><ele>104.6</ele><time>2026-04-04T06:19:25.301Z</time></trkpt><trkpt lat="36.8955781" lon="15.099146"><ele>102.8</ele><time>2026-04-04T06:19:26.291Z</time></trkpt><trkpt lat="36.8955567" lon="15.099278"><ele>101.0</ele><time>2026-04-04T06:19:27.289Z</time></trkpt><trkpt lat="36.8955593" lon="15.0994127"><ele>100.5</ele><time>2026-04-04T06:19:28.293Z</time></trkpt><trkpt lat="36.8955805" lon="15.0995516"><ele>100.0</ele><time>2026-04-04T06:19:29.293Z</time></trkpt><trkpt lat="36.8956193" lon="15.0996911"><ele>99.5</ele><time>2026-04-04T06:19:30.293Z</time></trkpt><trkpt lat="36.895668" lon="15.0998302"><ele>99.0</ele><time>2026-04-04T06:19:31.276Z</time></trkpt><trkpt lat="36.895713" lon="15.0999682"><ele>97.75</ele><time>2026-04-04T06:19:32.281Z</time></trkpt><trkpt lat="36.8957584" lon="15.1001174"><ele>96.5</ele><time>2026-04-04T06:19:33.298Z</time></trkpt><trkpt lat="36.8957888" lon="15.1002685"><ele>95.25</ele><time>2026-04-04T06:19:34.29Z</time></trkpt><trkpt lat="36.8958028" lon="15.1004263"><ele>94.0</ele><time>2026-04-04T06:19:35.293Z</time></trkpt><trkpt lat="36.8957963" lon="15.1005876"><ele>92.75</ele><time>2026-04-04T06:19:36.299Z</time></trkpt><trkpt lat="36.8957887" lon="15.1007557"><ele>91.5</ele><time>2026-04-04T06:19:37.3Z</time></trkpt><trkpt lat="36.8957727" lon="15.1009237"><ele>90.25</ele><time>2026-04-04T06:19:38.29Z</time></trkpt><trkpt lat="36.8957501" lon="15.1010989"><ele>89.0</ele><time>2026-04-04T06:19:39.289Z</time></trkpt><trkpt lat="36.8957152" lon="15.1012517"><ele>89.0</ele><time>2026-04-04T06:19:40.278Z</time></trkpt><trkpt lat="36.8956743" lon="15.1013867"><ele>89.0</ele><time>2026-04-04T06:19:41.278Z</time></trkpt><trkpt lat="36.8956345" lon="15.101512"><ele>89.0</ele><time>2026-04-04T06:19:42.292Z</time></trkpt><trkpt lat="36.895589" lon="15.1016196"><ele>89.0</ele><time>2026-04-04T06:19:43.293Z</time></trkpt><trkpt lat="36.8955427" lon="15.1017141"><ele>89.0</ele><time>2026-04-04T06:19:44.284Z</time></trkpt><trkpt lat="36.8954867" lon="15.1018046"><ele>88.5</ele><time>2026-04-04T06:19:45.279Z</time></trkpt><trkpt lat="36.895433" lon="15.1018832"><ele>88.0</ele><time>2026-04-04T06:19:46.313Z</time></trkpt><trkpt lat="36.8954042" lon="15.1019669"><ele>87.5</ele><time>2026-04-04T06:19:47.274Z</time></trkpt><trkpt lat="36.8953983" lon="15.1020633"><ele>87.0</ele><time>2026-04-04T06:19:48.303Z</time></trkpt><trkpt lat="36.8954097" lon="15.1021582"><ele>86.5</ele><time>2026-04-04T06:19:49.279Z</time></trkpt><trkpt lat="36.8954622" lon="15.1022719"><ele>86.0</ele><time>2026-04-04T06:19:50.288Z</time></trkpt><trkpt lat="36.8955537" lon="15.1024106"><ele>85.0</ele><time>2026-04-04T06:19:51.295Z</time></trkpt><trkpt lat="36.8956467" lon="15.1025411"><ele>84.0</ele><time>2026-04-04T06:19:52.296Z</time></trkpt><trkpt lat="36.8957386" lon="15.1026651"><ele>83.0</ele><time>2026-04-04T06:19:53.28Z</time></trkpt><trkpt lat="36.8958318" lon="15.102769"><ele>82.0</ele><time>2026-04-04T06:19:54.306Z</time></trkpt><trkpt lat="36.8959139" lon="15.1028833"><ele>82.0</ele><time>2026-04-04T06:19:55.296Z</time></trkpt><trkpt lat="36.8959922" lon="15.1029922"><ele>82.0</ele><time>2026-04-04T06:19:56.274Z</time></trkpt><trkpt lat="36.896072" lon="15.1031131"><ele>82.0</ele><time>2026-04-04T06:19:57.298Z</time></trkpt><trkpt lat="36.8961571" lon="15.1032481"><ele>82.0</ele><time>2026-04-04T06:19:58.299Z</time></trkpt><trkpt lat="36.896251" lon="15.1033885"><ele>81.0</ele><time>2026-04-04T06:19:59.287Z</time></trkpt><trkpt lat="36.8963429" lon="15.1035237"><ele>80.0</ele><time>2026-04-04T06:20:00.307Z</time></trkpt><trkpt lat="36.8964341" lon="15.103663"><ele>79.0</ele><time>2026-04-04T06:20:01.276Z</time></trkpt><trkpt lat="36.8965224" lon="15.1037981"><ele>78.0</ele><time>2026-04-04T06:20:02.271Z</time></trkpt><trkpt lat="36.8966089" lon="15.1039324"><ele>78.0</ele><time>2026-04-04T06:20:03.302Z</time></trkpt><trkpt lat="36.8966881" lon="15.1040656"><ele>78.0</ele><time>2026-04-04T06:20:04.293Z</time></trkpt><trkpt lat="36.8967656" lon="15.1041895"><ele>78.0</ele><time>2026-04-04T06:20:05.304Z</time></trkpt><trkpt lat="36.8968469" lon="15.1043027"><ele>78.0</ele><time>2026-04-04T06:20:06.299Z</time></trkpt><trkpt lat="36.8969342" lon="15.1043872"><ele>77.6</ele><time>2026-04-04T06:20:07.293Z</time></trkpt><trkpt lat="36.8970176" lon="15.1044692"><ele>77.19999999999999</ele><time>2026-04-04T06:20:08.273Z</time></trkpt><trkpt lat="36.897094" lon="15.1045418"><ele>76.8</ele><time>2026-04-04T06:20:09.299Z</time></trkpt><trkpt lat="36.8971783" lon="15.1046161"><ele>76.39999999999999</ele><time>2026-04-04T06:20:10.266Z</time></trkpt><trkpt lat="36.8972776" lon="15.1046658"><ele>76.0</ele><time>2026-04-04T06:20:11.297Z</time></trkpt><trkpt lat="36.8973756" lon="15.1047169"><ele>76.0</ele><time>2026-04-04T06:20:12.312Z</time></trkpt><trkpt lat="36.8974746" lon="15.1047635"><ele>76.0</ele><time>2026-04-04T06:20:13.3Z</time></trkpt><trkpt lat="36.8975655" lon="15.1048185"><ele>76.0</ele><time>2026-04-04T06:20:14.284Z</time></trkpt><trkpt lat="36.8976442" lon="15.1048813"><ele>76.0</ele><time>2026-04-04T06:20:15.284Z</time></trkpt><trkpt lat="36.8977189" lon="15.1049681"><ele>76.0</ele><time>2026-04-04T06:20:16.287Z</time></trkpt><trkpt lat="36.8977881" lon="15.1050877"><ele>76.25</ele><time>2026-04-04T06:20:17.289Z</time></trkpt><trkpt lat="36.897853" lon="15.1052311"><ele>76.5</ele><time>2026-04-04T06:20:18.292Z</time></trkpt><trkpt lat="36.8979216" lon="15.1053817"><ele>76.75</ele><time>2026-04-04T06:20:19.296Z</time></trkpt><trkpt lat="36.8979933" lon="15.105547"><ele>77.0</ele><time>2026-04-04T06:20:20.302Z</time></trkpt><trkpt lat="36.898064" lon="15.1057125"><ele>77.75</ele><time>2026-04-04T06:20:21.283Z</time></trkpt><trkpt lat="36.8981413" lon="15.1058734"><ele>78.5</ele><time>2026-04-04T06:20:22.286Z</time></trkpt><trkpt lat="36.8982029" lon="15.1060204"><ele>79.25</ele><time>2026-04-04T06:20:23.292Z</time></trkpt><trkpt lat="36.89826" lon="15.1061553"><ele>80.0</ele><time>2026-04-04T06:20:24.289Z</time></trkpt><trkpt lat="36.8983093" lon="15.1062837"><ele>80.0</ele><time>2026-04-04T06:20:25.295Z</time></trkpt><trkpt lat="36.8983572" lon="15.1064111"><ele>80.0</ele><time>2026-04-04T06:20:26.31Z</time></trkpt><trkpt lat="36.8984069" lon="15.106541"><ele>80.0</ele><time>2026-04-04T06:20:27.305Z</time></trkpt><trkpt lat="36.8984548" lon="15.1066599"><ele>80.0</ele><time>2026-04-04T06:20:28.294Z</time></trkpt><trkpt lat="36.8984989" lon="15.1067768"><ele>80.0</ele><time>2026-04-04T06:20:29.284Z</time></trkpt><trkpt lat="36.8985443" lon="15.1069006"><ele>81.25</ele><time>2026-04-04T06:20:30.299Z</time></trkpt><trkpt lat="36.8985968" lon="15.1070272"><ele>82.5</ele><time>2026-04-04T06:20:31.3Z</time></trkpt><trkpt lat="36.8986593" lon="15.1071617"><ele>83.75</ele><time>2026-04-04T06:20:32.291Z</time></trkpt><trkpt lat="36.8987425" lon="15.1072857"><ele>85.0</ele><time>2026-04-04T06:20:33.255Z</time></trkpt><trkpt lat="36.8988444" lon="15.1074044"><ele>84.5</ele><time>2026-04-04T06:20:34.285Z</time></trkpt><trkpt lat="36.8989429" lon="15.1075229"><ele>84.0</ele><time>2026-04-04T06:20:35.303Z</time></trkpt><trkpt lat="36.899041" lon="15.1076344"><ele>83.5</ele><time>2026-04-04T06:20:36.297Z</time></trkpt><trkpt lat="36.8991411" lon="15.1077323"><ele>83.0</ele><time>2026-04-04T06:20:37.292Z</time></trkpt><trkpt lat="36.8992392" lon="15.1078294"><ele>84.0</ele><time>2026-04-04T06:20:38.365Z</time></trkpt><trkpt lat="36.8993317" lon="15.1079246"><ele>85.0</ele><time>2026-04-04T06:20:39.297Z</time></trkpt><trkpt lat="36.8994274" lon="15.10802"><ele>86.0</ele><time>2026-04-04T06:20:40.287Z</time></trkpt><trkpt lat="36.8995267" lon="15.1081159"><ele>87.0</ele><time>2026-04-04T06:20:41.293Z</time></trkpt><trkpt lat="36.8996277" lon="15.1082109"><ele>85.75</ele><time>2026-04-04T06:20:42.285Z</time></trkpt><trkpt lat="36.8997345" lon="15.1083014"><ele>84.5</ele><time>2026-04-04T06:20:43.285Z</time></trkpt><trkpt lat="36.8998444" lon="15.1083949"><ele>83.25</ele><time>2026-04-04T06:20:44.286Z</time></trkpt><trkpt lat="36.8999478" lon="15.1084908"><ele>82.0</ele><time>2026-04-04T06:20:45.294Z</time></trkpt><trkpt lat="36.9000444" lon="15.1085892"><ele>83.0</ele><time>2026-04-04T06:20:46.307Z</time></trkpt><trkpt lat="36.9001326" lon="15.1086888"><ele>84.0</ele><time>2026-04-04T06:20:47.31Z</time></trkpt><trkpt lat="36.9002239" lon="15.1087811"><ele>85.0</ele><time>2026-04-04T06:20:48.292Z</time></trkpt><trkpt lat="36.9003171" lon="15.1088702"><ele>86.0</ele><time>2026-04-04T06:20:49.283Z</time></trkpt><trkpt lat="36.900417" lon="15.1089556"><ele>86.0</ele><time>2026-04-04T06:20:50.301Z</time></trkpt><trkpt lat="36.9005269" lon="15.1090415"><ele>86.0</ele><time>2026-04-04T06:20:51.295Z</time></trkpt><trkpt lat="36.9006315" lon="15.1091255"><ele>86.0</ele><time>2026-04-04T06:20:52.28Z</time></trkpt><trkpt lat="36.9007437" lon="15.109212"><ele>86.0</ele><time>2026-04-04T06:20:53.289Z</time></trkpt><trkpt lat="36.9008607" lon="15.1092905"><ele>84.75</ele><time>2026-04-04T06:20:54.272Z</time></trkpt><trkpt lat="36.9009833" lon="15.1093625"><ele>83.5</ele><time>2026-04-04T06:20:55.293Z</time></trkpt><trkpt lat="36.9011035" lon="15.1094391"><ele>82.25</ele><time>2026-04-04T06:20:56.31Z</time></trkpt><trkpt lat="36.9012202" lon="15.1095127"><ele>81.0</ele><time>2026-04-04T06:20:57.289Z</time></trkpt><trkpt lat="36.9013421" lon="15.1095989"><ele>81.0</ele><time>2026-04-04T06:20:58.316Z</time></trkpt><trkpt lat="36.901463" lon="15.1096828"><ele>81.0</ele><time>2026-04-04T06:20:59.299Z</time></trkpt><trkpt lat="36.901586" lon="15.1097681"><ele>81.0</ele><time>2026-04-04T06:21:00.308Z</time></trkpt><trkpt lat="36.9017025" lon="15.1098594"><ele>81.0</ele><time>2026-04-04T06:21:01.286Z</time></trkpt><trkpt lat="36.9018154" lon="15.1099522"><ele>80.5</ele><time>2026-04-04T06:21:02.308Z</time></trkpt><trkpt lat="36.9019277" lon="15.110049"><ele>80.0</ele><time>2026-04-04T06:21:03.299Z</time></trkpt><trkpt lat="36.9020355" lon="15.1101506"><ele>79.5</ele><time>2026-04-04T06:21:04.288Z</time></trkpt><trkpt lat="36.9021392" lon="15.1102625"><ele>79.0</ele><time>2026-04-04T06:21:05.306Z</time></trkpt><trkpt lat="36.9022425" lon="15.110372"><ele>79.0</ele><time>2026-04-04T06:21:06.308Z</time></trkpt><trkpt lat="36.9023459" lon="15.1104804"><ele>79.0</ele><time>2026-04-04T06:21:07.307Z</time></trkpt><trkpt lat="36.9024497" lon="15.1105891"><ele>79.0</ele><time>2026-04-04T06:21:08.304Z</time></trkpt><trkpt lat="36.9025673" lon="15.1106838"><ele>79.0</ele><time>2026-04-04T06:21:09.305Z</time></trkpt><trkpt lat="36.9026942" lon="15.1107747"><ele>78.25</ele><time>2026-04-04T06:21:10.318Z</time></trkpt><trkpt lat="36.9028202" lon="15.1108618"><ele>77.5</ele><time>2026-04-04T06:21:11.307Z</time></trkpt><trkpt lat="36.9029422" lon="15.1109478"><ele>76.75</ele><time>2026-04-04T06:21:12.305Z</time></trkpt><trkpt lat="36.9030545" lon="15.111029"><ele>76.0</ele><time>2026-04-04T06:21:13.297Z</time></trkpt><trkpt lat="36.9031669" lon="15.1111137"><ele>76.0</ele><time>2026-04-04T06:21:14.285Z</time></trkpt><trkpt lat="36.9032742" lon="15.1111925"><ele>76.0</ele><time>2026-04-04T06:21:15.291Z</time></trkpt><trkpt lat="36.9033817" lon="15.1112698"><ele>76.0</ele><time>2026-04-04T06:21:16.294Z</time></trkpt><trkpt lat="36.90348" lon="15.1113381"><ele>76.0</ele><time>2026-04-04T06:21:17.294Z</time></trkpt><trkpt lat="36.9035786" lon="15.111404"><ele>76.25</ele><time>2026-04-04T06:21:18.294Z</time></trkpt><trkpt lat="36.9036873" lon="15.1114715"><ele>76.5</ele><time>2026-04-04T06:21:19.295Z</time></trkpt><trkpt lat="36.903799" lon="15.1115491"><ele>76.75</ele><time>2026-04-04T06:21:20.284Z</time></trkpt><trkpt lat="36.9039165" lon="15.1116274"><ele>77.0</ele><time>2026-04-04T06:21:21.259Z</time></trkpt><trkpt lat="36.9040385" lon="15.1117064"><ele>77.0</ele><time>2026-04-04T06:21:22.294Z</time></trkpt><trkpt lat="36.9041637" lon="15.1118025"><ele>77.0</ele><time>2026-04-04T06:21:23.288Z</time></trkpt><trkpt lat="36.9042818" lon="15.1119068"><ele>77.0</ele><time>2026-04-04T06:21:24.293Z</time></trkpt><trkpt lat="36.9043966" lon="15.1120135"><ele>77.0</ele><time>2026-04-04T06:21:25.287Z</time></trkpt><trkpt lat="36.9045053" lon="15.1121402"><ele>77.75</ele><time>2026-04-04T06:21:26.288Z</time></trkpt><trkpt lat="36.9046122" lon="15.1122784"><ele>78.5</ele><time>2026-04-04T06:21:27.288Z</time></trkpt><trkpt lat="36.9047125" lon="15.1124143"><ele>79.25</ele><time>2026-04-04T06:21:28.295Z</time></trkpt><trkpt lat="36.9048144" lon="15.1125386"><ele>80.0</ele><time>2026-04-04T06:21:29.287Z</time></trkpt><trkpt lat="36.9049098" lon="15.1126639"><ele>80.0</ele><time>2026-04-04T06:21:30.294Z</time></trkpt><trkpt lat="36.9050061" lon="15.1127899"><ele>80.0</ele><time>2026-04-04T06:21:31.311Z</time></trkpt><trkpt lat="36.9051084" lon="15.1129158"><ele>80.0</ele><time>2026-04-04T06:21:32.298Z</time></trkpt><trkpt lat="36.9052168" lon="15.1130432"><ele>80.0</ele><time>2026-04-04T06:21:33.291Z</time></trkpt><trkpt lat="36.9053271" lon="15.1131714"><ele>78.66666666666667</ele><time>2026-04-04T06:21:34.31Z</time></trkpt><trkpt lat="36.9054363" lon="15.1133029"><ele>77.33333333333333</ele><time>2026-04-04T06:21:35.304Z</time></trkpt><trkpt lat="36.9055504" lon="15.1134327"><ele>76.0</ele><time>2026-04-04T06:21:36.293Z</time></trkpt><trkpt lat="36.9056706" lon="15.113561"><ele>76.0</ele><time>2026-04-04T06:21:37.257Z</time></trkpt><trkpt lat="36.9058004" lon="15.1136856"><ele>76.0</ele><time>2026-04-04T06:21:38.296Z</time></trkpt><trkpt lat="36.9059303" lon="15.1138061"><ele>76.0</ele><time>2026-04-04T06:21:39.302Z</time></trkpt><trkpt lat="36.9060559" lon="15.1139136"><ele>75.75</ele><time>2026-04-04T06:21:40.284Z</time></trkpt><trkpt lat="36.9061775" lon="15.1140187"><ele>75.5</ele><time>2026-04-04T06:21:41.276Z</time></trkpt><trkpt lat="36.9062905" lon="15.1141208"><ele>75.25</ele><time>2026-04-04T06:21:42.296Z</time></trkpt><trkpt lat="36.9063941" lon="15.1142184"><ele>75.0</ele><time>2026-04-04T06:21:43.286Z</time></trkpt><trkpt lat="36.9064881" lon="15.1143103"><ele>75.0</ele><time>2026-04-04T06:21:44.261Z</time></trkpt><trkpt lat="36.9065725" lon="15.1143977"><ele>75.0</ele><time>2026-04-04T06:21:45.299Z</time></trkpt><trkpt lat="36.906647" lon="15.1144962"><ele>75.0</ele><time>2026-04-04T06:21:46.293Z</time></trkpt><trkpt lat="36.9067171" lon="15.114595"><ele>75.0</ele><time>2026-04-04T06:21:47.293Z</time></trkpt><trkpt lat="36.9067727" lon="15.114686"><ele>75.0</ele><time>2026-04-04T06:21:48.277Z</time></trkpt><trkpt lat="36.9068219" lon="15.1147613"><ele>75.0</ele><time>2026-04-04T06:21:49.287Z</time></trkpt><trkpt lat="36.9068855" lon="15.1148119"><ele>75.0</ele><time>2026-04-04T06:21:50.29Z</time></trkpt><trkpt lat="36.9069585" lon="15.1148464"><ele>75.0</ele><time>2026-04-04T06:21:51.294Z</time></trkpt><trkpt lat="36.9070342" lon="15.114876"><ele>75.0</ele><time>2026-04-04T06:21:52.291Z</time></trkpt><trkpt lat="36.9071243" lon="15.114922"><ele>75.0</ele><time>2026-04-04T06:21:53.265Z</time></trkpt><trkpt lat="36.9072267" lon="15.1149757"><ele>75.0</ele><time>2026-04-04T06:21:54.29Z</time></trkpt><trkpt lat="36.9073411" lon="15.1150212"><ele>75.0</ele><time>2026-04-04T06:21:55.287Z</time></trkpt><trkpt lat="36.9074739" lon="15.1150662"><ele>75.0</ele><time>2026-04-04T06:21:56.294Z</time></trkpt><trkpt lat="36.907621" lon="15.1151105"><ele>75.0</ele><time>2026-04-04T06:21:57.297Z</time></trkpt><trkpt lat="36.9077736" lon="15.1151582"><ele>75.0</ele><time>2026-04-04T06:21:58.272Z</time></trkpt><trkpt lat="36.9079342" lon="15.1152025"><ele>76.66666666666667</ele><time>2026-04-04T06:21:59.276Z</time></trkpt><trkpt lat="36.908091" lon="15.1152507"><ele>78.33333333333334</ele><time>2026-04-04T06:22:00.295Z</time></trkpt><trkpt lat="36.9082545" lon="15.1153049"><ele>80.0</ele><time>2026-04-04T06:22:01.304Z</time></trkpt><trkpt lat="36.908408" lon="15.1153653"><ele>81.0</ele><time>2026-04-04T06:22:02.296Z</time></trkpt><trkpt lat="36.90855" lon="15.1154224"><ele>82.0</ele><time>2026-04-04T06:22:03.289Z</time></trkpt><trkpt lat="36.9086844" lon="15.1154814"><ele>83.0</ele><time>2026-04-04T06:22:04.287Z</time></trkpt><trkpt lat="36.9088216" lon="15.1155435"><ele>84.0</ele><time>2026-04-04T06:22:05.295Z</time></trkpt><trkpt lat="36.9089577" lon="15.115608"><ele>84.0</ele><time>2026-04-04T06:22:06.253Z</time></trkpt><trkpt lat="36.9090896" lon="15.1156709"><ele>84.0</ele><time>2026-04-04T06:22:07.292Z</time></trkpt><trkpt lat="36.9092203" lon="15.115727"><ele>84.0</ele><time>2026-04-04T06:22:08.291Z</time></trkpt><trkpt lat="36.9093469" lon="15.1157684"><ele>84.0</ele><time>2026-04-04T06:22:09.279Z</time></trkpt><trkpt lat="36.9094858" lon="15.11579"><ele>84.0</ele><time>2026-04-04T06:22:10.258Z</time></trkpt><trkpt lat="36.9096281" lon="15.1158023"><ele>84.0</ele><time>2026-04-04T06:22:11.278Z</time></trkpt><trkpt lat="36.909772" lon="15.1158096"><ele>84.0</ele><time>2026-04-04T06:22:12.312Z</time></trkpt><trkpt lat="36.9099166" lon="15.1158016"><ele>84.0</ele><time>2026-04-04T06:22:13.278Z</time></trkpt><trkpt lat="36.9100532" lon="15.1157874"><ele>84.5</ele><time>2026-04-04T06:22:14.289Z</time></trkpt><trkpt lat="36.9101839" lon="15.1157641"><ele>85.0</ele><time>2026-04-04T06:22:15.287Z</time></trkpt><trkpt lat="36.9103068" lon="15.115735"><ele>85.5</ele><time>2026-04-04T06:22:16.301Z</time></trkpt><trkpt lat="36.9104292" lon="15.1157148"><ele>86.0</ele><time>2026-04-04T06:22:17.286Z</time></trkpt><trkpt lat="36.9105402" lon="15.1156935"><ele>86.0</ele><time>2026-04-04T06:22:18.288Z</time></trkpt><trkpt lat="36.9106346" lon="15.1156699"><ele>86.0</ele><time>2026-04-04T06:22:19.275Z</time></trkpt><trkpt lat="36.9107127" lon="15.1156675"><ele>86.0</ele><time>2026-04-04T06:22:20.299Z</time></trkpt><trkpt lat="36.9107768" lon="15.1156847"><ele>86.0</ele><time>2026-04-04T06:22:21.279Z</time></trkpt><trkpt lat="36.9108757" lon="15.1157535"><ele>86.0</ele><time>2026-04-04T06:22:23.258Z</time></trkpt><trkpt lat="36.910938" lon="15.1158565"><ele>85.16666666666667</ele><time>2026-04-04T06:22:25.285Z</time></trkpt><trkpt lat="36.9110015" lon="15.1159033"><ele>84.33333333333334</ele><time>2026-04-04T06:22:29.28Z</time></trkpt><trkpt lat="36.9110698" lon="15.1158938"><ele>83.5</ele><time>2026-04-04T06:23:12.265Z</time></trkpt><trkpt lat="36.911145" lon="15.1158641"><ele>82.66666666666667</ele><time>2026-04-04T06:23:14.286Z</time></trkpt><trkpt lat="36.9112119" lon="15.1158426"><ele>81.83333333333333</ele><time>2026-04-04T06:23:15.282Z</time></trkpt><trkpt lat="36.9112934" lon="15.1158006"><ele>81.0</ele><time>2026-04-04T06:23:16.276Z</time></trkpt><trkpt lat="36.9113815" lon="15.1157488"><ele>81.33333333333333</ele><time>2026-04-04T06:23:17.307Z</time></trkpt><trkpt lat="36.9114635" lon="15.1156978"><ele>81.66666666666667</ele><time>2026-04-04T06:23:18.277Z</time></trkpt><trkpt lat="36.9115269" lon="15.1156408"><ele>82.0</ele><time>2026-04-04T06:23:19.303Z</time></trkpt><trkpt lat="36.9115909" lon="15.1155859"><ele>82.33333333333334</ele><time>2026-04-04T06:23:20.256Z</time></trkpt><trkpt lat="36.9116376" lon="15.1155286"><ele>82.66666666666667</ele><time>2026-04-04T06:23:21.266Z</time></trkpt><trkpt lat="36.9117042" lon="15.1154509"><ele>83.0</ele><time>2026-04-04T06:23:23.303Z</time></trkpt><trkpt lat="36.9117763" lon="15.1153786"><ele>83.80000000000001</ele><time>2026-04-04T06:23:25.28Z</time></trkpt><trkpt lat="36.9118714" lon="15.1152532"><ele>84.6</ele><time>2026-04-04T06:23:27.3Z</time></trkpt><trkpt lat="36.9119327" lon="15.1151748"><ele>85.4</ele><time>2026-04-04T06:23:28.256Z</time></trkpt><trkpt lat="36.9119871" lon="15.1150951"><ele>86.19999999999999</ele><time>2026-04-04T06:23:29.283Z</time></trkpt><trkpt lat="36.9120433" lon="15.1150081"><ele>87.0</ele><time>2026-04-04T06:23:30.259Z</time></trkpt><trkpt lat="36.9121008" lon="15.1149264"><ele>87.16666666666667</ele><time>2026-04-04T06:23:31.275Z</time></trkpt><trkpt lat="36.9121611" lon="15.1148406"><ele>87.33333333333333</ele><time>2026-04-04T06:23:32.299Z</time></trkpt><trkpt lat="36.9122082" lon="15.11477"><ele>87.5</ele><time>2026-04-04T06:23:33.269Z</time></trkpt><trkpt lat="36.912243" lon="15.114684"><ele>87.66666666666666</ele><time>2026-04-04T06:23:35.273Z</time></trkpt><trkpt lat="36.9122962" lon="15.1145993"><ele>87.83333333333333</ele><time>2026-04-04T06:23:38.42Z</time></trkpt><trkpt lat="36.9123603" lon="15.1145203"><ele>88.0</ele><time>2026-04-04T06:23:40.268Z</time></trkpt><trkpt lat="36.9124133" lon="15.1144462"><ele>88.0</ele><time>2026-04-04T06:23:42.285Z</time></trkpt><trkpt lat="36.9124859" lon="15.1143836"><ele>88.0</ele><time>2026-04-04T06:23:46.28Z</time></trkpt><trkpt lat="36.9125265" lon="15.1143125"><ele>88.0</ele><time>2026-04-04T06:23:50.278Z</time></trkpt><trkpt lat="36.9125671" lon="15.1142441"><ele>88.0</ele><time>2026-04-04T06:23:52.277Z</time></trkpt><trkpt lat="36.912581" lon="15.1141571"><ele>88.0</ele><time>2026-04-04T06:23:54.287Z</time></trkpt><trkpt lat="36.9126245" lon="15.1140678"><ele>88.0</ele><time>2026-04-04T06:23:57.286Z</time></trkpt><trkpt lat="36.9126577" lon="15.1139831"><ele>88.33333333333333</ele><time>2026-04-04T06:23:59.307Z</time></trkpt><trkpt lat="36.9127006" lon="15.1138694"><ele>88.66666666666666</ele><time>2026-04-04T06:24:01.276Z</time></trkpt><trkpt lat="36.9127278" lon="15.1137775"><ele>89.0</ele><time>2026-04-04T06:24:03.262Z</time></trkpt><trkpt lat="36.9127546" lon="15.1136932"><ele>89.33333333333333</ele><time>2026-04-04T06:24:05.293Z</time></trkpt><trkpt lat="36.9127974" lon="15.1136138"><ele>89.66666666666667</ele><time>2026-04-04T06:24:07.276Z</time></trkpt><trkpt lat="36.9128351" lon="15.1135212"><ele>90.0</ele><time>2026-04-04T06:24:09.266Z</time></trkpt><trkpt lat="36.9128915" lon="15.1134179"><ele>90.0</ele><time>2026-04-04T06:24:11.283Z</time></trkpt><trkpt lat="36.9129363" lon="15.1133349"><ele>90.0</ele><time>2026-04-04T06:24:13.27Z</time></trkpt><trkpt lat="36.9129522" lon="15.1132523"><ele>90.0</ele><time>2026-04-04T06:24:16.284Z</time></trkpt><trkpt lat="36.9129806" lon="15.113154"><ele>90.0</ele><time>2026-04-04T06:24:19.28Z</time></trkpt><trkpt lat="36.913008" lon="15.1130591"><ele>90.0</ele><time>2026-04-04T06:24:22.36Z</time></trkpt><trkpt lat="36.9130631" lon="15.1130144"><ele>90.0</ele><time>2026-04-04T06:25:17.272Z</time></trkpt><trkpt lat="36.9130786" lon="15.1129328"><ele>90.0</ele><time>2026-04-04T06:26:05.278Z</time></trkpt><trkpt lat="36.9131231" lon="15.1128468"><ele>90.66666666666667</ele><time>2026-04-04T06:26:09.267Z</time></trkpt><trkpt lat="36.9131761" lon="15.1127709"><ele>91.33333333333333</ele><time>2026-04-04T06:26:11.28Z</time></trkpt><trkpt lat="36.91324" lon="15.1126945"><ele>92.0</ele><time>2026-04-04T06:26:13.282Z</time></trkpt><trkpt lat="36.9132987" lon="15.1126284"><ele>92.66666666666666</ele><time>2026-04-04T06:26:15.282Z</time></trkpt><trkpt lat="36.9133878" lon="15.1126177"><ele>93.33333333333333</ele><time>2026-04-04T06:26:19.278Z</time></trkpt><trkpt lat="36.9134526" lon="15.1126103"><ele>94.0</ele><time>2026-04-04T06:26:21.275Z</time></trkpt><trkpt lat="36.9135334" lon="15.1126143"><ele>94.0</ele><time>2026-04-04T06:26:23.27Z</time></trkpt><trkpt lat="36.9136188" lon="15.1126156"><ele>94.0</ele><time>2026-04-04T06:26:25.281Z</time></trkpt><trkpt lat="36.913709" lon="15.112644"><ele>94.0</ele><time>2026-04-04T06:26:28.27Z</time></trkpt><trkpt lat="36.9137714" lon="15.1126991"><ele>94.0</ele><time>2026-04-04T06:26:30.279Z</time></trkpt><trkpt lat="36.9138372" lon="15.1127789"><ele>94.0</ele><time>2026-04-04T06:26:32.283Z</time></trkpt><trkpt lat="36.9139276" lon="15.1128552"><ele>94.0</ele><time>2026-04-04T06:26:34.255Z</time></trkpt><trkpt lat="36.91401" lon="15.1129137"><ele>94.0</ele><time>2026-04-04T06:26:36.285Z</time></trkpt><trkpt lat="36.9141059" lon="15.1129855"><ele>94.0</ele><time>2026-04-04T06:26:38.272Z</time></trkpt><trkpt lat="36.9141766" lon="15.1130839"><ele>94.0</ele><time>2026-04-04T06:26:40.276Z</time></trkpt><trkpt lat="36.9142469" lon="15.1131536"><ele>94.0</ele><time>2026-04-04T06:26:43.279Z</time></trkpt><trkpt lat="36.9143197" lon="15.1131347"><ele>94.5</ele><time>2026-04-04T06:26:45.285Z</time></trkpt><trkpt lat="36.9144135" lon="15.1130617"><ele>95.0</ele><time>2026-04-04T06:26:47.266Z</time></trkpt><trkpt lat="36.9144812" lon="15.1130211"><ele>95.5</ele><time>2026-04-04T06:26:49.266Z</time></trkpt><trkpt lat="36.9145288" lon="15.1129231"><ele>96.0</ele><time>2026-04-04T06:26:52.282Z</time></trkpt><trkpt lat="36.914572" lon="15.1128582"><ele>96.50000000000001</ele><time>2026-04-04T06:26:54.278Z</time></trkpt><trkpt lat="36.9146256" lon="15.1127611"><ele>97.0</ele><time>2026-04-04T06:26:57.299Z</time></trkpt><trkpt lat="36.9146622" lon="15.1126663"><ele>97.0</ele><time>2026-04-04T06:26:59.306Z</time></trkpt><trkpt lat="36.9146856" lon="15.1125545"><ele>97.0</ele><time>2026-04-04T06:27:01.294Z</time></trkpt><trkpt lat="36.9147328" lon="15.1124506"><ele>97.0</ele><time>2026-04-04T06:27:03.267Z</time></trkpt><trkpt lat="36.9147727" lon="15.1123497"><ele>97.0</ele><time>2026-04-04T06:27:05.291Z</time></trkpt><trkpt lat="36.9148432" lon="15.1122684"><ele>97.0</ele><time>2026-04-04T06:27:07.29Z</time></trkpt><trkpt lat="36.9149188" lon="15.112199"><ele>96.83333333333334</ele><time>2026-04-04T06:27:09.305Z</time></trkpt><trkpt lat="36.9150075" lon="15.1121423"><ele>96.66666666666667</ele><time>2026-04-04T06:27:11.281Z</time></trkpt><trkpt lat="36.9150656" lon="15.1120833"><ele>96.5</ele><time>2026-04-04T06:27:13.276Z</time></trkpt><trkpt lat="36.9151167" lon="15.1120097"><ele>96.33333333333334</ele><time>2026-04-04T06:27:15.274Z</time></trkpt><trkpt lat="36.9151597" lon="15.1119373"><ele>96.16666666666667</ele><time>2026-04-04T06:27:17.284Z</time></trkpt><trkpt lat="36.9151526" lon="15.1118523"><ele>96.0</ele><time>2026-04-04T06:27:19.281Z</time></trkpt><trkpt lat="36.915133" lon="15.1117291"><ele>96.5</ele><time>2026-04-04T06:27:21.29Z</time></trkpt><trkpt lat="36.9151109" lon="15.1115912"><ele>97.0</ele><time>2026-04-04T06:27:23.246Z</time></trkpt><trkpt lat="36.9150925" lon="15.1115062"><ele>97.5</ele><time>2026-04-04T06:27:25.277Z</time></trkpt><trkpt lat="36.915094" lon="15.1114119"><ele>98.0</ele><time>2026-04-04T06:27:28.25Z</time></trkpt><trkpt lat="36.915111" lon="15.1113339"><ele>98.5</ele><time>2026-04-04T06:27:33.274Z</time></trkpt><trkpt lat="36.9151521" lon="15.1112622"><ele>99.0</ele><time>2026-04-04T06:27:39.279Z</time></trkpt><trkpt lat="36.9151711" lon="15.1111673"><ele>99.0</ele><time>2026-04-04T06:27:46.292Z</time></trkpt><trkpt lat="36.9151985" lon="15.1110847"><ele>99.0</ele><time>2026-04-04T06:28:00.272Z</time></trkpt><trkpt lat="36.915185" lon="15.1109962"><ele>99.0</ele><time>2026-04-04T06:28:07.274Z</time></trkpt><trkpt lat="36.9152187" lon="15.1109269"><ele>99.0</ele><time>2026-04-04T06:28:15.268Z</time></trkpt><trkpt lat="36.9152599" lon="15.110859"><ele>99.0</ele><time>2026-04-04T06:28:20.264Z</time></trkpt><trkpt lat="36.915266" lon="15.1107763"><ele>99.0</ele><time>2026-04-04T06:28:26.278Z</time></trkpt><trkpt lat="36.9153299" lon="15.1107527"><ele>99.0</ele><time>2026-04-04T06:28:29.256Z</time></trkpt><trkpt lat="36.9153922" lon="15.1107357"><ele>99.0</ele><time>2026-04-04T06:28:33.275Z</time></trkpt><trkpt lat="36.9154644" lon="15.1107642"><ele>99.0</ele><time>2026-04-04T06:28:44.278Z</time></trkpt><trkpt lat="36.9155294" lon="15.1108111"><ele>99.0</ele><time>2026-04-04T06:28:49.279Z</time></trkpt><trkpt lat="36.9155643" lon="15.1109001"><ele>99.0</ele><time>2026-04-04T06:28:53.261Z</time></trkpt><trkpt lat="36.9155921" lon="15.1109949"><ele>99.0</ele><time>2026-04-04T06:28:56.244Z</time></trkpt><trkpt lat="36.9156482" lon="15.1110569"><ele>99.0</ele><time>2026-04-04T06:28:59.281Z</time></trkpt><trkpt lat="36.9157535" lon="15.1110691"><ele>99.0</ele><time>2026-04-04T06:29:34.254Z</time></trkpt><trkpt lat="36.9158595" lon="15.111103"><ele>99.0</ele><time>2026-04-04T06:29:37.268Z</time></trkpt><trkpt lat="36.9159302" lon="15.1111454"><ele>99.0</ele><time>2026-04-04T06:29:39.269Z</time></trkpt><trkpt lat="36.9159919" lon="15.1111933"><ele>99.0</ele><time>2026-04-04T06:29:41.282Z</time></trkpt><trkpt lat="36.9161063" lon="15.1112239"><ele>99.0</ele><time>2026-04-04T06:29:43.292Z</time></trkpt><trkpt lat="36.9162299" lon="15.1112596"><ele>100.4</ele><time>2026-04-04T06:29:45.289Z</time></trkpt><trkpt lat="36.916297" lon="15.111279"><ele>101.80000000000001</ele><time>2026-04-04T06:29:46.291Z</time></trkpt><trkpt lat="36.9164063" lon="15.1113427"><ele>103.19999999999999</ele><time>2026-04-04T06:29:48.258Z</time></trkpt><trkpt lat="36.9165034" lon="15.1114016"><ele>104.6</ele><time>2026-04-04T06:29:50.257Z</time></trkpt><trkpt lat="36.916616" lon="15.1114582"><ele>106.0</ele><time>2026-04-04T06:29:52.306Z</time></trkpt><trkpt lat="36.9167356" lon="15.111494"><ele>106.0</ele><time>2026-04-04T06:29:54.298Z</time></trkpt><trkpt lat="36.9168423" lon="15.1114964"><ele>106.0</ele><time>2026-04-04T06:29:56.27Z</time></trkpt><trkpt lat="36.916935" lon="15.1115213"><ele>106.0</ele><time>2026-04-04T06:29:58.275Z</time></trkpt><trkpt lat="36.9170317" lon="15.1115487"><ele>106.0</ele><time>2026-04-04T06:30:00.298Z</time></trkpt><trkpt lat="36.9171329" lon="15.1116099"><ele>106.0</ele><time>2026-04-04T06:30:02.29Z</time></trkpt><trkpt lat="36.9172125" lon="15.1116374"><ele>106.00000000000001</ele><time>2026-04-04T06:30:04.302Z</time></trkpt><trkpt lat="36.9173019" lon="15.1116388"><ele>106.0</ele><time>2026-04-04T06:30:06.282Z</time></trkpt><trkpt lat="36.9173879" lon="15.1115917"><ele>106.0</ele><time>2026-04-04T06:30:08.297Z</time></trkpt><trkpt lat="36.9174543" lon="15.111515"><ele>106.0</ele><time>2026-04-04T06:30:10.254Z</time></trkpt><trkpt lat="36.9174968" lon="15.111427"><ele>106.00000000000001</ele><time>2026-04-04T06:30:12.273Z</time></trkpt><trkpt lat="36.917539" lon="15.111347"><ele>106.0</ele><time>2026-04-04T06:30:15.28Z</time></trkpt><trkpt lat="36.9176341" lon="15.1112071"><ele>106.8</ele><time>2026-04-04T06:30:18.275Z</time></trkpt><trkpt lat="36.9177064" lon="15.1111072"><ele>107.6</ele><time>2026-04-04T06:30:20.3Z</time></trkpt><trkpt lat="36.9178054" lon="15.1110375"><ele>108.4</ele><time>2026-04-04T06:30:22.281Z</time></trkpt><trkpt lat="36.9178899" lon="15.1109831"><ele>109.2</ele><time>2026-04-04T06:30:24.291Z</time></trkpt><trkpt lat="36.9179851" lon="15.1109416"><ele>110.0</ele><time>2026-04-04T06:30:26.296Z</time></trkpt><trkpt lat="36.9180518" lon="15.1109219"><ele>110.0</ele><time>2026-04-04T06:30:28.278Z</time></trkpt><trkpt lat="36.9181364" lon="15.1109147"><ele>110.0</ele><time>2026-04-04T06:30:31.288Z</time></trkpt><trkpt lat="36.9182519" lon="15.1108944"><ele>110.0</ele><time>2026-04-04T06:30:33.293Z</time></trkpt><trkpt lat="36.9183237" lon="15.1108838"><ele>110.0</ele><time>2026-04-04T06:30:34.283Z</time></trkpt><trkpt lat="36.9184418" lon="15.1108666"><ele>110.0</ele><time>2026-04-04T06:30:36.292Z</time></trkpt><trkpt lat="36.9185467" lon="15.1108717"><ele>110.66666666666666</ele><time>2026-04-04T06:30:38.289Z</time></trkpt><trkpt lat="36.9186307" lon="15.1108722"><ele>111.33333333333333</ele><time>2026-04-04T06:30:40.301Z</time></trkpt><trkpt lat="36.9186953" lon="15.1109069"><ele>112.0</ele><time>2026-04-04T06:30:43.286Z</time></trkpt><trkpt lat="36.9187291" lon="15.1110126"><ele>112.66666666666666</ele><time>2026-04-04T06:30:46.256Z</time></trkpt><trkpt lat="36.9187283" lon="15.1110974"><ele>113.33333333333333</ele><time>2026-04-04T06:30:48.261Z</time></trkpt><trkpt lat="36.9187386" lon="15.1111876"><ele>114.0</ele><time>2026-04-04T06:30:50.257Z</time></trkpt><trkpt lat="36.9187347" lon="15.111299"><ele>114.0</ele><time>2026-04-04T06:30:53.301Z</time></trkpt><trkpt lat="36.9187346" lon="15.1113926"><ele>114.0</ele><time>2026-04-04T06:30:55.273Z</time></trkpt><trkpt lat="36.9187303" lon="15.1114823"><ele>114.0</ele><time>2026-04-04T06:30:57.271Z</time></trkpt><trkpt lat="36.9187197" lon="15.1115934"><ele>114.0</ele><time>2026-04-04T06:30:59.288Z</time></trkpt><trkpt lat="36.9187628" lon="15.1116771"><ele>114.0</ele><time>2026-04-04T06:31:03.298Z</time></trkpt><trkpt lat="36.9188199" lon="15.1117181"><ele>114.0</ele><time>2026-04-04T06:31:06.256Z</time></trkpt><trkpt lat="36.9188946" lon="15.1117464"><ele>114.0</ele><time>2026-04-04T06:31:08.263Z</time></trkpt><trkpt lat="36.919003" lon="15.1117948"><ele>114.0</ele><time>2026-04-04T06:31:10.3Z</time></trkpt><trkpt lat="36.9190659" lon="15.1118189"><ele>114.0</ele><time>2026-04-04T06:31:11.262Z</time></trkpt><trkpt lat="36.9191286" lon="15.1118335"><ele>114.0</ele><time>2026-04-04T06:31:12.28Z</time></trkpt><trkpt lat="36.919192" lon="15.11186"><ele>114.0</ele><time>2026-04-04T06:31:13.284Z</time></trkpt><trkpt lat="36.9193087" lon="15.1119035"><ele>114.0</ele><time>2026-04-04T06:31:15.277Z</time></trkpt><trkpt lat="36.9194301" lon="15.1119397"><ele>114.0</ele><time>2026-04-04T06:31:17.281Z</time></trkpt><trkpt lat="36.9194922" lon="15.1119535"><ele>114.0</ele><time>2026-04-04T06:31:18.283Z</time></trkpt><trkpt lat="36.9196095" lon="15.1119623"><ele>114.0</ele><time>2026-04-04T06:31:20.296Z</time></trkpt><trkpt lat="36.9197079" lon="15.1119376"><ele>114.0</ele><time>2026-04-04T06:31:22.25Z</time></trkpt><trkpt lat="36.9197771" lon="15.1119963"><ele>114.0</ele><time>2026-04-04T06:31:26.283Z</time></trkpt><trkpt lat="36.9197449" lon="15.1120936"><ele>114.0</ele><time>2026-04-04T06:32:10.28Z</time></trkpt><trkpt lat="36.9197381" lon="15.1122345"><ele>114.0</ele><time>2026-04-04T06:32:12.278Z</time></trkpt><trkpt lat="36.9197509" lon="15.1123829"><ele>114.0</ele><time>2026-04-04T06:32:14.292Z</time></trkpt><trkpt lat="36.9197739" lon="15.1125344"><ele>114.0</ele><time>2026-04-04T06:32:16.289Z</time></trkpt><trkpt lat="36.9197902" lon="15.1126137"><ele>114.0</ele><time>2026-04-04T06:32:17.278Z</time></trkpt><trkpt lat="36.9198088" lon="15.1127677"><ele>114.0</ele><time>2026-04-04T06:32:19.294Z</time></trkpt><trkpt lat="36.9198451" lon="15.1128393"><ele>113.83333333333333</ele><time>2026-04-04T06:32:21.266Z</time></trkpt><trkpt lat="36.9198958" lon="15.1129046"><ele>113.66666666666666</ele><time>2026-04-04T06:32:25.281Z</time></trkpt><trkpt lat="36.9199607" lon="15.1128898"><ele>113.5</ele><time>2026-04-04T06:32:27.269Z</time></trkpt><trkpt lat="36.9200492" lon="15.1128918"><ele>113.33333333333333</ele><time>2026-04-04T06:36:16.26Z</time></trkpt><trkpt lat="36.920123" lon="15.1128812"><ele>113.16666666666666</ele><time>2026-04-04T06:36:17.288Z</time></trkpt><trkpt lat="36.9202204" lon="15.1128653"><ele>113.0</ele><time>2026-04-04T06:36:18.287Z</time></trkpt><trkpt lat="36.9203233" lon="15.1128456"><ele>115.25</ele><time>2026-04-04T06:36:19.286Z</time></trkpt><trkpt lat="36.9204434" lon="15.1128152"><ele>117.5</ele><time>2026-04-04T06:36:20.288Z</time></trkpt><trkpt lat="36.9205705" lon="15.1127836"><ele>119.75</ele><time>2026-04-04T06:36:21.273Z</time></trkpt><trkpt lat="36.920681" lon="15.1127531"><ele>122.0</ele><time>2026-04-04T06:36:22.277Z</time></trkpt><trkpt lat="36.9207837" lon="15.112722"><ele>122.0</ele><time>2026-04-04T06:36:23.281Z</time></trkpt><trkpt lat="36.9208837" lon="15.1127018"><ele>121.99999999999999</ele><time>2026-04-04T06:36:24.254Z</time></trkpt><trkpt lat="36.9209851" lon="15.1126817"><ele>121.99999999999999</ele><time>2026-04-04T06:36:25.257Z</time></trkpt><trkpt lat="36.9210912" lon="15.1126708"><ele>122.0</ele><time>2026-04-04T06:36:26.278Z</time></trkpt><trkpt lat="36.9211991" lon="15.1126727"><ele>122.0</ele><time>2026-04-04T06:36:27.257Z</time></trkpt><trkpt lat="36.9213045" lon="15.1126928"><ele>122.83333333333333</ele><time>2026-04-04T06:36:28.292Z</time></trkpt><trkpt lat="36.9213994" lon="15.1127123"><ele>123.66666666666666</ele><time>2026-04-04T06:36:29.285Z</time></trkpt><trkpt lat="36.9214877" lon="15.1127438"><ele>124.5</ele><time>2026-04-04T06:36:30.28Z</time></trkpt><trkpt lat="36.9215574" lon="15.1127835"><ele>125.33333333333334</ele><time>2026-04-04T06:36:31.278Z</time></trkpt><trkpt lat="36.9216086" lon="15.1128396"><ele>126.16666666666667</ele><time>2026-04-04T06:36:32.258Z</time></trkpt><trkpt lat="36.9216439" lon="15.1129261"><ele>127.0</ele><time>2026-04-04T06:36:33.279Z</time></trkpt><trkpt lat="36.9216676" lon="15.1130495"><ele>127.00000000000001</ele><time>2026-04-04T06:36:34.283Z</time></trkpt><trkpt lat="36.9216877" lon="15.1131623"><ele>127.0</ele><time>2026-04-04T06:36:35.277Z</time></trkpt><trkpt lat="36.9217073" lon="15.1132722"><ele>127.0</ele><time>2026-04-04T06:36:36.275Z</time></trkpt><trkpt lat="36.9217308" lon="15.1133609"><ele>127.0</ele><time>2026-04-04T06:36:37.295Z</time></trkpt><trkpt lat="36.9217653" lon="15.1134294"><ele>127.00000000000001</ele><time>2026-04-04T06:36:38.293Z</time></trkpt><trkpt lat="36.9218272" lon="15.1134638"><ele>127.0</ele><time>2026-04-04T06:36:39.309Z</time></trkpt><trkpt lat="36.9219164" lon="15.1134789"><ele>128.5</ele><time>2026-04-04T06:36:40.32Z</time></trkpt><trkpt lat="36.9220244" lon="15.1134987"><ele>130.0</ele><time>2026-04-04T06:36:41.285Z</time></trkpt><trkpt lat="36.9221395" lon="15.1135341"><ele>131.5</ele><time>2026-04-04T06:36:42.294Z</time></trkpt><trkpt lat="36.9222618" lon="15.1135752"><ele>133.0</ele><time>2026-04-04T06:36:43.299Z</time></trkpt><trkpt lat="36.9223877" lon="15.113599"><ele>133.0</ele><time>2026-04-04T06:36:44.297Z</time></trkpt><trkpt lat="36.9225066" lon="15.1136192"><ele>133.0</ele><time>2026-04-04T06:36:45.297Z</time></trkpt><trkpt lat="36.9226291" lon="15.1136287"><ele>133.0</ele><time>2026-04-04T06:36:46.3Z</time></trkpt><trkpt lat="36.9227405" lon="15.1136436"><ele>133.0</ele><time>2026-04-04T06:36:47.282Z</time></trkpt><trkpt lat="36.9228443" lon="15.1136638"><ele>133.20000000000002</ele><time>2026-04-04T06:36:48.272Z</time></trkpt><trkpt lat="36.9229485" lon="15.1136963"><ele>133.4</ele><time>2026-04-04T06:36:49.28Z</time></trkpt><trkpt lat="36.9230482" lon="15.1137286"><ele>133.60000000000002</ele><time>2026-04-04T06:36:50.289Z</time></trkpt><trkpt lat="36.9231393" lon="15.1137607"><ele>133.8</ele><time>2026-04-04T06:36:51.297Z</time></trkpt><trkpt lat="36.9232291" lon="15.1137978"><ele>134.0</ele><time>2026-04-04T06:36:52.291Z</time></trkpt><trkpt lat="36.9233177" lon="15.1138384"><ele>134.2</ele><time>2026-04-04T06:36:53.289Z</time></trkpt><trkpt lat="36.9234117" lon="15.1138825"><ele>134.4</ele><time>2026-04-04T06:36:54.282Z</time></trkpt><trkpt lat="36.923507" lon="15.1139383"><ele>134.6</ele><time>2026-04-04T06:36:55.286Z</time></trkpt><trkpt lat="36.9236025" lon="15.1139869"><ele>134.8</ele><time>2026-04-04T06:36:56.304Z</time></trkpt><trkpt lat="36.9237046" lon="15.1140395"><ele>135.0</ele><time>2026-04-04T06:36:57.293Z</time></trkpt><trkpt lat="36.9238073" lon="15.114089"><ele>134.4</ele><time>2026-04-04T06:36:58.28Z</time></trkpt><trkpt lat="36.9239126" lon="15.1141462"><ele>133.8</ele><time>2026-04-04T06:36:59.269Z</time></trkpt><trkpt lat="36.9240172" lon="15.1142045"><ele>133.2</ele><time>2026-04-04T06:37:00.292Z</time></trkpt><trkpt lat="36.9241054" lon="15.1142696"><ele>132.6</ele><time>2026-04-04T06:37:01.296Z</time></trkpt><trkpt lat="36.924188" lon="15.1143441"><ele>132.0</ele><time>2026-04-04T06:37:02.312Z</time></trkpt><trkpt lat="36.9242631" lon="15.1144152"><ele>132.0</ele><time>2026-04-04T06:37:03.277Z</time></trkpt><trkpt lat="36.9243255" lon="15.1144827"><ele>132.0</ele><time>2026-04-04T06:37:04.25Z</time></trkpt><trkpt lat="36.9244011" lon="15.1145793"><ele>132.0</ele><time>2026-04-04T06:37:06.295Z</time></trkpt><trkpt lat="36.924461" lon="15.1146477"><ele>132.0</ele><time>2026-04-04T06:37:09.284Z</time></trkpt><trkpt lat="36.9245633" lon="15.1147629"><ele>132.0</ele><time>2026-04-04T06:37:11.287Z</time></trkpt><trkpt lat="36.9246366" lon="15.1147953"><ele>132.0</ele><time>2026-04-04T06:37:12.285Z</time></trkpt><trkpt lat="36.9247124" lon="15.1148153"><ele>132.0</ele><time>2026-04-04T06:37:13.298Z</time></trkpt><trkpt lat="36.9248047" lon="15.114838"><ele>132.0</ele><time>2026-04-04T06:37:14.284Z</time></trkpt><trkpt lat="36.9248969" lon="15.1148697"><ele>132.0</ele><time>2026-04-04T06:37:15.295Z</time></trkpt><trkpt lat="36.9249812" lon="15.1149062"><ele>132.0</ele><time>2026-04-04T06:37:16.286Z</time></trkpt><trkpt lat="36.9250904" lon="15.1149552"><ele>133.25</ele><time>2026-04-04T06:37:17.289Z</time></trkpt><trkpt lat="36.9252021" lon="15.1150152"><ele>134.5</ele><time>2026-04-04T06:37:18.241Z</time></trkpt><trkpt lat="36.9253226" lon="15.1150937"><ele>135.75</ele><time>2026-04-04T06:37:19.29Z</time></trkpt><trkpt lat="36.9254415" lon="15.1151785"><ele>137.0</ele><time>2026-04-04T06:37:20.297Z</time></trkpt><trkpt lat="36.925547" lon="15.1152682"><ele>137.0</ele><time>2026-04-04T06:37:21.295Z</time></trkpt><trkpt lat="36.9256399" lon="15.1153445"><ele>137.0</ele><time>2026-04-04T06:37:22.284Z</time></trkpt><trkpt lat="36.9257214" lon="15.115406"><ele>137.0</ele><time>2026-04-04T06:37:23.286Z</time></trkpt><trkpt lat="36.9258075" lon="15.1154599"><ele>137.0</ele><time>2026-04-04T06:37:24.255Z</time></trkpt><trkpt lat="36.9259054" lon="15.1155309"><ele>137.0</ele><time>2026-04-04T06:37:25.28Z</time></trkpt><trkpt lat="36.9259979" lon="15.1156042"><ele>137.0</ele><time>2026-04-04T06:37:26.281Z</time></trkpt><trkpt lat="36.926071" lon="15.1156709"><ele>137.0</ele><time>2026-04-04T06:37:27.297Z</time></trkpt><trkpt lat="36.9261844" lon="15.1156809"><ele>137.0</ele><time>2026-04-04T06:37:29.287Z</time></trkpt><trkpt lat="36.9262605" lon="15.1156375"><ele>137.0</ele><time>2026-04-04T06:37:30.283Z</time></trkpt><trkpt lat="36.9263171" lon="15.1155924"><ele>137.0</ele><time>2026-04-04T06:37:31.286Z</time></trkpt><trkpt lat="36.9263793" lon="15.1155648"><ele>137.0</ele><time>2026-04-04T06:37:32.255Z</time></trkpt><trkpt lat="36.9264787" lon="15.115652"><ele>137.0</ele><time>2026-04-04T06:37:34.296Z</time></trkpt><trkpt lat="36.9265142" lon="15.1157332"><ele>137.0</ele><time>2026-04-04T06:37:35.268Z</time></trkpt><trkpt lat="36.9265391" lon="15.1158121"><ele>137.0</ele><time>2026-04-04T06:37:36.296Z</time></trkpt><trkpt lat="36.9265341" lon="15.1158966"><ele>137.0</ele><time>2026-04-04T06:37:37.278Z</time></trkpt><trkpt lat="36.9264887" lon="15.1159787"><ele>137.0</ele><time>2026-04-04T06:37:38.296Z</time></trkpt><trkpt lat="36.9264374" lon="15.1160642"><ele>137.0</ele><time>2026-04-04T06:37:39.298Z</time></trkpt><trkpt lat="36.9263786" lon="15.1161442"><ele>135.79999999999998</ele><time>2026-04-04T06:37:40.302Z</time></trkpt><trkpt lat="36.9263074" lon="15.1162165"><ele>134.6</ele><time>2026-04-04T06:37:41.268Z</time></trkpt><trkpt lat="36.9262289" lon="15.1162843"><ele>133.39999999999998</ele><time>2026-04-04T06:37:42.255Z</time></trkpt><trkpt lat="36.9261351" lon="15.1163425"><ele>132.2</ele><time>2026-04-04T06:37:43.258Z</time></trkpt><trkpt lat="36.9260465" lon="15.116405"><ele>131.0</ele><time>2026-04-04T06:37:44.242Z</time></trkpt><trkpt lat="36.925971" lon="15.1164841"><ele>131.5</ele><time>2026-04-04T06:37:45.245Z</time></trkpt><trkpt lat="36.9258995" lon="15.1166102"><ele>132.0</ele><time>2026-04-04T06:37:46.271Z</time></trkpt><trkpt lat="36.9258307" lon="15.1167351"><ele>132.5</ele><time>2026-04-04T06:37:47.27Z</time></trkpt><trkpt lat="36.9257651" lon="15.1168749"><ele>133.0</ele><time>2026-04-04T06:37:48.269Z</time></trkpt><trkpt lat="36.9257053" lon="15.117004"><ele>132.25</ele><time>2026-04-04T06:37:49.273Z</time></trkpt><trkpt lat="36.9256574" lon="15.1171254"><ele>131.5</ele><time>2026-04-04T06:37:50.278Z</time></trkpt><trkpt lat="36.9256021" lon="15.1172777"><ele>130.75</ele><time>2026-04-04T06:37:51.278Z</time></trkpt><trkpt lat="36.9255608" lon="15.117438"><ele>130.0</ele><time>2026-04-04T06:37:52.287Z</time></trkpt><trkpt lat="36.9255279" lon="15.1175918"><ele>130.0</ele><time>2026-04-04T06:37:53.282Z</time></trkpt><trkpt lat="36.9254973" lon="15.117746"><ele>130.0</ele><time>2026-04-04T06:37:54.271Z</time></trkpt><trkpt lat="36.9254727" lon="15.1179059"><ele>130.0</ele><time>2026-04-04T06:37:55.258Z</time></trkpt><trkpt lat="36.9254558" lon="15.118068"><ele>130.0</ele><time>2026-04-04T06:37:56.283Z</time></trkpt><trkpt lat="36.9254403" lon="15.1182241"><ele>130.0</ele><time>2026-04-04T06:37:57.292Z</time></trkpt><trkpt lat="36.9254341" lon="15.118365"><ele>130.0</ele><time>2026-04-04T06:37:58.291Z</time></trkpt><trkpt lat="36.9254322" lon="15.118504"><ele>130.0</ele><time>2026-04-04T06:37:59.291Z</time></trkpt><trkpt lat="36.9254253" lon="15.1186475"><ele>130.0</ele><time>2026-04-04T06:38:00.286Z</time></trkpt><trkpt lat="36.9254057" lon="15.11878"><ele>130.0</ele><time>2026-04-04T06:38:01.302Z</time></trkpt><trkpt lat="36.9253687" lon="15.1189142"><ele>130.0</ele><time>2026-04-04T06:38:02.28Z</time></trkpt><trkpt lat="36.925315" lon="15.1190363"><ele>130.0</ele><time>2026-04-04T06:38:03.305Z</time></trkpt><trkpt lat="36.9252608" lon="15.119154"><ele>130.0</ele><time>2026-04-04T06:38:04.289Z</time></trkpt><trkpt lat="36.9252234" lon="15.1192847"><ele>130.0</ele><time>2026-04-04T06:38:05.299Z</time></trkpt><trkpt lat="36.9252241" lon="15.1194482"><ele>128.25</ele><time>2026-04-04T06:38:06.299Z</time></trkpt><trkpt lat="36.925244" lon="15.1196186"><ele>126.5</ele><time>2026-04-04T06:38:07.281Z</time></trkpt><trkpt lat="36.9252722" lon="15.1197914"><ele>124.75</ele><time>2026-04-04T06:38:08.294Z</time></trkpt><trkpt lat="36.9252975" lon="15.1199591"><ele>123.0</ele><time>2026-04-04T06:38:09.315Z</time></trkpt><trkpt lat="36.9253171" lon="15.1201233"><ele>122.2</ele><time>2026-04-04T06:38:10.291Z</time></trkpt><trkpt lat="36.9253321" lon="15.1202795"><ele>121.4</ele><time>2026-04-04T06:38:11.298Z</time></trkpt><trkpt lat="36.9253471" lon="15.120425"><ele>120.60000000000001</ele><time>2026-04-04T06:38:12.295Z</time></trkpt><trkpt lat="36.9253594" lon="15.1205594"><ele>119.80000000000001</ele><time>2026-04-04T06:38:13.295Z</time></trkpt><trkpt lat="36.9253628" lon="15.1206683"><ele>119.0</ele><time>2026-04-04T06:38:14.281Z</time></trkpt><trkpt lat="36.9253704" lon="15.1207587"><ele>118.80000000000001</ele><time>2026-04-04T06:38:15.312Z</time></trkpt><trkpt lat="36.9253958" lon="15.1208408"><ele>118.60000000000001</ele><time>2026-04-04T06:38:16.285Z</time></trkpt><trkpt lat="36.9254382" lon="15.1209314"><ele>118.4</ele><time>2026-04-04T06:38:17.287Z</time></trkpt><trkpt lat="36.9254969" lon="15.1210315"><ele>118.2</ele><time>2026-04-04T06:38:18.291Z</time></trkpt><trkpt lat="36.9255715" lon="15.1211539"><ele>118.0</ele><time>2026-04-04T06:38:19.298Z</time></trkpt><trkpt lat="36.9256524" lon="15.1212938"><ele>118.0</ele><time>2026-04-04T06:38:20.3Z</time></trkpt><trkpt lat="36.9257238" lon="15.121439"><ele>118.0</ele><time>2026-04-04T06:38:21.289Z</time></trkpt><trkpt lat="36.9257858" lon="15.1215758"><ele>118.0</ele><time>2026-04-04T06:38:22.278Z</time></trkpt><trkpt lat="36.9258518" lon="15.1217179"><ele>118.0</ele><time>2026-04-04T06:38:23.285Z</time></trkpt><trkpt lat="36.9259116" lon="15.121854"><ele>119.5</ele><time>2026-04-04T06:38:24.292Z</time></trkpt><trkpt lat="36.925964" lon="15.1219989"><ele>121.0</ele><time>2026-04-04T06:38:25.279Z</time></trkpt><trkpt lat="36.9260052" lon="15.1221394"><ele>122.5</ele><time>2026-04-04T06:38:26.284Z</time></trkpt><trkpt lat="36.9260415" lon="15.1222784"><ele>124.0</ele><time>2026-04-04T06:38:27.28Z</time></trkpt><trkpt lat="36.9260829" lon="15.1224036"><ele>124.00000000000001</ele><time>2026-04-04T06:38:28.278Z</time></trkpt><trkpt lat="36.9261301" lon="15.122517"><ele>124.0</ele><time>2026-04-04T06:38:29.286Z</time></trkpt><trkpt lat="36.9261708" lon="15.1226116"><ele>124.0</ele><time>2026-04-04T06:38:30.297Z</time></trkpt><trkpt lat="36.9262187" lon="15.1226968"><ele>124.0</ele><time>2026-04-04T06:38:31.292Z</time></trkpt><trkpt lat="36.9262647" lon="15.1227852"><ele>124.00000000000001</ele><time>2026-04-04T06:38:32.278Z</time></trkpt><trkpt lat="36.9263229" lon="15.1228651"><ele>124.0</ele><time>2026-04-04T06:38:33.272Z</time></trkpt><trkpt lat="36.9264022" lon="15.1229296"><ele>124.0</ele><time>2026-04-04T06:38:34.276Z</time></trkpt><trkpt lat="36.9264987" lon="15.1229834"><ele>124.0</ele><time>2026-04-04T06:38:35.281Z</time></trkpt><trkpt lat="36.9265996" lon="15.1230507"><ele>124.0</ele><time>2026-04-04T06:38:36.291Z</time></trkpt><trkpt lat="36.9266951" lon="15.1231273"><ele>124.0</ele><time>2026-04-04T06:38:37.257Z</time></trkpt><trkpt lat="36.92679" lon="15.123224"><ele>124.75</ele><time>2026-04-04T06:38:38.272Z</time></trkpt><trkpt lat="36.926867" lon="15.1233261"><ele>125.5</ele><time>2026-04-04T06:38:39.292Z</time></trkpt><trkpt lat="36.9269347" lon="15.1234346"><ele>126.25</ele><time>2026-04-04T06:38:40.278Z</time></trkpt><trkpt lat="36.9269879" lon="15.1235622"><ele>127.0</ele><time>2026-04-04T06:38:41.303Z</time></trkpt><trkpt lat="36.9270333" lon="15.1237161"><ele>127.0</ele><time>2026-04-04T06:38:42.289Z</time></trkpt><trkpt lat="36.9270811" lon="15.1238775"><ele>127.0</ele><time>2026-04-04T06:38:43.287Z</time></trkpt><trkpt lat="36.9271389" lon="15.1240336"><ele>127.0</ele><time>2026-04-04T06:38:44.279Z</time></trkpt><trkpt lat="36.9272048" lon="15.1241703"><ele>127.0</ele><time>2026-04-04T06:38:45.257Z</time></trkpt><trkpt lat="36.9272857" lon="15.1242906"><ele>127.0</ele><time>2026-04-04T06:38:46.272Z</time></trkpt><trkpt lat="36.9273868" lon="15.1243983"><ele>127.0</ele><time>2026-04-04T06:38:47.291Z</time></trkpt><trkpt lat="36.9275043" lon="15.1245068"><ele>127.0</ele><time>2026-04-04T06:38:48.273Z</time></trkpt><trkpt lat="36.9276324" lon="15.1246132"><ele>127.0</ele><time>2026-04-04T06:38:49.294Z</time></trkpt><trkpt lat="36.927757" lon="15.1247068"><ele>127.0</ele><time>2026-04-04T06:38:50.299Z</time></trkpt><trkpt lat="36.9278741" lon="15.124791"><ele>127.0</ele><time>2026-04-04T06:38:51.279Z</time></trkpt><trkpt lat="36.9279832" lon="15.1248647"><ele>127.0</ele><time>2026-04-04T06:38:52.27Z</time></trkpt><trkpt lat="36.9280792" lon="15.124928"><ele>127.0</ele><time>2026-04-04T06:38:53.277Z</time></trkpt><trkpt lat="36.9281529" lon="15.1249829"><ele>125.83333333333334</ele><time>2026-04-04T06:38:54.286Z</time></trkpt><trkpt lat="36.9282169" lon="15.1250438"><ele>124.66666666666667</ele><time>2026-04-04T06:38:55.287Z</time></trkpt><trkpt lat="36.9282735" lon="15.1251049"><ele>123.5</ele><time>2026-04-04T06:38:56.293Z</time></trkpt><trkpt lat="36.9283122" lon="15.1251764"><ele>122.33333333333334</ele><time>2026-04-04T06:38:57.26Z</time></trkpt><trkpt lat="36.928325" lon="15.1253333"><ele>121.16666666666667</ele><time>2026-04-04T06:38:59.294Z</time></trkpt><trkpt lat="36.9282959" lon="15.1254312"><ele>120.0</ele><time>2026-04-04T06:39:00.3Z</time></trkpt><trkpt lat="36.9282614" lon="15.1255453"><ele>120.0</ele><time>2026-04-04T06:39:01.272Z</time></trkpt><trkpt lat="36.9282507" lon="15.1256904"><ele>120.0</ele><time>2026-04-04T06:39:02.248Z</time></trkpt><trkpt lat="36.9282567" lon="15.1258386"><ele>120.0</ele><time>2026-04-04T06:39:03.287Z</time></trkpt><trkpt lat="36.9282691" lon="15.1259799"><ele>120.0</ele><time>2026-04-04T06:39:04.298Z</time></trkpt><trkpt lat="36.9283045" lon="15.1261163"><ele>120.4</ele><time>2026-04-04T06:39:05.294Z</time></trkpt><trkpt lat="36.9283548" lon="15.1262502"><ele>120.8</ele><time>2026-04-04T06:39:06.255Z</time></trkpt><trkpt lat="36.9284057" lon="15.1263649"><ele>121.19999999999999</ele><time>2026-04-04T06:39:07.287Z</time></trkpt><trkpt lat="36.9284577" lon="15.1264736"><ele>121.6</ele><time>2026-04-04T06:39:08.298Z</time></trkpt><trkpt lat="36.928516" lon="15.1265869"><ele>122.0</ele><time>2026-04-04T06:39:09.244Z</time></trkpt><trkpt lat="36.9285711" lon="15.1266867"><ele>120.83333333333333</ele><time>2026-04-04T06:39:10.259Z</time></trkpt><trkpt lat="36.928631" lon="15.1267694"><ele>119.66666666666666</ele><time>2026-04-04T06:39:11.273Z</time></trkpt><trkpt lat="36.9287012" lon="15.1268184"><ele>118.5</ele><time>2026-04-04T06:39:12.299Z</time></trkpt><trkpt lat="36.9287729" lon="15.1268289"><ele>117.33333333333334</ele><time>2026-04-04T06:39:13.29Z</time></trkpt><trkpt lat="36.9288356" lon="15.1268379"><ele>116.16666666666667</ele><time>2026-04-04T06:39:14.284Z</time></trkpt><trkpt lat="36.9289351" lon="15.1268896"><ele>115.0</ele><time>2026-04-04T06:39:16.294Z</time></trkpt><trkpt lat="36.9290125" lon="15.1269534"><ele>115.00000000000001</ele><time>2026-04-04T06:39:18.265Z</time></trkpt><trkpt lat="36.9290431" lon="15.1270485"><ele>115.0</ele><time>2026-04-04T06:39:20.342Z</time></trkpt><trkpt lat="36.9290203" lon="15.12714"><ele>115.0</ele><time>2026-04-04T06:39:22.277Z</time></trkpt><trkpt lat="36.9290182" lon="15.1272544"><ele>115.0</ele><time>2026-04-04T06:39:24.283Z</time></trkpt><trkpt lat="36.9290423" lon="15.1273351"><ele>115.00000000000001</ele><time>2026-04-04T06:39:25.292Z</time></trkpt><trkpt lat="36.9290901" lon="15.1274381"><ele>115.0</ele><time>2026-04-04T06:39:26.287Z</time></trkpt><trkpt lat="36.9291564" lon="15.127542"><ele>114.0</ele><time>2026-04-04T06:39:27.266Z</time></trkpt><trkpt lat="36.9292226" lon="15.127654"><ele>113.0</ele><time>2026-04-04T06:39:28.265Z</time></trkpt><trkpt lat="36.9292934" lon="15.1277555"><ele>112.0</ele><time>2026-04-04T06:39:29.297Z</time></trkpt><trkpt lat="36.9293554" lon="15.1278457"><ele>111.0</ele><time>2026-04-04T06:39:30.284Z</time></trkpt><trkpt lat="36.9294088" lon="15.127901"><ele>110.0</ele><time>2026-04-04T06:39:31.278Z</time></trkpt><trkpt lat="36.9294651" lon="15.127996"><ele>110.83333333333333</ele><time>2026-04-04T06:39:33.292Z</time></trkpt><trkpt lat="36.9295255" lon="15.1280952"><ele>111.66666666666666</ele><time>2026-04-04T06:39:35.275Z</time></trkpt><trkpt lat="36.9295692" lon="15.1281596"><ele>112.5</ele><time>2026-04-04T06:39:36.265Z</time></trkpt><trkpt lat="36.9296299" lon="15.1282334"><ele>113.33333333333334</ele><time>2026-04-04T06:39:37.285Z</time></trkpt><trkpt lat="36.9296895" lon="15.1283133"><ele>114.16666666666667</ele><time>2026-04-04T06:39:38.28Z</time></trkpt><trkpt lat="36.929744" lon="15.1283911"><ele>115.0</ele><time>2026-04-04T06:39:39.269Z</time></trkpt><trkpt lat="36.9298058" lon="15.1284827"><ele>115.0</ele><time>2026-04-04T06:39:40.292Z</time></trkpt><trkpt lat="36.9298705" lon="15.1285762"><ele>115.0</ele><time>2026-04-04T06:39:41.272Z</time></trkpt><trkpt lat="36.9299299" lon="15.1286658"><ele>115.0</ele><time>2026-04-04T06:39:42.28Z</time></trkpt><trkpt lat="36.9299823" lon="15.1287521"><ele>115.0</ele><time>2026-04-04T06:39:43.304Z</time></trkpt><trkpt lat="36.9300359" lon="15.1288389"><ele>115.0</ele><time>2026-04-04T06:39:44.292Z</time></trkpt><trkpt lat="36.930094" lon="15.1289274"><ele>115.8</ele><time>2026-04-04T06:39:45.285Z</time></trkpt><trkpt lat="36.9301568" lon="15.129026"><ele>116.6</ele><time>2026-04-04T06:39:46.285Z</time></trkpt><trkpt lat="36.9302175" lon="15.1291263"><ele>117.4</ele><time>2026-04-04T06:39:47.291Z</time></trkpt><trkpt lat="36.9302724" lon="15.1292341"><ele>118.2</ele><time>2026-04-04T06:39:48.297Z</time></trkpt><trkpt lat="36.9303221" lon="15.1293488"><ele>119.0</ele><time>2026-04-04T06:39:49.296Z</time></trkpt><trkpt lat="36.930372" lon="15.1294698"><ele>119.0</ele><time>2026-04-04T06:39:50.296Z</time></trkpt><trkpt lat="36.9304236" lon="15.129583"><ele>119.0</ele><time>2026-04-04T06:39:51.299Z</time></trkpt><trkpt lat="36.9304813" lon="15.1296985"><ele>119.0</ele><time>2026-04-04T06:39:52.285Z</time></trkpt><trkpt lat="36.9305323" lon="15.1298181"><ele>119.0</ele><time>2026-04-04T06:39:53.304Z</time></trkpt><trkpt lat="36.9305873" lon="15.1299375"><ele>119.0</ele><time>2026-04-04T06:39:54.292Z</time></trkpt><trkpt lat="36.9306364" lon="15.1300499"><ele>117.80000000000001</ele><time>2026-04-04T06:39:55.278Z</time></trkpt><trkpt lat="36.9306823" lon="15.1301618"><ele>116.60000000000001</ele><time>2026-04-04T06:39:56.289Z</time></trkpt><trkpt lat="36.9307291" lon="15.1302724"><ele>115.4</ele><time>2026-04-04T06:39:57.284Z</time></trkpt><trkpt lat="36.9307691" lon="15.1303841"><ele>114.2</ele><time>2026-04-04T06:39:58.302Z</time></trkpt><trkpt lat="36.9308124" lon="15.130506"><ele>113.0</ele><time>2026-04-04T06:39:59.301Z</time></trkpt><trkpt lat="36.9308545" lon="15.1306276"><ele>114.5</ele><time>2026-04-04T06:40:00.301Z</time></trkpt><trkpt lat="36.9308981" lon="15.1307519"><ele>116.0</ele><time>2026-04-04T06:40:01.299Z</time></trkpt><trkpt lat="36.9309369" lon="15.1308826"><ele>117.5</ele><time>2026-04-04T06:40:02.312Z</time></trkpt><trkpt lat="36.9309705" lon="15.131024"><ele>119.0</ele><time>2026-04-04T06:40:03.298Z</time></trkpt><trkpt lat="36.9310021" lon="15.1311582"><ele>119.0</ele><time>2026-04-04T06:40:04.304Z</time></trkpt><trkpt lat="36.9310315" lon="15.1312918"><ele>119.0</ele><time>2026-04-04T06:40:05.301Z</time></trkpt><trkpt lat="36.9310669" lon="15.1314362"><ele>119.0</ele><time>2026-04-04T06:40:06.301Z</time></trkpt><trkpt lat="36.9310989" lon="15.1315775"><ele>119.0</ele><time>2026-04-04T06:40:07.305Z</time></trkpt><trkpt lat="36.9311351" lon="15.1317184"><ele>118.0</ele><time>2026-04-04T06:40:08.303Z</time></trkpt><trkpt lat="36.9311734" lon="15.131843"><ele>117.0</ele><time>2026-04-04T06:40:09.282Z</time></trkpt><trkpt lat="36.9312141" lon="15.1319683"><ele>116.0</ele><time>2026-04-04T06:40:10.317Z</time></trkpt><trkpt lat="36.9312629" lon="15.1320891"><ele>115.0</ele><time>2026-04-04T06:40:11.307Z</time></trkpt><trkpt lat="36.9312979" lon="15.132195"><ele>114.0</ele><time>2026-04-04T06:40:12.299Z</time></trkpt><trkpt lat="36.9313297" lon="15.1322974"><ele>112.6</ele><time>2026-04-04T06:40:13.293Z</time></trkpt><trkpt lat="36.9313554" lon="15.1323981"><ele>111.2</ele><time>2026-04-04T06:40:14.304Z</time></trkpt><trkpt lat="36.9313811" lon="15.1325001"><ele>109.79999999999998</ele><time>2026-04-04T06:40:15.305Z</time></trkpt><trkpt lat="36.9314178" lon="15.132607"><ele>108.39999999999999</ele><time>2026-04-04T06:40:16.286Z</time></trkpt><trkpt lat="36.9314665" lon="15.1327127"><ele>107.0</ele><time>2026-04-04T06:40:17.278Z</time></trkpt><trkpt lat="36.9315187" lon="15.1328147"><ele>107.0</ele><time>2026-04-04T06:40:18.269Z</time></trkpt><trkpt lat="36.9315732" lon="15.1329102"><ele>106.99999999999999</ele><time>2026-04-04T06:40:19.302Z</time></trkpt><trkpt lat="36.9316256" lon="15.1330036"><ele>106.99999999999999</ele><time>2026-04-04T06:40:20.301Z</time></trkpt><trkpt lat="36.9316801" lon="15.1331105"><ele>107.0</ele><time>2026-04-04T06:40:21.287Z</time></trkpt><trkpt lat="36.9317202" lon="15.1332356"><ele>107.0</ele><time>2026-04-04T06:40:22.284Z</time></trkpt><trkpt lat="36.9317407" lon="15.1333735"><ele>107.0</ele><time>2026-04-04T06:40:23.294Z</time></trkpt><trkpt lat="36.9317725" lon="15.1335117"><ele>107.0</ele><time>2026-04-04T06:40:24.279Z</time></trkpt><trkpt lat="36.9318233" lon="15.1336406"><ele>107.0</ele><time>2026-04-04T06:40:25.305Z</time></trkpt><trkpt lat="36.9318759" lon="15.1337698"><ele>107.0</ele><time>2026-04-04T06:40:26.306Z</time></trkpt><trkpt lat="36.9319338" lon="15.1338951"><ele>107.0</ele><time>2026-04-04T06:40:27.292Z</time></trkpt><trkpt lat="36.9319886" lon="15.1340184"><ele>107.0</ele><time>2026-04-04T06:40:28.259Z</time></trkpt><trkpt lat="36.9320459" lon="15.1341407"><ele>107.0</ele><time>2026-04-04T06:40:29.287Z</time></trkpt><trkpt lat="36.9320944" lon="15.1342701"><ele>107.0</ele><time>2026-04-04T06:40:30.304Z</time></trkpt><trkpt lat="36.9321441" lon="15.1343928"><ele>105.8</ele><time>2026-04-04T06:40:31.275Z</time></trkpt><trkpt lat="36.9321862" lon="15.1345085"><ele>104.6</ele><time>2026-04-04T06:40:32.295Z</time></trkpt><trkpt lat="36.932207" lon="15.134634"><ele>103.39999999999999</ele><time>2026-04-04T06:40:33.288Z</time></trkpt><trkpt lat="36.9322112" lon="15.1347651"><ele>102.19999999999999</ele><time>2026-04-04T06:40:34.297Z</time></trkpt><trkpt lat="36.9322095" lon="15.1348846"><ele>101.0</ele><time>2026-04-04T06:40:35.292Z</time></trkpt><trkpt lat="36.9322035" lon="15.1350023"><ele>100.0</ele><time>2026-04-04T06:40:36.304Z</time></trkpt><trkpt lat="36.9321981" lon="15.135115"><ele>99.0</ele><time>2026-04-04T06:40:37.29Z</time></trkpt><trkpt lat="36.9321947" lon="15.1352247"><ele>98.0</ele><time>2026-04-04T06:40:38.284Z</time></trkpt><trkpt lat="36.9321999" lon="15.1353435"><ele>97.0</ele><time>2026-04-04T06:40:39.293Z</time></trkpt><trkpt lat="36.9322224" lon="15.1354639"><ele>96.0</ele><time>2026-04-04T06:40:40.3Z</time></trkpt><trkpt lat="36.9322622" lon="15.1355854"><ele>96.0</ele><time>2026-04-04T06:40:41.286Z</time></trkpt><trkpt lat="36.93232" lon="15.1356993"><ele>96.0</ele><time>2026-04-04T06:40:42.279Z</time></trkpt><trkpt lat="36.932365" lon="15.1357911"><ele>96.0</ele><time>2026-04-04T06:40:43.297Z</time></trkpt><trkpt lat="36.9324514" lon="15.1358497"><ele>96.0</ele><time>2026-04-04T06:40:45.307Z</time></trkpt><trkpt lat="36.9325332" lon="15.1357455"><ele>96.0</ele><time>2026-04-04T06:40:47.253Z</time></trkpt><trkpt lat="36.9325844" lon="15.1356604"><ele>97.0</ele><time>2026-04-04T06:40:48.298Z</time></trkpt><trkpt lat="36.9326511" lon="15.1355573"><ele>98.0</ele><time>2026-04-04T06:40:49.282Z</time></trkpt><trkpt lat="36.932722" lon="15.1354422"><ele>99.0</ele><time>2026-04-04T06:40:50.285Z</time></trkpt><trkpt lat="36.9327961" lon="15.1353173"><ele>100.0</ele><time>2026-04-04T06:40:51.257Z</time></trkpt><trkpt lat="36.9328567" lon="15.1351699"><ele>100.0</ele><time>2026-04-04T06:40:52.278Z</time></trkpt><trkpt lat="36.9329156" lon="15.1349967"><ele>100.0</ele><time>2026-04-04T06:40:53.298Z</time></trkpt><trkpt lat="36.9329797" lon="15.1348298"><ele>100.0</ele><time>2026-04-04T06:40:54.304Z</time></trkpt><trkpt lat="36.9330552" lon="15.1346736"><ele>100.0</ele><time>2026-04-04T06:40:55.273Z</time></trkpt><trkpt lat="36.9331192" lon="15.1345076"><ele>101.0</ele><time>2026-04-04T06:40:56.281Z</time></trkpt><trkpt lat="36.9331736" lon="15.1343341"><ele>102.0</ele><time>2026-04-04T06:40:57.261Z</time></trkpt><trkpt lat="36.9332313" lon="15.1341951"><ele>103.0</ele><time>2026-04-04T06:40:58.261Z</time></trkpt><trkpt lat="36.9333037" lon="15.1340873"><ele>104.0</ele><time>2026-04-04T06:40:59.262Z</time></trkpt><trkpt lat="36.9333712" lon="15.1339848"><ele>105.75</ele><time>2026-04-04T06:41:00.283Z</time></trkpt><trkpt lat="36.9334314" lon="15.1338798"><ele>107.5</ele><time>2026-04-04T06:41:01.292Z</time></trkpt><trkpt lat="36.9334831" lon="15.133745"><ele>109.25</ele><time>2026-04-04T06:41:02.3Z</time></trkpt><trkpt lat="36.9335136" lon="15.1335961"><ele>111.0</ele><time>2026-04-04T06:41:03.275Z</time></trkpt><trkpt lat="36.9335317" lon="15.1334664"><ele>111.0</ele><time>2026-04-04T06:41:04.296Z</time></trkpt><trkpt lat="36.9335498" lon="15.1333301"><ele>111.0</ele><time>2026-04-04T06:41:05.294Z</time></trkpt><trkpt lat="36.9335751" lon="15.1331962"><ele>111.0</ele><time>2026-04-04T06:41:06.28Z</time></trkpt><trkpt lat="36.9336139" lon="15.1330659"><ele>111.0</ele><time>2026-04-04T06:41:07.301Z</time></trkpt><trkpt lat="36.933657" lon="15.1329451"><ele>111.0</ele><time>2026-04-04T06:41:08.307Z</time></trkpt><trkpt lat="36.9337074" lon="15.1328608"><ele>112.0</ele><time>2026-04-04T06:41:09.292Z</time></trkpt><trkpt lat="36.9337707" lon="15.1327907"><ele>113.0</ele><time>2026-04-04T06:41:10.303Z</time></trkpt><trkpt lat="36.9338549" lon="15.1327448"><ele>114.0</ele><time>2026-04-04T06:41:11.262Z</time></trkpt><trkpt lat="36.9339392" lon="15.1327193"><ele>115.0</ele><time>2026-04-04T06:41:12.296Z</time></trkpt><trkpt lat="36.9340192" lon="15.1327084"><ele>116.0</ele><time>2026-04-04T06:41:13.281Z</time></trkpt><trkpt lat="36.9340969" lon="15.1327036"><ele>117.0</ele><time>2026-04-04T06:41:14.314Z</time></trkpt><trkpt lat="36.9341724" lon="15.1327006"><ele>117.66666666666667</ele><time>2026-04-04T06:41:15.279Z</time></trkpt><trkpt lat="36.9342512" lon="15.1327082"><ele>118.33333333333334</ele><time>2026-04-04T06:41:16.292Z</time></trkpt><trkpt lat="36.9343175" lon="15.1327339"><ele>119.0</ele><time>2026-04-04T06:41:17.285Z</time></trkpt><trkpt lat="36.9343867" lon="15.1327918"><ele>119.66666666666667</ele><time>2026-04-04T06:41:18.301Z</time></trkpt><trkpt lat="36.9344654" lon="15.1328359"><ele>120.33333333333334</ele><time>2026-04-04T06:41:19.293Z</time></trkpt><trkpt lat="36.9345624" lon="15.1328456"><ele>121.0</ele><time>2026-04-04T06:41:20.294Z</time></trkpt><trkpt lat="36.9346667" lon="15.1328431"><ele>121.0</ele><time>2026-04-04T06:41:21.288Z</time></trkpt><trkpt lat="36.934781" lon="15.1328486"><ele>121.0</ele><time>2026-04-04T06:41:22.292Z</time></trkpt><trkpt lat="36.9348972" lon="15.1328529"><ele>121.0</ele><time>2026-04-04T06:41:23.285Z</time></trkpt><trkpt lat="36.9349981" lon="15.1328508"><ele>121.0</ele><time>2026-04-04T06:41:24.292Z</time></trkpt><trkpt lat="36.9350916" lon="15.1328472"><ele>121.0</ele><time>2026-04-04T06:41:25.288Z</time></trkpt><trkpt lat="36.9351859" lon="15.1328579"><ele>122.00000000000001</ele><time>2026-04-04T06:41:26.263Z</time></trkpt><trkpt lat="36.9352738" lon="15.1328837"><ele>123.0</ele><time>2026-04-04T06:41:27.291Z</time></trkpt><trkpt lat="36.935355" lon="15.1329207"><ele>124.0</ele><time>2026-04-04T06:41:28.286Z</time></trkpt><trkpt lat="36.9354312" lon="15.132954"><ele>125.0</ele><time>2026-04-04T06:41:29.277Z</time></trkpt><trkpt lat="36.9355023" lon="15.1329843"><ele>126.00000000000001</ele><time>2026-04-04T06:41:30.305Z</time></trkpt><trkpt lat="36.9355692" lon="15.133015"><ele>127.0</ele><time>2026-04-04T06:41:31.287Z</time></trkpt><trkpt lat="36.9356338" lon="15.1330399"><ele>127.00000000000001</ele><time>2026-04-04T06:41:32.287Z</time></trkpt><trkpt lat="36.9356983" lon="15.1330649"><ele>127.0</ele><time>2026-04-04T06:41:33.291Z</time></trkpt><trkpt lat="36.9357602" lon="15.1330915"><ele>127.0</ele><time>2026-04-04T06:41:34.277Z</time></trkpt><trkpt lat="36.9358383" lon="15.1331252"><ele>127.0</ele><time>2026-04-04T06:41:35.292Z</time></trkpt><trkpt lat="36.9359196" lon="15.1331606"><ele>127.00000000000001</ele><time>2026-04-04T06:41:36.272Z</time></trkpt><trkpt lat="36.9360015" lon="15.1332026"><ele>127.0</ele><time>2026-04-04T06:41:37.296Z</time></trkpt><trkpt lat="36.9360843" lon="15.1332576"><ele>126.39999999999999</ele><time>2026-04-04T06:41:38.296Z</time></trkpt><trkpt lat="36.9361633" lon="15.1333263"><ele>125.79999999999998</ele><time>2026-04-04T06:41:39.257Z</time></trkpt><trkpt lat="36.9362441" lon="15.1334054"><ele>125.2</ele><time>2026-04-04T06:41:40.308Z</time></trkpt><trkpt lat="36.9363377" lon="15.1334906"><ele>124.6</ele><time>2026-04-04T06:41:41.297Z</time></trkpt><trkpt lat="36.9364269" lon="15.1335825"><ele>124.0</ele><time>2026-04-04T06:41:42.303Z</time></trkpt><trkpt lat="36.9365081" lon="15.133661"><ele>124.0</ele><time>2026-04-04T06:41:43.293Z</time></trkpt><trkpt lat="36.9365872" lon="15.1337405"><ele>124.0</ele><time>2026-04-04T06:41:44.295Z</time></trkpt><trkpt lat="36.9366684" lon="15.1338203"><ele>124.0</ele><time>2026-04-04T06:41:45.281Z</time></trkpt><trkpt lat="36.9367422" lon="15.1338938"><ele>124.0</ele><time>2026-04-04T06:41:46.292Z</time></trkpt><trkpt lat="36.9368156" lon="15.1339681"><ele>124.0</ele><time>2026-04-04T06:41:47.281Z</time></trkpt><trkpt lat="36.9368899" lon="15.1340396"><ele>123.80000000000001</ele><time>2026-04-04T06:41:48.295Z</time></trkpt><trkpt lat="36.9369626" lon="15.1341101"><ele>123.60000000000001</ele><time>2026-04-04T06:41:49.307Z</time></trkpt><trkpt lat="36.9370281" lon="15.1341813"><ele>123.4</ele><time>2026-04-04T06:41:50.299Z</time></trkpt><trkpt lat="36.9370937" lon="15.134266"><ele>123.2</ele><time>2026-04-04T06:41:51.31Z</time></trkpt><trkpt lat="36.9371614" lon="15.1343531"><ele>123.0</ele><time>2026-04-04T06:41:52.28Z</time></trkpt><trkpt lat="36.9372271" lon="15.1344451"><ele>123.0</ele><time>2026-04-04T06:41:53.282Z</time></trkpt><trkpt lat="36.9372815" lon="15.1345385"><ele>123.00000000000001</ele><time>2026-04-04T06:41:54.274Z</time></trkpt><trkpt lat="36.9373339" lon="15.1346279"><ele>123.00000000000001</ele><time>2026-04-04T06:41:55.273Z</time></trkpt><trkpt lat="36.9373958" lon="15.1347079"><ele>123.0</ele><time>2026-04-04T06:41:56.295Z</time></trkpt><trkpt lat="36.9374646" lon="15.1347763"><ele>123.0</ele><time>2026-04-04T06:41:57.291Z</time></trkpt><trkpt lat="36.9375411" lon="15.1348427"><ele>122.80000000000001</ele><time>2026-04-04T06:41:58.291Z</time></trkpt><trkpt lat="36.9376295" lon="15.1349047"><ele>122.60000000000001</ele><time>2026-04-04T06:41:59.29Z</time></trkpt><trkpt lat="36.9377154" lon="15.1349446"><ele>122.39999999999999</ele><time>2026-04-04T06:42:00.249Z</time></trkpt><trkpt lat="36.9377832" lon="15.1349825"><ele>122.19999999999999</ele><time>2026-04-04T06:42:01.289Z</time></trkpt><trkpt lat="36.9378373" lon="15.1350249"><ele>122.0</ele><time>2026-04-04T06:42:02.284Z</time></trkpt><trkpt lat="36.9379403" lon="15.1351083"><ele>121.99999999999999</ele><time>2026-04-04T06:42:04.281Z</time></trkpt><trkpt lat="36.9379941" lon="15.1351504"><ele>122.0</ele><time>2026-04-04T06:42:05.275Z</time></trkpt><trkpt lat="36.9380988" lon="15.1352202"><ele>122.0</ele><time>2026-04-04T06:42:07.269Z</time></trkpt><trkpt lat="36.9381745" lon="15.1352648"><ele>122.0</ele><time>2026-04-04T06:42:09.274Z</time></trkpt><trkpt lat="36.9382345" lon="15.1353154"><ele>121.99999999999999</ele><time>2026-04-04T06:42:12.287Z</time></trkpt><trkpt lat="36.9383217" lon="15.1353267"><ele>122.0</ele><time>2026-04-04T06:42:15.252Z</time></trkpt><trkpt lat="36.9383854" lon="15.1352603"><ele>123.6</ele><time>2026-04-04T06:42:18.284Z</time></trkpt><trkpt lat="36.9384607" lon="15.1352026"><ele>125.19999999999999</ele><time>2026-04-04T06:42:26.279Z</time></trkpt><trkpt lat="36.9385636" lon="15.1352267"><ele>126.8</ele><time>2026-04-04T06:42:28.294Z</time></trkpt><trkpt lat="36.9386432" lon="15.1352844"><ele>128.4</ele><time>2026-04-04T06:42:30.297Z</time></trkpt><trkpt lat="36.9386934" lon="15.1353965"><ele>130.0</ele><time>2026-04-04T06:42:34.288Z</time></trkpt><trkpt lat="36.938709" lon="15.1354821"><ele>130.0</ele><time>2026-04-04T06:42:37.276Z</time></trkpt><trkpt lat="36.9386486" lon="15.1355585"><ele>130.0</ele><time>2026-04-04T06:43:22.294Z</time></trkpt><trkpt lat="36.9385833" lon="15.1356506"><ele>130.0</ele><time>2026-04-04T06:43:24.284Z</time></trkpt><trkpt lat="36.9385631" lon="15.1357434"><ele>130.0</ele><time>2026-04-04T06:43:26.269Z</time></trkpt><trkpt lat="36.9386497" lon="15.1358701"><ele>130.0</ele><time>2026-04-04T06:43:28.254Z</time></trkpt><trkpt lat="36.9387198" lon="15.1359798"><ele>129.25</ele><time>2026-04-04T06:43:29.294Z</time></trkpt><trkpt lat="36.9388078" lon="15.1361003"><ele>128.5</ele><time>2026-04-04T06:43:30.246Z</time></trkpt><trkpt lat="36.938906" lon="15.136236"><ele>127.75</ele><time>2026-04-04T06:43:31.293Z</time></trkpt><trkpt lat="36.9389987" lon="15.1363754"><ele>127.0</ele><time>2026-04-04T06:43:32.263Z</time></trkpt><trkpt lat="36.939074" lon="15.1365032"><ele>127.0</ele><time>2026-04-04T06:43:33.296Z</time></trkpt><trkpt lat="36.9391337" lon="15.1366339"><ele>127.0</ele><time>2026-04-04T06:43:34.293Z</time></trkpt><trkpt lat="36.9391861" lon="15.1367705"><ele>127.0</ele><time>2026-04-04T06:43:35.304Z</time></trkpt><trkpt lat="36.9392289" lon="15.1369024"><ele>127.0</ele><time>2026-04-04T06:43:36.286Z</time></trkpt><trkpt lat="36.9392719" lon="15.1370289"><ele>127.0</ele><time>2026-04-04T06:43:37.291Z</time></trkpt><trkpt lat="36.9393256" lon="15.137142"><ele>126.99999999999999</ele><time>2026-04-04T06:43:38.299Z</time></trkpt><trkpt lat="36.9393951" lon="15.1372477"><ele>126.99999999999999</ele><time>2026-04-04T06:43:39.293Z</time></trkpt><trkpt lat="36.9394711" lon="15.1373295"><ele>127.0</ele><time>2026-04-04T06:43:40.309Z</time></trkpt><trkpt lat="36.939538" lon="15.1374067"><ele>127.0</ele><time>2026-04-04T06:43:41.294Z</time></trkpt><trkpt lat="36.9395908" lon="15.1374854"><ele>126.33333333333334</ele><time>2026-04-04T06:43:42.257Z</time></trkpt><trkpt lat="36.9396481" lon="15.1375426"><ele>125.66666666666667</ele><time>2026-04-04T06:43:43.297Z</time></trkpt><trkpt lat="36.9397095" lon="15.1375999"><ele>125.0</ele><time>2026-04-04T06:43:44.287Z</time></trkpt><trkpt lat="36.9397789" lon="15.1376569"><ele>124.33333333333334</ele><time>2026-04-04T06:43:45.287Z</time></trkpt><trkpt lat="36.9398419" lon="15.1377349"><ele>123.66666666666667</ele><time>2026-04-04T06:43:46.287Z</time></trkpt><trkpt lat="36.9399065" lon="15.1378229"><ele>123.0</ele><time>2026-04-04T06:43:47.297Z</time></trkpt><trkpt lat="36.9399671" lon="15.137917"><ele>123.0</ele><time>2026-04-04T06:43:48.286Z</time></trkpt><trkpt lat="36.9400166" lon="15.138006"><ele>123.0</ele><time>2026-04-04T06:43:49.301Z</time></trkpt><trkpt lat="36.9400619" lon="15.1380682"><ele>123.0</ele><time>2026-04-04T06:43:50.315Z</time></trkpt><trkpt lat="36.9401473" lon="15.1381535"><ele>123.0</ele><time>2026-04-04T06:43:52.281Z</time></trkpt><trkpt lat="36.9401775" lon="15.1382363"><ele>123.0</ele><time>2026-04-04T06:43:54.248Z</time></trkpt><trkpt lat="36.940156" lon="15.1383407"><ele>123.0</ele><time>2026-04-04T06:43:56.283Z</time></trkpt><trkpt lat="36.9401267" lon="15.1384387"><ele>123.57142857142858</ele><time>2026-04-04T06:43:58.292Z</time></trkpt><trkpt lat="36.9400916" lon="15.1385431"><ele>124.14285714285714</ele><time>2026-04-04T06:44:00.276Z</time></trkpt><trkpt lat="36.940047" lon="15.1386048"><ele>124.71428571428572</ele><time>2026-04-04T06:44:02.297Z</time></trkpt><trkpt lat="36.9399978" lon="15.1387"><ele>125.28571428571429</ele><time>2026-04-04T06:44:05.287Z</time></trkpt><trkpt lat="36.9399942" lon="15.1387894"><ele>125.85714285714286</ele><time>2026-04-04T06:44:07.303Z</time></trkpt><trkpt lat="36.9400541" lon="15.1388177"><ele>126.42857142857143</ele><time>2026-04-04T06:44:09.273Z</time></trkpt><trkpt lat="36.9401119" lon="15.1388565"><ele>127.0</ele><time>2026-04-04T06:44:12.292Z</time></trkpt><trkpt lat="36.9401682" lon="15.1389393"><ele>127.0</ele><time>2026-04-04T06:44:15.293Z</time></trkpt><trkpt lat="36.9402524" lon="15.1389684"><ele>126.99999999999999</ele><time>2026-04-04T06:44:19.268Z</time></trkpt><trkpt lat="36.9402026" lon="15.1390526"><ele>126.99999999999999</ele><time>2026-04-04T06:44:22.281Z</time></trkpt><trkpt lat="36.9400933" lon="15.1391305"><ele>127.0</ele><time>2026-04-04T06:44:24.28Z</time></trkpt><trkpt lat="36.9400148" lon="15.1391906"><ele>127.0</ele><time>2026-04-04T06:44:25.278Z</time></trkpt><trkpt lat="36.9399392" lon="15.1392752"><ele>125.00000000000001</ele><time>2026-04-04T06:44:26.284Z</time></trkpt><trkpt lat="36.9398726" lon="15.1393661"><ele>123.0</ele><time>2026-04-04T06:44:27.283Z</time></trkpt><trkpt lat="36.9398139" lon="15.1394305"><ele>121.0</ele><time>2026-04-04T06:44:28.288Z</time></trkpt><trkpt lat="36.9397426" lon="15.1394886"><ele>119.0</ele><time>2026-04-04T06:44:30.269Z</time></trkpt><trkpt lat="36.9396929" lon="15.1395395"><ele>117.00000000000001</ele><time>2026-04-04T06:45:20.258Z</time></trkpt><trkpt lat="36.9396703" lon="15.1396216"><ele>115.0</ele><time>2026-04-04T06:45:22.258Z</time></trkpt><trkpt lat="36.9396393" lon="15.1397023"><ele>115.00000000000001</ele><time>2026-04-04T06:45:24.277Z</time></trkpt><trkpt lat="36.9396047" lon="15.1398089"><ele>115.0</ele><time>2026-04-04T06:45:26.281Z</time></trkpt><trkpt lat="36.9395581" lon="15.1399163"><ele>115.0</ele><time>2026-04-04T06:45:28.256Z</time></trkpt><trkpt lat="36.9395267" lon="15.1400164"><ele>115.0</ele><time>2026-04-04T06:45:30.282Z</time></trkpt><trkpt lat="36.9395022" lon="15.1401258"><ele>115.00000000000001</ele><time>2026-04-04T06:45:32.318Z</time></trkpt><trkpt lat="36.9395421" lon="15.140204"><ele>115.0</ele><time>2026-04-04T06:45:34.257Z</time></trkpt><trkpt lat="36.9396053" lon="15.1402258"><ele>115.6</ele><time>2026-04-04T06:45:36.302Z</time></trkpt><trkpt lat="36.9397101" lon="15.1402158"><ele>116.2</ele><time>2026-04-04T06:45:38.279Z</time></trkpt><trkpt lat="36.9398231" lon="15.1402312"><ele>116.80000000000001</ele><time>2026-04-04T06:45:40.284Z</time></trkpt><trkpt lat="36.9399067" lon="15.1402246"><ele>117.4</ele><time>2026-04-04T06:45:43.278Z</time></trkpt><trkpt lat="36.9399706" lon="15.1401818"><ele>118.0</ele><time>2026-04-04T06:45:45.308Z</time></trkpt><trkpt lat="36.940003" lon="15.1400774"><ele>118.00000000000001</ele><time>2026-04-04T06:45:47.301Z</time></trkpt><trkpt lat="36.9400374" lon="15.1400102"><ele>118.0</ele><time>2026-04-04T06:45:48.301Z</time></trkpt><trkpt lat="36.9400762" lon="15.1399338"><ele>118.0</ele><time>2026-04-04T06:45:49.286Z</time></trkpt><trkpt lat="36.9400938" lon="15.1398457"><ele>118.0</ele><time>2026-04-04T06:45:50.28Z</time></trkpt><trkpt lat="36.9401135" lon="15.1396946"><ele>118.00000000000001</ele><time>2026-04-04T06:45:52.301Z</time></trkpt><trkpt lat="36.9401373" lon="15.139586"><ele>118.0</ele><time>2026-04-04T06:45:54.283Z</time></trkpt><trkpt lat="36.9402179" lon="15.1394746"><ele>119.80000000000001</ele><time>2026-04-04T06:45:56.286Z</time></trkpt><trkpt lat="36.9402598" lon="15.1394052"><ele>121.60000000000001</ele><time>2026-04-04T06:45:57.288Z</time></trkpt><trkpt lat="36.9403338" lon="15.1392649"><ele>123.39999999999999</ele><time>2026-04-04T06:45:59.277Z</time></trkpt><trkpt lat="36.9403849" lon="15.1391933"><ele>125.19999999999999</ele><time>2026-04-04T06:46:00.276Z</time></trkpt><trkpt lat="36.9404237" lon="15.1390823"><ele>127.0</ele><time>2026-04-04T06:46:02.257Z</time></trkpt><trkpt lat="36.9404735" lon="15.1389565"><ele>127.0</ele><time>2026-04-04T06:46:04.274Z</time></trkpt><trkpt lat="36.9405158" lon="15.138897"><ele>126.99999999999999</ele><time>2026-04-04T06:46:05.283Z</time></trkpt><trkpt lat="36.940631" lon="15.1388524"><ele>126.99999999999999</ele><time>2026-04-04T06:46:07.283Z</time></trkpt><trkpt lat="36.9407249" lon="15.1387864"><ele>127.0</ele><time>2026-04-04T06:46:09.291Z</time></trkpt><trkpt lat="36.9407677" lon="15.1387088"><ele>127.0</ele><time>2026-04-04T06:46:10.281Z</time></trkpt><trkpt lat="36.9408221" lon="15.1386222"><ele>127.00000000000001</ele><time>2026-04-04T06:46:11.293Z</time></trkpt><trkpt lat="36.9408694" lon="15.1385097"><ele>127.0</ele><time>2026-04-04T06:46:12.281Z</time></trkpt><trkpt lat="36.9409081" lon="15.13843"><ele>127.0</ele><time>2026-04-04T06:46:13.261Z</time></trkpt><trkpt lat="36.941012" lon="15.1383755"><ele>127.0</ele><time>2026-04-04T06:46:15.269Z</time></trkpt><trkpt lat="36.9410678" lon="15.1383369"><ele>127.00000000000001</ele><time>2026-04-04T06:46:16.292Z</time></trkpt><trkpt lat="36.941106" lon="15.1382587"><ele>127.0</ele><time>2026-04-04T06:46:17.275Z</time></trkpt><trkpt lat="36.9411487" lon="15.1381794"><ele>129.42857142857144</ele><time>2026-04-04T06:46:18.278Z</time></trkpt><trkpt lat="36.941199" lon="15.1381272"><ele>131.85714285714286</ele><time>2026-04-04T06:46:19.279Z</time></trkpt><trkpt lat="36.9412674" lon="15.13808"><ele>134.28571428571428</ele><time>2026-04-04T06:46:20.281Z</time></trkpt><trkpt lat="36.9413362" lon="15.1380206"><ele>136.71428571428572</ele><time>2026-04-04T06:46:21.284Z</time></trkpt><trkpt lat="36.9413914" lon="15.1379589"><ele>139.14285714285714</ele><time>2026-04-04T06:46:22.298Z</time></trkpt><trkpt lat="36.9414542" lon="15.137906"><ele>141.57142857142858</ele><time>2026-04-04T06:46:23.291Z</time></trkpt><trkpt lat="36.9415151" lon="15.1378755"><ele>144.0</ele><time>2026-04-04T06:46:24.293Z</time></trkpt><trkpt lat="36.9415727" lon="15.1378405"><ele>144.0</ele><time>2026-04-04T06:46:25.3Z</time></trkpt><trkpt lat="36.9416232" lon="15.1377812"><ele>144.0</ele><time>2026-04-04T06:46:26.278Z</time></trkpt><trkpt lat="36.941703" lon="15.1377384"><ele>144.0</ele><time>2026-04-04T06:46:28.294Z</time></trkpt><trkpt lat="36.94168" lon="15.1378354"><ele>144.0</ele><time>2026-04-04T06:46:31.287Z</time></trkpt><trkpt lat="36.9416423" lon="15.137913"><ele>144.0</ele><time>2026-04-04T06:46:32.287Z</time></trkpt><trkpt lat="36.9416037" lon="15.1380124"><ele>144.0</ele><time>2026-04-04T06:46:33.241Z</time></trkpt><trkpt lat="36.9415691" lon="15.1381071"><ele>144.0</ele><time>2026-04-04T06:46:34.292Z</time></trkpt><trkpt lat="36.9415316" lon="15.1381725"><ele>144.0</ele><time>2026-04-04T06:46:35.292Z</time></trkpt><trkpt lat="36.9414983" lon="15.1382441"><ele>144.0</ele><time>2026-04-04T06:46:36.303Z</time></trkpt><trkpt lat="36.9414815" lon="15.1383343"><ele>144.0</ele><time>2026-04-04T06:46:37.287Z</time></trkpt><trkpt lat="36.9414562" lon="15.1384081"><ele>144.0</ele><time>2026-04-04T06:46:38.294Z</time></trkpt><trkpt lat="36.9413926" lon="15.1384796"><ele>144.0</ele><time>2026-04-04T06:46:39.281Z</time></trkpt><trkpt lat="36.941316" lon="15.138578"><ele>146.0</ele><time>2026-04-04T06:46:40.274Z</time></trkpt><trkpt lat="36.9412496" lon="15.1386695"><ele>148.0</ele><time>2026-04-04T06:46:41.271Z</time></trkpt><trkpt lat="36.9411952" lon="15.1387592"><ele>150.0</ele><time>2026-04-04T06:46:42.267Z</time></trkpt><trkpt lat="36.9411552" lon="15.1388358"><ele>152.0</ele><time>2026-04-04T06:46:43.29Z</time></trkpt><trkpt lat="36.9410997" lon="15.1389162"><ele>154.0</ele><time>2026-04-04T06:46:44.3Z</time></trkpt><trkpt lat="36.9410423" lon="15.1389964"><ele>156.0</ele><time>2026-04-04T06:46:45.274Z</time></trkpt><trkpt lat="36.9409894" lon="15.139089"><ele>152.8</ele><time>2026-04-04T06:46:46.284Z</time></trkpt><trkpt lat="36.9409369" lon="15.1392036"><ele>149.6</ele><time>2026-04-04T06:46:48.285Z</time></trkpt><trkpt lat="36.9408511" lon="15.1393259"><ele>146.4</ele><time>2026-04-04T06:46:50.287Z</time></trkpt><trkpt lat="36.9408108" lon="15.1394002"><ele>143.2</ele><time>2026-04-04T06:46:51.288Z</time></trkpt><trkpt lat="36.9407883" lon="15.1395244"><ele>140.0</ele><time>2026-04-04T06:46:53.298Z</time></trkpt><trkpt lat="36.9407747" lon="15.1396257"><ele>140.0</ele><time>2026-04-04T06:46:55.259Z</time></trkpt><trkpt lat="36.9407666" lon="15.1397546"><ele>140.0</ele><time>2026-04-04T06:46:58.263Z</time></trkpt><trkpt lat="36.9407763" lon="15.1398389"><ele>140.0</ele><time>2026-04-04T06:46:59.264Z</time></trkpt><trkpt lat="36.9408097" lon="15.1399386"><ele>140.0</ele><time>2026-04-04T06:47:00.286Z</time></trkpt><trkpt lat="36.9408474" lon="15.1400264"><ele>140.0</ele><time>2026-04-04T06:47:01.297Z</time></trkpt><trkpt lat="36.9408817" lon="15.1400993"><ele>140.0</ele><time>2026-04-04T06:47:02.286Z</time></trkpt><trkpt lat="36.9409574" lon="15.1402509"><ele>144.0</ele><time>2026-04-04T06:47:04.288Z</time></trkpt><trkpt lat="36.9409998" lon="15.1403362"><ele>148.0</ele><time>2026-04-04T06:47:05.284Z</time></trkpt><trkpt lat="36.941027" lon="15.1404293"><ele>152.0</ele><time>2026-04-04T06:47:07.282Z</time></trkpt><trkpt lat="36.9410597" lon="15.1405501"><ele>156.0</ele><time>2026-04-04T06:47:09.279Z</time></trkpt><trkpt lat="36.941084" lon="15.1406402"><ele>160.0</ele><time>2026-04-04T06:47:10.261Z</time></trkpt><trkpt lat="36.9411182" lon="15.1407341"><ele>164.0</ele><time>2026-04-04T06:47:12.278Z</time></trkpt><trkpt lat="36.9411704" lon="15.1407894"><ele>167.6</ele><time>2026-04-04T06:47:14.278Z</time></trkpt><trkpt lat="36.9412125" lon="15.140688"><ele>171.2</ele><time>2026-04-04T06:47:17.307Z</time></trkpt><trkpt lat="36.9411458" lon="15.1405954"><ele>174.79999999999998</ele><time>2026-04-04T06:47:19.26Z</time></trkpt><trkpt lat="36.941118" lon="15.1404798"><ele>178.39999999999998</ele><time>2026-04-04T06:47:21.261Z</time></trkpt><trkpt lat="36.9410976" lon="15.1403647"><ele>182.0</ele><time>2026-04-04T06:47:24.289Z</time></trkpt><trkpt lat="36.9410521" lon="15.1402387"><ele>182.0</ele><time>2026-04-04T06:47:26.283Z</time></trkpt><trkpt lat="36.9410256" lon="15.140165"><ele>182.0</ele><time>2026-04-04T06:47:27.274Z</time></trkpt><trkpt lat="36.9409884" lon="15.1400139"><ele>182.0</ele><time>2026-04-04T06:47:29.289Z</time></trkpt><trkpt lat="36.9409717" lon="15.1398894"><ele>182.0</ele><time>2026-04-04T06:47:31.278Z</time></trkpt><trkpt lat="36.9409594" lon="15.1397678"><ele>182.0</ele><time>2026-04-04T06:47:33.289Z</time></trkpt><trkpt lat="36.941014" lon="15.1397233"><ele>182.0</ele><time>2026-04-04T06:47:35.275Z</time></trkpt><trkpt lat="36.9410742" lon="15.139761"><ele>182.0</ele><time>2026-04-04T06:47:37.267Z</time></trkpt><trkpt lat="36.9411333" lon="15.139861"><ele>182.0</ele><time>2026-04-04T06:47:39.273Z</time></trkpt><trkpt lat="36.9412066" lon="15.1399533"><ele>182.0</ele><time>2026-04-04T06:47:41.271Z</time></trkpt><trkpt lat="36.9412605" lon="15.1400181"><ele>182.0</ele><time>2026-04-04T06:47:42.285Z</time></trkpt><trkpt lat="36.9413262" lon="15.1400895"><ele>182.0</ele><time>2026-04-04T06:47:43.293Z</time></trkpt><trkpt lat="36.9413879" lon="15.1401449"><ele>182.0</ele><time>2026-04-04T06:47:44.287Z</time></trkpt><trkpt lat="36.9414425" lon="15.1401879"><ele>182.0</ele><time>2026-04-04T06:47:45.293Z</time></trkpt><trkpt lat="36.9415503" lon="15.1402731"><ele>182.0</ele><time>2026-04-04T06:47:47.288Z</time></trkpt><trkpt lat="36.941623" lon="15.1403051"><ele>182.0</ele><time>2026-04-04T06:47:48.286Z</time></trkpt><trkpt lat="36.941706" lon="15.1403437"><ele>182.0</ele><time>2026-04-04T06:47:49.281Z</time></trkpt><trkpt lat="36.9417854" lon="15.1403722"><ele>182.0</ele><time>2026-04-04T06:47:50.282Z</time></trkpt><trkpt lat="36.9418558" lon="15.1403946"><ele>184.16666666666666</ele><time>2026-04-04T06:47:51.285Z</time></trkpt><trkpt lat="36.9419162" lon="15.1404226"><ele>186.33333333333331</ele><time>2026-04-04T06:47:52.281Z</time></trkpt><trkpt lat="36.9419854" lon="15.1404498"><ele>188.5</ele><time>2026-04-04T06:47:53.287Z</time></trkpt><trkpt lat="36.9420454" lon="15.1404899"><ele>190.66666666666666</ele><time>2026-04-04T06:47:54.282Z</time></trkpt><trkpt lat="36.9420897" lon="15.1405776"><ele>192.83333333333334</ele><time>2026-04-04T06:47:56.274Z</time></trkpt><trkpt lat="36.9420609" lon="15.1406878"><ele>195.0</ele><time>2026-04-04T06:47:58.272Z</time></trkpt><trkpt lat="36.9421102" lon="15.1408147"><ele>195.0</ele><time>2026-04-04T06:48:00.276Z</time></trkpt><trkpt lat="36.9421425" lon="15.1408832"><ele>195.0</ele><time>2026-04-04T06:48:01.281Z</time></trkpt><trkpt lat="36.9421872" lon="15.1409399"><ele>195.0</ele><time>2026-04-04T06:48:02.284Z</time></trkpt><trkpt lat="36.9422526" lon="15.1410318"><ele>195.0</ele><time>2026-04-04T06:48:04.279Z</time></trkpt><trkpt lat="36.9422791" lon="15.1411079"><ele>195.0</ele><time>2026-04-04T06:48:05.28Z</time></trkpt><trkpt lat="36.9423117" lon="15.1411915"><ele>195.0</ele><time>2026-04-04T06:48:06.283Z</time></trkpt><trkpt lat="36.9423504" lon="15.1412977"><ele>195.0</ele><time>2026-04-04T06:48:07.269Z</time></trkpt><trkpt lat="36.9423874" lon="15.1413999"><ele>195.0</ele><time>2026-04-04T06:48:08.289Z</time></trkpt><trkpt lat="36.9424125" lon="15.1414927"><ele>195.0</ele><time>2026-04-04T06:48:09.281Z</time></trkpt><trkpt lat="36.9424456" lon="15.1415874"><ele>195.0</ele><time>2026-04-04T06:48:10.275Z</time></trkpt><trkpt lat="36.94248" lon="15.1416845"><ele>195.0</ele><time>2026-04-04T06:48:11.307Z</time></trkpt><trkpt lat="36.9425143" lon="15.1417707"><ele>195.0</ele><time>2026-04-04T06:48:12.277Z</time></trkpt><trkpt lat="36.9425383" lon="15.1418577"><ele>194.66666666666666</ele><time>2026-04-04T06:48:13.275Z</time></trkpt><trkpt lat="36.9425663" lon="15.1419429"><ele>194.33333333333331</ele><time>2026-04-04T06:48:14.294Z</time></trkpt><trkpt lat="36.9425986" lon="15.142035"><ele>194.0</ele><time>2026-04-04T06:48:15.277Z</time></trkpt><trkpt lat="36.9426301" lon="15.142133"><ele>193.66666666666666</ele><time>2026-04-04T06:48:16.284Z</time></trkpt><trkpt lat="36.9426531" lon="15.1422351"><ele>193.33333333333331</ele><time>2026-04-04T06:48:17.295Z</time></trkpt><trkpt lat="36.9426792" lon="15.1423292"><ele>193.0</ele><time>2026-04-04T06:48:18.257Z</time></trkpt><trkpt lat="36.9427094" lon="15.142413"><ele>193.0</ele><time>2026-04-04T06:48:19.286Z</time></trkpt><trkpt lat="36.9427413" lon="15.1425366"><ele>193.0</ele><time>2026-04-04T06:48:21.242Z</time></trkpt><trkpt lat="36.9428085" lon="15.1426091"><ele>193.0</ele><time>2026-04-04T06:48:23.292Z</time></trkpt><trkpt lat="36.9429182" lon="15.1427158"><ele>193.0</ele><time>2026-04-04T06:48:25.269Z</time></trkpt><trkpt lat="36.942977" lon="15.1427648"><ele>193.0</ele><time>2026-04-04T06:48:26.279Z</time></trkpt><trkpt lat="36.943055" lon="15.1428841"><ele>193.0</ele><time>2026-04-04T06:48:28.26Z</time></trkpt><trkpt lat="36.9430884" lon="15.1430169"><ele>193.0</ele><time>2026-04-04T06:48:30.307Z</time></trkpt><trkpt lat="36.9430907" lon="15.1431245"><ele>193.0</ele><time>2026-04-04T06:48:32.284Z</time></trkpt><trkpt lat="36.9430278" lon="15.1432121"><ele>193.0</ele><time>2026-04-04T06:48:34.279Z</time></trkpt><trkpt lat="36.9429519" lon="15.1432806"><ele>193.0</ele><time>2026-04-04T06:48:36.282Z</time></trkpt><trkpt lat="36.9429317" lon="15.1433732"><ele>190.33333333333331</ele><time>2026-04-04T06:48:46.269Z</time></trkpt><trkpt lat="36.9429265" lon="15.1434621"><ele>187.66666666666666</ele><time>2026-04-04T06:48:48.272Z</time></trkpt><trkpt lat="36.942872" lon="15.1435406"><ele>185.0</ele><time>2026-04-04T06:48:50.418Z</time></trkpt><trkpt lat="36.9427927" lon="15.1435719"><ele>182.33333333333331</ele><time>2026-04-04T06:48:52.266Z</time></trkpt><trkpt lat="36.9427539" lon="15.1436469"><ele>179.66666666666666</ele><time>2026-04-04T06:48:54.265Z</time></trkpt><trkpt lat="36.9426876" lon="15.1436992"><ele>177.0</ele><time>2026-04-04T06:48:56.262Z</time></trkpt><trkpt lat="36.9425937" lon="15.1437257"><ele>173.8</ele><time>2026-04-04T06:48:58.279Z</time></trkpt><trkpt lat="36.9425009" lon="15.1437448"><ele>170.6</ele><time>2026-04-04T06:49:00.259Z</time></trkpt><trkpt lat="36.9424255" lon="15.1438139"><ele>167.4</ele><time>2026-04-04T06:49:02.356Z</time></trkpt><trkpt lat="36.9423493" lon="15.1438942"><ele>164.20000000000002</ele><time>2026-04-04T06:49:04.3Z</time></trkpt><trkpt lat="36.9422306" lon="15.1439789"><ele>161.0</ele><time>2026-04-04T06:49:07.292Z</time></trkpt><trkpt lat="36.9421656" lon="15.1440449"><ele>160.16666666666666</ele><time>2026-04-04T06:49:09.276Z</time></trkpt><trkpt lat="36.9420902" lon="15.1441309"><ele>159.33333333333331</ele><time>2026-04-04T06:49:11.414Z</time></trkpt><trkpt lat="36.9420075" lon="15.1442135"><ele>158.5</ele><time>2026-04-04T06:49:13.294Z</time></trkpt><trkpt lat="36.9419532" lon="15.1442654"><ele>157.66666666666666</ele><time>2026-04-04T06:49:14.256Z</time></trkpt><trkpt lat="36.9418983" lon="15.144317"><ele>156.83333333333334</ele><time>2026-04-04T06:49:15.281Z</time></trkpt><trkpt lat="36.9418405" lon="15.1443763"><ele>156.0</ele><time>2026-04-04T06:49:16.374Z</time></trkpt><trkpt lat="36.9417796" lon="15.1444361"><ele>156.0</ele><time>2026-04-04T06:49:17.28Z</time></trkpt><trkpt lat="36.9417337" lon="15.1444915"><ele>156.0</ele><time>2026-04-04T06:49:18.355Z</time></trkpt><trkpt lat="36.941686" lon="15.1445767"><ele>156.0</ele><time>2026-04-04T06:49:20.272Z</time></trkpt><trkpt lat="36.9416282" lon="15.1446694"><ele>156.0</ele><time>2026-04-04T06:49:22.25Z</time></trkpt><trkpt lat="36.9416249" lon="15.1447586"><ele>156.0</ele><time>2026-04-04T06:49:24.268Z</time></trkpt><trkpt lat="36.9416759" lon="15.1448531"><ele>156.0</ele><time>2026-04-04T06:49:26.28Z</time></trkpt><trkpt lat="36.941712" lon="15.144922"><ele>154.33333333333334</ele><time>2026-04-04T06:49:27.295Z</time></trkpt><trkpt lat="36.9417444" lon="15.144994"><ele>152.66666666666666</ele><time>2026-04-04T06:49:28.278Z</time></trkpt><trkpt lat="36.9417848" lon="15.1450864"><ele>151.0</ele><time>2026-04-04T06:49:30.274Z</time></trkpt><trkpt lat="36.9418727" lon="15.1450952"><ele>149.33333333333331</ele><time>2026-04-04T06:49:33.291Z</time></trkpt><trkpt lat="36.9419642" lon="15.1450615"><ele>147.66666666666666</ele><time>2026-04-04T06:49:35.294Z</time></trkpt><trkpt lat="36.9420412" lon="15.144997"><ele>146.0</ele><time>2026-04-04T06:49:37.274Z</time></trkpt><trkpt lat="36.9421107" lon="15.14503"><ele>146.0</ele><time>2026-04-04T06:49:40.257Z</time></trkpt><trkpt lat="36.9421632" lon="15.1450943"><ele>146.0</ele><time>2026-04-04T06:49:42.279Z</time></trkpt><trkpt lat="36.9422433" lon="15.1451732"><ele>146.0</ele><time>2026-04-04T06:49:44.274Z</time></trkpt><trkpt lat="36.9423072" lon="15.1452402"><ele>146.0</ele><time>2026-04-04T06:49:46.274Z</time></trkpt><trkpt lat="36.9423888" lon="15.1452907"><ele>146.0</ele><time>2026-04-04T06:49:48.286Z</time></trkpt><trkpt lat="36.9424592" lon="15.1452821"><ele>146.0</ele><time>2026-04-04T06:49:50.271Z</time></trkpt><trkpt lat="36.9425222" lon="15.1452967"><ele>148.42857142857142</ele><time>2026-04-04T06:49:56.264Z</time></trkpt><trkpt lat="36.942592" lon="15.1453104"><ele>150.85714285714286</ele><time>2026-04-04T06:50:02.268Z</time></trkpt><trkpt lat="36.9426474" lon="15.1453789"><ele>153.28571428571428</ele><time>2026-04-04T06:50:05.271Z</time></trkpt><trkpt lat="36.9427122" lon="15.1453821"><ele>155.71428571428572</ele><time>2026-04-04T06:51:48.284Z</time></trkpt><trkpt lat="36.942772" lon="15.1454222"><ele>158.14285714285714</ele><time>2026-04-04T06:51:53.286Z</time></trkpt><trkpt lat="36.9428117" lon="15.1454863"><ele>160.57142857142858</ele><time>2026-04-04T06:52:13.272Z</time></trkpt><trkpt lat="36.9427794" lon="15.1455852"><ele>163.0</ele><time>2026-04-04T06:52:23.278Z</time></trkpt><trkpt lat="36.9427685" lon="15.1456783"><ele>163.2857142857143</ele><time>2026-04-04T06:52:25.278Z</time></trkpt><trkpt lat="36.9427293" lon="15.1457491"><ele>163.57142857142856</ele><time>2026-04-04T06:54:19.262Z</time></trkpt><trkpt lat="36.9427137" lon="15.1458287"><ele>163.85714285714286</ele><time>2026-04-04T06:54:34.268Z</time></trkpt><trkpt lat="36.9427471" lon="15.1459047"><ele>164.14285714285717</ele><time>2026-04-04T06:58:21.286Z</time></trkpt><trkpt lat="36.9428243" lon="15.1458864"><ele>164.42857142857144</ele><time>2026-04-04T07:00:33.25Z</time></trkpt><trkpt lat="36.942885" lon="15.1459092"><ele>164.71428571428572</ele><time>2026-04-04T07:00:35.268Z</time></trkpt><trkpt lat="36.9429537" lon="15.1459753"><ele>165.0</ele><time>2026-04-04T07:00:37.28Z</time></trkpt><trkpt lat="36.9430409" lon="15.1460662"><ele>165.0</ele><time>2026-04-04T07:00:39.237Z</time></trkpt><trkpt lat="36.9431158" lon="15.1461518"><ele>165.0</ele><time>2026-04-04T07:00:41.258Z</time></trkpt><trkpt lat="36.9431709" lon="15.1461965"><ele>165.0</ele><time>2026-04-04T07:00:43.264Z</time></trkpt><trkpt lat="36.9432419" lon="15.1462404"><ele>165.0</ele><time>2026-04-04T07:00:46.251Z</time></trkpt><trkpt lat="36.9432576" lon="15.1463215"><ele>165.0</ele><time>2026-04-04T07:00:50.252Z</time></trkpt><trkpt lat="36.9432592" lon="15.1464027"><ele>165.0</ele><time>2026-04-04T07:00:54.289Z</time></trkpt><trkpt lat="36.9433174" lon="15.1464768"><ele>166.2857142857143</ele><time>2026-04-04T07:00:59.295Z</time></trkpt><trkpt lat="36.943342" lon="15.1465582"><ele>167.57142857142858</ele><time>2026-04-04T07:01:04.275Z</time></trkpt><trkpt lat="36.943356" lon="15.1466353"><ele>168.85714285714286</ele><time>2026-04-04T07:01:12.28Z</time></trkpt><trkpt lat="36.943436" lon="15.1465923"><ele>170.14285714285717</ele><time>2026-04-04T07:03:19.278Z</time></trkpt><trkpt lat="36.943518" lon="15.1465885"><ele>171.42857142857144</ele><time>2026-04-04T07:03:21.289Z</time></trkpt><trkpt lat="36.9435854" lon="15.1466315"><ele>172.71428571428572</ele><time>2026-04-04T07:03:24.278Z</time></trkpt><trkpt lat="36.9435177" lon="15.146614"><ele>174.0</ele><time>2026-04-04T07:04:10.268Z</time></trkpt><trkpt lat="36.943443" lon="15.1465674"><ele>174.0</ele><time>2026-04-04T07:04:34.272Z</time></trkpt><trkpt lat="36.9433779" lon="15.1465987"><ele>174.0</ele><time>2026-04-04T07:04:38.277Z</time></trkpt><trkpt lat="36.9434622" lon="15.1465836"><ele>174.0</ele><time>2026-04-04T07:05:51.242Z</time></trkpt><trkpt lat="36.9435469" lon="15.1466037"><ele>174.0</ele><time>2026-04-04T07:05:53.254Z</time></trkpt><trkpt lat="36.9436037" lon="15.1466401"><ele>174.0</ele><time>2026-04-04T07:05:55.274Z</time></trkpt><trkpt lat="36.9436413" lon="15.1467073"><ele>174.0</ele><time>2026-04-04T07:06:02.272Z</time></trkpt><trkpt lat="36.9436581" lon="15.1467839"><ele>174.0</ele><time>2026-04-04T07:06:41.282Z</time></trkpt><trkpt lat="36.943737" lon="15.146821"><ele>177.14285714285714</ele><time>2026-04-04T07:06:43.288Z</time></trkpt><trkpt lat="36.9438059" lon="15.1468681"><ele>180.28571428571428</ele><time>2026-04-04T07:06:45.268Z</time></trkpt><trkpt lat="36.9438686" lon="15.1468812"><ele>183.42857142857144</ele><time>2026-04-04T07:06:47.252Z</time></trkpt><trkpt lat="36.9439362" lon="15.1468629"><ele>186.57142857142856</ele><time>2026-04-04T07:06:49.258Z</time></trkpt><trkpt lat="36.9440034" lon="15.1468828"><ele>189.71428571428572</ele><time>2026-04-04T07:06:51.255Z</time></trkpt><trkpt lat="36.9440661" lon="15.1469212"><ele>192.85714285714286</ele><time>2026-04-04T07:06:53.241Z</time></trkpt><trkpt lat="36.9441469" lon="15.1469275"><ele>196.0</ele><time>2026-04-04T07:06:57.286Z</time></trkpt><trkpt lat="36.9442216" lon="15.1469635"><ele>199.0</ele><time>2026-04-04T07:06:59.265Z</time></trkpt><trkpt lat="36.944297" lon="15.1469349"><ele>202.0</ele><time>2026-04-04T07:07:02.293Z</time></trkpt><trkpt lat="36.9443707" lon="15.1469057"><ele>205.0</ele><time>2026-04-04T07:07:04.281Z</time></trkpt><trkpt lat="36.9444416" lon="15.1468646"><ele>208.0</ele><time>2026-04-04T07:07:06.277Z</time></trkpt><trkpt lat="36.9445003" lon="15.1468273"><ele>211.0</ele><time>2026-04-04T07:07:08.289Z</time></trkpt><trkpt lat="36.944565" lon="15.1468032"><ele>214.0</ele><time>2026-04-04T07:07:10.29Z</time></trkpt><trkpt lat="36.9446468" lon="15.1468059"><ele>217.0</ele><time>2026-04-04T07:07:12.27Z</time></trkpt><trkpt lat="36.9447113" lon="15.1468564"><ele>216.99999999999997</ele><time>2026-04-04T07:07:14.266Z</time></trkpt><trkpt lat="36.9447729" lon="15.1469106"><ele>217.0</ele><time>2026-04-04T07:07:16.278Z</time></trkpt><trkpt lat="36.9448249" lon="15.146957"><ele>217.0</ele><time>2026-04-04T07:07:18.283Z</time></trkpt><trkpt lat="36.9448955" lon="15.1470093"><ele>217.0</ele><time>2026-04-04T07:07:20.272Z</time></trkpt><trkpt lat="36.9449736" lon="15.1469977"><ele>216.99999999999997</ele><time>2026-04-04T07:07:37.27Z</time></trkpt><trkpt lat="36.945003" lon="15.1469058"><ele>217.0</ele><time>2026-04-04T07:07:40.286Z</time></trkpt><trkpt lat="36.9450039" lon="15.1468117"><ele>217.0</ele><time>2026-04-04T07:08:23.26Z</time></trkpt><trkpt lat="36.9450227" lon="15.1467194"><ele>217.0</ele><time>2026-04-04T07:08:54.299Z</time></trkpt><trkpt lat="36.9450771" lon="15.1466393"><ele>217.0</ele><time>2026-04-04T07:08:58.281Z</time></trkpt><trkpt lat="36.9451462" lon="15.1466185"><ele>217.0</ele><time>2026-04-04T07:09:01.258Z</time></trkpt><trkpt lat="36.945212" lon="15.1465621"><ele>217.0</ele><time>2026-04-04T07:09:06.277Z</time></trkpt><trkpt lat="36.9452494" lon="15.1464916"><ele>217.0</ele><time>2026-04-04T07:09:09.292Z</time></trkpt><trkpt lat="36.9453144" lon="15.146471"><ele>217.0</ele><time>2026-04-04T07:09:18.293Z</time></trkpt><trkpt lat="36.9453291" lon="15.1463907"><ele>222.83333333333331</ele><time>2026-04-04T07:09:37.275Z</time></trkpt><trkpt lat="36.9453193" lon="15.1463068"><ele>228.66666666666666</ele><time>2026-04-04T07:09:41.285Z</time></trkpt><trkpt lat="36.9453013" lon="15.1462077"><ele>234.5</ele><time>2026-04-04T07:09:45.298Z</time></trkpt><trkpt lat="36.945301" lon="15.1461118"><ele>240.33333333333331</ele><time>2026-04-04T07:12:20.291Z</time></trkpt><trkpt lat="36.9453698" lon="15.1460554"><ele>246.16666666666666</ele><time>2026-04-04T07:12:24.294Z</time></trkpt><trkpt lat="36.9454358" lon="15.1460318"><ele>252.0</ele><time>2026-04-04T07:12:27.282Z</time></trkpt><trkpt lat="36.9454989" lon="15.1459727"><ele>252.0</ele><time>2026-04-04T07:12:30.264Z</time></trkpt><trkpt lat="36.9455573" lon="15.1459399"><ele>252.0</ele><time>2026-04-04T07:12:32.287Z</time></trkpt><trkpt lat="36.945626" lon="15.1459079"><ele>252.0</ele><time>2026-04-04T07:12:34.196Z</time></trkpt><trkpt lat="36.9456812" lon="15.1458344"><ele>252.0</ele><time>2026-04-04T07:12:37.191Z</time></trkpt><trkpt lat="36.9457523" lon="15.1457938"><ele>252.0</ele><time>2026-04-04T07:12:40.268Z</time></trkpt><trkpt lat="36.9458186" lon="15.1457545"><ele>252.0</ele><time>2026-04-04T07:12:43.283Z</time></trkpt><trkpt lat="36.945871" lon="15.1456985"><ele>252.0</ele><time>2026-04-04T07:12:46.251Z</time></trkpt><trkpt lat="36.945946" lon="15.1456571"><ele>258.14285714285717</ele><time>2026-04-04T07:12:49.257Z</time></trkpt><trkpt lat="36.94602" lon="15.1455855"><ele>264.2857142857143</ele><time>2026-04-04T07:15:14.292Z</time></trkpt><trkpt lat="36.946087" lon="15.1455896"><ele>270.42857142857144</ele><time>2026-04-04T07:15:22.268Z</time></trkpt><trkpt lat="36.9461503" lon="15.1455639"><ele>276.57142857142856</ele><time>2026-04-04T07:15:40.285Z</time></trkpt><trkpt lat="36.9462169" lon="15.1454984"><ele>282.7142857142857</ele><time>2026-04-04T07:16:27.275Z</time></trkpt><trkpt lat="36.9462853" lon="15.145472"><ele>288.8571428571429</ele><time>2026-04-04T07:16:31.276Z</time></trkpt><trkpt lat="36.9463459" lon="15.1455015"><ele>295.0</ele><time>2026-04-04T07:17:11.187Z</time></trkpt><trkpt lat="36.94635" lon="15.1454218"><ele>295.00000000000006</ele><time>2026-04-04T07:17:16.264Z</time></trkpt><trkpt lat="36.9464287" lon="15.1454119"><ele>295.0</ele><time>2026-04-04T07:18:00.204Z</time></trkpt><trkpt lat="36.9464773" lon="15.1453533"><ele>295.0</ele><time>2026-04-04T07:18:50.29Z</time></trkpt><trkpt lat="36.9464816" lon="15.1452552"><ele>295.0</ele><time>2026-04-04T07:18:54.283Z</time></trkpt><trkpt lat="36.9464325" lon="15.1452007"><ele>295.0</ele><time>2026-04-04T07:21:13.282Z</time></trkpt><trkpt lat="36.94642" lon="15.1451204"><ele>295.00000000000006</ele><time>2026-04-04T07:21:26.285Z</time></trkpt><trkpt lat="36.9463918" lon="15.1450288"><ele>295.0</ele><time>2026-04-04T07:21:32.286Z</time></trkpt><trkpt lat="36.9463565" lon="15.1449617"><ele>296.3333333333333</ele><time>2026-04-04T07:21:43.28Z</time></trkpt><trkpt lat="36.9463395" lon="15.1448775"><ele>297.66666666666663</ele><time>2026-04-04T07:21:50.26Z</time></trkpt><trkpt lat="36.9463554" lon="15.144778"><ele>299.0</ele><time>2026-04-04T07:21:56.258Z</time></trkpt><trkpt lat="36.9463936" lon="15.1446844"><ele>300.3333333333333</ele><time>2026-04-04T07:21:59.265Z</time></trkpt><trkpt lat="36.9464558" lon="15.1446299"><ele>301.6666666666667</ele><time>2026-04-04T07:23:53.304Z</time></trkpt><trkpt lat="36.9465106" lon="15.1445726"><ele>303.0</ele><time>2026-04-04T07:23:55.275Z</time></trkpt><trkpt lat="36.9465654" lon="15.1445137"><ele>303.0</ele><time>2026-04-04T07:23:57.265Z</time></trkpt><trkpt lat="36.9466351" lon="15.1445077"><ele>303.0</ele><time>2026-04-04T07:24:00.258Z</time></trkpt><trkpt lat="36.9467104" lon="15.144562"><ele>303.0</ele><time>2026-04-04T07:24:04.289Z</time></trkpt><trkpt lat="36.9467727" lon="15.144543"><ele>303.0</ele><time>2026-04-04T07:24:49.258Z</time></trkpt><trkpt lat="36.9467606" lon="15.1444428"><ele>303.0</ele><time>2026-04-04T07:25:01.3Z</time></trkpt><trkpt lat="36.946834" lon="15.1444175"><ele>303.0</ele><time>2026-04-04T07:25:07.278Z</time></trkpt><trkpt lat="36.9469087" lon="15.1443901"><ele>308.2857142857143</ele><time>2026-04-04T07:25:14.255Z</time></trkpt><trkpt lat="36.9469539" lon="15.144335"><ele>313.57142857142856</ele><time>2026-04-04T07:25:17.285Z</time></trkpt><trkpt lat="36.9469862" lon="15.1442563"><ele>318.8571428571429</ele><time>2026-04-04T07:25:22.288Z</time></trkpt><trkpt lat="36.9470123" lon="15.144175"><ele>324.1428571428571</ele><time>2026-04-04T07:26:14.253Z</time></trkpt><trkpt lat="36.947008" lon="15.1440938"><ele>329.4285714285714</ele><time>2026-04-04T07:27:40.28Z</time></trkpt><trkpt lat="36.9470134" lon="15.1439981"><ele>334.7142857142857</ele><time>2026-04-04T07:27:43.298Z</time></trkpt><trkpt lat="36.9470393" lon="15.1438972"><ele>340.0</ele><time>2026-04-04T07:27:47.293Z</time></trkpt><trkpt lat="36.9470782" lon="15.1438086"><ele>342.8333333333333</ele><time>2026-04-04T07:27:50.262Z</time></trkpt><trkpt lat="36.9471319" lon="15.1437614"><ele>345.66666666666663</ele><time>2026-04-04T07:36:27.294Z</time></trkpt><trkpt lat="36.9471715" lon="15.1436878"><ele>348.5</ele><time>2026-04-04T07:36:32.276Z</time></trkpt><trkpt lat="36.9472057" lon="15.1436041"><ele>351.3333333333333</ele><time>2026-04-04T07:36:36.268Z</time></trkpt><trkpt lat="36.9472018" lon="15.1434941"><ele>354.1666666666667</ele><time>2026-04-04T07:38:36.268Z</time></trkpt><trkpt lat="36.9472641" lon="15.1434296"><ele>357.0</ele><time>2026-04-04T07:38:38.124Z</time></trkpt><trkpt lat="36.9472759" lon="15.1433342"><ele>357.0</ele><time>2026-04-04T07:38:41.29Z</time></trkpt><trkpt lat="36.9472374" lon="15.1434114"><ele>357.0</ele><time>2026-04-04T07:38:48.26Z</time></trkpt><trkpt lat="36.9472054" lon="15.1434849"><ele>357.0</ele><time>2026-04-04T07:40:00.277Z</time></trkpt><trkpt lat="36.9472423" lon="15.1434208"><ele>357.0</ele><time>2026-04-04T07:42:08.293Z</time></trkpt><trkpt lat="36.9472711" lon="15.1433486"><ele>357.0</ele><time>2026-04-04T07:42:11.314Z</time></trkpt><trkpt lat="36.947268" lon="15.1432671"><ele>357.0</ele><time>2026-04-04T07:47:11.244Z</time></trkpt><trkpt lat="36.9473287" lon="15.1432411"><ele>357.0</ele><time>2026-04-04T07:52:50.293Z</time></trkpt><trkpt lat="36.94735" lon="15.1431604"><ele>358.0</ele><time>2026-04-04T07:52:55.27Z</time></trkpt><trkpt lat="36.9473903" lon="15.1430942"><ele>359.0</ele><time>2026-04-04T07:54:17.268Z</time></trkpt><trkpt lat="36.9474524" lon="15.1430693"><ele>360.0</ele><time>2026-04-04T07:54:25.284Z</time></trkpt><trkpt lat="36.9474963" lon="15.1430051"><ele>361.0</ele><time>2026-04-04T07:54:28.302Z</time></trkpt><trkpt lat="36.9475387" lon="15.142927"><ele>362.0</ele><time>2026-04-04T07:54:35.314Z</time></trkpt><trkpt lat="36.9475695" lon="15.14285"><ele>363.0</ele><time>2026-04-04T07:54:39.26Z</time></trkpt><trkpt lat="36.9475847" lon="15.1427691"><ele>364.0</ele><time>2026-04-04T07:54:43.426Z</time></trkpt><trkpt lat="36.94764" lon="15.1427183"><ele>367.14285714285717</ele><time>2026-04-04T07:55:21.269Z</time></trkpt><trkpt lat="36.9476871" lon="15.1426613"><ele>370.2857142857143</ele><time>2026-04-04T07:55:28.292Z</time></trkpt><trkpt lat="36.9477366" lon="15.1426112"><ele>373.42857142857144</ele><time>2026-04-04T07:55:40.294Z</time></trkpt><trkpt lat="36.947785" lon="15.1425515"><ele>376.57142857142856</ele><time>2026-04-04T07:56:30.3Z</time></trkpt><trkpt lat="36.9478149" lon="15.1424658"><ele>379.7142857142857</ele><time>2026-04-04T07:58:32.281Z</time></trkpt><trkpt lat="36.9478456" lon="15.1423964"><ele>382.8571428571429</ele><time>2026-04-04T07:58:36.267Z</time></trkpt><trkpt lat="36.9478864" lon="15.1423157"><ele>386.0</ele><time>2026-04-04T08:06:27.306Z</time></trkpt><trkpt lat="36.9479559" lon="15.142327"><ele>386.14285714285717</ele><time>2026-04-04T08:06:58.256Z</time></trkpt><trkpt lat="36.9480184" lon="15.1423097"><ele>386.2857142857143</ele><time>2026-04-04T08:16:00.277Z</time></trkpt><trkpt lat="36.948058" lon="15.1422409"><ele>386.42857142857144</ele><time>2026-04-04T08:16:05.28Z</time></trkpt><trkpt lat="36.9481214" lon="15.1422024"><ele>386.57142857142856</ele><time>2026-04-04T08:20:20.286Z</time></trkpt><trkpt lat="36.9481587" lon="15.1421233"><ele>386.7142857142857</ele><time>2026-04-04T08:20:23.276Z</time></trkpt><trkpt lat="36.9482285" lon="15.1420273"><ele>386.8571428571429</ele><time>2026-04-04T08:20:26.291Z</time></trkpt><trkpt lat="36.9482381" lon="15.1419472"><ele>387.0</ele><time>2026-04-04T08:20:28.257Z</time></trkpt><trkpt lat="36.948261" lon="15.1418435"><ele>387.0</ele><time>2026-04-04T08:20:30.251Z</time></trkpt><trkpt lat="36.94832" lon="15.1417265"><ele>387.0</ele><time>2026-04-04T08:20:32.298Z</time></trkpt><trkpt lat="36.9483536" lon="15.141613"><ele>387.0</ele><time>2026-04-04T08:20:34.256Z</time></trkpt><trkpt lat="36.9484137" lon="15.1415211"><ele>387.0</ele><time>2026-04-04T08:20:37.306Z</time></trkpt><trkpt lat="36.9484745" lon="15.1414478"><ele>387.0</ele><time>2026-04-04T08:20:40.294Z</time></trkpt><trkpt lat="36.9484775" lon="15.141369"><ele>388.6666666666667</ele><time>2026-04-04T08:20:42.29Z</time></trkpt><trkpt lat="36.9484389" lon="15.1412829"><ele>390.33333333333337</ele><time>2026-04-04T08:20:45.288Z</time></trkpt><trkpt lat="36.9484017" lon="15.1412063"><ele>392.0</ele><time>2026-04-04T08:20:47.286Z</time></trkpt><trkpt lat="36.948392" lon="15.1411049"><ele>393.6666666666667</ele><time>2026-04-04T08:20:49.296Z</time></trkpt><trkpt lat="36.9483999" lon="15.1409949"><ele>395.33333333333337</ele><time>2026-04-04T08:20:51.269Z</time></trkpt><trkpt lat="36.9484379" lon="15.1409277"><ele>397.0</ele><time>2026-04-04T08:20:53.29Z</time></trkpt><trkpt lat="36.9484919" lon="15.1408507"><ele>397.0</ele><time>2026-04-04T08:20:55.289Z</time></trkpt><trkpt lat="36.9485498" lon="15.1407688"><ele>397.0</ele><time>2026-04-04T08:20:57.283Z</time></trkpt><trkpt lat="36.948602" lon="15.1406939"><ele>397.0</ele><time>2026-04-04T08:20:59.296Z</time></trkpt><trkpt lat="36.9486437" lon="15.140609"><ele>397.0</ele><time>2026-04-04T08:21:02.278Z</time></trkpt><trkpt lat="36.9487398" lon="15.1405272"><ele>397.0</ele><time>2026-04-04T08:21:05.299Z</time></trkpt><trkpt lat="36.9488189" lon="15.1404704"><ele>398.20000000000005</ele><time>2026-04-04T08:21:07.269Z</time></trkpt><trkpt lat="36.9489053" lon="15.1403964"><ele>399.4</ele><time>2026-04-04T08:21:09.29Z</time></trkpt><trkpt lat="36.9489725" lon="15.1403283"><ele>400.6</ele><time>2026-04-04T08:21:11.295Z</time></trkpt><trkpt lat="36.9490665" lon="15.1402607"><ele>401.79999999999995</ele><time>2026-04-04T08:21:13.289Z</time></trkpt><trkpt lat="36.9491566" lon="15.1402128"><ele>403.0</ele><time>2026-04-04T08:21:15.305Z</time></trkpt><trkpt lat="36.9492754" lon="15.1401442"><ele>403.0</ele><time>2026-04-04T08:21:17.306Z</time></trkpt><trkpt lat="36.9493498" lon="15.1400791"><ele>403.0</ele><time>2026-04-04T08:21:19.296Z</time></trkpt><trkpt lat="36.9494228" lon="15.1400065"><ele>403.0</ele><time>2026-04-04T08:21:22.303Z</time></trkpt><trkpt lat="36.9495152" lon="15.1399152"><ele>403.0</ele><time>2026-04-04T08:21:24.296Z</time></trkpt><trkpt lat="36.9495825" lon="15.1398762"><ele>403.0</ele><time>2026-04-04T08:21:25.309Z</time></trkpt><trkpt lat="36.9496524" lon="15.1398331"><ele>403.0</ele><time>2026-04-04T08:21:26.294Z</time></trkpt><trkpt lat="36.949715" lon="15.1397872"><ele>403.0</ele><time>2026-04-04T08:21:27.287Z</time></trkpt><trkpt lat="36.9497701" lon="15.139744"><ele>403.0</ele><time>2026-04-04T08:21:29.28Z</time></trkpt><trkpt lat="36.9497806" lon="15.1396087"><ele>403.0</ele><time>2026-04-04T08:21:32.28Z</time></trkpt><trkpt lat="36.9497743" lon="15.1394339"><ele>403.0</ele><time>2026-04-04T08:21:34.273Z</time></trkpt><trkpt lat="36.9497687" lon="15.1393214"><ele>403.0</ele><time>2026-04-04T08:21:35.295Z</time></trkpt><trkpt lat="36.9497623" lon="15.139212"><ele>403.0</ele><time>2026-04-04T08:21:36.309Z</time></trkpt><trkpt lat="36.9497603" lon="15.1391224"><ele>403.0</ele><time>2026-04-04T08:21:37.302Z</time></trkpt><trkpt lat="36.9498335" lon="15.1389993"><ele>403.0</ele><time>2026-04-04T08:21:39.3Z</time></trkpt><trkpt lat="36.9499049" lon="15.138909"><ele>403.0</ele><time>2026-04-04T08:21:40.3Z</time></trkpt><trkpt lat="36.9499835" lon="15.1387944"><ele>403.2</ele><time>2026-04-04T08:21:41.304Z</time></trkpt><trkpt lat="36.9500516" lon="15.138679"><ele>403.4</ele><time>2026-04-04T08:21:42.305Z</time></trkpt><trkpt lat="36.950122" lon="15.1385734"><ele>403.59999999999997</ele><time>2026-04-04T08:21:43.295Z</time></trkpt><trkpt lat="36.9501843" lon="15.1384888"><ele>403.79999999999995</ele><time>2026-04-04T08:21:44.296Z</time></trkpt><trkpt lat="36.9502593" lon="15.1384113"><ele>404.0</ele><time>2026-04-04T08:21:45.297Z</time></trkpt><trkpt lat="36.9503474" lon="15.1383189"><ele>404.0</ele><time>2026-04-04T08:21:46.286Z</time></trkpt><trkpt lat="36.9504465" lon="15.1382225"><ele>404.0</ele><time>2026-04-04T08:21:47.303Z</time></trkpt><trkpt lat="36.9505309" lon="15.1381342"><ele>404.0</ele><time>2026-04-04T08:21:48.295Z</time></trkpt><trkpt lat="36.950601" lon="15.1380434"><ele>404.0</ele><time>2026-04-04T08:21:49.314Z</time></trkpt><trkpt lat="36.9506527" lon="15.1379226"><ele>404.0</ele><time>2026-04-04T08:21:50.299Z</time></trkpt><trkpt lat="36.9507014" lon="15.1377922"><ele>404.99999999999994</ele><time>2026-04-04T08:21:51.305Z</time></trkpt><trkpt lat="36.9507438" lon="15.1376777"><ele>406.0</ele><time>2026-04-04T08:21:52.305Z</time></trkpt><trkpt lat="36.9507775" lon="15.1375724"><ele>407.0</ele><time>2026-04-04T08:21:53.248Z</time></trkpt><trkpt lat="36.9508057" lon="15.1374704"><ele>408.0</ele><time>2026-04-04T08:21:54.292Z</time></trkpt><trkpt lat="36.9508388" lon="15.1373994"><ele>408.99999999999994</ele><time>2026-04-04T08:21:55.3Z</time></trkpt><trkpt lat="36.9508854" lon="15.1373433"><ele>410.0</ele><time>2026-04-04T08:21:56.303Z</time></trkpt><trkpt lat="36.9509446" lon="15.1372748"><ele>412.25</ele><time>2026-04-04T08:21:57.307Z</time></trkpt><trkpt lat="36.9510153" lon="15.1371883"><ele>414.5</ele><time>2026-04-04T08:21:58.296Z</time></trkpt><trkpt lat="36.9510916" lon="15.1370788"><ele>416.75</ele><time>2026-04-04T08:21:59.295Z</time></trkpt><trkpt lat="36.9511697" lon="15.1369555"><ele>419.0</ele><time>2026-04-04T08:22:00.303Z</time></trkpt><trkpt lat="36.9512388" lon="15.1368369"><ele>418.99999999999994</ele><time>2026-04-04T08:22:01.303Z</time></trkpt><trkpt lat="36.9512903" lon="15.1367475"><ele>419.0</ele><time>2026-04-04T08:22:02.306Z</time></trkpt><trkpt lat="36.9513792" lon="15.1366478"><ele>419.0</ele><time>2026-04-04T08:22:04.32Z</time></trkpt><trkpt lat="36.9514361" lon="15.1365926"><ele>419.0</ele><time>2026-04-04T08:22:05.306Z</time></trkpt><trkpt lat="36.9514942" lon="15.1365285"><ele>418.99999999999994</ele><time>2026-04-04T08:22:06.304Z</time></trkpt><trkpt lat="36.9515527" lon="15.1364582"><ele>419.0</ele><time>2026-04-04T08:22:07.305Z</time></trkpt><trkpt lat="36.951587" lon="15.1363913"><ele>419.8333333333333</ele><time>2026-04-04T08:22:08.309Z</time></trkpt><trkpt lat="36.9516235" lon="15.1362558"><ele>420.66666666666663</ele><time>2026-04-04T08:22:10.291Z</time></trkpt><trkpt lat="36.9516756" lon="15.1361815"><ele>421.5</ele><time>2026-04-04T08:22:12.263Z</time></trkpt><trkpt lat="36.9516875" lon="15.1360474"><ele>422.33333333333337</ele><time>2026-04-04T08:22:14.298Z</time></trkpt><trkpt lat="36.9516999" lon="15.1359646"><ele>423.1666666666667</ele><time>2026-04-04T08:22:15.258Z</time></trkpt><trkpt lat="36.9517107" lon="15.1358745"><ele>424.0</ele><time>2026-04-04T08:22:16.314Z</time></trkpt><trkpt lat="36.9517249" lon="15.1357883"><ele>425.0</ele><time>2026-04-04T08:22:17.302Z</time></trkpt><trkpt lat="36.9517525" lon="15.1356405"><ele>426.0</ele><time>2026-04-04T08:22:19.286Z</time></trkpt><trkpt lat="36.9517655" lon="15.1355059"><ele>427.0</ele><time>2026-04-04T08:22:21.311Z</time></trkpt><trkpt lat="36.9518112" lon="15.135381"><ele>428.0</ele><time>2026-04-04T08:22:23.287Z</time></trkpt><trkpt lat="36.95186" lon="15.135277"><ele>429.0</ele><time>2026-04-04T08:22:25.301Z</time></trkpt><trkpt lat="36.9519042" lon="15.1351938"><ele>429.0</ele><time>2026-04-04T08:22:27.281Z</time></trkpt><trkpt lat="36.9519772" lon="15.1351375"><ele>429.0</ele><time>2026-04-04T08:22:29.267Z</time></trkpt><trkpt lat="36.9520837" lon="15.1350794"><ele>429.0</ele><time>2026-04-04T08:22:31.301Z</time></trkpt><trkpt lat="36.9521499" lon="15.1350713"><ele>429.0</ele><time>2026-04-04T08:22:32.293Z</time></trkpt><trkpt lat="36.9522345" lon="15.1350778"><ele>429.0</ele><time>2026-04-04T08:22:33.3Z</time></trkpt><trkpt lat="36.9523187" lon="15.1350775"><ele>429.0</ele><time>2026-04-04T08:22:34.307Z</time></trkpt><trkpt lat="36.952396" lon="15.1350823"><ele>429.0</ele><time>2026-04-04T08:22:35.261Z</time></trkpt><trkpt lat="36.9524592" lon="15.1350943"><ele>429.0</ele><time>2026-04-04T08:22:36.283Z</time></trkpt><trkpt lat="36.9525644" lon="15.1351154"><ele>429.0</ele><time>2026-04-04T08:22:38.302Z</time></trkpt><trkpt lat="36.9526427" lon="15.1350466"><ele>429.0</ele><time>2026-04-04T08:22:41.281Z</time></trkpt><trkpt lat="36.9526843" lon="15.1349638"><ele>429.0</ele><time>2026-04-04T08:22:42.302Z</time></trkpt><trkpt lat="36.9527374" lon="15.1348642"><ele>429.0</ele><time>2026-04-04T08:22:43.299Z</time></trkpt><trkpt lat="36.952785" lon="15.1347345"><ele>428.0</ele><time>2026-04-04T08:22:44.292Z</time></trkpt><trkpt lat="36.9528468" lon="15.1346044"><ele>427.0</ele><time>2026-04-04T08:22:45.284Z</time></trkpt><trkpt lat="36.952914" lon="15.1344709"><ele>426.0</ele><time>2026-04-04T08:22:46.298Z</time></trkpt><trkpt lat="36.9529773" lon="15.1343434"><ele>425.0</ele><time>2026-04-04T08:22:47.287Z</time></trkpt><trkpt lat="36.9530357" lon="15.1342173"><ele>425.0</ele><time>2026-04-04T08:22:48.298Z</time></trkpt><trkpt lat="36.9530956" lon="15.1340909"><ele>425.0</ele><time>2026-04-04T08:22:49.309Z</time></trkpt><trkpt lat="36.9531633" lon="15.1339673"><ele>425.0</ele><time>2026-04-04T08:22:50.292Z</time></trkpt><trkpt lat="36.9532288" lon="15.1338381"><ele>425.0</ele><time>2026-04-04T08:22:51.292Z</time></trkpt><trkpt lat="36.9532914" lon="15.1337087"><ele>425.4</ele><time>2026-04-04T08:22:52.29Z</time></trkpt><trkpt lat="36.9533528" lon="15.1335926"><ele>425.8</ele><time>2026-04-04T08:22:53.249Z</time></trkpt><trkpt lat="36.9534109" lon="15.1334779"><ele>426.20000000000005</ele><time>2026-04-04T08:22:54.285Z</time></trkpt><trkpt lat="36.9534684" lon="15.1333606"><ele>426.6</ele><time>2026-04-04T08:22:55.303Z</time></trkpt><trkpt lat="36.9535307" lon="15.1332369"><ele>427.0</ele><time>2026-04-04T08:22:56.299Z</time></trkpt><trkpt lat="36.9535966" lon="15.1331142"><ele>427.0</ele><time>2026-04-04T08:22:57.309Z</time></trkpt><trkpt lat="36.9536564" lon="15.1329927"><ele>427.00000000000006</ele><time>2026-04-04T08:22:58.294Z</time></trkpt><trkpt lat="36.9537138" lon="15.132876"><ele>427.00000000000006</ele><time>2026-04-04T08:22:59.31Z</time></trkpt><trkpt lat="36.9537636" lon="15.1327743"><ele>427.0</ele><time>2026-04-04T08:23:00.289Z</time></trkpt><trkpt lat="36.9538132" lon="15.1326774"><ele>427.0</ele><time>2026-04-04T08:23:01.298Z</time></trkpt><trkpt lat="36.9538595" lon="15.132582"><ele>427.0</ele><time>2026-04-04T08:23:02.295Z</time></trkpt><trkpt lat="36.953901" lon="15.1324941"><ele>427.00000000000006</ele><time>2026-04-04T08:23:03.295Z</time></trkpt><trkpt lat="36.953947" lon="15.1324194"><ele>427.00000000000006</ele><time>2026-04-04T08:23:04.286Z</time></trkpt><trkpt lat="36.9540329" lon="15.1323261"><ele>427.0</ele><time>2026-04-04T08:23:06.274Z</time></trkpt><trkpt lat="36.9541433" lon="15.1323651"><ele>427.0</ele><time>2026-04-04T08:23:08.292Z</time></trkpt><trkpt lat="36.9542023" lon="15.1324212"><ele>424.8</ele><time>2026-04-04T08:23:09.261Z</time></trkpt><trkpt lat="36.9542694" lon="15.1324893"><ele>422.6</ele><time>2026-04-04T08:23:10.256Z</time></trkpt><trkpt lat="36.9543423" lon="15.13257"><ele>420.40000000000003</ele><time>2026-04-04T08:23:11.256Z</time></trkpt><trkpt lat="36.9544175" lon="15.1326324"><ele>418.20000000000005</ele><time>2026-04-04T08:23:12.28Z</time></trkpt><trkpt lat="36.9544827" lon="15.1326866"><ele>416.0</ele><time>2026-04-04T08:23:13.292Z</time></trkpt><trkpt lat="36.9545717" lon="15.1327512"><ele>416.0</ele><time>2026-04-04T08:23:15.27Z</time></trkpt><trkpt lat="36.9546726" lon="15.1327189"><ele>416.0</ele><time>2026-04-04T08:23:17.291Z</time></trkpt><trkpt lat="36.9547502" lon="15.1326835"><ele>416.0</ele><time>2026-04-04T08:23:18.299Z</time></trkpt><trkpt lat="36.9548295" lon="15.1326374"><ele>416.0</ele><time>2026-04-04T08:23:19.287Z</time></trkpt><trkpt lat="36.9549205" lon="15.1325738"><ele>416.0</ele><time>2026-04-04T08:23:20.277Z</time></trkpt><trkpt lat="36.955018" lon="15.1325018"><ele>416.0</ele><time>2026-04-04T08:23:21.295Z</time></trkpt><trkpt lat="36.9551406" lon="15.1324348"><ele>416.0</ele><time>2026-04-04T08:23:22.287Z</time></trkpt><trkpt lat="36.9552676" lon="15.1323653"><ele>416.0</ele><time>2026-04-04T08:23:23.297Z</time></trkpt><trkpt lat="36.9553719" lon="15.1323078"><ele>416.0</ele><time>2026-04-04T08:23:24.301Z</time></trkpt><trkpt lat="36.9554509" lon="15.132276"><ele>415.99999999999994</ele><time>2026-04-04T08:23:25.297Z</time></trkpt><trkpt lat="36.9555141" lon="15.1322871"><ele>416.0</ele><time>2026-04-04T08:23:26.297Z</time></trkpt><trkpt lat="36.955561" lon="15.1323484"><ele>416.0</ele><time>2026-04-04T08:23:28.279Z</time></trkpt><trkpt lat="36.9555818" lon="15.1325132"><ele>416.0</ele><time>2026-04-04T08:23:30.293Z</time></trkpt><trkpt lat="36.9555927" lon="15.1326258"><ele>415.99999999999994</ele><time>2026-04-04T08:23:31.29Z</time></trkpt><trkpt lat="36.9555873" lon="15.132728"><ele>416.0</ele><time>2026-04-04T08:23:32.285Z</time></trkpt><trkpt lat="36.9555809" lon="15.132814"><ele>415.99999999999994</ele><time>2026-04-04T08:23:33.307Z</time></trkpt><trkpt lat="36.9555779" lon="15.1328977"><ele>416.0</ele><time>2026-04-04T08:23:34.295Z</time></trkpt><trkpt lat="36.9555697" lon="15.1329886"><ele>416.0</ele><time>2026-04-04T08:23:35.288Z</time></trkpt><trkpt lat="36.9555706" lon="15.1330837"><ele>416.0</ele><time>2026-04-04T08:23:36.298Z</time></trkpt><trkpt lat="36.9555756" lon="15.1331653"><ele>415.99999999999994</ele><time>2026-04-04T08:23:37.476Z</time></trkpt><trkpt lat="36.9555796" lon="15.1333176"><ele>416.0</ele><time>2026-04-04T08:23:39.3Z</time></trkpt><trkpt lat="36.9555855" lon="15.1334708"><ele>416.99999999999994</ele><time>2026-04-04T08:23:41.304Z</time></trkpt><trkpt lat="36.9555999" lon="15.1335875"><ele>418.0</ele><time>2026-04-04T08:23:43.275Z</time></trkpt><trkpt lat="36.9556644" lon="15.1336847"><ele>419.0</ele><time>2026-04-04T08:23:45.291Z</time></trkpt><trkpt lat="36.9557563" lon="15.1337434"><ele>420.0</ele><time>2026-04-04T08:23:47.418Z</time></trkpt><trkpt lat="36.9558193" lon="15.1337563"><ele>420.99999999999994</ele><time>2026-04-04T08:23:48.35Z</time></trkpt><trkpt lat="36.9558913" lon="15.1337651"><ele>422.0</ele><time>2026-04-04T08:23:49.267Z</time></trkpt><trkpt lat="36.9559659" lon="15.1337729"><ele>423.16666666666663</ele><time>2026-04-04T08:23:50.272Z</time></trkpt><trkpt lat="36.9560546" lon="15.1337829"><ele>424.3333333333333</ele><time>2026-04-04T08:23:51.347Z</time></trkpt><trkpt lat="36.9561426" lon="15.1337988"><ele>425.5</ele><time>2026-04-04T08:23:52.362Z</time></trkpt><trkpt lat="36.9562196" lon="15.1338086"><ele>426.66666666666663</ele><time>2026-04-04T08:23:53.311Z</time></trkpt><trkpt lat="36.9562878" lon="15.1338124"><ele>427.8333333333333</ele><time>2026-04-04T08:23:54.298Z</time></trkpt><trkpt lat="36.956405" lon="15.1338188"><ele>429.0</ele><time>2026-04-04T08:23:56.299Z</time></trkpt><trkpt lat="36.9565151" lon="15.1338298"><ele>429.0</ele><time>2026-04-04T08:23:58.304Z</time></trkpt><trkpt lat="36.9565867" lon="15.1338418"><ele>429.0</ele><time>2026-04-04T08:23:59.293Z</time></trkpt><trkpt lat="36.95666" lon="15.1338576"><ele>429.0</ele><time>2026-04-04T08:24:00.295Z</time></trkpt><trkpt lat="36.9567294" lon="15.1338655"><ele>429.0</ele><time>2026-04-04T08:24:01.332Z</time></trkpt><trkpt lat="36.956802" lon="15.1338721"><ele>429.0</ele><time>2026-04-04T08:24:02.267Z</time></trkpt><trkpt lat="36.9568852" lon="15.1338836"><ele>429.0</ele><time>2026-04-04T08:24:03.293Z</time></trkpt><trkpt lat="36.9569688" lon="15.1338962"><ele>429.0</ele><time>2026-04-04T08:24:04.297Z</time></trkpt><trkpt lat="36.9570591" lon="15.1339091"><ele>429.0</ele><time>2026-04-04T08:24:05.292Z</time></trkpt><trkpt lat="36.9571537" lon="15.1339194"><ele>429.0</ele><time>2026-04-04T08:24:06.296Z</time></trkpt><trkpt lat="36.9572428" lon="15.1339423"><ele>429.0</ele><time>2026-04-04T08:24:07.301Z</time></trkpt><trkpt lat="36.9573257" lon="15.1339765"><ele>429.0</ele><time>2026-04-04T08:24:08.264Z</time></trkpt><trkpt lat="36.9573964" lon="15.1340265"><ele>429.0</ele><time>2026-04-04T08:24:09.29Z</time></trkpt><trkpt lat="36.9574682" lon="15.1340744"><ele>429.2</ele><time>2026-04-04T08:24:10.253Z</time></trkpt><trkpt lat="36.9575492" lon="15.1341153"><ele>429.4</ele><time>2026-04-04T08:24:11.304Z</time></trkpt><trkpt lat="36.9576369" lon="15.1341407"><ele>429.6</ele><time>2026-04-04T08:24:12.304Z</time></trkpt><trkpt lat="36.9577172" lon="15.1341842"><ele>429.8</ele><time>2026-04-04T08:24:13.298Z</time></trkpt><trkpt lat="36.9578213" lon="15.13423"><ele>430.0</ele><time>2026-04-04T08:24:14.267Z</time></trkpt><trkpt lat="36.9579455" lon="15.134264"><ele>430.0</ele><time>2026-04-04T08:24:15.284Z</time></trkpt><trkpt lat="36.9580704" lon="15.1343044"><ele>430.0</ele><time>2026-04-04T08:24:16.309Z</time></trkpt><trkpt lat="36.9581867" lon="15.1343483"><ele>430.0</ele><time>2026-04-04T08:24:17.291Z</time></trkpt><trkpt lat="36.9583008" lon="15.1344057"><ele>430.0</ele><time>2026-04-04T08:24:18.293Z</time></trkpt><trkpt lat="36.9584115" lon="15.1344631"><ele>429.0</ele><time>2026-04-04T08:24:19.293Z</time></trkpt><trkpt lat="36.9585214" lon="15.1345116"><ele>428.0</ele><time>2026-04-04T08:24:20.297Z</time></trkpt><trkpt lat="36.9586236" lon="15.1345522"><ele>427.0</ele><time>2026-04-04T08:24:21.298Z</time></trkpt><trkpt lat="36.9587159" lon="15.1345924"><ele>426.0</ele><time>2026-04-04T08:24:22.454Z</time></trkpt><trkpt lat="36.9588053" lon="15.1346319"><ele>425.0</ele><time>2026-04-04T08:24:23.364Z</time></trkpt><trkpt lat="36.9588854" lon="15.1346586"><ele>424.99999999999994</ele><time>2026-04-04T08:24:24.295Z</time></trkpt><trkpt lat="36.9589558" lon="15.1346815"><ele>425.0</ele><time>2026-04-04T08:24:25.404Z</time></trkpt><trkpt lat="36.9590441" lon="15.1346685"><ele>425.0</ele><time>2026-04-04T08:24:27.358Z</time></trkpt><trkpt lat="36.9590884" lon="15.1345647"><ele>425.0</ele><time>2026-04-04T08:24:30.296Z</time></trkpt><trkpt lat="36.9591084" lon="15.1344792"><ele>424.99999999999994</ele><time>2026-04-04T08:24:33.263Z</time></trkpt><trkpt lat="36.9591121" lon="15.1343958"><ele>425.0</ele><time>2026-04-04T08:24:39.292Z</time></trkpt><trkpt lat="36.9591356" lon="15.1342419"><ele>424.99999999999994</ele><time>2026-04-04T08:24:41.273Z</time></trkpt><trkpt lat="36.9591608" lon="15.1341645"><ele>425.0</ele><time>2026-04-04T08:24:42.297Z</time></trkpt><trkpt lat="36.9591887" lon="15.1340922"><ele>425.0</ele><time>2026-04-04T08:24:43.283Z</time></trkpt><trkpt lat="36.9592368" lon="15.133989"><ele>425.0</ele><time>2026-04-04T08:24:45.271Z</time></trkpt><trkpt lat="36.9592933" lon="15.1338678"><ele>424.99999999999994</ele><time>2026-04-04T08:24:47.296Z</time></trkpt><trkpt lat="36.9593236" lon="15.1337903"><ele>425.0</ele><time>2026-04-04T08:24:48.296Z</time></trkpt><trkpt lat="36.9593594" lon="15.1337065"><ele>426.2</ele><time>2026-04-04T08:24:49.303Z</time></trkpt><trkpt lat="36.9593879" lon="15.1336139"><ele>427.4</ele><time>2026-04-04T08:24:50.285Z</time></trkpt><trkpt lat="36.9594121" lon="15.1335115"><ele>428.6</ele><time>2026-04-04T08:24:51.297Z</time></trkpt><trkpt lat="36.9594383" lon="15.13341"><ele>429.8</ele><time>2026-04-04T08:24:52.297Z</time></trkpt><trkpt lat="36.9594684" lon="15.1332949"><ele>431.0</ele><time>2026-04-04T08:24:53.295Z</time></trkpt><trkpt lat="36.9595231" lon="15.1331673"><ele>431.0</ele><time>2026-04-04T08:24:54.292Z</time></trkpt><trkpt lat="36.9595856" lon="15.1330311"><ele>431.0</ele><time>2026-04-04T08:24:55.291Z</time></trkpt><trkpt lat="36.9596466" lon="15.1328933"><ele>431.0</ele><time>2026-04-04T08:24:56.285Z</time></trkpt><trkpt lat="36.9596903" lon="15.1327477"><ele>431.0</ele><time>2026-04-04T08:24:57.293Z</time></trkpt><trkpt lat="36.9597115" lon="15.1325686"><ele>434.3333333333333</ele><time>2026-04-04T08:24:58.294Z</time></trkpt><trkpt lat="36.9597154" lon="15.1323712"><ele>437.66666666666663</ele><time>2026-04-04T08:24:59.296Z</time></trkpt><trkpt lat="36.9597204" lon="15.1321635"><ele>441.0</ele><time>2026-04-04T08:25:00.288Z</time></trkpt><trkpt lat="36.9597195" lon="15.1319474"><ele>441.0</ele><time>2026-04-04T08:25:01.297Z</time></trkpt><trkpt lat="36.959727" lon="15.1317287"><ele>441.0</ele><time>2026-04-04T08:25:02.285Z</time></trkpt><trkpt lat="36.9597391" lon="15.1315179"><ele>441.0</ele><time>2026-04-04T08:25:03.286Z</time></trkpt><trkpt lat="36.9597624" lon="15.1313163"><ele>440.66666666666663</ele><time>2026-04-04T08:25:04.296Z</time></trkpt><trkpt lat="36.9597941" lon="15.1311202"><ele>440.3333333333333</ele><time>2026-04-04T08:25:05.467Z</time></trkpt><trkpt lat="36.9598352" lon="15.1309354"><ele>440.0</ele><time>2026-04-04T08:25:06.378Z</time></trkpt><trkpt lat="36.9598818" lon="15.1307527"><ele>439.0</ele><time>2026-04-04T08:25:07.415Z</time></trkpt><trkpt lat="36.9599448" lon="15.1305665"><ele>438.0</ele><time>2026-04-04T08:25:08.351Z</time></trkpt><trkpt lat="36.9600174" lon="15.1303736"><ele>437.0</ele><time>2026-04-04T08:25:09.331Z</time></trkpt><trkpt lat="36.9600918" lon="15.1301867"><ele>433.75</ele><time>2026-04-04T08:25:10.289Z</time></trkpt><trkpt lat="36.9601563" lon="15.1300108"><ele>430.5</ele><time>2026-04-04T08:25:11.305Z</time></trkpt><trkpt lat="36.9602138" lon="15.1298459"><ele>427.25</ele><time>2026-04-04T08:25:12.291Z</time></trkpt><trkpt lat="36.9602667" lon="15.1296895"><ele>424.0</ele><time>2026-04-04T08:25:13.413Z</time></trkpt><trkpt lat="36.9603976" lon="15.1293388"><ele>424.0</ele><time>2026-04-04T08:25:15.297Z</time></trkpt><trkpt lat="36.9604703" lon="15.1291434"><ele>424.0</ele><time>2026-04-04T08:25:16.297Z</time></trkpt><trkpt lat="36.960524" lon="15.1289636"><ele>424.0</ele><time>2026-04-04T08:25:17.276Z</time></trkpt><trkpt lat="36.9605682" lon="15.1288223"><ele>424.0</ele><time>2026-04-04T08:25:18.291Z</time></trkpt><trkpt lat="36.9606013" lon="15.1286745"><ele>427.6</ele><time>2026-04-04T08:25:19.289Z</time></trkpt><trkpt lat="36.9606394" lon="15.1285434"><ele>431.2</ele><time>2026-04-04T08:25:20.265Z</time></trkpt><trkpt lat="36.9606739" lon="15.1284237"><ele>434.80000000000007</ele><time>2026-04-04T08:25:21.29Z</time></trkpt><trkpt lat="36.9607185" lon="15.1283012"><ele>438.40000000000003</ele><time>2026-04-04T08:25:22.291Z</time></trkpt><trkpt lat="36.9607777" lon="15.1281725"><ele>442.0</ele><time>2026-04-04T08:25:23.304Z</time></trkpt><trkpt lat="36.9608412" lon="15.1280328"><ele>428.0</ele><time>2026-04-04T08:25:24.298Z</time></trkpt><trkpt lat="36.960893" lon="15.1278942"><ele>414.0</ele><time>2026-04-04T08:25:25.297Z</time></trkpt><trkpt lat="36.9609318" lon="15.1277465"><ele>400.0</ele><time>2026-04-04T08:25:26.289Z</time></trkpt><trkpt lat="36.9609533" lon="15.1275901"><ele>386.0</ele><time>2026-04-04T08:25:27.297Z</time></trkpt><trkpt lat="36.9609655" lon="15.1274394"><ele>391.99999999999994</ele><time>2026-04-04T08:25:28.293Z</time></trkpt><trkpt lat="36.9609826" lon="15.1272953"><ele>398.0</ele><time>2026-04-04T08:25:29.294Z</time></trkpt><trkpt lat="36.9609981" lon="15.1271843"><ele>404.0</ele><time>2026-04-04T08:25:30.314Z</time></trkpt><trkpt lat="36.9610236" lon="15.1271037"><ele>410.0</ele><time>2026-04-04T08:25:31.263Z</time></trkpt><trkpt lat="36.961069" lon="15.1270247"><ele>415.99999999999994</ele><time>2026-04-04T08:25:32.295Z</time></trkpt><trkpt lat="36.9611201" lon="15.1269375"><ele>422.0</ele><time>2026-04-04T08:25:33.286Z</time></trkpt><trkpt lat="36.9611519" lon="15.1268108"><ele>422.0</ele><time>2026-04-04T08:25:34.289Z</time></trkpt><trkpt lat="36.9611778" lon="15.1266528"><ele>422.0</ele><time>2026-04-04T08:25:35.302Z</time></trkpt><trkpt lat="36.9612234" lon="15.1264975"><ele>422.0</ele><time>2026-04-04T08:25:36.301Z</time></trkpt><trkpt lat="36.9612851" lon="15.1263508"><ele>422.0</ele><time>2026-04-04T08:25:37.254Z</time></trkpt><trkpt lat="36.9613605" lon="15.1262138"><ele>417.8</ele><time>2026-04-04T08:25:38.279Z</time></trkpt><trkpt lat="36.9614413" lon="15.126097"><ele>413.6</ele><time>2026-04-04T08:25:39.301Z</time></trkpt><trkpt lat="36.961528" lon="15.1260007"><ele>409.40000000000003</ele><time>2026-04-04T08:25:40.305Z</time></trkpt><trkpt lat="36.9616057" lon="15.125902"><ele>405.20000000000005</ele><time>2026-04-04T08:25:41.308Z</time></trkpt><trkpt lat="36.9616685" lon="15.1258063"><ele>401.0</ele><time>2026-04-04T08:25:42.356Z</time></trkpt><trkpt lat="36.9617111" lon="15.1256966"><ele>401.0</ele><time>2026-04-04T08:25:43.303Z</time></trkpt><trkpt lat="36.9617607" lon="15.1255572"><ele>401.0</ele><time>2026-04-04T08:25:44.304Z</time></trkpt><trkpt lat="36.9618307" lon="15.1254117"><ele>401.0</ele><time>2026-04-04T08:25:45.287Z</time></trkpt><trkpt lat="36.9619116" lon="15.1252431"><ele>401.0</ele><time>2026-04-04T08:25:46.306Z</time></trkpt><trkpt lat="36.961989" lon="15.1250672"><ele>413.0</ele><time>2026-04-04T08:25:47.31Z</time></trkpt><trkpt lat="36.9620629" lon="15.1248838"><ele>425.0</ele><time>2026-04-04T08:25:48.311Z</time></trkpt><trkpt lat="36.9621242" lon="15.1247036"><ele>437.0</ele><time>2026-04-04T08:25:49.288Z</time></trkpt><trkpt lat="36.9621786" lon="15.1245373"><ele>437.0</ele><time>2026-04-04T08:25:50.299Z</time></trkpt><trkpt lat="36.9622273" lon="15.1243643"><ele>437.0</ele><time>2026-04-04T08:25:51.297Z</time></trkpt><trkpt lat="36.962272" lon="15.1241938"><ele>437.0</ele><time>2026-04-04T08:25:52.294Z</time></trkpt><trkpt lat="36.9623185" lon="15.124033"><ele>437.0</ele><time>2026-04-04T08:25:53.285Z</time></trkpt><trkpt lat="36.9623739" lon="15.123877"><ele>440.5</ele><time>2026-04-04T08:25:54.288Z</time></trkpt><trkpt lat="36.9624367" lon="15.1237137"><ele>444.0</ele><time>2026-04-04T08:25:55.297Z</time></trkpt><trkpt lat="36.9624965" lon="15.1235468"><ele>447.5</ele><time>2026-04-04T08:25:56.293Z</time></trkpt><trkpt lat="36.9625642" lon="15.1234079"><ele>451.0</ele><time>2026-04-04T08:25:57.263Z</time></trkpt><trkpt lat="36.9626259" lon="15.1232938"><ele>446.0</ele><time>2026-04-04T08:25:58.264Z</time></trkpt><trkpt lat="36.9626886" lon="15.1232052"><ele>441.0</ele><time>2026-04-04T08:25:59.3Z</time></trkpt><trkpt lat="36.9627551" lon="15.1231215"><ele>436.0</ele><time>2026-04-04T08:26:00.277Z</time></trkpt><trkpt lat="36.9628378" lon="15.123054"><ele>431.0</ele><time>2026-04-04T08:26:01.291Z</time></trkpt><trkpt lat="36.9629083" lon="15.1229822"><ele>426.0</ele><time>2026-04-04T08:26:02.303Z</time></trkpt><trkpt lat="36.9629734" lon="15.1229123"><ele>426.0</ele><time>2026-04-04T08:26:03.294Z</time></trkpt><trkpt lat="36.9630287" lon="15.1228431"><ele>426.0</ele><time>2026-04-04T08:26:04.271Z</time></trkpt><trkpt lat="36.9630849" lon="15.1227684"><ele>426.0</ele><time>2026-04-04T08:26:05.317Z</time></trkpt><trkpt lat="36.9631383" lon="15.1226672"><ele>426.0</ele><time>2026-04-04T08:26:06.288Z</time></trkpt><trkpt lat="36.963182" lon="15.1225461"><ele>426.0</ele><time>2026-04-04T08:26:07.294Z</time></trkpt><trkpt lat="36.9632191" lon="15.1223952"><ele>432.66666666666663</ele><time>2026-04-04T08:26:08.297Z</time></trkpt><trkpt lat="36.9632408" lon="15.1222177"><ele>439.3333333333333</ele><time>2026-04-04T08:26:09.295Z</time></trkpt><trkpt lat="36.9632677" lon="15.1220213"><ele>446.0</ele><time>2026-04-04T08:26:10.271Z</time></trkpt><trkpt lat="36.9632959" lon="15.1218172"><ele>446.0</ele><time>2026-04-04T08:26:11.282Z</time></trkpt><trkpt lat="36.9633167" lon="15.1216214"><ele>446.0</ele><time>2026-04-04T08:26:12.313Z</time></trkpt><trkpt lat="36.9633258" lon="15.1214456"><ele>446.0</ele><time>2026-04-04T08:26:13.285Z</time></trkpt><trkpt lat="36.9633113" lon="15.1212891"><ele>446.0</ele><time>2026-04-04T08:26:14.299Z</time></trkpt><trkpt lat="36.9632753" lon="15.1211448"><ele>446.0</ele><time>2026-04-04T08:26:15.302Z</time></trkpt><trkpt lat="36.963233" lon="15.1210292"><ele>446.0</ele><time>2026-04-04T08:26:16.311Z</time></trkpt><trkpt lat="36.9631975" lon="15.1208951"><ele>446.0</ele><time>2026-04-04T08:26:17.264Z</time></trkpt><trkpt lat="36.9631695" lon="15.1207389"><ele>446.0</ele><time>2026-04-04T08:26:18.293Z</time></trkpt><trkpt lat="36.9631399" lon="15.1205875"><ele>443.75</ele><time>2026-04-04T08:26:19.298Z</time></trkpt><trkpt lat="36.9631168" lon="15.12043"><ele>441.5</ele><time>2026-04-04T08:26:20.3Z</time></trkpt><trkpt lat="36.9631" lon="15.1202918"><ele>439.25</ele><time>2026-04-04T08:26:21.293Z</time></trkpt><trkpt lat="36.9630768" lon="15.1201653"><ele>437.0</ele><time>2026-04-04T08:26:22.291Z</time></trkpt><trkpt lat="36.9630414" lon="15.1200381"><ele>437.0</ele><time>2026-04-04T08:26:23.27Z</time></trkpt><trkpt lat="36.9629784" lon="15.1199197"><ele>437.0</ele><time>2026-04-04T08:26:24.293Z</time></trkpt><trkpt lat="36.9628992" lon="15.1198044"><ele>437.0</ele><time>2026-04-04T08:26:25.265Z</time></trkpt><trkpt lat="36.9628091" lon="15.1196636"><ele>437.0</ele><time>2026-04-04T08:26:26.297Z</time></trkpt><trkpt lat="36.9627088" lon="15.1195214"><ele>436.25</ele><time>2026-04-04T08:26:27.3Z</time></trkpt><trkpt lat="36.9626131" lon="15.1193764"><ele>435.5</ele><time>2026-04-04T08:26:28.288Z</time></trkpt><trkpt lat="36.9625135" lon="15.1192334"><ele>434.75</ele><time>2026-04-04T08:26:29.301Z</time></trkpt><trkpt lat="36.9624377" lon="15.1191124"><ele>434.0</ele><time>2026-04-04T08:26:30.29Z</time></trkpt><trkpt lat="36.962405" lon="15.1190158"><ele>437.2</ele><time>2026-04-04T08:26:31.314Z</time></trkpt><trkpt lat="36.9624027" lon="15.1189221"><ele>440.4</ele><time>2026-04-04T08:26:32.313Z</time></trkpt><trkpt lat="36.9624193" lon="15.1187962"><ele>443.6</ele><time>2026-04-04T08:26:33.299Z</time></trkpt><trkpt lat="36.962437" lon="15.1186423"><ele>446.8</ele><time>2026-04-04T08:26:34.306Z</time></trkpt><trkpt lat="36.962449" lon="15.1184613"><ele>450.0</ele><time>2026-04-04T08:26:35.302Z</time></trkpt><trkpt lat="36.9624738" lon="15.1182664"><ele>448.66666666666663</ele><time>2026-04-04T08:26:36.294Z</time></trkpt><trkpt lat="36.9624977" lon="15.1180616"><ele>447.3333333333333</ele><time>2026-04-04T08:26:37.251Z</time></trkpt><trkpt lat="36.9625242" lon="15.1178801"><ele>446.0</ele><time>2026-04-04T08:26:38.302Z</time></trkpt><trkpt lat="36.9625312" lon="15.1176959"><ele>446.0</ele><time>2026-04-04T08:26:39.308Z</time></trkpt><trkpt lat="36.9625269" lon="15.1175028"><ele>446.0</ele><time>2026-04-04T08:26:40.305Z</time></trkpt><trkpt lat="36.962518" lon="15.1173176"><ele>446.0</ele><time>2026-04-04T08:26:41.373Z</time></trkpt><trkpt lat="36.9625001" lon="15.1171363"><ele>446.0</ele><time>2026-04-04T08:26:42.32Z</time></trkpt><trkpt lat="36.9624801" lon="15.1169643"><ele>445.75</ele><time>2026-04-04T08:26:43.306Z</time></trkpt><trkpt lat="36.9624586" lon="15.1167931"><ele>445.5</ele><time>2026-04-04T08:26:44.29Z</time></trkpt><trkpt lat="36.9624388" lon="15.1166118"><ele>445.25</ele><time>2026-04-04T08:26:45.318Z</time></trkpt><trkpt lat="36.9624242" lon="15.1164398"><ele>445.0</ele><time>2026-04-04T08:26:46.302Z</time></trkpt><trkpt lat="36.9624202" lon="15.1162838"><ele>445.8</ele><time>2026-04-04T08:26:47.313Z</time></trkpt><trkpt lat="36.962434" lon="15.1161483"><ele>446.6</ele><time>2026-04-04T08:26:48.314Z</time></trkpt><trkpt lat="36.9624479" lon="15.1160273"><ele>447.4</ele><time>2026-04-04T08:26:49.315Z</time></trkpt><trkpt lat="36.9624648" lon="15.1158911"><ele>448.2</ele><time>2026-04-04T08:26:50.305Z</time></trkpt><trkpt lat="36.9624853" lon="15.1157578"><ele>449.0</ele><time>2026-04-04T08:26:51.297Z</time></trkpt><trkpt lat="36.9625104" lon="15.1156236"><ele>428.0</ele><time>2026-04-04T08:26:52.284Z</time></trkpt><trkpt lat="36.9625402" lon="15.1154857"><ele>407.0</ele><time>2026-04-04T08:26:53.292Z</time></trkpt><trkpt lat="36.9625732" lon="15.1153476"><ele>386.0</ele><time>2026-04-04T08:26:54.286Z</time></trkpt><trkpt lat="36.9626076" lon="15.1152059"><ele>365.0</ele><time>2026-04-04T08:26:55.303Z</time></trkpt><trkpt lat="36.962648" lon="15.1150619"><ele>365.0</ele><time>2026-04-04T08:26:56.285Z</time></trkpt><trkpt lat="36.9626876" lon="15.114922"><ele>365.0</ele><time>2026-04-04T08:26:57.303Z</time></trkpt><trkpt lat="36.9627306" lon="15.1147829"><ele>365.0</ele><time>2026-04-04T08:26:58.3Z</time></trkpt><trkpt lat="36.9627742" lon="15.1146439"><ele>365.0</ele><time>2026-04-04T08:26:59.3Z</time></trkpt><trkpt lat="36.9628155" lon="15.1145081"><ele>373.75</ele><time>2026-04-04T08:27:00.293Z</time></trkpt><trkpt lat="36.9628522" lon="15.1143672"><ele>382.5</ele><time>2026-04-04T08:27:01.298Z</time></trkpt><trkpt lat="36.9629019" lon="15.1142049"><ele>391.25</ele><time>2026-04-04T08:27:02.302Z</time></trkpt><trkpt lat="36.9629499" lon="15.1140405"><ele>400.0</ele><time>2026-04-04T08:27:03.321Z</time></trkpt><trkpt lat="36.9629899" lon="15.1138614"><ele>412.33333333333337</ele><time>2026-04-04T08:27:04.275Z</time></trkpt><trkpt lat="36.9630312" lon="15.1136698"><ele>424.66666666666663</ele><time>2026-04-04T08:27:05.301Z</time></trkpt><trkpt lat="36.9630731" lon="15.1134714"><ele>437.0</ele><time>2026-04-04T08:27:06.282Z</time></trkpt><trkpt lat="36.9631137" lon="15.1132808"><ele>446.0</ele><time>2026-04-04T08:27:07.283Z</time></trkpt><trkpt lat="36.9631605" lon="15.1130913"><ele>455.0</ele><time>2026-04-04T08:27:08.27Z</time></trkpt><trkpt lat="36.9632121" lon="15.112897"><ele>464.0</ele><time>2026-04-04T08:27:09.291Z</time></trkpt><trkpt lat="36.9632636" lon="15.1126914"><ele>464.0</ele><time>2026-04-04T08:27:10.311Z</time></trkpt><trkpt lat="36.9633225" lon="15.1124728"><ele>464.0</ele><time>2026-04-04T08:27:11.279Z</time></trkpt><trkpt lat="36.9633922" lon="15.1122388"><ele>464.0</ele><time>2026-04-04T08:27:12.293Z</time></trkpt><trkpt lat="36.9634519" lon="15.1120079"><ele>455.66666666666663</ele><time>2026-04-04T08:27:13.271Z</time></trkpt><trkpt lat="36.9634959" lon="15.1117989"><ele>447.33333333333337</ele><time>2026-04-04T08:27:14.289Z</time></trkpt><trkpt lat="36.9635165" lon="15.1116141"><ele>439.0</ele><time>2026-04-04T08:27:15.3Z</time></trkpt><trkpt lat="36.9635148" lon="15.111439"><ele>439.0</ele><time>2026-04-04T08:27:16.266Z</time></trkpt><trkpt lat="36.9634941" lon="15.1112691"><ele>439.0</ele><time>2026-04-04T08:27:17.295Z</time></trkpt><trkpt lat="36.9634692" lon="15.1110827"><ele>439.0</ele><time>2026-04-04T08:27:18.291Z</time></trkpt><trkpt lat="36.9634352" lon="15.1108725"><ele>447.33333333333337</ele><time>2026-04-04T08:27:19.3Z</time></trkpt><trkpt lat="36.9633976" lon="15.1106435"><ele>455.66666666666663</ele><time>2026-04-04T08:27:20.289Z</time></trkpt><trkpt lat="36.9633473" lon="15.1104229"><ele>464.0</ele><time>2026-04-04T08:27:21.3Z</time></trkpt><trkpt lat="36.9633102" lon="15.1102314"><ele>465.75</ele><time>2026-04-04T08:27:22.309Z</time></trkpt><trkpt lat="36.9632877" lon="15.1100511"><ele>467.5</ele><time>2026-04-04T08:27:23.29Z</time></trkpt><trkpt lat="36.9632857" lon="15.1098851"><ele>469.25</ele><time>2026-04-04T08:27:24.294Z</time></trkpt><trkpt lat="36.9632825" lon="15.1097105"><ele>471.0</ele><time>2026-04-04T08:27:25.309Z</time></trkpt><trkpt lat="36.963284" lon="15.1095402"><ele>471.20000000000005</ele><time>2026-04-04T08:27:26.299Z</time></trkpt><trkpt lat="36.9632846" lon="15.1094021"><ele>471.40000000000003</ele><time>2026-04-04T08:27:27.289Z</time></trkpt><trkpt lat="36.9633051" lon="15.1092948"><ele>471.6</ele><time>2026-04-04T08:27:28.283Z</time></trkpt><trkpt lat="36.9633422" lon="15.1091801"><ele>471.8</ele><time>2026-04-04T08:27:29.3Z</time></trkpt><trkpt lat="36.9634182" lon="15.1090436"><ele>472.0</ele><time>2026-04-04T08:27:30.305Z</time></trkpt><trkpt lat="36.9634834" lon="15.1088946"><ele>473.5</ele><time>2026-04-04T08:27:31.301Z</time></trkpt><trkpt lat="36.9635437" lon="15.1087281"><ele>475.0</ele><time>2026-04-04T08:27:32.31Z</time></trkpt><trkpt lat="36.9635938" lon="15.1085629"><ele>476.5</ele><time>2026-04-04T08:27:33.276Z</time></trkpt><trkpt lat="36.9636301" lon="15.108405"><ele>478.0</ele><time>2026-04-04T08:27:34.295Z</time></trkpt><trkpt lat="36.9636526" lon="15.1082441"><ele>477.5</ele><time>2026-04-04T08:27:35.301Z</time></trkpt><trkpt lat="36.9636838" lon="15.1080733"><ele>477.0</ele><time>2026-04-04T08:27:36.305Z</time></trkpt><trkpt lat="36.9637136" lon="15.1078983"><ele>476.5</ele><time>2026-04-04T08:27:37.295Z</time></trkpt><trkpt lat="36.9637548" lon="15.1077218"><ele>476.0</ele><time>2026-04-04T08:27:38.298Z</time></trkpt><trkpt lat="36.9638054" lon="15.1075306"><ele>476.3333333333333</ele><time>2026-04-04T08:27:39.294Z</time></trkpt><trkpt lat="36.9638704" lon="15.107325"><ele>476.66666666666663</ele><time>2026-04-04T08:27:40.314Z</time></trkpt><trkpt lat="36.9639427" lon="15.1071229"><ele>477.0</ele><time>2026-04-04T08:27:41.303Z</time></trkpt><trkpt lat="36.9640165" lon="15.1069327"><ele>477.0</ele><time>2026-04-04T08:27:42.315Z</time></trkpt><trkpt lat="36.9640771" lon="15.1067518"><ele>477.0</ele><time>2026-04-04T08:27:43.303Z</time></trkpt><trkpt lat="36.9641282" lon="15.106585"><ele>477.0</ele><time>2026-04-04T08:27:44.301Z</time></trkpt><trkpt lat="36.964169" lon="15.1064229"><ele>477.0</ele><time>2026-04-04T08:27:45.297Z</time></trkpt><trkpt lat="36.9642065" lon="15.1062596"><ele>479.5</ele><time>2026-04-04T08:27:46.286Z</time></trkpt><trkpt lat="36.9642396" lon="15.1061048"><ele>482.0</ele><time>2026-04-04T08:27:47.301Z</time></trkpt><trkpt lat="36.9642783" lon="15.1059524"><ele>484.5</ele><time>2026-04-04T08:27:48.294Z</time></trkpt><trkpt lat="36.9643223" lon="15.1057921"><ele>487.0</ele><time>2026-04-04T08:27:49.284Z</time></trkpt><trkpt lat="36.9643649" lon="15.1056258"><ele>488.0</ele><time>2026-04-04T08:27:50.281Z</time></trkpt><trkpt lat="36.9644003" lon="15.1054445"><ele>489.0</ele><time>2026-04-04T08:27:51.283Z</time></trkpt><trkpt lat="36.9644204" lon="15.1052488"><ele>490.0</ele><time>2026-04-04T08:27:52.287Z</time></trkpt><trkpt lat="36.9644186" lon="15.1050422"><ele>490.25</ele><time>2026-04-04T08:27:53.311Z</time></trkpt><trkpt lat="36.9644017" lon="15.1048353"><ele>490.5</ele><time>2026-04-04T08:27:54.301Z</time></trkpt><trkpt lat="36.964391" lon="15.1046519"><ele>490.75</ele><time>2026-04-04T08:27:55.306Z</time></trkpt><trkpt lat="36.9643883" lon="15.1045061"><ele>491.0</ele><time>2026-04-04T08:27:56.299Z</time></trkpt><trkpt lat="36.9643882" lon="15.1043784"><ele>491.0</ele><time>2026-04-04T08:27:57.289Z</time></trkpt><trkpt lat="36.964419" lon="15.1042407"><ele>491.0</ele><time>2026-04-04T08:27:58.296Z</time></trkpt><trkpt lat="36.9644651" lon="15.1040777"><ele>491.0</ele><time>2026-04-04T08:27:59.294Z</time></trkpt><trkpt lat="36.9644949" lon="15.1039025"><ele>491.0</ele><time>2026-04-04T08:28:00.291Z</time></trkpt><trkpt lat="36.9645099" lon="15.1037057"><ele>491.5</ele><time>2026-04-04T08:28:01.287Z</time></trkpt><trkpt lat="36.9645264" lon="15.1035005"><ele>492.0</ele><time>2026-04-04T08:28:02.3Z</time></trkpt><trkpt lat="36.9645426" lon="15.1033217"><ele>492.5</ele><time>2026-04-04T08:28:03.304Z</time></trkpt><trkpt lat="36.9645505" lon="15.1031735"><ele>493.0</ele><time>2026-04-04T08:28:04.314Z</time></trkpt><trkpt lat="36.9645732" lon="15.1030423"><ele>493.5</ele><time>2026-04-04T08:28:05.29Z</time></trkpt><trkpt lat="36.9646138" lon="15.1029281"><ele>494.0</ele><time>2026-04-04T08:28:06.292Z</time></trkpt><trkpt lat="36.9646735" lon="15.1028011"><ele>494.5</ele><time>2026-04-04T08:28:07.291Z</time></trkpt><trkpt lat="36.9647501" lon="15.1026719"><ele>495.0</ele><time>2026-04-04T08:28:08.298Z</time></trkpt><trkpt lat="36.9648272" lon="15.1025324"><ele>495.2</ele><time>2026-04-04T08:28:09.293Z</time></trkpt><trkpt lat="36.9648896" lon="15.1023996"><ele>495.4</ele><time>2026-04-04T08:28:10.304Z</time></trkpt><trkpt lat="36.9649475" lon="15.1023006"><ele>495.6</ele><time>2026-04-04T08:28:11.301Z</time></trkpt><trkpt lat="36.9650108" lon="15.1022269"><ele>495.8</ele><time>2026-04-04T08:28:12.305Z</time></trkpt><trkpt lat="36.9650798" lon="15.1021456"><ele>496.0</ele><time>2026-04-04T08:28:13.292Z</time></trkpt><trkpt lat="36.9651489" lon="15.1020619"><ele>498.0</ele><time>2026-04-04T08:28:14.281Z</time></trkpt><trkpt lat="36.9652288" lon="15.1019658"><ele>500.0</ele><time>2026-04-04T08:28:15.299Z</time></trkpt><trkpt lat="36.9653154" lon="15.1018613"><ele>502.0</ele><time>2026-04-04T08:28:16.304Z</time></trkpt><trkpt lat="36.9654018" lon="15.1017417"><ele>504.0</ele><time>2026-04-04T08:28:17.291Z</time></trkpt><trkpt lat="36.9654904" lon="15.101616"><ele>503.66666666666663</ele><time>2026-04-04T08:28:18.265Z</time></trkpt><trkpt lat="36.9655931" lon="15.1014899"><ele>503.3333333333333</ele><time>2026-04-04T08:28:19.271Z</time></trkpt><trkpt lat="36.9657092" lon="15.1013651"><ele>503.0</ele><time>2026-04-04T08:28:20.276Z</time></trkpt><trkpt lat="36.9658389" lon="15.1012336"><ele>503.25</ele><time>2026-04-04T08:28:21.319Z</time></trkpt><trkpt lat="36.965964" lon="15.1011018"><ele>503.5</ele><time>2026-04-04T08:28:22.281Z</time></trkpt><trkpt lat="36.9660661" lon="15.1009771"><ele>503.75</ele><time>2026-04-04T08:28:23.279Z</time></trkpt><trkpt lat="36.9661459" lon="15.1008504"><ele>504.0</ele><time>2026-04-04T08:28:24.281Z</time></trkpt><trkpt lat="36.9662113" lon="15.1006878"><ele>503.0</ele><time>2026-04-04T08:28:25.277Z</time></trkpt><trkpt lat="36.9662808" lon="15.1004986"><ele>502.0</ele><time>2026-04-04T08:28:26.29Z</time></trkpt><trkpt lat="36.9663442" lon="15.1003158"><ele>501.0</ele><time>2026-04-04T08:28:27.305Z</time></trkpt><trkpt lat="36.9664072" lon="15.1001468"><ele>501.0</ele><time>2026-04-04T08:28:28.264Z</time></trkpt><trkpt lat="36.9664556" lon="15.0999847"><ele>501.0</ele><time>2026-04-04T08:28:29.28Z</time></trkpt><trkpt lat="36.9664904" lon="15.0998005"><ele>501.0</ele><time>2026-04-04T08:28:30.299Z</time></trkpt><trkpt lat="36.9665178" lon="15.0996085"><ele>501.0</ele><time>2026-04-04T08:28:31.279Z</time></trkpt><trkpt lat="36.966541" lon="15.0993996"><ele>499.0</ele><time>2026-04-04T08:28:32.29Z</time></trkpt><trkpt lat="36.9665722" lon="15.0991973"><ele>497.0</ele><time>2026-04-04T08:28:33.272Z</time></trkpt><trkpt lat="36.9666066" lon="15.0989921"><ele>495.0</ele><time>2026-04-04T08:28:34.269Z</time></trkpt><trkpt lat="36.9666396" lon="15.0987815"><ele>494.33333333333337</ele><time>2026-04-04T08:28:35.315Z</time></trkpt><trkpt lat="36.9666755" lon="15.098547"><ele>493.6666666666667</ele><time>2026-04-04T08:28:36.313Z</time></trkpt><trkpt lat="36.9667127" lon="15.0983182"><ele>493.0</ele><time>2026-04-04T08:28:37.318Z</time></trkpt><trkpt lat="36.966743" lon="15.0981047"><ele>486.0</ele><time>2026-04-04T08:28:38.291Z</time></trkpt><trkpt lat="36.9667651" lon="15.0979079"><ele>479.0</ele><time>2026-04-04T08:28:39.302Z</time></trkpt><trkpt lat="36.9667822" lon="15.0977261"><ele>472.0</ele><time>2026-04-04T08:28:40.296Z</time></trkpt><trkpt lat="36.9667978" lon="15.0975548"><ele>465.0</ele><time>2026-04-04T08:28:41.314Z</time></trkpt><trkpt lat="36.9668052" lon="15.0973774"><ele>461.33333333333337</ele><time>2026-04-04T08:28:42.29Z</time></trkpt><trkpt lat="36.966809" lon="15.0971969"><ele>457.6666666666667</ele><time>2026-04-04T08:28:43.266Z</time></trkpt><trkpt lat="36.9668111" lon="15.0969951"><ele>454.0</ele><time>2026-04-04T08:28:44.318Z</time></trkpt><trkpt lat="36.966813" lon="15.0967939"><ele>454.0</ele><time>2026-04-04T08:28:45.305Z</time></trkpt><trkpt lat="36.9668214" lon="15.0966071"><ele>454.0</ele><time>2026-04-04T08:28:46.288Z</time></trkpt><trkpt lat="36.9668222" lon="15.0964328"><ele>454.0</ele><time>2026-04-04T08:28:47.32Z</time></trkpt><trkpt lat="36.9668283" lon="15.0962663"><ele>454.0</ele><time>2026-04-04T08:28:48.301Z</time></trkpt><trkpt lat="36.9668464" lon="15.0961294"><ele>454.4</ele><time>2026-04-04T08:28:49.305Z</time></trkpt><trkpt lat="36.9668695" lon="15.0960048"><ele>454.79999999999995</ele><time>2026-04-04T08:28:50.301Z</time></trkpt><trkpt lat="36.9669078" lon="15.095895"><ele>455.20000000000005</ele><time>2026-04-04T08:28:51.306Z</time></trkpt><trkpt lat="36.9669505" lon="15.0957922"><ele>455.6</ele><time>2026-04-04T08:28:52.255Z</time></trkpt><trkpt lat="36.9670149" lon="15.0956742"><ele>456.0</ele><time>2026-04-04T08:28:53.292Z</time></trkpt><trkpt lat="36.9670889" lon="15.0955393"><ele>461.4</ele><time>2026-04-04T08:28:54.295Z</time></trkpt><trkpt lat="36.9671668" lon="15.0953871"><ele>466.8</ele><time>2026-04-04T08:28:55.294Z</time></trkpt><trkpt lat="36.9672329" lon="15.0952557"><ele>472.19999999999993</ele><time>2026-04-04T08:28:56.271Z</time></trkpt><trkpt lat="36.9672798" lon="15.0951547"><ele>477.59999999999997</ele><time>2026-04-04T08:28:57.298Z</time></trkpt><trkpt lat="36.9673111" lon="15.0950677"><ele>483.0</ele><time>2026-04-04T08:28:58.303Z</time></trkpt><trkpt lat="36.9673221" lon="15.0949818"><ele>486.59999999999997</ele><time>2026-04-04T08:28:59.288Z</time></trkpt><trkpt lat="36.9673027" lon="15.094845"><ele>490.19999999999993</ele><time>2026-04-04T08:29:01.274Z</time></trkpt><trkpt lat="36.9672252" lon="15.094764"><ele>493.8</ele><time>2026-04-04T08:29:03.292Z</time></trkpt><trkpt lat="36.9671464" lon="15.0947567"><ele>497.4</ele><time>2026-04-04T08:29:04.284Z</time></trkpt><trkpt lat="36.9670588" lon="15.0947408"><ele>501.0</ele><time>2026-04-04T08:29:05.294Z</time></trkpt><trkpt lat="36.966987" lon="15.0947246"><ele>501.0</ele><time>2026-04-04T08:29:06.268Z</time></trkpt><trkpt lat="36.9669218" lon="15.0947012"><ele>501.0</ele><time>2026-04-04T08:29:07.274Z</time></trkpt><trkpt lat="36.9668266" lon="15.0946594"><ele>501.0</ele><time>2026-04-04T08:29:09.297Z</time></trkpt><trkpt lat="36.966738" lon="15.0946211"><ele>501.0</ele><time>2026-04-04T08:29:11.287Z</time></trkpt><trkpt lat="36.966615" lon="15.0945717"><ele>501.0</ele><time>2026-04-04T08:29:13.291Z</time></trkpt><trkpt lat="36.9665421" lon="15.0945554"><ele>501.3333333333333</ele><time>2026-04-04T08:29:14.322Z</time></trkpt><trkpt lat="36.9664736" lon="15.0945371"><ele>501.66666666666663</ele><time>2026-04-04T08:29:15.296Z</time></trkpt><trkpt lat="36.9664005" lon="15.0945169"><ele>502.0</ele><time>2026-04-04T08:29:16.306Z</time></trkpt><trkpt lat="36.9663177" lon="15.0944938"><ele>502.3333333333333</ele><time>2026-04-04T08:29:17.299Z</time></trkpt><trkpt lat="36.9662262" lon="15.0944621"><ele>502.66666666666663</ele><time>2026-04-04T08:29:18.284Z</time></trkpt><trkpt lat="36.9661342" lon="15.0944233"><ele>503.0</ele><time>2026-04-04T08:29:19.3Z</time></trkpt><trkpt lat="36.9660402" lon="15.0943854"><ele>503.0</ele><time>2026-04-04T08:29:20.305Z</time></trkpt><trkpt lat="36.9659387" lon="15.0943569"><ele>503.0</ele><time>2026-04-04T08:29:21.282Z</time></trkpt><trkpt lat="36.96583" lon="15.0943316"><ele>503.0</ele><time>2026-04-04T08:29:22.305Z</time></trkpt><trkpt lat="36.9669505" lon="15.0957922"><ele>498.0</ele><time>2026-04-04T08:28:52.255Z</time></trkpt><trkpt lat="36.9670149" lon="15.0956742"><ele>493.0</ele><time>2026-04-04T08:28:53.292Z</time></trkpt><trkpt lat="36.9670889" lon="15.0955393"><ele>488.0</ele><time>2026-04-04T08:28:54.295Z</time></trkpt><trkpt lat="36.9671668" lon="15.0953871"><ele>483.0</ele><time>2026-04-04T08:28:55.294Z</time></trkpt><trkpt lat="36.9672329" lon="15.0952557"><ele>483.0</ele><time>2026-04-04T08:28:56.271Z</time></trkpt><trkpt lat="36.9672798" lon="15.0951547"><ele>482.99999999999994</ele><time>2026-04-04T08:28:57.298Z</time></trkpt><trkpt lat="36.9673111" lon="15.0950677"><ele>482.99999999999994</ele><time>2026-04-04T08:28:58.303Z</time></trkpt><trkpt lat="36.9673221" lon="15.0949818"><ele>483.0</ele><time>2026-04-04T08:28:59.288Z</time></trkpt><trkpt lat="36.9673027" lon="15.094845"><ele>483.0</ele><time>2026-04-04T08:29:01.274Z</time></trkpt><trkpt lat="36.9672252" lon="15.094764"><ele>486.0</ele><time>2026-04-04T08:29:03.292Z</time></trkpt><trkpt lat="36.9671464" lon="15.0947567"><ele>489.0</ele><time>2026-04-04T08:29:04.284Z</time></trkpt><trkpt lat="36.9670588" lon="15.0947408"><ele>492.0</ele><time>2026-04-04T08:29:05.294Z</time></trkpt><trkpt lat="36.966987" lon="15.0947246"><ele>495.0</ele><time>2026-04-04T08:29:06.268Z</time></trkpt><trkpt lat="36.9669218" lon="15.0947012"><ele>498.0</ele><time>2026-04-04T08:29:07.274Z</time></trkpt><trkpt lat="36.9668266" lon="15.0946594"><ele>501.0</ele><time>2026-04-04T08:29:09.297Z</time></trkpt><trkpt lat="36.966738" lon="15.0946211"><ele>501.3333333333333</ele><time>2026-04-04T08:29:11.287Z</time></trkpt><trkpt lat="36.966615" lon="15.0945717"><ele>501.66666666666663</ele><time>2026-04-04T08:29:13.291Z</time></trkpt><trkpt lat="36.9665421" lon="15.0945554"><ele>502.0</ele><time>2026-04-04T08:29:14.322Z</time></trkpt><trkpt lat="36.9664736" lon="15.0945371"><ele>502.3333333333333</ele><time>2026-04-04T08:29:15.296Z</time></trkpt><trkpt lat="36.9664005" lon="15.0945169"><ele>502.66666666666663</ele><time>2026-04-04T08:29:16.306Z</time></trkpt><trkpt lat="36.9663177" lon="15.0944938"><ele>503.0</ele><time>2026-04-04T08:29:17.299Z</time></trkpt><trkpt lat="36.9662262" lon="15.0944621"><ele>503.0</ele><time>2026-04-04T08:29:18.284Z</time></trkpt><trkpt lat="36.9661342" lon="15.0944233"><ele>502.99999999999994</ele><time>2026-04-04T08:29:19.3Z</time></trkpt><trkpt lat="36.9660402" lon="15.0943854"><ele>502.99999999999994</ele><time>2026-04-04T08:29:20.305Z</time></trkpt><trkpt lat="36.9659387" lon="15.0943569"><ele>503.0</ele><time>2026-04-04T08:29:21.282Z</time></trkpt><trkpt lat="36.96583" lon="15.0943316"><ele>503.0</ele><time>2026-04-04T08:29:22.305Z</time></trkpt><trkpt lat="36.9657077" lon="15.0942996"><ele>501.25</ele><time>2026-04-04T08:29:23.291Z</time></trkpt><trkpt lat="36.9655692" lon="15.0942568"><ele>499.5</ele><time>2026-04-04T08:29:24.283Z</time></trkpt><trkpt lat="36.965427" lon="15.0942074"><ele>497.75</ele><time>2026-04-04T08:29:25.294Z</time></trkpt><trkpt lat="36.9652818" lon="15.0941539"><ele>496.0</ele><time>2026-04-04T08:29:26.263Z</time></trkpt><trkpt lat="36.9651427" lon="15.0941022"><ele>494.25</ele><time>2026-04-04T08:29:27.288Z</time></trkpt><trkpt lat="36.9650073" lon="15.094055"><ele>492.5</ele><time>2026-04-04T08:29:28.297Z</time></trkpt><trkpt lat="36.9648826" lon="15.0940066"><ele>490.75</ele><time>2026-04-04T08:29:29.292Z</time></trkpt><trkpt lat="36.9647551" lon="15.0939746"><ele>489.0</ele><time>2026-04-04T08:29:30.299Z</time></trkpt><trkpt lat="36.9646355" lon="15.0939573"><ele>489.0</ele><time>2026-04-04T08:29:31.304Z</time></trkpt><trkpt lat="36.9645176" lon="15.0939705"><ele>489.0</ele><time>2026-04-04T08:29:32.293Z</time></trkpt><trkpt lat="36.9644124" lon="15.0939952"><ele>489.0</ele><time>2026-04-04T08:29:33.295Z</time></trkpt><trkpt lat="36.9642919" lon="15.094017"><ele>489.0</ele><time>2026-04-04T08:29:34.287Z</time></trkpt><trkpt lat="36.9641898" lon="15.0940231"><ele>489.0</ele><time>2026-04-04T08:29:35.272Z</time></trkpt><trkpt lat="36.9641027" lon="15.0939913"><ele>490.0</ele><time>2026-04-04T08:29:36.299Z</time></trkpt><trkpt lat="36.9640288" lon="15.0939165"><ele>491.0</ele><time>2026-04-04T08:29:37.266Z</time></trkpt><trkpt lat="36.9639617" lon="15.0938278"><ele>492.0</ele><time>2026-04-04T08:29:38.307Z</time></trkpt><trkpt lat="36.9639024" lon="15.0937328"><ele>493.0</ele><time>2026-04-04T08:29:39.314Z</time></trkpt><trkpt lat="36.9638531" lon="15.0936243"><ele>494.0</ele><time>2026-04-04T08:29:40.311Z</time></trkpt><trkpt lat="36.9638253" lon="15.0935198"><ele>493.99999999999994</ele><time>2026-04-04T08:29:41.286Z</time></trkpt><trkpt lat="36.9638145" lon="15.0934287"><ele>494.0</ele><time>2026-04-04T08:29:42.285Z</time></trkpt><trkpt lat="36.963817" lon="15.0933434"><ele>494.0</ele><time>2026-04-04T08:29:43.297Z</time></trkpt><trkpt lat="36.9638455" lon="15.093249"><ele>494.0</ele><time>2026-04-04T08:29:44.293Z</time></trkpt><trkpt lat="36.9638931" lon="15.0931465"><ele>493.99999999999994</ele><time>2026-04-04T08:29:45.293Z</time></trkpt><trkpt lat="36.9639398" lon="15.0930346"><ele>494.0</ele><time>2026-04-04T08:29:46.314Z</time></trkpt><trkpt lat="36.9639952" lon="15.0929148"><ele>493.75</ele><time>2026-04-04T08:29:47.295Z</time></trkpt><trkpt lat="36.9640534" lon="15.0927831"><ele>493.5</ele><time>2026-04-04T08:29:48.289Z</time></trkpt><trkpt lat="36.9641206" lon="15.0926234"><ele>493.25</ele><time>2026-04-04T08:29:49.295Z</time></trkpt><trkpt lat="36.9642025" lon="15.092458"><ele>493.0</ele><time>2026-04-04T08:29:50.303Z</time></trkpt><trkpt lat="36.9642779" lon="15.0922865"><ele>494.0</ele><time>2026-04-04T08:29:51.275Z</time></trkpt><trkpt lat="36.9643261" lon="15.0921014"><ele>495.0</ele><time>2026-04-04T08:29:52.257Z</time></trkpt><trkpt lat="36.9643421" lon="15.0919179"><ele>496.0</ele><time>2026-04-04T08:29:53.292Z</time></trkpt><trkpt lat="36.9643586" lon="15.0917404"><ele>497.0</ele><time>2026-04-04T08:29:54.307Z</time></trkpt><trkpt lat="36.9643832" lon="15.091569"><ele>498.0</ele><time>2026-04-04T08:29:55.297Z</time></trkpt><trkpt lat="36.9644446" lon="15.0914037"><ele>499.0</ele><time>2026-04-04T08:29:56.297Z</time></trkpt><trkpt lat="36.9645102" lon="15.0912529"><ele>500.0</ele><time>2026-04-04T08:29:57.299Z</time></trkpt><trkpt lat="36.9645823" lon="15.0911068"><ele>501.0</ele><time>2026-04-04T08:29:58.285Z</time></trkpt><trkpt lat="36.9646543" lon="15.0909606"><ele>501.0</ele><time>2026-04-04T08:29:59.298Z</time></trkpt><trkpt lat="36.9647257" lon="15.0908133"><ele>501.0</ele><time>2026-04-04T08:30:00.293Z</time></trkpt><trkpt lat="36.9647958" lon="15.0906656"><ele>501.0</ele><time>2026-04-04T08:30:01.294Z</time></trkpt><trkpt lat="36.9648692" lon="15.0905198"><ele>501.0</ele><time>2026-04-04T08:30:02.297Z</time></trkpt><trkpt lat="36.9649448" lon="15.0903762"><ele>500.75</ele><time>2026-04-04T08:30:03.309Z</time></trkpt><trkpt lat="36.9649965" lon="15.0902345"><ele>500.5</ele><time>2026-04-04T08:30:04.297Z</time></trkpt><trkpt lat="36.9650281" lon="15.0900783"><ele>500.25</ele><time>2026-04-04T08:30:05.298Z</time></trkpt><trkpt lat="36.9650453" lon="15.0898993"><ele>500.0</ele><time>2026-04-04T08:30:06.292Z</time></trkpt><trkpt lat="36.9650532" lon="15.0897167"><ele>500.0</ele><time>2026-04-04T08:30:07.3Z</time></trkpt><trkpt lat="36.9650531" lon="15.0895245"><ele>500.0</ele><time>2026-04-04T08:30:08.308Z</time></trkpt><trkpt lat="36.9650566" lon="15.08935"><ele>500.0</ele><time>2026-04-04T08:30:09.302Z</time></trkpt><trkpt lat="36.9650577" lon="15.0891717"><ele>500.0</ele><time>2026-04-04T08:30:10.303Z</time></trkpt><trkpt lat="36.9650557" lon="15.0889925"><ele>500.0</ele><time>2026-04-04T08:30:11.302Z</time></trkpt><trkpt lat="36.9650575" lon="15.088814"><ele>500.0</ele><time>2026-04-04T08:30:12.308Z</time></trkpt><trkpt lat="36.9650627" lon="15.0886375"><ele>500.0</ele><time>2026-04-04T08:30:13.306Z</time></trkpt><trkpt lat="36.9650694" lon="15.0884642"><ele>500.0</ele><time>2026-04-04T08:30:14.296Z</time></trkpt><trkpt lat="36.9650707" lon="15.0883014"><ele>501.0</ele><time>2026-04-04T08:30:15.293Z</time></trkpt><trkpt lat="36.9650732" lon="15.0881478"><ele>502.0</ele><time>2026-04-04T08:30:16.31Z</time></trkpt><trkpt lat="36.9650797" lon="15.0879988"><ele>503.0</ele><time>2026-04-04T08:30:17.313Z</time></trkpt><trkpt lat="36.9650948" lon="15.0878576"><ele>504.0</ele><time>2026-04-04T08:30:18.29Z</time></trkpt><trkpt lat="36.9651286" lon="15.0877376"><ele>504.0</ele><time>2026-04-04T08:30:19.29Z</time></trkpt><trkpt lat="36.9651905" lon="15.0876439"><ele>504.0</ele><time>2026-04-04T08:30:20.302Z</time></trkpt><trkpt lat="36.9652785" lon="15.0875697"><ele>504.0</ele><time>2026-04-04T08:30:21.299Z</time></trkpt><trkpt lat="36.9653598" lon="15.0874991"><ele>504.0</ele><time>2026-04-04T08:30:22.286Z</time></trkpt><trkpt lat="36.9654318" lon="15.0874345"><ele>504.0</ele><time>2026-04-04T08:30:23.277Z</time></trkpt><trkpt lat="36.9655026" lon="15.0873635"><ele>503.4</ele><time>2026-04-04T08:30:24.296Z</time></trkpt><trkpt lat="36.9655691" lon="15.0872924"><ele>502.79999999999995</ele><time>2026-04-04T08:30:25.289Z</time></trkpt><trkpt lat="36.9656077" lon="15.0872097"><ele>502.20000000000005</ele><time>2026-04-04T08:30:26.288Z</time></trkpt><trkpt lat="36.9656148" lon="15.0871016"><ele>501.6</ele><time>2026-04-04T08:30:27.287Z</time></trkpt><trkpt lat="36.965614" lon="15.0869817"><ele>501.0</ele><time>2026-04-04T08:30:28.291Z</time></trkpt><trkpt lat="36.9656038" lon="15.0868329"><ele>501.0</ele><time>2026-04-04T08:30:29.298Z</time></trkpt><trkpt lat="36.9655982" lon="15.0866505"><ele>501.0</ele><time>2026-04-04T08:30:30.293Z</time></trkpt><trkpt lat="36.9655982" lon="15.0864559"><ele>501.0</ele><time>2026-04-04T08:30:31.304Z</time></trkpt><trkpt lat="36.9656087" lon="15.0862538"><ele>499.66666666666663</ele><time>2026-04-04T08:30:32.299Z</time></trkpt><trkpt lat="36.9656251" lon="15.0860532"><ele>498.3333333333333</ele><time>2026-04-04T08:30:33.308Z</time></trkpt><trkpt lat="36.9656402" lon="15.0858585"><ele>497.0</ele><time>2026-04-04T08:30:34.301Z</time></trkpt><trkpt lat="36.9656488" lon="15.0856746"><ele>497.0</ele><time>2026-04-04T08:30:35.291Z</time></trkpt><trkpt lat="36.9656455" lon="15.0854925"><ele>497.0</ele><time>2026-04-04T08:30:36.312Z</time></trkpt><trkpt lat="36.9656376" lon="15.0853228"><ele>497.0</ele><time>2026-04-04T08:30:37.314Z</time></trkpt><trkpt lat="36.9656268" lon="15.0851452"><ele>497.0</ele><time>2026-04-04T08:30:38.306Z</time></trkpt><trkpt lat="36.9656101" lon="15.0849594"><ele>497.25</ele><time>2026-04-04T08:30:39.32Z</time></trkpt><trkpt lat="36.9655972" lon="15.0847797"><ele>497.5</ele><time>2026-04-04T08:30:40.305Z</time></trkpt><trkpt lat="36.9655829" lon="15.0846161"><ele>497.75</ele><time>2026-04-04T08:30:41.295Z</time></trkpt><trkpt lat="36.9655874" lon="15.0844604"><ele>498.0</ele><time>2026-04-04T08:30:42.306Z</time></trkpt><trkpt lat="36.9656087" lon="15.084305"><ele>498.0</ele><time>2026-04-04T08:30:43.305Z</time></trkpt><trkpt lat="36.9656423" lon="15.0841503"><ele>498.0</ele><time>2026-04-04T08:30:44.29Z</time></trkpt><trkpt lat="36.9656801" lon="15.0839978"><ele>498.0</ele><time>2026-04-04T08:30:45.293Z</time></trkpt><trkpt lat="36.9657083" lon="15.0838363"><ele>498.0</ele><time>2026-04-04T08:30:46.28Z</time></trkpt><trkpt lat="36.9657293" lon="15.0836705"><ele>497.66666666666663</ele><time>2026-04-04T08:30:47.267Z</time></trkpt><trkpt lat="36.9657305" lon="15.0834882"><ele>497.3333333333333</ele><time>2026-04-04T08:30:48.313Z</time></trkpt><trkpt lat="36.9657171" lon="15.0833052"><ele>497.0</ele><time>2026-04-04T08:30:49.273Z</time></trkpt><trkpt lat="36.9656836" lon="15.0831108"><ele>494.0</ele><time>2026-04-04T08:30:50.313Z</time></trkpt><trkpt lat="36.9656269" lon="15.082902"><ele>491.0</ele><time>2026-04-04T08:30:51.308Z</time></trkpt><trkpt lat="36.9655542" lon="15.0826925"><ele>488.0</ele><time>2026-04-04T08:30:52.302Z</time></trkpt><trkpt lat="36.965469" lon="15.0824807"><ele>484.66666666666663</ele><time>2026-04-04T08:30:53.3Z</time></trkpt><trkpt lat="36.9653994" lon="15.0822723"><ele>481.33333333333337</ele><time>2026-04-04T08:30:54.302Z</time></trkpt><trkpt lat="36.9653375" lon="15.0820622"><ele>478.0</ele><time>2026-04-04T08:30:55.298Z</time></trkpt><trkpt lat="36.9652786" lon="15.0818391"><ele>478.0</ele><time>2026-04-04T08:30:56.303Z</time></trkpt><trkpt lat="36.9652367" lon="15.0816222"><ele>478.0</ele><time>2026-04-04T08:30:57.3Z</time></trkpt><trkpt lat="36.9652177" lon="15.0814082"><ele>478.0</ele><time>2026-04-04T08:30:58.313Z</time></trkpt><trkpt lat="36.9652055" lon="15.0811985"><ele>475.33333333333337</ele><time>2026-04-04T08:30:59.302Z</time></trkpt><trkpt lat="36.9652007" lon="15.0809828"><ele>472.66666666666663</ele><time>2026-04-04T08:31:00.299Z</time></trkpt><trkpt lat="36.9651924" lon="15.0807717"><ele>470.0</ele><time>2026-04-04T08:31:01.381Z</time></trkpt><trkpt lat="36.9651765" lon="15.0805602"><ele>470.0</ele><time>2026-04-04T08:31:02.296Z</time></trkpt><trkpt lat="36.9651556" lon="15.0803483"><ele>470.0</ele><time>2026-04-04T08:31:03.302Z</time></trkpt><trkpt lat="36.9651214" lon="15.0801309"><ele>470.0</ele><time>2026-04-04T08:31:04.317Z</time></trkpt><trkpt lat="36.965079" lon="15.0799173"><ele>470.0</ele><time>2026-04-04T08:31:05.296Z</time></trkpt><trkpt lat="36.9650318" lon="15.0797004"><ele>470.0</ele><time>2026-04-04T08:31:06.301Z</time></trkpt><trkpt lat="36.9649855" lon="15.079491"><ele>470.0</ele><time>2026-04-04T08:31:07.301Z</time></trkpt><trkpt lat="36.9649375" lon="15.0792955"><ele>468.75</ele><time>2026-04-04T08:31:08.284Z</time></trkpt><trkpt lat="36.9648876" lon="15.0791085"><ele>467.5</ele><time>2026-04-04T08:31:09.285Z</time></trkpt><trkpt lat="36.964838" lon="15.0789343"><ele>466.25</ele><time>2026-04-04T08:31:10.293Z</time></trkpt><trkpt lat="36.9647917" lon="15.0787653"><ele>465.0</ele><time>2026-04-04T08:31:11.29Z</time></trkpt><trkpt lat="36.9647481" lon="15.0785978"><ele>465.0</ele><time>2026-04-04T08:31:12.241Z</time></trkpt><trkpt lat="36.9646975" lon="15.078426"><ele>465.0</ele><time>2026-04-04T08:31:13.26Z</time></trkpt><trkpt lat="36.9646338" lon="15.0782571"><ele>465.0</ele><time>2026-04-04T08:31:14.262Z</time></trkpt><trkpt lat="36.9645377" lon="15.0780718"><ele>464.33333333333337</ele><time>2026-04-04T08:31:15.298Z</time></trkpt><trkpt lat="36.9644266" lon="15.0778985"><ele>463.6666666666667</ele><time>2026-04-04T08:31:16.288Z</time></trkpt><trkpt lat="36.9643299" lon="15.0777511"><ele>463.0</ele><time>2026-04-04T08:31:17.302Z</time></trkpt><trkpt lat="36.9642491" lon="15.0776284"><ele>462.5</ele><time>2026-04-04T08:31:18.262Z</time></trkpt><trkpt lat="36.9641799" lon="15.0775049"><ele>462.0</ele><time>2026-04-04T08:31:19.294Z</time></trkpt><trkpt lat="36.9641298" lon="15.0773728"><ele>461.5</ele><time>2026-04-04T08:31:20.283Z</time></trkpt><trkpt lat="36.9641052" lon="15.0772292"><ele>461.0</ele><time>2026-04-04T08:31:21.288Z</time></trkpt><trkpt lat="36.9640902" lon="15.0770728"><ele>460.0</ele><time>2026-04-04T08:31:22.258Z</time></trkpt><trkpt lat="36.9640847" lon="15.0769028"><ele>459.0</ele><time>2026-04-04T08:31:23.278Z</time></trkpt><trkpt lat="36.9640765" lon="15.0767421"><ele>458.0</ele><time>2026-04-04T08:31:24.264Z</time></trkpt><trkpt lat="36.9640703" lon="15.0766031"><ele>457.0</ele><time>2026-04-04T08:31:25.274Z</time></trkpt><trkpt lat="36.9640642" lon="15.0764871"><ele>456.0</ele><time>2026-04-04T08:31:26.283Z</time></trkpt><trkpt lat="36.9640459" lon="15.076378"><ele>455.00000000000006</ele><time>2026-04-04T08:31:27.295Z</time></trkpt><trkpt lat="36.9640152" lon="15.0762551"><ele>454.00000000000006</ele><time>2026-04-04T08:31:28.28Z</time></trkpt><trkpt lat="36.9639761" lon="15.0761194"><ele>453.0</ele><time>2026-04-04T08:31:29.287Z</time></trkpt><trkpt lat="36.9639234" lon="15.0759852"><ele>452.0</ele><time>2026-04-04T08:31:30.294Z</time></trkpt><trkpt lat="36.963874" lon="15.0758384"><ele>452.40000000000003</ele><time>2026-04-04T08:31:31.292Z</time></trkpt><trkpt lat="36.9638313" lon="15.0756932"><ele>452.80000000000007</ele><time>2026-04-04T08:31:32.292Z</time></trkpt><trkpt lat="36.9637837" lon="15.0755492"><ele>453.2</ele><time>2026-04-04T08:31:33.286Z</time></trkpt><trkpt lat="36.9637439" lon="15.0754315"><ele>453.6</ele><time>2026-04-04T08:31:34.281Z</time></trkpt><trkpt lat="36.9636949" lon="15.0753284"><ele>454.0</ele><time>2026-04-04T08:31:35.276Z</time></trkpt><trkpt lat="36.9636534" lon="15.0752405"><ele>454.0</ele><time>2026-04-04T08:31:36.287Z</time></trkpt><trkpt lat="36.9636149" lon="15.0751596"><ele>454.0</ele><time>2026-04-04T08:31:37.305Z</time></trkpt><trkpt lat="36.9635966" lon="15.0750502"><ele>454.0</ele><time>2026-04-04T08:31:38.26Z</time></trkpt><trkpt lat="36.963591" lon="15.0749315"><ele>454.0</ele><time>2026-04-04T08:31:39.254Z</time></trkpt><trkpt lat="36.963595" lon="15.0748099"><ele>454.0</ele><time>2026-04-04T08:31:40.262Z</time></trkpt><trkpt lat="36.963605" lon="15.0746835"><ele>454.79999999999995</ele><time>2026-04-04T08:31:41.294Z</time></trkpt><trkpt lat="36.9636339" lon="15.0745473"><ele>455.59999999999997</ele><time>2026-04-04T08:31:42.295Z</time></trkpt><trkpt lat="36.9636657" lon="15.0744063"><ele>456.4</ele><time>2026-04-04T08:31:43.269Z</time></trkpt><trkpt lat="36.9636969" lon="15.0742969"><ele>457.2</ele><time>2026-04-04T08:31:44.299Z</time></trkpt><trkpt lat="36.9637191" lon="15.074202"><ele>458.0</ele><time>2026-04-04T08:31:45.269Z</time></trkpt><trkpt lat="36.9637575" lon="15.074108"><ele>458.16666666666663</ele><time>2026-04-04T08:31:46.291Z</time></trkpt><trkpt lat="36.9638129" lon="15.0740204"><ele>458.3333333333333</ele><time>2026-04-04T08:31:47.299Z</time></trkpt><trkpt lat="36.9638652" lon="15.0739445"><ele>458.5</ele><time>2026-04-04T08:31:48.291Z</time></trkpt><trkpt lat="36.9639164" lon="15.0738558"><ele>458.66666666666663</ele><time>2026-04-04T08:31:49.268Z</time></trkpt><trkpt lat="36.9639521" lon="15.0737657"><ele>458.8333333333333</ele><time>2026-04-04T08:31:50.287Z</time></trkpt><trkpt lat="36.9639746" lon="15.0736648"><ele>459.0</ele><time>2026-04-04T08:31:51.283Z</time></trkpt><trkpt lat="36.9639943" lon="15.0735609"><ele>459.0</ele><time>2026-04-04T08:31:52.274Z</time></trkpt><trkpt lat="36.9640194" lon="15.073446"><ele>459.0</ele><time>2026-04-04T08:31:53.289Z</time></trkpt><trkpt lat="36.9640458" lon="15.0733187"><ele>459.0</ele><time>2026-04-04T08:31:54.295Z</time></trkpt><trkpt lat="36.9640733" lon="15.0731965"><ele>459.0</ele><time>2026-04-04T08:31:55.296Z</time></trkpt><trkpt lat="36.9640902" lon="15.0730789"><ele>459.0</ele><time>2026-04-04T08:31:56.288Z</time></trkpt><trkpt lat="36.9640994" lon="15.0729721"><ele>458.8333333333333</ele><time>2026-04-04T08:31:57.306Z</time></trkpt><trkpt lat="36.9641107" lon="15.0728699"><ele>458.66666666666663</ele><time>2026-04-04T08:31:58.306Z</time></trkpt><trkpt lat="36.9641218" lon="15.0727657"><ele>458.5</ele><time>2026-04-04T08:31:59.289Z</time></trkpt><trkpt lat="36.9641304" lon="15.0726586"><ele>458.3333333333333</ele><time>2026-04-04T08:32:00.29Z</time></trkpt><trkpt lat="36.9641335" lon="15.0725457"><ele>458.16666666666663</ele><time>2026-04-04T08:32:01.288Z</time></trkpt><trkpt lat="36.9641333" lon="15.0724369"><ele>458.0</ele><time>2026-04-04T08:32:02.282Z</time></trkpt><trkpt lat="36.9641313" lon="15.0723359"><ele>457.99999999999994</ele><time>2026-04-04T08:32:03.266Z</time></trkpt><trkpt lat="36.964125" lon="15.0722443"><ele>458.0</ele><time>2026-04-04T08:32:04.274Z</time></trkpt><trkpt lat="36.9641234" lon="15.0721481"><ele>458.0</ele><time>2026-04-04T08:32:05.258Z</time></trkpt><trkpt lat="36.964103" lon="15.0720525"><ele>458.0</ele><time>2026-04-04T08:32:06.29Z</time></trkpt><trkpt lat="36.9640692" lon="15.0719509"><ele>457.99999999999994</ele><time>2026-04-04T08:32:07.31Z</time></trkpt><trkpt lat="36.9640533" lon="15.0718477"><ele>458.0</ele><time>2026-04-04T08:32:08.265Z</time></trkpt><trkpt lat="36.9640392" lon="15.0717484"><ele>458.0</ele><time>2026-04-04T08:32:09.288Z</time></trkpt><trkpt lat="36.9640318" lon="15.0716417"><ele>457.99999999999994</ele><time>2026-04-04T08:32:10.292Z</time></trkpt><trkpt lat="36.9640403" lon="15.0715259"><ele>457.99999999999994</ele><time>2026-04-04T08:32:11.261Z</time></trkpt><trkpt lat="36.9640515" lon="15.0714013"><ele>458.0</ele><time>2026-04-04T08:32:12.273Z</time></trkpt><trkpt lat="36.9640569" lon="15.0712818"><ele>458.0</ele><time>2026-04-04T08:32:13.28Z</time></trkpt><trkpt lat="36.9640574" lon="15.0711717"><ele>458.16666666666663</ele><time>2026-04-04T08:32:14.308Z</time></trkpt><trkpt lat="36.9640614" lon="15.071061"><ele>458.3333333333333</ele><time>2026-04-04T08:32:15.267Z</time></trkpt><trkpt lat="36.9640617" lon="15.0709413"><ele>458.5</ele><time>2026-04-04T08:32:16.291Z</time></trkpt><trkpt lat="36.9640681" lon="15.0708356"><ele>458.66666666666663</ele><time>2026-04-04T08:32:17.299Z</time></trkpt><trkpt lat="36.9640704" lon="15.0707476"><ele>458.8333333333333</ele><time>2026-04-04T08:32:18.29Z</time></trkpt><trkpt lat="36.9640682" lon="15.0706104"><ele>459.0</ele><time>2026-04-04T08:32:20.306Z</time></trkpt><trkpt lat="36.9640664" lon="15.0704993"><ele>458.79999999999995</ele><time>2026-04-04T08:32:22.295Z</time></trkpt><trkpt lat="36.9640696" lon="15.0703917"><ele>458.59999999999997</ele><time>2026-04-04T08:32:24.297Z</time></trkpt><trkpt lat="36.964058" lon="15.0702633"><ele>458.4</ele><time>2026-04-04T08:32:26.305Z</time></trkpt><trkpt lat="36.9640261" lon="15.0701074"><ele>458.2</ele><time>2026-04-04T08:32:28.315Z</time></trkpt><trkpt lat="36.9639967" lon="15.0700113"><ele>458.0</ele><time>2026-04-04T08:32:29.304Z</time></trkpt><trkpt lat="36.9639701" lon="15.0699159"><ele>457.99999999999994</ele><time>2026-04-04T08:32:30.316Z</time></trkpt><trkpt lat="36.9639456" lon="15.0698202"><ele>458.0</ele><time>2026-04-04T08:32:31.3Z</time></trkpt><trkpt lat="36.9639271" lon="15.0697281"><ele>458.0</ele><time>2026-04-04T08:32:32.309Z</time></trkpt><trkpt lat="36.9639085" lon="15.069625"><ele>458.0</ele><time>2026-04-04T08:32:33.294Z</time></trkpt><trkpt lat="36.9638709" lon="15.0695243"><ele>457.99999999999994</ele><time>2026-04-04T08:32:34.307Z</time></trkpt><trkpt lat="36.9638216" lon="15.069412"><ele>458.0</ele><time>2026-04-04T08:32:35.318Z</time></trkpt><trkpt lat="36.9637687" lon="15.0692969"><ele>458.0</ele><time>2026-04-04T08:32:36.29Z</time></trkpt><trkpt lat="36.9637111" lon="15.0691773"><ele>457.99999999999994</ele><time>2026-04-04T08:32:37.298Z</time></trkpt><trkpt lat="36.9636438" lon="15.0690708"><ele>457.99999999999994</ele><time>2026-04-04T08:32:38.287Z</time></trkpt><trkpt lat="36.9635894" lon="15.0689833"><ele>458.0</ele><time>2026-04-04T08:32:39.275Z</time></trkpt><trkpt lat="36.9635334" lon="15.0689136"><ele>458.0</ele><time>2026-04-04T08:32:40.284Z</time></trkpt><trkpt lat="36.963466" lon="15.0688429"><ele>458.3333333333333</ele><time>2026-04-04T08:32:41.293Z</time></trkpt><trkpt lat="36.9634024" lon="15.068772"><ele>458.66666666666663</ele><time>2026-04-04T08:32:42.286Z</time></trkpt><trkpt lat="36.9633301" lon="15.0687012"><ele>459.0</ele><time>2026-04-04T08:32:43.287Z</time></trkpt><trkpt lat="36.9632719" lon="15.0686487"><ele>459.33333333333337</ele><time>2026-04-04T08:32:44.3Z</time></trkpt><trkpt lat="36.9632226" lon="15.0685909"><ele>459.6666666666667</ele><time>2026-04-04T08:32:45.288Z</time></trkpt><trkpt lat="36.9631477" lon="15.068512"><ele>460.0</ele><time>2026-04-04T08:32:47.269Z</time></trkpt><trkpt lat="36.9630699" lon="15.0684171"><ele>460.0</ele><time>2026-04-04T08:32:49.27Z</time></trkpt><trkpt lat="36.9629823" lon="15.0683001"><ele>460.0</ele><time>2026-04-04T08:32:51.278Z</time></trkpt><trkpt lat="36.9629279" lon="15.0682192"><ele>460.0</ele><time>2026-04-04T08:32:52.302Z</time></trkpt><trkpt lat="36.9628792" lon="15.0681332"><ele>460.0</ele><time>2026-04-04T08:32:53.254Z</time></trkpt><trkpt lat="36.9628272" lon="15.068037"><ele>460.0</ele><time>2026-04-04T08:32:54.309Z</time></trkpt><trkpt lat="36.9627889" lon="15.067947"><ele>460.1428571428571</ele><time>2026-04-04T08:32:55.312Z</time></trkpt><trkpt lat="36.9627541" lon="15.0678651"><ele>460.2857142857143</ele><time>2026-04-04T08:32:56.296Z</time></trkpt><trkpt lat="36.9627129" lon="15.0678028"><ele>460.42857142857144</ele><time>2026-04-04T08:32:57.293Z</time></trkpt><trkpt lat="36.9626757" lon="15.0677264"><ele>460.57142857142856</ele><time>2026-04-04T08:32:59.302Z</time></trkpt><trkpt lat="36.962706" lon="15.0676474"><ele>460.7142857142858</ele><time>2026-04-04T08:33:01.283Z</time></trkpt><trkpt lat="36.9627344" lon="15.0675763"><ele>460.8571428571429</ele><time>2026-04-04T08:33:02.293Z</time></trkpt><trkpt lat="36.9627666" lon="15.0675018"><ele>461.0</ele><time>2026-04-04T08:33:03.299Z</time></trkpt><trkpt lat="36.9628011" lon="15.0674"><ele>461.0</ele><time>2026-04-04T08:33:04.291Z</time></trkpt><trkpt lat="36.9628497" lon="15.0672729"><ele>461.0</ele><time>2026-04-04T08:33:05.288Z</time></trkpt><trkpt lat="36.9628956" lon="15.067143"><ele>461.0</ele><time>2026-04-04T08:33:06.29Z</time></trkpt><trkpt lat="36.9629327" lon="15.067011"><ele>461.0</ele><time>2026-04-04T08:33:07.297Z</time></trkpt><trkpt lat="36.9629605" lon="15.0668846"><ele>461.0</ele><time>2026-04-04T08:33:08.295Z</time></trkpt><trkpt lat="36.9629815" lon="15.0667623"><ele>461.0</ele><time>2026-04-04T08:33:09.293Z</time></trkpt><trkpt lat="36.9630038" lon="15.0666429"><ele>461.0</ele><time>2026-04-04T08:33:10.273Z</time></trkpt><trkpt lat="36.9630251" lon="15.0665155"><ele>461.0</ele><time>2026-04-04T08:33:11.296Z</time></trkpt><trkpt lat="36.9630476" lon="15.0663873"><ele>461.0</ele><time>2026-04-04T08:33:12.296Z</time></trkpt><trkpt lat="36.963073" lon="15.0662565"><ele>461.0</ele><time>2026-04-04T08:33:13.291Z</time></trkpt><trkpt lat="36.9630957" lon="15.0661223"><ele>460.20000000000005</ele><time>2026-04-04T08:33:14.288Z</time></trkpt><trkpt lat="36.9631206" lon="15.0659948"><ele>459.40000000000003</ele><time>2026-04-04T08:33:15.276Z</time></trkpt><trkpt lat="36.9631426" lon="15.0658795"><ele>458.6</ele><time>2026-04-04T08:33:16.323Z</time></trkpt><trkpt lat="36.9631687" lon="15.0657687"><ele>457.8</ele><time>2026-04-04T08:33:17.291Z</time></trkpt><trkpt lat="36.9632066" lon="15.0656566"><ele>457.0</ele><time>2026-04-04T08:33:18.289Z</time></trkpt><trkpt lat="36.9632482" lon="15.0655332"><ele>456.0</ele><time>2026-04-04T08:33:19.283Z</time></trkpt><trkpt lat="36.9632756" lon="15.0654179"><ele>455.00000000000006</ele><time>2026-04-04T08:33:20.285Z</time></trkpt><trkpt lat="36.9632934" lon="15.0652946"><ele>454.00000000000006</ele><time>2026-04-04T08:33:21.284Z</time></trkpt><trkpt lat="36.9632926" lon="15.0651559"><ele>453.0</ele><time>2026-04-04T08:33:22.305Z</time></trkpt><trkpt lat="36.9632856" lon="15.0650112"><ele>452.0</ele><time>2026-04-04T08:33:23.277Z</time></trkpt><trkpt lat="36.9632999" lon="15.0648832"><ele>451.8333333333333</ele><time>2026-04-04T08:33:24.299Z</time></trkpt><trkpt lat="36.9633173" lon="15.0648041"><ele>451.66666666666663</ele><time>2026-04-04T08:33:25.281Z</time></trkpt><trkpt lat="36.9633307" lon="15.064695"><ele>451.5</ele><time>2026-04-04T08:33:27.288Z</time></trkpt><trkpt lat="36.9633468" lon="15.0645808"><ele>451.33333333333337</ele><time>2026-04-04T08:33:29.284Z</time></trkpt><trkpt lat="36.9633858" lon="15.0644662"><ele>451.1666666666667</ele><time>2026-04-04T08:33:31.294Z</time></trkpt><trkpt lat="36.9634146" lon="15.0643564"><ele>451.0</ele><time>2026-04-04T08:33:33.268Z</time></trkpt><trkpt lat="36.9634549" lon="15.064214"><ele>451.6666666666667</ele><time>2026-04-04T08:33:35.327Z</time></trkpt><trkpt lat="36.9634779" lon="15.0641295"><ele>452.33333333333337</ele><time>2026-04-04T08:33:36.296Z</time></trkpt><trkpt lat="36.9635005" lon="15.0640446"><ele>453.0</ele><time>2026-04-04T08:33:37.296Z</time></trkpt><trkpt lat="36.9635346" lon="15.0639642"><ele>453.66666666666663</ele><time>2026-04-04T08:33:38.296Z</time></trkpt><trkpt lat="36.9635784" lon="15.0638861"><ele>454.3333333333333</ele><time>2026-04-04T08:33:39.291Z</time></trkpt><trkpt lat="36.9636351" lon="15.0638044"><ele>455.0</ele><time>2026-04-04T08:33:40.298Z</time></trkpt><trkpt lat="36.9636967" lon="15.0636968"><ele>455.0</ele><time>2026-04-04T08:33:41.302Z</time></trkpt><trkpt lat="36.9637573" lon="15.0635801"><ele>455.0</ele><time>2026-04-04T08:33:42.295Z</time></trkpt><trkpt lat="36.9638208" lon="15.0634706"><ele>455.0</ele><time>2026-04-04T08:33:43.287Z</time></trkpt><trkpt lat="36.963073" lon="15.0662565"><ele>455.4</ele><time>2026-04-04T08:33:13.291Z</time></trkpt><trkpt lat="36.9630957" lon="15.0661223"><ele>455.8</ele><time>2026-04-04T08:33:14.288Z</time></trkpt><trkpt lat="36.9631206" lon="15.0659948"><ele>456.20000000000005</ele><time>2026-04-04T08:33:15.276Z</time></trkpt><trkpt lat="36.9631426" lon="15.0658795"><ele>456.6</ele><time>2026-04-04T08:33:16.323Z</time></trkpt><trkpt lat="36.9631687" lon="15.0657687"><ele>457.0</ele><time>2026-04-04T08:33:17.291Z</time></trkpt><trkpt lat="36.9632066" lon="15.0656566"><ele>456.0</ele><time>2026-04-04T08:33:18.289Z</time></trkpt><trkpt lat="36.9632482" lon="15.0655332"><ele>455.00000000000006</ele><time>2026-04-04T08:33:19.283Z</time></trkpt><trkpt lat="36.9632756" lon="15.0654179"><ele>454.00000000000006</ele><time>2026-04-04T08:33:20.285Z</time></trkpt><trkpt lat="36.9632934" lon="15.0652946"><ele>453.0</ele><time>2026-04-04T08:33:21.284Z</time></trkpt><trkpt lat="36.9632926" lon="15.0651559"><ele>452.0</ele><time>2026-04-04T08:33:22.305Z</time></trkpt><trkpt lat="36.9632856" lon="15.0650112"><ele>451.8333333333333</ele><time>2026-04-04T08:33:23.277Z</time></trkpt><trkpt lat="36.9632999" lon="15.0648832"><ele>451.66666666666663</ele><time>2026-04-04T08:33:24.299Z</time></trkpt><trkpt lat="36.9633173" lon="15.0648041"><ele>451.5</ele><time>2026-04-04T08:33:25.281Z</time></trkpt><trkpt lat="36.9633307" lon="15.064695"><ele>451.33333333333337</ele><time>2026-04-04T08:33:27.288Z</time></trkpt><trkpt lat="36.9633468" lon="15.0645808"><ele>451.1666666666667</ele><time>2026-04-04T08:33:29.284Z</time></trkpt><trkpt lat="36.9633858" lon="15.0644662"><ele>451.0</ele><time>2026-04-04T08:33:31.294Z</time></trkpt><trkpt lat="36.9634146" lon="15.0643564"><ele>451.6666666666667</ele><time>2026-04-04T08:33:33.268Z</time></trkpt><trkpt lat="36.9634549" lon="15.064214"><ele>452.33333333333337</ele><time>2026-04-04T08:33:35.327Z</time></trkpt><trkpt lat="36.9634779" lon="15.0641295"><ele>453.0</ele><time>2026-04-04T08:33:36.296Z</time></trkpt><trkpt lat="36.9635005" lon="15.0640446"><ele>453.66666666666663</ele><time>2026-04-04T08:33:37.296Z</time></trkpt><trkpt lat="36.9635346" lon="15.0639642"><ele>454.3333333333333</ele><time>2026-04-04T08:33:38.296Z</time></trkpt><trkpt lat="36.9635784" lon="15.0638861"><ele>455.0</ele><time>2026-04-04T08:33:39.291Z</time></trkpt><trkpt lat="36.9636351" lon="15.0638044"><ele>455.0</ele><time>2026-04-04T08:33:40.298Z</time></trkpt><trkpt lat="36.9636967" lon="15.0636968"><ele>455.0</ele><time>2026-04-04T08:33:41.302Z</time></trkpt><trkpt lat="36.9637573" lon="15.0635801"><ele>455.0</ele><time>2026-04-04T08:33:42.295Z</time></trkpt><trkpt lat="36.9638208" lon="15.0634706"><ele>455.0</ele><time>2026-04-04T08:33:43.287Z</time></trkpt><trkpt lat="36.9638821" lon="15.0633612"><ele>455.0</ele><time>2026-04-04T08:33:44.294Z</time></trkpt><trkpt lat="36.9639409" lon="15.0632406"><ele>456.2</ele><time>2026-04-04T08:33:45.297Z</time></trkpt><trkpt lat="36.9639984" lon="15.0631246"><ele>457.4</ele><time>2026-04-04T08:33:46.288Z</time></trkpt><trkpt lat="36.9640506" lon="15.0630193"><ele>458.6</ele><time>2026-04-04T08:33:47.309Z</time></trkpt><trkpt lat="36.9641145" lon="15.0629159"><ele>459.8</ele><time>2026-04-04T08:33:48.3Z</time></trkpt><trkpt lat="36.964194" lon="15.0628407"><ele>461.0</ele><time>2026-04-04T08:33:49.268Z</time></trkpt><trkpt lat="36.9642762" lon="15.0627801"><ele>461.4</ele><time>2026-04-04T08:33:50.315Z</time></trkpt><trkpt lat="36.9643512" lon="15.0627171"><ele>461.8</ele><time>2026-04-04T08:33:51.299Z</time></trkpt><trkpt lat="36.9644004" lon="15.0626332"><ele>462.19999999999993</ele><time>2026-04-04T08:33:52.297Z</time></trkpt><trkpt lat="36.9644298" lon="15.0625184"><ele>462.59999999999997</ele><time>2026-04-04T08:33:53.29Z</time></trkpt><trkpt lat="36.9644465" lon="15.0623968"><ele>463.0</ele><time>2026-04-04T08:33:54.282Z</time></trkpt><trkpt lat="36.9644862" lon="15.0622793"><ele>464.0</ele><time>2026-04-04T08:33:55.25Z</time></trkpt><trkpt lat="36.9645356" lon="15.0621611"><ele>465.0</ele><time>2026-04-04T08:33:56.289Z</time></trkpt><trkpt lat="36.9645962" lon="15.0620277"><ele>466.0</ele><time>2026-04-04T08:33:57.277Z</time></trkpt><trkpt lat="36.9646666" lon="15.0618771"><ele>467.0</ele><time>2026-04-04T08:33:58.292Z</time></trkpt><trkpt lat="36.9647402" lon="15.0617206"><ele>467.25</ele><time>2026-04-04T08:33:59.277Z</time></trkpt><trkpt lat="36.9648115" lon="15.0615713"><ele>467.5</ele><time>2026-04-04T08:34:00.27Z</time></trkpt><trkpt lat="36.9648803" lon="15.0614147"><ele>467.75</ele><time>2026-04-04T08:34:01.294Z</time></trkpt><trkpt lat="36.9649492" lon="15.0612575"><ele>468.0</ele><time>2026-04-04T08:34:02.294Z</time></trkpt><trkpt lat="36.9650228" lon="15.0610973"><ele>468.66666666666663</ele><time>2026-04-04T08:34:03.288Z</time></trkpt><trkpt lat="36.9651002" lon="15.060922"><ele>469.3333333333333</ele><time>2026-04-04T08:34:04.294Z</time></trkpt><trkpt lat="36.9651716" lon="15.0607531"><ele>470.0</ele><time>2026-04-04T08:34:05.297Z</time></trkpt><trkpt lat="36.9652368" lon="15.0605893"><ele>470.0</ele><time>2026-04-04T08:34:06.256Z</time></trkpt><trkpt lat="36.9653012" lon="15.0604329"><ele>470.0</ele><time>2026-04-04T08:34:07.274Z</time></trkpt><trkpt lat="36.9653627" lon="15.0602933"><ele>470.0</ele><time>2026-04-04T08:34:08.276Z</time></trkpt><trkpt lat="36.9654432" lon="15.0601599"><ele>470.0</ele><time>2026-04-04T08:34:09.305Z</time></trkpt><trkpt lat="36.9655308" lon="15.0600226"><ele>470.25</ele><time>2026-04-04T08:34:10.301Z</time></trkpt><trkpt lat="36.965631" lon="15.0598972"><ele>470.5</ele><time>2026-04-04T08:34:11.289Z</time></trkpt><trkpt lat="36.9657208" lon="15.0597676"><ele>470.75</ele><time>2026-04-04T08:34:12.296Z</time></trkpt><trkpt lat="36.9657968" lon="15.0596226"><ele>471.0</ele><time>2026-04-04T08:34:13.288Z</time></trkpt><trkpt lat="36.9658753" lon="15.0594641"><ele>471.0</ele><time>2026-04-04T08:34:14.297Z</time></trkpt><trkpt lat="36.9659497" lon="15.0592921"><ele>471.0</ele><time>2026-04-04T08:34:15.304Z</time></trkpt><trkpt lat="36.9660072" lon="15.0591235"><ele>471.0</ele><time>2026-04-04T08:34:16.292Z</time></trkpt><trkpt lat="36.9660488" lon="15.0589625"><ele>471.0</ele><time>2026-04-04T08:34:17.283Z</time></trkpt><trkpt lat="36.9660792" lon="15.0587992"><ele>470.5</ele><time>2026-04-04T08:34:18.283Z</time></trkpt><trkpt lat="36.9661056" lon="15.0586327"><ele>470.0</ele><time>2026-04-04T08:34:19.286Z</time></trkpt><trkpt lat="36.9661131" lon="15.0584656"><ele>469.5</ele><time>2026-04-04T08:34:20.249Z</time></trkpt><trkpt lat="36.9661124" lon="15.0582922"><ele>469.0</ele><time>2026-04-04T08:34:21.284Z</time></trkpt><trkpt lat="36.9661139" lon="15.0581071"><ele>468.25</ele><time>2026-04-04T08:34:22.265Z</time></trkpt><trkpt lat="36.9661264" lon="15.0579269"><ele>467.5</ele><time>2026-04-04T08:34:23.267Z</time></trkpt><trkpt lat="36.9661411" lon="15.0577665"><ele>466.75</ele><time>2026-04-04T08:34:24.282Z</time></trkpt><trkpt lat="36.9661528" lon="15.0576368"><ele>466.0</ele><time>2026-04-04T08:34:25.264Z</time></trkpt><trkpt lat="36.9661789" lon="15.0575068"><ele>464.75</ele><time>2026-04-04T08:34:26.281Z</time></trkpt><trkpt lat="36.966216" lon="15.0573724"><ele>463.5</ele><time>2026-04-04T08:34:27.278Z</time></trkpt><trkpt lat="36.9662645" lon="15.0572225"><ele>462.25</ele><time>2026-04-04T08:34:28.273Z</time></trkpt><trkpt lat="36.966301" lon="15.0570691"><ele>461.0</ele><time>2026-04-04T08:34:29.292Z</time></trkpt><trkpt lat="36.9663298" lon="15.0569122"><ele>461.0</ele><time>2026-04-04T08:34:30.308Z</time></trkpt><trkpt lat="36.966349" lon="15.0567401"><ele>461.0</ele><time>2026-04-04T08:34:31.305Z</time></trkpt><trkpt lat="36.9663646" lon="15.0565677"><ele>461.0</ele><time>2026-04-04T08:34:32.302Z</time></trkpt><trkpt lat="36.9663784" lon="15.056406"><ele>461.0</ele><time>2026-04-04T08:34:33.316Z</time></trkpt><trkpt lat="36.9663916" lon="15.0562374"><ele>460.0</ele><time>2026-04-04T08:34:34.308Z</time></trkpt><trkpt lat="36.966407" lon="15.0560715"><ele>459.0</ele><time>2026-04-04T08:34:35.316Z</time></trkpt><trkpt lat="36.9664103" lon="15.0559206"><ele>458.0</ele><time>2026-04-04T08:34:36.31Z</time></trkpt><trkpt lat="36.9664051" lon="15.0557788"><ele>457.0</ele><time>2026-04-04T08:34:37.315Z</time></trkpt><trkpt lat="36.9663935" lon="15.055643"><ele>456.0</ele><time>2026-04-04T08:34:38.307Z</time></trkpt><trkpt lat="36.9663953" lon="15.055516"><ele>455.00000000000006</ele><time>2026-04-04T08:34:39.304Z</time></trkpt><trkpt lat="36.966411" lon="15.0553943"><ele>454.00000000000006</ele><time>2026-04-04T08:34:40.293Z</time></trkpt><trkpt lat="36.9664257" lon="15.0552767"><ele>453.0</ele><time>2026-04-04T08:34:41.315Z</time></trkpt><trkpt lat="36.9664503" lon="15.0551576"><ele>452.0</ele><time>2026-04-04T08:34:42.294Z</time></trkpt><trkpt lat="36.9664781" lon="15.0550442"><ele>450.5</ele><time>2026-04-04T08:34:43.278Z</time></trkpt><trkpt lat="36.9665088" lon="15.0549243"><ele>449.0</ele><time>2026-04-04T08:34:44.3Z</time></trkpt><trkpt lat="36.9665384" lon="15.0547833"><ele>447.5</ele><time>2026-04-04T08:34:45.3Z</time></trkpt><trkpt lat="36.9665673" lon="15.0546342"><ele>446.0</ele><time>2026-04-04T08:34:46.288Z</time></trkpt><trkpt lat="36.9665959" lon="15.05448"><ele>446.0</ele><time>2026-04-04T08:34:47.289Z</time></trkpt><trkpt lat="36.9666245" lon="15.05432"><ele>446.0</ele><time>2026-04-04T08:34:48.279Z</time></trkpt><trkpt lat="36.9666477" lon="15.0541611"><ele>446.0</ele><time>2026-04-04T08:34:49.286Z</time></trkpt><trkpt lat="36.9666701" lon="15.0539952"><ele>446.0</ele><time>2026-04-04T08:34:50.295Z</time></trkpt><trkpt lat="36.9666984" lon="15.0538268"><ele>447.0</ele><time>2026-04-04T08:34:51.279Z</time></trkpt><trkpt lat="36.9667283" lon="15.05366"><ele>448.0</ele><time>2026-04-04T08:34:52.298Z</time></trkpt><trkpt lat="36.9667599" lon="15.0534857"><ele>449.0</ele><time>2026-04-04T08:34:53.307Z</time></trkpt><trkpt lat="36.9667806" lon="15.0533172"><ele>450.0</ele><time>2026-04-04T08:34:54.312Z</time></trkpt><trkpt lat="36.9667951" lon="15.0531526"><ele>450.0</ele><time>2026-04-04T08:34:55.299Z</time></trkpt><trkpt lat="36.9667873" lon="15.0529947"><ele>450.0</ele><time>2026-04-04T08:34:56.271Z</time></trkpt><trkpt lat="36.9667736" lon="15.0528317"><ele>450.0</ele><time>2026-04-04T08:34:57.302Z</time></trkpt><trkpt lat="36.9667648" lon="15.0526607"><ele>450.0</ele><time>2026-04-04T08:34:58.285Z</time></trkpt><trkpt lat="36.9667496" lon="15.0524967"><ele>448.75</ele><time>2026-04-04T08:34:59.287Z</time></trkpt><trkpt lat="36.9667067" lon="15.0523418"><ele>447.5</ele><time>2026-04-04T08:35:00.28Z</time></trkpt><trkpt lat="36.9666483" lon="15.0521946"><ele>446.25</ele><time>2026-04-04T08:35:01.304Z</time></trkpt><trkpt lat="36.966576" lon="15.0520493"><ele>445.0</ele><time>2026-04-04T08:35:02.287Z</time></trkpt><trkpt lat="36.9665094" lon="15.051902"><ele>443.0</ele><time>2026-04-04T08:35:03.302Z</time></trkpt><trkpt lat="36.9664645" lon="15.051767"><ele>441.0</ele><time>2026-04-04T08:35:04.289Z</time></trkpt><trkpt lat="36.9664233" lon="15.0516305"><ele>439.0</ele><time>2026-04-04T08:35:05.289Z</time></trkpt><trkpt lat="36.966384" lon="15.0514948"><ele>437.0</ele><time>2026-04-04T08:35:06.279Z</time></trkpt><trkpt lat="36.9663467" lon="15.0513519"><ele>436.25</ele><time>2026-04-04T08:35:07.3Z</time></trkpt><trkpt lat="36.96631" lon="15.0512023"><ele>435.5</ele><time>2026-04-04T08:35:08.3Z</time></trkpt><trkpt lat="36.9662758" lon="15.0510622"><ele>434.75</ele><time>2026-04-04T08:35:09.279Z</time></trkpt><trkpt lat="36.9662392" lon="15.0509227"><ele>434.0</ele><time>2026-04-04T08:35:10.301Z</time></trkpt><trkpt lat="36.9662063" lon="15.0507912"><ele>431.6</ele><time>2026-04-04T08:35:11.272Z</time></trkpt><trkpt lat="36.9661631" lon="15.0506681"><ele>429.2</ele><time>2026-04-04T08:35:12.274Z</time></trkpt><trkpt lat="36.9661262" lon="15.0505486"><ele>426.8</ele><time>2026-04-04T08:35:13.293Z</time></trkpt><trkpt lat="36.9661087" lon="15.0504444"><ele>424.40000000000003</ele><time>2026-04-04T08:35:14.301Z</time></trkpt><trkpt lat="36.9661219" lon="15.0503378"><ele>422.0</ele><time>2026-04-04T08:35:16.271Z</time></trkpt><trkpt lat="36.9662015" lon="15.0503455"><ele>422.0</ele><time>2026-04-04T08:35:19.283Z</time></trkpt><trkpt lat="36.9662549" lon="15.0504043"><ele>422.0</ele><time>2026-04-04T08:35:20.296Z</time></trkpt><trkpt lat="36.9663227" lon="15.0504677"><ele>422.0</ele><time>2026-04-04T08:35:21.291Z</time></trkpt><trkpt lat="36.9664001" lon="15.050535"><ele>422.0</ele><time>2026-04-04T08:35:22.294Z</time></trkpt><trkpt lat="36.9664902" lon="15.0506021"><ele>422.0</ele><time>2026-04-04T08:35:23.3Z</time></trkpt><trkpt lat="36.9665887" lon="15.0506654"><ele>422.0</ele><time>2026-04-04T08:35:24.301Z</time></trkpt><trkpt lat="36.9666859" lon="15.0507192"><ele>422.0</ele><time>2026-04-04T08:35:25.289Z</time></trkpt><trkpt lat="36.9667745" lon="15.050782"><ele>422.0</ele><time>2026-04-04T08:35:26.277Z</time></trkpt><trkpt lat="36.9668498" lon="15.0508516"><ele>422.0</ele><time>2026-04-04T08:35:27.302Z</time></trkpt><trkpt lat="36.9669332" lon="15.0509312"><ele>422.0</ele><time>2026-04-04T08:35:28.298Z</time></trkpt><trkpt lat="36.9670242" lon="15.0510164"><ele>426.0</ele><time>2026-04-04T08:35:29.295Z</time></trkpt><trkpt lat="36.967124" lon="15.0511168"><ele>430.0</ele><time>2026-04-04T08:35:30.291Z</time></trkpt><trkpt lat="36.9672202" lon="15.0512176"><ele>434.0</ele><time>2026-04-04T08:35:31.296Z</time></trkpt><trkpt lat="36.9673272" lon="15.0513157"><ele>438.0</ele><time>2026-04-04T08:35:32.282Z</time></trkpt><trkpt lat="36.9674504" lon="15.0514104"><ele>437.25</ele><time>2026-04-04T08:35:33.296Z</time></trkpt><trkpt lat="36.967579" lon="15.0514958"><ele>436.5</ele><time>2026-04-04T08:35:34.31Z</time></trkpt><trkpt lat="36.9676833" lon="15.0515696"><ele>435.75</ele><time>2026-04-04T08:35:35.306Z</time></trkpt><trkpt lat="36.9677711" lon="15.0516393"><ele>435.0</ele><time>2026-04-04T08:35:36.321Z</time></trkpt><trkpt lat="36.9678577" lon="15.051717"><ele>436.3333333333333</ele><time>2026-04-04T08:35:37.301Z</time></trkpt><trkpt lat="36.9679302" lon="15.0517876"><ele>437.66666666666663</ele><time>2026-04-04T08:35:38.294Z</time></trkpt><trkpt lat="36.9679896" lon="15.051864"><ele>439.0</ele><time>2026-04-04T08:35:39.326Z</time></trkpt><trkpt lat="36.9680355" lon="15.051938"><ele>440.3333333333333</ele><time>2026-04-04T08:35:40.318Z</time></trkpt><trkpt lat="36.9680891" lon="15.052004"><ele>441.66666666666663</ele><time>2026-04-04T08:35:41.297Z</time></trkpt><trkpt lat="36.9681362" lon="15.0520721"><ele>443.0</ele><time>2026-04-04T08:35:42.27Z</time></trkpt><trkpt lat="36.9681891" lon="15.0521326"><ele>442.99999999999994</ele><time>2026-04-04T08:35:43.292Z</time></trkpt><trkpt lat="36.9682476" lon="15.0521868"><ele>443.0</ele><time>2026-04-04T08:35:44.303Z</time></trkpt><trkpt lat="36.9683105" lon="15.0522329"><ele>443.0</ele><time>2026-04-04T08:35:45.272Z</time></trkpt><trkpt lat="36.9683727" lon="15.0522854"><ele>443.0</ele><time>2026-04-04T08:35:46.287Z</time></trkpt><trkpt lat="36.9684483" lon="15.0523404"><ele>442.99999999999994</ele><time>2026-04-04T08:35:47.3Z</time></trkpt><trkpt lat="36.968524" lon="15.0524049"><ele>443.0</ele><time>2026-04-04T08:35:48.292Z</time></trkpt><trkpt lat="36.968602" lon="15.0524724"><ele>443.8333333333333</ele><time>2026-04-04T08:35:49.304Z</time></trkpt><trkpt lat="36.9686791" lon="15.0525265"><ele>444.66666666666663</ele><time>2026-04-04T08:35:50.294Z</time></trkpt><trkpt lat="36.9687404" lon="15.0525775"><ele>445.5</ele><time>2026-04-04T08:35:51.296Z</time></trkpt><trkpt lat="36.9688009" lon="15.0526306"><ele>446.33333333333337</ele><time>2026-04-04T08:35:52.283Z</time></trkpt><trkpt lat="36.9688648" lon="15.0526781"><ele>447.1666666666667</ele><time>2026-04-04T08:35:53.309Z</time></trkpt><trkpt lat="36.9689272" lon="15.0527322"><ele>448.0</ele><time>2026-04-04T08:35:54.289Z</time></trkpt><trkpt lat="36.9689953" lon="15.0527867"><ele>448.0</ele><time>2026-04-04T08:35:55.3Z</time></trkpt><trkpt lat="36.9690662" lon="15.0528534"><ele>447.99999999999994</ele><time>2026-04-04T08:35:56.276Z</time></trkpt><trkpt lat="36.9691478" lon="15.0529219"><ele>447.99999999999994</ele><time>2026-04-04T08:35:57.3Z</time></trkpt><trkpt lat="36.9692241" lon="15.0529926"><ele>448.0</ele><time>2026-04-04T08:35:58.29Z</time></trkpt><trkpt lat="36.9693008" lon="15.0530522"><ele>448.0</ele><time>2026-04-04T08:35:59.298Z</time></trkpt><trkpt lat="36.9693783" lon="15.053111"><ele>448.79999999999995</ele><time>2026-04-04T08:36:00.286Z</time></trkpt><trkpt lat="36.9694532" lon="15.0531707"><ele>449.59999999999997</ele><time>2026-04-04T08:36:01.298Z</time></trkpt><trkpt lat="36.9695366" lon="15.0532382"><ele>450.40000000000003</ele><time>2026-04-04T08:36:02.266Z</time></trkpt><trkpt lat="36.9696185" lon="15.0533"><ele>451.20000000000005</ele><time>2026-04-04T08:36:03.298Z</time></trkpt><trkpt lat="36.9697068" lon="15.05337"><ele>452.0</ele><time>2026-04-04T08:36:04.294Z</time></trkpt><trkpt lat="36.9697993" lon="15.0534391"><ele>453.6</ele><time>2026-04-04T08:36:05.27Z</time></trkpt><trkpt lat="36.9698757" lon="15.0534863"><ele>455.20000000000005</ele><time>2026-04-04T08:36:06.301Z</time></trkpt><trkpt lat="36.9699822" lon="15.0535195"><ele>456.8</ele><time>2026-04-04T08:36:08.28Z</time></trkpt><trkpt lat="36.9700899" lon="15.0534479"><ele>458.4</ele><time>2026-04-04T08:36:10.287Z</time></trkpt><trkpt lat="36.9701656" lon="15.0533821"><ele>460.0</ele><time>2026-04-04T08:36:11.312Z</time></trkpt><trkpt lat="36.9702464" lon="15.0533111"><ele>460.33333333333337</ele><time>2026-04-04T08:36:12.267Z</time></trkpt><trkpt lat="36.9703352" lon="15.0532475"><ele>460.6666666666667</ele><time>2026-04-04T08:36:13.307Z</time></trkpt><trkpt lat="36.9704014" lon="15.0531817"><ele>461.0</ele><time>2026-04-04T08:36:14.29Z</time></trkpt><trkpt lat="36.9704593" lon="15.053111"><ele>461.33333333333337</ele><time>2026-04-04T08:36:15.287Z</time></trkpt><trkpt lat="36.9705067" lon="15.0530488"><ele>461.6666666666667</ele><time>2026-04-04T08:36:16.294Z</time></trkpt><trkpt lat="36.9705924" lon="15.0529815"><ele>462.0</ele><time>2026-04-04T08:36:18.315Z</time></trkpt><trkpt lat="36.9706992" lon="15.052972"><ele>462.0</ele><time>2026-04-04T08:36:20.291Z</time></trkpt><trkpt lat="36.9708022" lon="15.0530042"><ele>462.00000000000006</ele><time>2026-04-04T08:36:22.303Z</time></trkpt><trkpt lat="36.970902" lon="15.0530555"><ele>462.00000000000006</ele><time>2026-04-04T08:36:24.269Z</time></trkpt><trkpt lat="36.9710237" lon="15.0531158"><ele>462.0</ele><time>2026-04-04T08:36:26.301Z</time></trkpt><trkpt lat="36.9710851" lon="15.0531493"><ele>462.0</ele><time>2026-04-04T08:36:27.306Z</time></trkpt><trkpt lat="36.9711569" lon="15.0531762"><ele>463.6666666666667</ele><time>2026-04-04T08:36:28.269Z</time></trkpt><trkpt lat="36.971227" lon="15.0532029"><ele>465.33333333333337</ele><time>2026-04-04T08:36:29.31Z</time></trkpt><trkpt lat="36.9713025" lon="15.0532303"><ele>467.0</ele><time>2026-04-04T08:36:30.308Z</time></trkpt><trkpt lat="36.9713819" lon="15.0532604"><ele>468.6666666666667</ele><time>2026-04-04T08:36:31.303Z</time></trkpt><trkpt lat="36.9714604" lon="15.0533017"><ele>470.33333333333337</ele><time>2026-04-04T08:36:32.316Z</time></trkpt><trkpt lat="36.9715389" lon="15.0533316"><ele>472.0</ele><time>2026-04-04T08:36:33.301Z</time></trkpt><trkpt lat="36.9716118" lon="15.0533637"><ele>474.40000000000003</ele><time>2026-04-04T08:36:34.296Z</time></trkpt><trkpt lat="36.9717033" lon="15.0534047"><ele>476.80000000000007</ele><time>2026-04-04T08:36:36.31Z</time></trkpt><trkpt lat="36.9717651" lon="15.0533874"><ele>479.2</ele><time>2026-04-04T08:36:39.297Z</time></trkpt><trkpt lat="36.9718087" lon="15.0533243"><ele>481.6</ele><time>2026-04-04T08:36:40.301Z</time></trkpt><trkpt lat="36.9718847" lon="15.0532287"><ele>484.0</ele><time>2026-04-04T08:36:42.274Z</time></trkpt><trkpt lat="36.9719561" lon="15.053105"><ele>484.00000000000006</ele><time>2026-04-04T08:36:44.319Z</time></trkpt><trkpt lat="36.9720043" lon="15.0530384"><ele>484.0</ele><time>2026-04-04T08:36:45.302Z</time></trkpt><trkpt lat="36.9720534" lon="15.052966"><ele>484.0</ele><time>2026-04-04T08:36:46.304Z</time></trkpt><trkpt lat="36.9721024" lon="15.0528756"><ele>484.0</ele><time>2026-04-04T08:36:47.275Z</time></trkpt><trkpt lat="36.9721529" lon="15.0527779"><ele>484.00000000000006</ele><time>2026-04-04T08:36:48.251Z</time></trkpt><trkpt lat="36.9722047" lon="15.0526663"><ele>484.0</ele><time>2026-04-04T08:36:49.294Z</time></trkpt><trkpt lat="36.9722444" lon="15.0525329"><ele>483.0</ele><time>2026-04-04T08:36:50.29Z</time></trkpt><trkpt lat="36.9722759" lon="15.0523811"><ele>482.0</ele><time>2026-04-04T08:36:51.303Z</time></trkpt><trkpt lat="36.9723005" lon="15.0522167"><ele>481.0</ele><time>2026-04-04T08:36:52.313Z</time></trkpt><trkpt lat="36.9723273" lon="15.0520492"><ele>480.0</ele><time>2026-04-04T08:36:53.299Z</time></trkpt><trkpt lat="36.9723568" lon="15.0518826"><ele>480.0</ele><time>2026-04-04T08:36:54.294Z</time></trkpt><trkpt lat="36.9723817" lon="15.0517171"><ele>480.0</ele><time>2026-04-04T08:36:55.286Z</time></trkpt><trkpt lat="36.9724079" lon="15.0515498"><ele>480.0</ele><time>2026-04-04T08:36:56.293Z</time></trkpt><trkpt lat="36.9724328" lon="15.0513936"><ele>480.0</ele><time>2026-04-04T08:36:57.295Z</time></trkpt><trkpt lat="36.972459" lon="15.0512267"><ele>479.25</ele><time>2026-04-04T08:36:58.293Z</time></trkpt><trkpt lat="36.9724865" lon="15.0510492"><ele>478.5</ele><time>2026-04-04T08:36:59.29Z</time></trkpt><trkpt lat="36.9725137" lon="15.0508682"><ele>477.75</ele><time>2026-04-04T08:37:00.294Z</time></trkpt><trkpt lat="36.9725385" lon="15.0506937"><ele>477.0</ele><time>2026-04-04T08:37:01.266Z</time></trkpt><trkpt lat="36.9725652" lon="15.0505256"><ele>478.75</ele><time>2026-04-04T08:37:02.289Z</time></trkpt><trkpt lat="36.97259" lon="15.050365"><ele>480.5</ele><time>2026-04-04T08:37:03.286Z</time></trkpt><trkpt lat="36.9726149" lon="15.0502111"><ele>482.25</ele><time>2026-04-04T08:37:04.288Z</time></trkpt><trkpt lat="36.9726383" lon="15.0500594"><ele>484.0</ele><time>2026-04-04T08:37:05.309Z</time></trkpt><trkpt lat="36.9726557" lon="15.0499164"><ele>484.0</ele><time>2026-04-04T08:37:06.311Z</time></trkpt><trkpt lat="36.9726741" lon="15.0497802"><ele>484.0</ele><time>2026-04-04T08:37:07.282Z</time></trkpt><trkpt lat="36.9726959" lon="15.0496463"><ele>484.0</ele><time>2026-04-04T08:37:08.307Z</time></trkpt><trkpt lat="36.9727187" lon="15.0495163"><ele>484.0</ele><time>2026-04-04T08:37:09.28Z</time></trkpt><trkpt lat="36.9727374" lon="15.0493882"><ele>484.0</ele><time>2026-04-04T08:37:10.301Z</time></trkpt><trkpt lat="36.9727483" lon="15.0492564"><ele>482.25</ele><time>2026-04-04T08:37:11.3Z</time></trkpt><trkpt lat="36.9727384" lon="15.0491107"><ele>480.5</ele><time>2026-04-04T08:37:12.327Z</time></trkpt><trkpt lat="36.9726998" lon="15.0489464"><ele>478.75</ele><time>2026-04-04T08:37:13.3Z</time></trkpt><trkpt lat="36.9726472" lon="15.0487976"><ele>477.0</ele><time>2026-04-04T08:37:14.297Z</time></trkpt><trkpt lat="36.9725888" lon="15.0486473"><ele>477.0</ele><time>2026-04-04T08:37:15.31Z</time></trkpt><trkpt lat="36.9725315" lon="15.0484932"><ele>477.0</ele><time>2026-04-04T08:37:16.311Z</time></trkpt><trkpt lat="36.9724898" lon="15.0483347"><ele>477.0</ele><time>2026-04-04T08:37:17.299Z</time></trkpt><trkpt lat="36.9724657" lon="15.0481857"><ele>477.0</ele><time>2026-04-04T08:37:18.289Z</time></trkpt><trkpt lat="36.9724776" lon="15.0480691"><ele>474.40000000000003</ele><time>2026-04-04T08:37:19.299Z</time></trkpt><trkpt lat="36.9725267" lon="15.0479713"><ele>471.80000000000007</ele><time>2026-04-04T08:37:20.306Z</time></trkpt><trkpt lat="36.972593" lon="15.0479047"><ele>469.2</ele><time>2026-04-04T08:37:21.312Z</time></trkpt><trkpt lat="36.9726813" lon="15.0478358"><ele>466.6</ele><time>2026-04-04T08:37:22.303Z</time></trkpt><trkpt lat="36.9727903" lon="15.0477355"><ele>464.0</ele><time>2026-04-04T08:37:23.297Z</time></trkpt><trkpt lat="36.9729066" lon="15.0476121"><ele>461.3333333333333</ele><time>2026-04-04T08:37:24.31Z</time></trkpt><trkpt lat="36.9730318" lon="15.0474602"><ele>458.66666666666663</ele><time>2026-04-04T08:37:25.305Z</time></trkpt><trkpt lat="36.973127" lon="15.0472776"><ele>456.0</ele><time>2026-04-04T08:37:26.31Z</time></trkpt><trkpt lat="36.9732289" lon="15.047095"><ele>456.0</ele><time>2026-04-04T08:37:27.288Z</time></trkpt><trkpt lat="36.9733212" lon="15.0469065"><ele>456.0</ele><time>2026-04-04T08:37:28.311Z</time></trkpt><trkpt lat="36.9733924" lon="15.0467109"><ele>456.0</ele><time>2026-04-04T08:37:29.304Z</time></trkpt><trkpt lat="36.9734412" lon="15.0465098"><ele>455.0</ele><time>2026-04-04T08:37:30.289Z</time></trkpt><trkpt lat="36.9734874" lon="15.0463006"><ele>454.0</ele><time>2026-04-04T08:37:31.297Z</time></trkpt><trkpt lat="36.9735241" lon="15.0460853"><ele>453.0</ele><time>2026-04-04T08:37:32.265Z</time></trkpt><trkpt lat="36.9735619" lon="15.0458714"><ele>450.66666666666663</ele><time>2026-04-04T08:37:33.286Z</time></trkpt><trkpt lat="36.9736057" lon="15.0456752"><ele>448.3333333333333</ele><time>2026-04-04T08:37:34.314Z</time></trkpt><trkpt lat="36.9736573" lon="15.045476"><ele>446.0</ele><time>2026-04-04T08:37:35.295Z</time></trkpt><trkpt lat="36.9737224" lon="15.0452807"><ele>446.0</ele><time>2026-04-04T08:37:36.319Z</time></trkpt><trkpt lat="36.9737945" lon="15.0450818"><ele>446.0</ele><time>2026-04-04T08:37:37.288Z</time></trkpt><trkpt lat="36.9738737" lon="15.0448863"><ele>446.0</ele><time>2026-04-04T08:37:38.272Z</time></trkpt><trkpt lat="36.9739491" lon="15.0446864"><ele>444.66666666666663</ele><time>2026-04-04T08:37:39.265Z</time></trkpt><trkpt lat="36.9740268" lon="15.0444874"><ele>443.33333333333337</ele><time>2026-04-04T08:37:40.29Z</time></trkpt><trkpt lat="36.9740999" lon="15.0442863"><ele>442.0</ele><time>2026-04-04T08:37:41.307Z</time></trkpt><trkpt lat="36.9741641" lon="15.0440993"><ele>440.0</ele><time>2026-04-04T08:37:42.295Z</time></trkpt><trkpt lat="36.9742244" lon="15.043913"><ele>438.0</ele><time>2026-04-04T08:37:43.307Z</time></trkpt><trkpt lat="36.9742844" lon="15.0437262"><ele>436.0</ele><time>2026-04-04T08:37:44.316Z</time></trkpt><trkpt lat="36.974341" lon="15.0435347"><ele>436.0</ele><time>2026-04-04T08:37:45.294Z</time></trkpt><trkpt lat="36.9743989" lon="15.0433314"><ele>436.0</ele><time>2026-04-04T08:37:46.306Z</time></trkpt><trkpt lat="36.9744556" lon="15.0431185"><ele>436.0</ele><time>2026-04-04T08:37:47.286Z</time></trkpt><trkpt lat="36.9745109" lon="15.0429046"><ele>434.6666666666667</ele><time>2026-04-04T08:37:48.304Z</time></trkpt><trkpt lat="36.9745681" lon="15.0426869"><ele>433.33333333333337</ele><time>2026-04-04T08:37:49.287Z</time></trkpt><trkpt lat="36.9746249" lon="15.0424726"><ele>432.0</ele><time>2026-04-04T08:37:50.319Z</time></trkpt><trkpt lat="36.9746825" lon="15.0422582"><ele>431.33333333333337</ele><time>2026-04-04T08:37:51.288Z</time></trkpt><trkpt lat="36.9747445" lon="15.0420499"><ele>430.6666666666667</ele><time>2026-04-04T08:37:52.311Z</time></trkpt><trkpt lat="36.9748055" lon="15.0418353"><ele>430.0</ele><time>2026-04-04T08:37:53.305Z</time></trkpt><trkpt lat="36.974863" lon="15.0416082"><ele>430.0</ele><time>2026-04-04T08:37:54.306Z</time></trkpt><trkpt lat="36.9749177" lon="15.0413879"><ele>430.0</ele><time>2026-04-04T08:37:55.299Z</time></trkpt><trkpt lat="36.9749707" lon="15.0411792"><ele>430.0</ele><time>2026-04-04T08:37:56.34Z</time></trkpt><trkpt lat="36.9750258" lon="15.0409786"><ele>428.0</ele><time>2026-04-04T08:37:57.294Z</time></trkpt><trkpt lat="36.9750873" lon="15.0407835"><ele>426.0</ele><time>2026-04-04T08:37:58.3Z</time></trkpt><trkpt lat="36.9751509" lon="15.0405865"><ele>424.0</ele><time>2026-04-04T08:37:59.289Z</time></trkpt><trkpt lat="36.9752148" lon="15.0403937"><ele>424.0</ele><time>2026-04-04T08:38:00.312Z</time></trkpt><trkpt lat="36.9752889" lon="15.0402082"><ele>424.0</ele><time>2026-04-04T08:38:01.305Z</time></trkpt><trkpt lat="36.9753711" lon="15.0400154"><ele>424.0</ele><time>2026-04-04T08:38:02.319Z</time></trkpt><trkpt lat="36.9754625" lon="15.0398223"><ele>425.6666666666667</ele><time>2026-04-04T08:38:03.281Z</time></trkpt><trkpt lat="36.9755583" lon="15.039628"><ele>427.33333333333337</ele><time>2026-04-04T08:38:04.301Z</time></trkpt><trkpt lat="36.9756558" lon="15.0394298"><ele>429.0</ele><time>2026-04-04T08:38:05.294Z</time></trkpt><trkpt lat="36.9757532" lon="15.0392287"><ele>431.0</ele><time>2026-04-04T08:38:06.309Z</time></trkpt><trkpt lat="36.9758425" lon="15.039032"><ele>433.0</ele><time>2026-04-04T08:38:07.318Z</time></trkpt><trkpt lat="36.9759293" lon="15.0388362"><ele>435.0</ele><time>2026-04-04T08:38:08.274Z</time></trkpt><trkpt lat="36.9760165" lon="15.0386482"><ele>433.33333333333337</ele><time>2026-04-04T08:38:09.265Z</time></trkpt><trkpt lat="36.9761036" lon="15.0384547"><ele>431.6666666666667</ele><time>2026-04-04T08:38:10.31Z</time></trkpt><trkpt lat="36.9762044" lon="15.038273"><ele>430.0</ele><time>2026-04-04T08:38:11.294Z</time></trkpt><trkpt lat="36.9763182" lon="15.0380955"><ele>430.0</ele><time>2026-04-04T08:38:12.276Z</time></trkpt><trkpt lat="36.97645" lon="15.0379338"><ele>430.0</ele><time>2026-04-04T08:38:13.306Z</time></trkpt><trkpt lat="36.9765799" lon="15.0377829"><ele>430.0</ele><time>2026-04-04T08:38:14.311Z</time></trkpt><trkpt lat="36.9767034" lon="15.0376505"><ele>429.6666666666667</ele><time>2026-04-04T08:38:15.316Z</time></trkpt><trkpt lat="36.9768239" lon="15.0375312"><ele>429.33333333333337</ele><time>2026-04-04T08:38:16.301Z</time></trkpt><trkpt lat="36.9769512" lon="15.0374123"><ele>429.0</ele><time>2026-04-04T08:38:17.296Z</time></trkpt><trkpt lat="36.9770821" lon="15.037289"><ele>429.0</ele><time>2026-04-04T08:38:18.298Z</time></trkpt><trkpt lat="36.9772196" lon="15.0371498"><ele>429.0</ele><time>2026-04-04T08:38:19.301Z</time></trkpt><trkpt lat="36.9773587" lon="15.0370096"><ele>429.0</ele><time>2026-04-04T08:38:20.31Z</time></trkpt><trkpt lat="36.9774915" lon="15.036862"><ele>427.66666666666663</ele><time>2026-04-04T08:38:21.305Z</time></trkpt><trkpt lat="36.9776202" lon="15.0367233"><ele>426.3333333333333</ele><time>2026-04-04T08:38:22.31Z</time></trkpt><trkpt lat="36.9777515" lon="15.0365884"><ele>425.0</ele><time>2026-04-04T08:38:23.304Z</time></trkpt><trkpt lat="36.9778766" lon="15.0364508"><ele>425.0</ele><time>2026-04-04T08:38:24.305Z</time></trkpt><trkpt lat="36.9779984" lon="15.0363028"><ele>425.0</ele><time>2026-04-04T08:38:25.294Z</time></trkpt><trkpt lat="36.978101" lon="15.0361389"><ele>425.0</ele><time>2026-04-04T08:38:26.308Z</time></trkpt><trkpt lat="36.9782013" lon="15.0359723"><ele>424.66666666666663</ele><time>2026-04-04T08:38:27.301Z</time></trkpt><trkpt lat="36.9782878" lon="15.0357944"><ele>424.33333333333337</ele><time>2026-04-04T08:38:28.287Z</time></trkpt><trkpt lat="36.9783719" lon="15.0356038"><ele>424.0</ele><time>2026-04-04T08:38:29.326Z</time></trkpt><trkpt lat="36.9784605" lon="15.0354155"><ele>424.0</ele><time>2026-04-04T08:38:30.305Z</time></trkpt><trkpt lat="36.9785523" lon="15.0352257"><ele>424.0</ele><time>2026-04-04T08:38:31.308Z</time></trkpt><trkpt lat="36.9786436" lon="15.035041"><ele>424.0</ele><time>2026-04-04T08:38:32.296Z</time></trkpt><trkpt lat="36.978732" lon="15.0348683"><ele>425.6666666666667</ele><time>2026-04-04T08:38:33.327Z</time></trkpt><trkpt lat="36.9788224" lon="15.0347017"><ele>427.33333333333337</ele><time>2026-04-04T08:38:34.3Z</time></trkpt><trkpt lat="36.9789158" lon="15.034544"><ele>429.0</ele><time>2026-04-04T08:38:35.307Z</time></trkpt><trkpt lat="36.97901" lon="15.0343855"><ele>429.0</ele><time>2026-04-04T08:38:36.302Z</time></trkpt><trkpt lat="36.979107" lon="15.0342219"><ele>429.0</ele><time>2026-04-04T08:38:37.302Z</time></trkpt><trkpt lat="36.9791951" lon="15.0340606"><ele>429.0</ele><time>2026-04-04T08:38:38.308Z</time></trkpt><trkpt lat="36.9792847" lon="15.0339006"><ele>429.0</ele><time>2026-04-04T08:38:39.318Z</time></trkpt><trkpt lat="36.9793672" lon="15.0337415"><ele>429.0</ele><time>2026-04-04T08:38:40.32Z</time></trkpt><trkpt lat="36.9794367" lon="15.0335841"><ele>429.0</ele><time>2026-04-04T08:38:41.3Z</time></trkpt><trkpt lat="36.9794928" lon="15.0334255"><ele>429.0</ele><time>2026-04-04T08:38:42.303Z</time></trkpt><trkpt lat="36.9795308" lon="15.0332769"><ele>429.0</ele><time>2026-04-04T08:38:43.3Z</time></trkpt><trkpt lat="36.9795637" lon="15.0331308"><ele>429.0</ele><time>2026-04-04T08:38:44.295Z</time></trkpt><trkpt lat="36.9795891" lon="15.0330069"><ele>429.0</ele><time>2026-04-04T08:38:45.303Z</time></trkpt><trkpt lat="36.9796071" lon="15.0329217"><ele>429.0</ele><time>2026-04-04T08:38:46.29Z</time></trkpt><trkpt lat="36.9796452" lon="15.0328523"><ele>429.0</ele><time>2026-04-04T08:38:48.281Z</time></trkpt><trkpt lat="36.9797135" lon="15.0329202"><ele>429.0</ele><time>2026-04-04T08:38:51.31Z</time></trkpt><trkpt lat="36.9797699" lon="15.0329673"><ele>429.0</ele><time>2026-04-04T08:38:52.31Z</time></trkpt><trkpt lat="36.9798374" lon="15.0330306"><ele>429.0</ele><time>2026-04-04T08:38:53.299Z</time></trkpt><trkpt lat="36.9798986" lon="15.0331076"><ele>429.0</ele><time>2026-04-04T08:38:54.295Z</time></trkpt><trkpt lat="36.9799585" lon="15.0331861"><ele>429.0</ele><time>2026-04-04T08:38:55.306Z</time></trkpt><trkpt lat="36.9800262" lon="15.0332603"><ele>429.0</ele><time>2026-04-04T08:38:56.282Z</time></trkpt><trkpt lat="36.9800907" lon="15.0333385"><ele>429.0</ele><time>2026-04-04T08:38:57.284Z</time></trkpt><trkpt lat="36.9801532" lon="15.0334186"><ele>429.1666666666667</ele><time>2026-04-04T08:38:58.286Z</time></trkpt><trkpt lat="36.9802056" lon="15.0334856"><ele>429.33333333333337</ele><time>2026-04-04T08:38:59.308Z</time></trkpt><trkpt lat="36.9802458" lon="15.0335518"><ele>429.5</ele><time>2026-04-04T08:39:00.307Z</time></trkpt><trkpt lat="36.9802661" lon="15.0336367"><ele>429.6666666666667</ele><time>2026-04-04T08:39:02.292Z</time></trkpt><trkpt lat="36.9802431" lon="15.0337292"><ele>429.83333333333337</ele><time>2026-04-04T08:39:04.283Z</time></trkpt><trkpt lat="36.9802087" lon="15.0338107"><ele>430.0</ele><time>2026-04-04T08:39:05.293Z</time></trkpt><trkpt lat="36.9801601" lon="15.0339063"><ele>430.0</ele><time>2026-04-04T08:39:06.312Z</time></trkpt><trkpt lat="36.9801006" lon="15.0340082"><ele>430.0</ele><time>2026-04-04T08:39:07.298Z</time></trkpt><trkpt lat="36.9800459" lon="15.034117"><ele>430.0</ele><time>2026-04-04T08:39:08.295Z</time></trkpt><trkpt lat="36.9800059" lon="15.0342233"><ele>430.0</ele><time>2026-04-04T08:39:09.302Z</time></trkpt><trkpt lat="36.9799686" lon="15.0343155"><ele>430.0</ele><time>2026-04-04T08:39:10.284Z</time></trkpt><trkpt lat="36.9799383" lon="15.0344062"><ele>429.1666666666667</ele><time>2026-04-04T08:39:11.315Z</time></trkpt><trkpt lat="36.9799037" lon="15.0344973"><ele>428.33333333333337</ele><time>2026-04-04T08:39:12.286Z</time></trkpt><trkpt lat="36.9798728" lon="15.0345811"><ele>427.5</ele><time>2026-04-04T08:39:13.293Z</time></trkpt><trkpt lat="36.9798572" lon="15.0346698"><ele>426.66666666666663</ele><time>2026-04-04T08:39:14.298Z</time></trkpt><trkpt lat="36.9798643" lon="15.0347574"><ele>425.8333333333333</ele><time>2026-04-04T08:39:15.321Z</time></trkpt><trkpt lat="36.9798975" lon="15.0348549"><ele>425.0</ele><time>2026-04-04T08:39:16.288Z</time></trkpt><trkpt lat="36.9799338" lon="15.034961"><ele>425.16666666666663</ele><time>2026-04-04T08:39:17.294Z</time></trkpt><trkpt lat="36.9799606" lon="15.0350687"><ele>425.3333333333333</ele><time>2026-04-04T08:39:18.294Z</time></trkpt><trkpt lat="36.9799846" lon="15.0351749"><ele>425.5</ele><time>2026-04-04T08:39:19.298Z</time></trkpt><trkpt lat="36.9800053" lon="15.0352778"><ele>425.66666666666663</ele><time>2026-04-04T08:39:20.285Z</time></trkpt><trkpt lat="36.9800286" lon="15.0353765"><ele>425.8333333333333</ele><time>2026-04-04T08:39:21.301Z</time></trkpt><trkpt lat="36.9800449" lon="15.0354839"><ele>426.0</ele><time>2026-04-04T08:39:22.289Z</time></trkpt><trkpt lat="36.9800493" lon="15.035603"><ele>426.0</ele><time>2026-04-04T08:39:23.286Z</time></trkpt><trkpt lat="36.9800441" lon="15.0357294"><ele>426.0</ele><time>2026-04-04T08:39:24.298Z</time></trkpt><trkpt lat="36.9800329" lon="15.0358674"><ele>426.0</ele><time>2026-04-04T08:39:25.287Z</time></trkpt><trkpt lat="36.9800266" lon="15.0360161"><ele>426.0</ele><time>2026-04-04T08:39:26.305Z</time></trkpt><trkpt lat="36.9800163" lon="15.0361848"><ele>426.66666666666663</ele><time>2026-04-04T08:39:27.295Z</time></trkpt><trkpt lat="36.980004" lon="15.036377"><ele>427.3333333333333</ele><time>2026-04-04T08:39:28.282Z</time></trkpt><trkpt lat="36.9799913" lon="15.0365729"><ele>428.0</ele><time>2026-04-04T08:39:29.296Z</time></trkpt><trkpt lat="36.9799756" lon="15.0367604"><ele>428.25</ele><time>2026-04-04T08:39:30.282Z</time></trkpt><trkpt lat="36.9799547" lon="15.0369439"><ele>428.5</ele><time>2026-04-04T08:39:31.279Z</time></trkpt><trkpt lat="36.9799533" lon="15.0371001"><ele>428.75</ele><time>2026-04-04T08:39:32.287Z</time></trkpt><trkpt lat="36.979947" lon="15.0372361"><ele>429.0</ele><time>2026-04-04T08:39:33.299Z</time></trkpt><trkpt lat="36.9799415" lon="15.0373458"><ele>429.0</ele><time>2026-04-04T08:39:34.277Z</time></trkpt><trkpt lat="36.9799342" lon="15.0374362"><ele>429.0</ele><time>2026-04-04T08:39:35.297Z</time></trkpt><trkpt lat="36.9799482" lon="15.0375766"><ele>429.0</ele><time>2026-04-04T08:39:37.3Z</time></trkpt><trkpt lat="36.9799803" lon="15.0376904"><ele>429.0</ele><time>2026-04-04T08:39:39.317Z</time></trkpt><trkpt lat="36.9799927" lon="15.0377742"><ele>429.0</ele><time>2026-04-04T08:39:41.277Z</time></trkpt><trkpt lat="36.9799318" lon="15.037868"><ele>429.0</ele><time>2026-04-04T08:39:44.297Z</time></trkpt><trkpt lat="36.9798767" lon="15.0379502"><ele>428.79999999999995</ele><time>2026-04-04T08:39:46.3Z</time></trkpt><trkpt lat="36.97982" lon="15.0380524"><ele>428.59999999999997</ele><time>2026-04-04T08:39:48.289Z</time></trkpt><trkpt lat="36.979754" lon="15.0381532"><ele>428.4</ele><time>2026-04-04T08:39:50.298Z</time></trkpt><trkpt lat="36.979669" lon="15.0382555"><ele>428.2</ele><time>2026-04-04T08:39:52.291Z</time></trkpt><trkpt lat="36.9795956" lon="15.0383506"><ele>428.0</ele><time>2026-04-04T08:39:54.303Z</time></trkpt><trkpt lat="36.9795551" lon="15.038433"><ele>426.49999999999994</ele><time>2026-04-04T08:39:56.286Z</time></trkpt><trkpt lat="36.9794932" lon="15.038506"><ele>425.0</ele><time>2026-04-04T08:39:58.284Z</time></trkpt><trkpt lat="36.9794375" lon="15.0386274"><ele>423.5</ele><time>2026-04-04T08:40:00.297Z</time></trkpt><trkpt lat="36.9794207" lon="15.0387064"><ele>422.0</ele><time>2026-04-04T08:40:01.304Z</time></trkpt><trkpt lat="36.9794064" lon="15.0388011"><ele>420.49999999999994</ele><time>2026-04-04T08:40:02.277Z</time></trkpt><trkpt lat="36.9793951" lon="15.0388924"><ele>419.0</ele><time>2026-04-04T08:40:03.305Z</time></trkpt><trkpt lat="36.9793841" lon="15.0389764"><ele>419.0</ele><time>2026-04-04T08:40:04.303Z</time></trkpt><trkpt lat="36.9793731" lon="15.0390603"><ele>419.0</ele><time>2026-04-04T08:40:05.284Z</time></trkpt><trkpt lat="36.979356" lon="15.0391904"><ele>419.0</ele><time>2026-04-04T08:40:07.294Z</time></trkpt><trkpt lat="36.9793502" lon="15.0392889"><ele>419.0</ele><time>2026-04-04T08:40:09.277Z</time></trkpt><trkpt lat="36.9792737" lon="15.0392898"><ele>419.0</ele><time>2026-04-04T08:40:13.274Z</time></trkpt><trkpt lat="36.9791431" lon="15.0393097"><ele>416.99999999999994</ele><time>2026-04-04T08:40:15.288Z</time></trkpt><trkpt lat="36.9790545" lon="15.0393339"><ele>415.0</ele><time>2026-04-04T08:40:16.292Z</time></trkpt><trkpt lat="36.9789975" lon="15.0393769"><ele>413.0</ele><time>2026-04-04T08:40:18.31Z</time></trkpt><trkpt lat="36.978955" lon="15.0394667"><ele>411.0</ele><time>2026-04-04T08:40:21.264Z</time></trkpt><trkpt lat="36.9789642" lon="15.0395743"><ele>408.99999999999994</ele><time>2026-04-04T08:40:24.281Z</time></trkpt><trkpt lat="36.9790031" lon="15.0396681"><ele>407.0</ele><time>2026-04-04T08:40:27.254Z</time></trkpt><trkpt lat="36.979067" lon="15.039683"><ele>407.00000000000006</ele><time>2026-04-04T08:40:29.298Z</time></trkpt><trkpt lat="36.9791351" lon="15.0397066"><ele>407.0</ele><time>2026-04-04T08:40:32.292Z</time></trkpt><trkpt lat="36.979171" lon="15.0397744"><ele>407.0</ele><time>2026-04-04T08:40:38.284Z</time></trkpt><trkpt lat="36.9791403" lon="15.0398437"><ele>407.0</ele><time>2026-04-04T08:40:46.28Z</time></trkpt><trkpt lat="36.979103" lon="15.0399236"><ele>407.0</ele><time>2026-04-04T08:40:52.281Z</time></trkpt><trkpt lat="36.9790503" lon="15.0399726"><ele>407.00000000000006</ele><time>2026-04-04T08:41:12.273Z</time></trkpt><trkpt lat="36.979012" lon="15.0400418"><ele>407.0</ele><time>2026-04-04T08:41:18.288Z</time></trkpt><trkpt lat="36.9789542" lon="15.0400923"><ele>405.66666666666663</ele><time>2026-04-04T08:41:21.294Z</time></trkpt><trkpt lat="36.9788803" lon="15.0401444"><ele>404.3333333333333</ele><time>2026-04-04T08:41:24.281Z</time></trkpt><trkpt lat="36.9788342" lon="15.0402053"><ele>403.0</ele><time>2026-04-04T08:41:26.286Z</time></trkpt><trkpt lat="36.9787809" lon="15.0402809"><ele>401.66666666666663</ele><time>2026-04-04T08:41:28.299Z</time></trkpt><trkpt lat="36.9787298" lon="15.0403585"><ele>400.3333333333333</ele><time>2026-04-04T08:41:30.295Z</time></trkpt><trkpt lat="36.9786868" lon="15.0404477"><ele>399.0</ele><time>2026-04-04T08:41:32.276Z</time></trkpt><trkpt lat="36.9786539" lon="15.0405464"><ele>399.0</ele><time>2026-04-04T08:41:35.29Z</time></trkpt><trkpt lat="36.9786092" lon="15.0406129"><ele>399.0</ele><time>2026-04-04T08:41:40.282Z</time></trkpt><trkpt lat="36.9785953" lon="15.0407088"><ele>399.0</ele><time>2026-04-04T08:41:44.291Z</time></trkpt><trkpt lat="36.9785851" lon="15.0407984"><ele>399.0</ele><time>2026-04-04T08:41:47.301Z</time></trkpt><trkpt lat="36.9786065" lon="15.0408953"><ele>399.0</ele><time>2026-04-04T08:41:50.287Z</time></trkpt><trkpt lat="36.9786301" lon="15.0409768"><ele>399.0</ele><time>2026-04-04T08:41:53.292Z</time></trkpt><trkpt lat="36.978674" lon="15.0410466"><ele>399.0</ele><time>2026-04-04T08:41:57.302Z</time></trkpt><trkpt lat="36.9787038" lon="15.0411264"><ele>399.0</ele><time>2026-04-04T08:42:02.294Z</time></trkpt><trkpt lat="36.9787471" lon="15.0411973"><ele>399.0</ele><time>2026-04-04T08:42:05.278Z</time></trkpt><trkpt lat="36.9787871" lon="15.0412755"><ele>399.0</ele><time>2026-04-04T08:42:08.293Z</time></trkpt><trkpt lat="36.9788388" lon="15.0413628"><ele>399.0</ele><time>2026-04-04T08:42:12.291Z</time></trkpt><trkpt lat="36.9788933" lon="15.0414479"><ele>399.0</ele><time>2026-04-04T08:42:16.277Z</time></trkpt><trkpt lat="36.9789353" lon="15.0415106"><ele>399.0</ele><time>2026-04-04T08:42:19.288Z</time></trkpt><trkpt lat="36.9790077" lon="15.0415967"><ele>396.3333333333333</ele><time>2026-04-04T08:42:22.293Z</time></trkpt><trkpt lat="36.9790728" lon="15.0417049"><ele>393.6666666666667</ele><time>2026-04-04T08:42:24.29Z</time></trkpt><trkpt lat="36.9791091" lon="15.0417877"><ele>391.0</ele><time>2026-04-04T08:42:26.299Z</time></trkpt><trkpt lat="36.9790902" lon="15.0418765"><ele>388.33333333333337</ele><time>2026-04-04T08:42:30.318Z</time></trkpt><trkpt lat="36.9790279" lon="15.0419102"><ele>385.6666666666667</ele><time>2026-04-04T08:42:33.289Z</time></trkpt><trkpt lat="36.9789495" lon="15.0419384"><ele>383.0</ele><time>2026-04-04T08:42:36.296Z</time></trkpt><trkpt lat="36.9788777" lon="15.0419556"><ele>383.0</ele><time>2026-04-04T08:42:38.29Z</time></trkpt><trkpt lat="36.9788055" lon="15.041981"><ele>383.0</ele><time>2026-04-04T08:42:40.287Z</time></trkpt><trkpt lat="36.9787132" lon="15.0420467"><ele>383.0</ele><time>2026-04-04T08:42:42.276Z</time></trkpt><trkpt lat="36.978614" lon="15.0421105"><ele>383.0</ele><time>2026-04-04T08:42:44.287Z</time></trkpt><trkpt lat="36.9785424" lon="15.0421645"><ele>383.0</ele><time>2026-04-04T08:42:46.255Z</time></trkpt><trkpt lat="36.9784865" lon="15.0422182"><ele>383.0</ele><time>2026-04-04T08:42:48.291Z</time></trkpt><trkpt lat="36.9784188" lon="15.0422553"><ele>382.1666666666667</ele><time>2026-04-04T08:42:50.297Z</time></trkpt><trkpt lat="36.9783506" lon="15.0423097"><ele>381.33333333333337</ele><time>2026-04-04T08:42:55.289Z</time></trkpt><trkpt lat="36.9782698" lon="15.0423483"><ele>380.5</ele><time>2026-04-04T08:42:59.287Z</time></trkpt><trkpt lat="36.9782476" lon="15.0424364"><ele>379.6666666666667</ele><time>2026-04-04T08:43:03.271Z</time></trkpt><trkpt lat="36.9782489" lon="15.0425574"><ele>378.8333333333333</ele><time>2026-04-04T08:43:06.301Z</time></trkpt><trkpt lat="36.9782436" lon="15.0426389"><ele>378.0</ele><time>2026-04-04T08:43:24.289Z</time></trkpt><trkpt lat="36.9782549" lon="15.0427285"><ele>378.0</ele><time>2026-04-04T08:43:28.289Z</time></trkpt><trkpt lat="36.9782628" lon="15.0428219"><ele>378.0</ele><time>2026-04-04T08:43:32.278Z</time></trkpt><trkpt lat="36.9782783" lon="15.0429035"><ele>378.0</ele><time>2026-04-04T08:43:37.285Z</time></trkpt><trkpt lat="36.9782969" lon="15.0429849"><ele>378.0</ele><time>2026-04-04T08:47:06.289Z</time></trkpt><trkpt lat="36.9782995" lon="15.0430762"><ele>378.0</ele><time>2026-04-04T08:52:57.279Z</time></trkpt><trkpt lat="36.9783015" lon="15.0429818"><ele>378.0</ele><time>2026-04-04T08:53:09.277Z</time></trkpt><trkpt lat="36.9783039" lon="15.0430642"><ele>378.0</ele><time>2026-04-04T08:55:19.373Z</time></trkpt><trkpt lat="36.9783717" lon="15.0432479"><ele>377.59999999999997</ele><time>2026-04-04T09:10:02.279Z</time></trkpt><trkpt lat="36.9785348" lon="15.0432388"><ele>377.2</ele><time>2026-04-04T09:10:11.296Z</time></trkpt><trkpt lat="36.9785012" lon="15.0433416"><ele>376.8</ele><time>2026-04-04T09:10:14.286Z</time></trkpt><trkpt lat="36.9784996" lon="15.0434812"><ele>376.4</ele><time>2026-04-04T09:10:16.281Z</time></trkpt><trkpt lat="36.9785296" lon="15.0435802"><ele>376.0</ele><time>2026-04-04T09:10:18.282Z</time></trkpt><trkpt lat="36.9785928" lon="15.0436322"><ele>377.1428571428571</ele><time>2026-04-04T09:10:20.275Z</time></trkpt><trkpt lat="36.9786688" lon="15.0436709"><ele>378.2857142857143</ele><time>2026-04-04T09:10:22.272Z</time></trkpt><trkpt lat="36.9787511" lon="15.0436764"><ele>379.42857142857144</ele><time>2026-04-04T09:10:24.274Z</time></trkpt><trkpt lat="36.9788106" lon="15.0437232"><ele>380.57142857142856</ele><time>2026-04-04T09:10:39.279Z</time></trkpt><trkpt lat="36.9787889" lon="15.0437988"><ele>381.7142857142857</ele><time>2026-04-04T09:10:50.287Z</time></trkpt><trkpt lat="36.9788151" lon="15.0437267"><ele>382.85714285714283</ele><time>2026-04-04T09:11:23.265Z</time></trkpt><trkpt lat="36.9788489" lon="15.0436569"><ele>384.0</ele><time>2026-04-04T09:11:28.256Z</time></trkpt><trkpt lat="36.9789114" lon="15.0436117"><ele>384.0</ele><time>2026-04-04T09:11:30.256Z</time></trkpt><trkpt lat="36.97897" lon="15.0435617"><ele>384.0</ele><time>2026-04-04T09:11:32.272Z</time></trkpt><trkpt lat="36.9790293" lon="15.04353"><ele>384.0</ele><time>2026-04-04T09:11:34.271Z</time></trkpt><trkpt lat="36.979112" lon="15.0435241"><ele>384.0</ele><time>2026-04-04T09:11:36.301Z</time></trkpt><trkpt lat="36.9792129" lon="15.0435404"><ele>384.0</ele><time>2026-04-04T09:11:38.288Z</time></trkpt><trkpt lat="36.9793213" lon="15.0435066"><ele>384.0</ele><time>2026-04-04T09:11:40.285Z</time></trkpt><trkpt lat="36.9793847" lon="15.0434843"><ele>385.79999999999995</ele><time>2026-04-04T09:11:41.286Z</time></trkpt><trkpt lat="36.9794875" lon="15.0434254"><ele>387.59999999999997</ele><time>2026-04-04T09:11:43.307Z</time></trkpt><trkpt lat="36.9795799" lon="15.0433903"><ele>389.4</ele><time>2026-04-04T09:11:45.286Z</time></trkpt><trkpt lat="36.9796703" lon="15.0433786"><ele>391.2</ele><time>2026-04-04T09:11:47.3Z</time></trkpt><trkpt lat="36.9797506" lon="15.0433737"><ele>393.0</ele><time>2026-04-04T09:11:49.29Z</time></trkpt><trkpt lat="36.9798184" lon="15.0434366"><ele>393.0</ele><time>2026-04-04T09:11:52.271Z</time></trkpt><trkpt lat="36.979817" lon="15.0435254"><ele>393.0</ele><time>2026-04-04T09:11:54.283Z</time></trkpt><trkpt lat="36.9798106" lon="15.0436062"><ele>393.0</ele><time>2026-04-04T09:11:56.287Z</time></trkpt><trkpt lat="36.9798545" lon="15.043692"><ele>393.0</ele><time>2026-04-04T09:11:58.29Z</time></trkpt><trkpt lat="36.979913" lon="15.0437932"><ele>393.0</ele><time>2026-04-04T09:12:00.271Z</time></trkpt><trkpt lat="36.9799563" lon="15.0438815"><ele>393.0</ele><time>2026-04-04T09:12:02.292Z</time></trkpt><trkpt lat="36.9800112" lon="15.0439331"><ele>394.00000000000006</ele><time>2026-04-04T09:12:04.275Z</time></trkpt><trkpt lat="36.9800757" lon="15.0439691"><ele>395.0</ele><time>2026-04-04T09:12:06.286Z</time></trkpt><trkpt lat="36.980134" lon="15.0440085"><ele>396.0</ele><time>2026-04-04T09:12:08.273Z</time></trkpt><trkpt lat="36.9801911" lon="15.0440491"><ele>397.0</ele><time>2026-04-04T09:12:10.292Z</time></trkpt><trkpt lat="36.9802597" lon="15.0440877"><ele>398.0</ele><time>2026-04-04T09:12:13.271Z</time></trkpt><trkpt lat="36.9803422" lon="15.044104"><ele>399.00000000000006</ele><time>2026-04-04T09:12:17.272Z</time></trkpt><trkpt lat="36.980409" lon="15.0441116"><ele>400.0</ele><time>2026-04-04T09:12:20.298Z</time></trkpt><trkpt lat="36.9804992" lon="15.044138"><ele>401.6</ele><time>2026-04-04T09:12:23.294Z</time></trkpt><trkpt lat="36.9805841" lon="15.0441708"><ele>403.2</ele><time>2026-04-04T09:12:26.272Z</time></trkpt><trkpt lat="36.9806427" lon="15.044266"><ele>404.79999999999995</ele><time>2026-04-04T09:12:28.437Z</time></trkpt><trkpt lat="36.9807016" lon="15.0443703"><ele>406.4</ele><time>2026-04-04T09:12:30.294Z</time></trkpt><trkpt lat="36.9807288" lon="15.0444562"><ele>408.0</ele><time>2026-04-04T09:12:32.281Z</time></trkpt><trkpt lat="36.9807465" lon="15.0445691"><ele>408.0</ele><time>2026-04-04T09:12:35.273Z</time></trkpt><trkpt lat="36.9807572" lon="15.0446569"><ele>408.0</ele><time>2026-04-04T09:12:37.299Z</time></trkpt><trkpt lat="36.9807434" lon="15.0447701"><ele>408.0</ele><time>2026-04-04T09:12:39.298Z</time></trkpt><trkpt lat="36.9807376" lon="15.0448683"><ele>408.0</ele><time>2026-04-04T09:12:44.292Z</time></trkpt><trkpt lat="36.9807832" lon="15.0449268"><ele>408.0</ele><time>2026-04-04T09:12:51.279Z</time></trkpt><trkpt lat="36.9808101" lon="15.0449989"><ele>408.0</ele><time>2026-04-04T09:12:59.341Z</time></trkpt><trkpt lat="36.9809237" lon="15.0450084"><ele>410.3333333333333</ele><time>2026-04-04T09:13:29.297Z</time></trkpt><trkpt lat="36.9809688" lon="15.0449415"><ele>412.66666666666663</ele><time>2026-04-04T09:13:50.283Z</time></trkpt><trkpt lat="36.9809787" lon="15.0450211"><ele>415.0</ele><time>2026-04-04T09:14:00.293Z</time></trkpt><trkpt lat="36.9810631" lon="15.0450738"><ele>417.3333333333333</ele><time>2026-04-04T09:14:19.278Z</time></trkpt><trkpt lat="36.9811191" lon="15.0451225"><ele>419.66666666666663</ele><time>2026-04-04T09:14:21.291Z</time></trkpt><trkpt lat="36.9811987" lon="15.0451718"><ele>422.0</ele><time>2026-04-04T09:14:23.293Z</time></trkpt><trkpt lat="36.981252" lon="15.0452345"><ele>422.20000000000005</ele><time>2026-04-04T09:14:25.281Z</time></trkpt><trkpt lat="36.9812891" lon="15.0453361"><ele>422.4</ele><time>2026-04-04T09:14:29.29Z</time></trkpt><trkpt lat="36.9813271" lon="15.0454341"><ele>422.6</ele><time>2026-04-04T09:14:31.297Z</time></trkpt><trkpt lat="36.9813513" lon="15.0455442"><ele>422.79999999999995</ele><time>2026-04-04T09:14:33.299Z</time></trkpt><trkpt lat="36.9813673" lon="15.0456661"><ele>423.0</ele><time>2026-04-04T09:14:35.292Z</time></trkpt><trkpt lat="36.9814106" lon="15.0457796"><ele>423.4</ele><time>2026-04-04T09:14:37.288Z</time></trkpt><trkpt lat="36.9814599" lon="15.0458759"><ele>423.79999999999995</ele><time>2026-04-04T09:14:39.298Z</time></trkpt><trkpt lat="36.981511" lon="15.0459526"><ele>424.2</ele><time>2026-04-04T09:14:41.289Z</time></trkpt><trkpt lat="36.9815705" lon="15.0460418"><ele>424.6</ele><time>2026-04-04T09:14:43.299Z</time></trkpt><trkpt lat="36.9816476" lon="15.0461406"><ele>425.0</ele><time>2026-04-04T09:14:45.25Z</time></trkpt><trkpt lat="36.9817372" lon="15.0462225"><ele>425.6</ele><time>2026-04-04T09:14:47.278Z</time></trkpt><trkpt lat="36.9817975" lon="15.0462453"><ele>426.2</ele><time>2026-04-04T09:14:48.258Z</time></trkpt><trkpt lat="36.9818798" lon="15.0463182"><ele>426.79999999999995</ele><time>2026-04-04T09:14:50.288Z</time></trkpt><trkpt lat="36.9819557" lon="15.0463888"><ele>427.4</ele><time>2026-04-04T09:14:52.26Z</time></trkpt><trkpt lat="36.9820418" lon="15.0464494"><ele>428.0</ele><time>2026-04-04T09:14:54.27Z</time></trkpt><trkpt lat="36.9821231" lon="15.0465165"><ele>428.0</ele><time>2026-04-04T09:14:56.29Z</time></trkpt><trkpt lat="36.9822243" lon="15.0465809"><ele>427.99999999999994</ele><time>2026-04-04T09:14:58.284Z</time></trkpt><trkpt lat="36.9823224" lon="15.0466328"><ele>427.99999999999994</ele><time>2026-04-04T09:15:00.309Z</time></trkpt><trkpt lat="36.9824004" lon="15.0466804"><ele>428.0</ele><time>2026-04-04T09:15:03.265Z</time></trkpt><trkpt lat="36.9824727" lon="15.046719"><ele>428.0</ele><time>2026-04-04T09:15:05.279Z</time></trkpt><trkpt lat="36.982591" lon="15.0467779"><ele>427.66666666666663</ele><time>2026-04-04T09:15:07.283Z</time></trkpt><trkpt lat="36.9826473" lon="15.0468234"><ele>427.3333333333333</ele><time>2026-04-04T09:15:08.293Z</time></trkpt><trkpt lat="36.9827005" lon="15.0468794"><ele>427.0</ele><time>2026-04-04T09:15:09.286Z</time></trkpt><trkpt lat="36.9827497" lon="15.0469358"><ele>426.66666666666663</ele><time>2026-04-04T09:15:10.28Z</time></trkpt><trkpt lat="36.9828072" lon="15.0470013"><ele>426.3333333333333</ele><time>2026-04-04T09:15:11.274Z</time></trkpt><trkpt lat="36.982876" lon="15.0470563"><ele>426.0</ele><time>2026-04-04T09:15:12.302Z</time></trkpt><trkpt lat="36.9829664" lon="15.0471123"><ele>426.0</ele><time>2026-04-04T09:15:13.269Z</time></trkpt><trkpt lat="36.9830604" lon="15.047159"><ele>426.0</ele><time>2026-04-04T09:15:14.29Z</time></trkpt><trkpt lat="36.9831623" lon="15.04721"><ele>426.0</ele><time>2026-04-04T09:15:15.295Z</time></trkpt><trkpt lat="36.9832488" lon="15.04726"><ele>426.0</ele><time>2026-04-04T09:15:16.286Z</time></trkpt><trkpt lat="36.9833372" lon="15.0472842"><ele>426.0</ele><time>2026-04-04T09:15:17.281Z</time></trkpt><trkpt lat="36.9834455" lon="15.0472919"><ele>426.0</ele><time>2026-04-04T09:15:18.291Z</time></trkpt><trkpt lat="36.9835551" lon="15.0472552"><ele>426.0</ele><time>2026-04-04T09:15:19.288Z</time></trkpt><trkpt lat="36.9836899" lon="15.0472135"><ele>426.0</ele><time>2026-04-04T09:15:20.288Z</time></trkpt><trkpt lat="36.9838021" lon="15.0472036"><ele>426.0</ele><time>2026-04-04T09:15:21.291Z</time></trkpt><trkpt lat="36.9839038" lon="15.0471911"><ele>426.0</ele><time>2026-04-04T09:15:22.286Z</time></trkpt><trkpt lat="36.9840317" lon="15.0471928"><ele>426.0</ele><time>2026-04-04T09:15:23.281Z</time></trkpt><trkpt lat="36.9841813" lon="15.0471937"><ele>426.0</ele><time>2026-04-04T09:15:24.28Z</time></trkpt><trkpt lat="36.9843207" lon="15.0471954"><ele>426.0</ele><time>2026-04-04T09:15:25.296Z</time></trkpt><trkpt lat="36.984464" lon="15.0471974"><ele>426.0</ele><time>2026-04-04T09:15:26.244Z</time></trkpt><trkpt lat="36.9845936" lon="15.0471993"><ele>426.0</ele><time>2026-04-04T09:15:27.29Z</time></trkpt><trkpt lat="36.9846936" lon="15.0471989"><ele>426.0</ele><time>2026-04-04T09:15:28.291Z</time></trkpt><trkpt lat="36.9847743" lon="15.0471899"><ele>426.0</ele><time>2026-04-04T09:15:29.295Z</time></trkpt><trkpt lat="36.9848696" lon="15.0472207"><ele>426.0</ele><time>2026-04-04T09:15:30.284Z</time></trkpt><trkpt lat="36.9849543" lon="15.0472614"><ele>426.5</ele><time>2026-04-04T09:15:31.287Z</time></trkpt><trkpt lat="36.9850362" lon="15.0472916"><ele>427.0</ele><time>2026-04-04T09:15:32.303Z</time></trkpt><trkpt lat="36.9851076" lon="15.0473363"><ele>427.5</ele><time>2026-04-04T09:15:33.285Z</time></trkpt><trkpt lat="36.9851731" lon="15.0473839"><ele>428.0</ele><time>2026-04-04T09:15:34.309Z</time></trkpt><trkpt lat="36.9852595" lon="15.0474578"><ele>428.5</ele><time>2026-04-04T09:15:36.292Z</time></trkpt><trkpt lat="36.9853149" lon="15.0475064"><ele>429.0</ele><time>2026-04-04T09:15:38.312Z</time></trkpt><trkpt lat="36.9853669" lon="15.0475737"><ele>429.0</ele><time>2026-04-04T09:15:42.287Z</time></trkpt><trkpt lat="36.9854345" lon="15.0476361"><ele>429.0</ele><time>2026-04-04T09:15:45.292Z</time></trkpt><trkpt lat="36.985506" lon="15.0476862"><ele>429.0</ele><time>2026-04-04T09:15:47.301Z</time></trkpt><trkpt lat="36.9855594" lon="15.047747"><ele>429.0</ele><time>2026-04-04T09:15:49.284Z</time></trkpt><trkpt lat="36.985615" lon="15.0478134"><ele>429.0</ele><time>2026-04-04T09:15:51.298Z</time></trkpt><trkpt lat="36.9856733" lon="15.0478834"><ele>429.0</ele><time>2026-04-04T09:15:53.292Z</time></trkpt><trkpt lat="36.9857631" lon="15.0479568"><ele>429.0</ele><time>2026-04-04T09:15:55.291Z</time></trkpt><trkpt lat="36.9858518" lon="15.0480355"><ele>429.0</ele><time>2026-04-04T09:15:57.262Z</time></trkpt><trkpt lat="36.9859284" lon="15.04812"><ele>429.0</ele><time>2026-04-04T09:15:59.286Z</time></trkpt><trkpt lat="36.9859892" lon="15.0481882"><ele>429.0</ele><time>2026-04-04T09:16:01.308Z</time></trkpt><trkpt lat="36.9860431" lon="15.048251"><ele>429.0</ele><time>2026-04-04T09:16:04.3Z</time></trkpt><trkpt lat="36.9861003" lon="15.0483089"><ele>429.0</ele><time>2026-04-04T09:16:10.278Z</time></trkpt><trkpt lat="36.9861888" lon="15.0483064"><ele>429.6</ele><time>2026-04-04T09:16:30.3Z</time></trkpt><trkpt lat="36.9862863" lon="15.0482558"><ele>430.2</ele><time>2026-04-04T09:16:32.302Z</time></trkpt><trkpt lat="36.9863424" lon="15.0482093"><ele>430.80000000000007</ele><time>2026-04-04T09:16:33.291Z</time></trkpt><trkpt lat="36.9864291" lon="15.0481023"><ele>431.40000000000003</ele><time>2026-04-04T09:16:34.275Z</time></trkpt><trkpt lat="36.9865344" lon="15.0479653"><ele>432.0</ele><time>2026-04-04T09:16:35.271Z</time></trkpt><trkpt lat="36.9866417" lon="15.0478136"><ele>431.66666666666663</ele><time>2026-04-04T09:16:36.305Z</time></trkpt><trkpt lat="36.9867466" lon="15.0476548"><ele>431.3333333333333</ele><time>2026-04-04T09:16:37.296Z</time></trkpt><trkpt lat="36.986849" lon="15.0474861"><ele>431.0</ele><time>2026-04-04T09:16:38.308Z</time></trkpt><trkpt lat="36.9869406" lon="15.0473138"><ele>431.0</ele><time>2026-04-04T09:16:39.285Z</time></trkpt><trkpt lat="36.9870231" lon="15.0471352"><ele>431.0</ele><time>2026-04-04T09:16:40.294Z</time></trkpt><trkpt lat="36.9870901" lon="15.0469497"><ele>431.0</ele><time>2026-04-04T09:16:41.288Z</time></trkpt><trkpt lat="36.9871447" lon="15.0467669"><ele>431.66666666666663</ele><time>2026-04-04T09:16:42.288Z</time></trkpt><trkpt lat="36.9871903" lon="15.046576"><ele>432.33333333333337</ele><time>2026-04-04T09:16:43.253Z</time></trkpt><trkpt lat="36.9872425" lon="15.0463899"><ele>433.0</ele><time>2026-04-04T09:16:44.289Z</time></trkpt><trkpt lat="36.9872907" lon="15.046194"><ele>433.0</ele><time>2026-04-04T09:16:45.277Z</time></trkpt><trkpt lat="36.9873291" lon="15.0459767"><ele>433.0</ele><time>2026-04-04T09:16:46.3Z</time></trkpt><trkpt lat="36.9873687" lon="15.0457544"><ele>433.0</ele><time>2026-04-04T09:16:47.292Z</time></trkpt><trkpt lat="36.9874101" lon="15.0455283"><ele>433.33333333333337</ele><time>2026-04-04T09:16:48.288Z</time></trkpt><trkpt lat="36.9874521" lon="15.0453115"><ele>433.66666666666663</ele><time>2026-04-04T09:16:49.282Z</time></trkpt><trkpt lat="36.9874972" lon="15.0451223"><ele>434.0</ele><time>2026-04-04T09:16:50.294Z</time></trkpt><trkpt lat="36.9875495" lon="15.0449305"><ele>435.3333333333333</ele><time>2026-04-04T09:16:51.285Z</time></trkpt><trkpt lat="36.9876091" lon="15.0447537"><ele>436.66666666666663</ele><time>2026-04-04T09:16:52.281Z</time></trkpt><trkpt lat="36.9876953" lon="15.0445857"><ele>438.0</ele><time>2026-04-04T09:16:53.299Z</time></trkpt><trkpt lat="36.9877842" lon="15.0444254"><ele>438.0</ele><time>2026-04-04T09:16:54.302Z</time></trkpt><trkpt lat="36.9878838" lon="15.0442631"><ele>438.0</ele><time>2026-04-04T09:16:55.299Z</time></trkpt><trkpt lat="36.9879836" lon="15.0440952"><ele>438.0</ele><time>2026-04-04T09:16:56.283Z</time></trkpt><trkpt lat="36.9880854" lon="15.0439292"><ele>437.66666666666663</ele><time>2026-04-04T09:16:57.284Z</time></trkpt><trkpt lat="36.9881908" lon="15.0437606"><ele>437.3333333333333</ele><time>2026-04-04T09:16:58.297Z</time></trkpt><trkpt lat="36.9882934" lon="15.0436081"><ele>437.0</ele><time>2026-04-04T09:16:59.298Z</time></trkpt><trkpt lat="36.9884039" lon="15.0434709"><ele>437.66666666666663</ele><time>2026-04-04T09:17:00.309Z</time></trkpt><trkpt lat="36.9885199" lon="15.0433309"><ele>438.33333333333337</ele><time>2026-04-04T09:17:01.295Z</time></trkpt><trkpt lat="36.9886552" lon="15.0432017"><ele>439.0</ele><time>2026-04-04T09:17:02.29Z</time></trkpt><trkpt lat="36.9887911" lon="15.0430603"><ele>439.6666666666667</ele><time>2026-04-04T09:17:03.302Z</time></trkpt><trkpt lat="36.9889322" lon="15.0429341"><ele>440.33333333333337</ele><time>2026-04-04T09:17:04.29Z</time></trkpt><trkpt lat="36.9890683" lon="15.0428031"><ele>441.0</ele><time>2026-04-04T09:17:05.31Z</time></trkpt><trkpt lat="36.9892013" lon="15.0426694"><ele>442.33333333333337</ele><time>2026-04-04T09:17:06.293Z</time></trkpt><trkpt lat="36.9893285" lon="15.0425241"><ele>443.6666666666667</ele><time>2026-04-04T09:17:07.3Z</time></trkpt><trkpt lat="36.9894352" lon="15.0423834"><ele>445.0</ele><time>2026-04-04T09:17:08.275Z</time></trkpt><trkpt lat="36.9895192" lon="15.0422638"><ele>445.2</ele><time>2026-04-04T09:17:09.288Z</time></trkpt><trkpt lat="36.9895998" lon="15.0421849"><ele>445.4</ele><time>2026-04-04T09:17:10.287Z</time></trkpt><trkpt lat="36.9896728" lon="15.0421388"><ele>445.6</ele><time>2026-04-04T09:17:11.298Z</time></trkpt><trkpt lat="36.9897538" lon="15.0421186"><ele>445.8</ele><time>2026-04-04T09:17:12.309Z</time></trkpt><trkpt lat="36.9898411" lon="15.0421162"><ele>446.0</ele><time>2026-04-04T09:17:13.288Z</time></trkpt><trkpt lat="36.9899512" lon="15.042122"><ele>446.75</ele><time>2026-04-04T09:17:14.285Z</time></trkpt><trkpt lat="36.9900885" lon="15.0421216"><ele>447.5</ele><time>2026-04-04T09:17:15.281Z</time></trkpt><trkpt lat="36.9902224" lon="15.0421047"><ele>448.25</ele><time>2026-04-04T09:17:16.295Z</time></trkpt><trkpt lat="36.9903634" lon="15.0420603"><ele>449.0</ele><time>2026-04-04T09:17:17.265Z</time></trkpt><trkpt lat="36.990507" lon="15.0419879"><ele>449.0</ele><time>2026-04-04T09:17:18.302Z</time></trkpt><trkpt lat="36.9906459" lon="15.0418871"><ele>449.0</ele><time>2026-04-04T09:17:19.287Z</time></trkpt><trkpt lat="36.9907821" lon="15.04178"><ele>449.0</ele><time>2026-04-04T09:17:20.296Z</time></trkpt><trkpt lat="36.9909255" lon="15.0416603"><ele>449.75</ele><time>2026-04-04T09:17:21.268Z</time></trkpt><trkpt lat="36.991062" lon="15.0415859"><ele>450.5</ele><time>2026-04-04T09:17:22.277Z</time></trkpt><trkpt lat="36.9911845" lon="15.0415205"><ele>451.25</ele><time>2026-04-04T09:17:23.281Z</time></trkpt><trkpt lat="36.9913164" lon="15.0414791"><ele>452.0</ele><time>2026-04-04T09:17:24.258Z</time></trkpt><trkpt lat="36.9914509" lon="15.0414583"><ele>452.0</ele><time>2026-04-04T09:17:25.298Z</time></trkpt><trkpt lat="36.9915857" lon="15.0414813"><ele>452.0</ele><time>2026-04-04T09:17:26.293Z</time></trkpt><trkpt lat="36.9917274" lon="15.0415317"><ele>452.0</ele><time>2026-04-04T09:17:27.281Z</time></trkpt><trkpt lat="36.9918666" lon="15.0416142"><ele>452.0</ele><time>2026-04-04T09:17:28.296Z</time></trkpt><trkpt lat="36.992014" lon="15.0417225"><ele>454.0</ele><time>2026-04-04T09:17:29.279Z</time></trkpt><trkpt lat="36.9921601" lon="15.041851"><ele>456.0</ele><time>2026-04-04T09:17:30.291Z</time></trkpt><trkpt lat="36.9923147" lon="15.0419634"><ele>458.0</ele><time>2026-04-04T09:17:31.312Z</time></trkpt><trkpt lat="36.9924684" lon="15.0420641"><ele>459.66666666666663</ele><time>2026-04-04T09:17:32.294Z</time></trkpt><trkpt lat="36.9926211" lon="15.0421611"><ele>461.33333333333337</ele><time>2026-04-04T09:17:33.3Z</time></trkpt><trkpt lat="36.9927764" lon="15.0422563"><ele>463.0</ele><time>2026-04-04T09:17:34.287Z</time></trkpt><trkpt lat="36.9929272" lon="15.0423279"><ele>463.0</ele><time>2026-04-04T09:17:35.264Z</time></trkpt><trkpt lat="36.9930835" lon="15.0423551"><ele>463.0</ele><time>2026-04-04T09:17:36.281Z</time></trkpt><trkpt lat="36.9932551" lon="15.0423453"><ele>463.0</ele><time>2026-04-04T09:17:37.272Z</time></trkpt><trkpt lat="36.9934384" lon="15.0423082"><ele>464.6666666666667</ele><time>2026-04-04T09:17:38.283Z</time></trkpt><trkpt lat="36.993606" lon="15.0422264"><ele>466.33333333333337</ele><time>2026-04-04T09:17:39.294Z</time></trkpt><trkpt lat="36.9937887" lon="15.0421349"><ele>468.0</ele><time>2026-04-04T09:17:40.266Z</time></trkpt><trkpt lat="36.9939815" lon="15.0420716"><ele>468.0</ele><time>2026-04-04T09:17:41.296Z</time></trkpt><trkpt lat="36.9941482" lon="15.0419857"><ele>468.0</ele><time>2026-04-04T09:17:42.282Z</time></trkpt><trkpt lat="36.9943284" lon="15.041922"><ele>468.0</ele><time>2026-04-04T09:17:43.306Z</time></trkpt><trkpt lat="36.9944993" lon="15.0418634"><ele>468.0</ele><time>2026-04-04T09:17:44.287Z</time></trkpt><trkpt lat="36.994669" lon="15.0418078"><ele>468.0</ele><time>2026-04-04T09:17:45.32Z</time></trkpt><trkpt lat="36.9948335" lon="15.041752"><ele>468.0</ele><time>2026-04-04T09:17:46.256Z</time></trkpt><trkpt lat="36.9950053" lon="15.0416981"><ele>469.0</ele><time>2026-04-04T09:17:47.288Z</time></trkpt><trkpt lat="36.9951629" lon="15.0416205"><ele>470.0</ele><time>2026-04-04T09:17:48.294Z</time></trkpt><trkpt lat="36.9953249" lon="15.041499"><ele>471.0</ele><time>2026-04-04T09:17:49.289Z</time></trkpt><trkpt lat="36.9954766" lon="15.0413747"><ele>471.0</ele><time>2026-04-04T09:17:50.296Z</time></trkpt><trkpt lat="36.9956296" lon="15.0412437"><ele>471.0</ele><time>2026-04-04T09:17:51.305Z</time></trkpt><trkpt lat="36.9957814" lon="15.0411077"><ele>471.0</ele><time>2026-04-04T09:17:52.297Z</time></trkpt><trkpt lat="36.995916" lon="15.0409849"><ele>470.5</ele><time>2026-04-04T09:17:53.296Z</time></trkpt><trkpt lat="36.9960451" lon="15.0408584"><ele>470.0</ele><time>2026-04-04T09:17:54.296Z</time></trkpt><trkpt lat="36.9961751" lon="15.0407495"><ele>469.5</ele><time>2026-04-04T09:17:55.308Z</time></trkpt><trkpt lat="36.9962815" lon="15.0406763"><ele>469.0</ele><time>2026-04-04T09:17:56.297Z</time></trkpt><trkpt lat="36.9963837" lon="15.0406456"><ele>470.0</ele><time>2026-04-04T09:17:57.296Z</time></trkpt><trkpt lat="36.9964803" lon="15.0406328"><ele>471.0</ele><time>2026-04-04T09:17:58.306Z</time></trkpt><trkpt lat="36.9965805" lon="15.0406124"><ele>472.0</ele><time>2026-04-04T09:17:59.311Z</time></trkpt><trkpt lat="36.9967014" lon="15.0406155"><ele>473.0</ele><time>2026-04-04T09:18:00.287Z</time></trkpt><trkpt lat="36.9968224" lon="15.0406525"><ele>474.0</ele><time>2026-04-04T09:18:01.299Z</time></trkpt><trkpt lat="36.9969289" lon="15.040717"><ele>473.0</ele><time>2026-04-04T09:18:02.287Z</time></trkpt><trkpt lat="36.9970536" lon="15.0408367"><ele>472.0</ele><time>2026-04-04T09:18:03.29Z</time></trkpt><trkpt lat="36.9971951" lon="15.0409977"><ele>471.0</ele><time>2026-04-04T09:18:04.288Z</time></trkpt><trkpt lat="36.997321" lon="15.0411535"><ele>471.0</ele><time>2026-04-04T09:18:05.322Z</time></trkpt><trkpt lat="36.9974323" lon="15.0412987"><ele>471.0</ele><time>2026-04-04T09:18:06.297Z</time></trkpt><trkpt lat="36.9975569" lon="15.0414521"><ele>471.0</ele><time>2026-04-04T09:18:07.285Z</time></trkpt><trkpt lat="36.99769" lon="15.0415744"><ele>472.0</ele><time>2026-04-04T09:18:08.3Z</time></trkpt><trkpt lat="36.9978654" lon="15.0416753"><ele>473.0</ele><time>2026-04-04T09:18:09.29Z</time></trkpt><trkpt lat="36.9980197" lon="15.0417723"><ele>474.0</ele><time>2026-04-04T09:18:10.297Z</time></trkpt><trkpt lat="36.9981556" lon="15.0418548"><ele>474.0</ele><time>2026-04-04T09:18:11.256Z</time></trkpt><trkpt lat="36.9983067" lon="15.0418844"><ele>474.0</ele><time>2026-04-04T09:18:12.253Z</time></trkpt><trkpt lat="36.9984613" lon="15.0418738"><ele>474.0</ele><time>2026-04-04T09:18:13.253Z</time></trkpt><trkpt lat="36.9986133" lon="15.0418645"><ele>475.75</ele><time>2026-04-04T09:18:14.255Z</time></trkpt><trkpt lat="36.9987606" lon="15.0418162"><ele>477.5</ele><time>2026-04-04T09:18:15.27Z</time></trkpt><trkpt lat="36.9988998" lon="15.0418279"><ele>479.25</ele><time>2026-04-04T09:18:16.244Z</time></trkpt><trkpt lat="36.9989832" lon="15.0418808"><ele>481.0</ele><time>2026-04-04T09:18:17.249Z</time></trkpt><trkpt lat="36.9990418" lon="15.0419684"><ele>481.0</ele><time>2026-04-04T09:18:18.278Z</time></trkpt><trkpt lat="36.9990994" lon="15.042074"><ele>481.0</ele><time>2026-04-04T09:18:19.263Z</time></trkpt><trkpt lat="36.9991241" lon="15.0422305"><ele>481.0</ele><time>2026-04-04T09:18:20.253Z</time></trkpt><trkpt lat="36.9991406" lon="15.0424135"><ele>481.0</ele><time>2026-04-04T09:18:21.261Z</time></trkpt><trkpt lat="36.9991647" lon="15.0426086"><ele>484.6666666666667</ele><time>2026-04-04T09:18:22.279Z</time></trkpt><trkpt lat="36.9991911" lon="15.0428145"><ele>488.33333333333337</ele><time>2026-04-04T09:18:23.273Z</time></trkpt><trkpt lat="36.9992288" lon="15.0430046"><ele>492.0</ele><time>2026-04-04T09:18:24.271Z</time></trkpt><trkpt lat="36.9992269" lon="15.0432373"><ele>492.33333333333337</ele><time>2026-04-04T09:18:25.283Z</time></trkpt><trkpt lat="36.9992183" lon="15.0434814"><ele>492.6666666666667</ele><time>2026-04-04T09:18:26.273Z</time></trkpt><trkpt lat="36.9991842" lon="15.0437107"><ele>493.0</ele><time>2026-04-04T09:18:27.295Z</time></trkpt><trkpt lat="36.9991627" lon="15.0439314"><ele>492.0</ele><time>2026-04-04T09:18:28.286Z</time></trkpt><trkpt lat="36.9991563" lon="15.0441287"><ele>491.0</ele><time>2026-04-04T09:18:29.259Z</time></trkpt><trkpt lat="36.9991334" lon="15.0443317"><ele>490.0</ele><time>2026-04-04T09:18:30.298Z</time></trkpt><trkpt lat="36.9991071" lon="15.0445462"><ele>490.0</ele><time>2026-04-04T09:18:31.285Z</time></trkpt><trkpt lat="36.9990804" lon="15.0447458"><ele>490.0</ele><time>2026-04-04T09:18:32.291Z</time></trkpt><trkpt lat="36.9990774" lon="15.0449414"><ele>490.0</ele><time>2026-04-04T09:18:33.278Z</time></trkpt><trkpt lat="36.9990581" lon="15.045138"><ele>491.6666666666667</ele><time>2026-04-04T09:18:34.294Z</time></trkpt><trkpt lat="36.9990446" lon="15.0453481"><ele>493.33333333333337</ele><time>2026-04-04T09:18:35.283Z</time></trkpt><trkpt lat="36.9990097" lon="15.0455434"><ele>495.0</ele><time>2026-04-04T09:18:36.298Z</time></trkpt><trkpt lat="36.9989901" lon="15.0457329"><ele>495.33333333333337</ele><time>2026-04-04T09:18:37.288Z</time></trkpt><trkpt lat="36.9989906" lon="15.0459226"><ele>495.6666666666667</ele><time>2026-04-04T09:18:38.283Z</time></trkpt><trkpt lat="36.9990363" lon="15.0461064"><ele>496.0</ele><time>2026-04-04T09:18:39.289Z</time></trkpt><trkpt lat="36.9991087" lon="15.0462678"><ele>495.33333333333337</ele><time>2026-04-04T09:18:40.3Z</time></trkpt><trkpt lat="36.9992407" lon="15.0463865"><ele>494.66666666666663</ele><time>2026-04-04T09:18:41.285Z</time></trkpt><trkpt lat="36.9994092" lon="15.0464861"><ele>494.0</ele><time>2026-04-04T09:18:42.287Z</time></trkpt><trkpt lat="36.9995884" lon="15.0465478"><ele>494.0</ele><time>2026-04-04T09:18:43.286Z</time></trkpt><trkpt lat="36.999772" lon="15.0466257"><ele>494.0</ele><time>2026-04-04T09:18:44.299Z</time></trkpt><trkpt lat="36.9999764" lon="15.0466684"><ele>494.0</ele><time>2026-04-04T09:18:45.3Z</time></trkpt><trkpt lat="37.0001623" lon="15.046721"><ele>495.66666666666663</ele><time>2026-04-04T09:18:46.278Z</time></trkpt><trkpt lat="37.0003313" lon="15.0467768"><ele>497.33333333333337</ele><time>2026-04-04T09:18:47.3Z</time></trkpt><trkpt lat="37.0004827" lon="15.046828"><ele>499.0</ele><time>2026-04-04T09:18:48.296Z</time></trkpt><trkpt lat="37.000636" lon="15.0468745"><ele>499.0</ele><time>2026-04-04T09:18:49.301Z</time></trkpt><trkpt lat="37.000784" lon="15.0469218"><ele>499.0</ele><time>2026-04-04T09:18:50.305Z</time></trkpt><trkpt lat="37.0009401" lon="15.0469662"><ele>499.0</ele><time>2026-04-04T09:18:51.283Z</time></trkpt><trkpt lat="37.0010972" lon="15.0470245"><ele>498.25</ele><time>2026-04-04T09:18:52.285Z</time></trkpt><trkpt lat="37.0012245" lon="15.0470875"><ele>497.5</ele><time>2026-04-04T09:18:53.273Z</time></trkpt><trkpt lat="37.0013782" lon="15.0471383"><ele>496.75</ele><time>2026-04-04T09:18:54.441Z</time></trkpt><trkpt lat="37.0015179" lon="15.0472095"><ele>496.0</ele><time>2026-04-04T09:18:55.385Z</time></trkpt><trkpt lat="37.0017941" lon="15.0473769"><ele>496.33333333333337</ele><time>2026-04-04T09:18:57.29Z</time></trkpt><trkpt lat="37.0019405" lon="15.0475052"><ele>496.66666666666663</ele><time>2026-04-04T09:18:58.283Z</time></trkpt><trkpt lat="37.0020818" lon="15.047644"><ele>497.0</ele><time>2026-04-04T09:18:59.421Z</time></trkpt><trkpt lat="37.0023371" lon="15.0479794"><ele>497.0</ele><time>2026-04-04T09:19:01.314Z</time></trkpt><trkpt lat="37.0024485" lon="15.0481559"><ele>497.0</ele><time>2026-04-04T09:19:02.312Z</time></trkpt><trkpt lat="37.0025548" lon="15.0483354"><ele>497.0</ele><time>2026-04-04T09:19:03.289Z</time></trkpt><trkpt lat="37.0026452" lon="15.0484967"><ele>496.0</ele><time>2026-04-04T09:19:04.302Z</time></trkpt><trkpt lat="37.0027437" lon="15.0486711"><ele>495.0</ele><time>2026-04-04T09:19:05.365Z</time></trkpt><trkpt lat="37.0028471" lon="15.0488319"><ele>494.0</ele><time>2026-04-04T09:19:06.279Z</time></trkpt><trkpt lat="37.0029732" lon="15.0489766"><ele>494.0</ele><time>2026-04-04T09:19:07.27Z</time></trkpt><trkpt lat="37.0031136" lon="15.0491215"><ele>494.0</ele><time>2026-04-04T09:19:08.294Z</time></trkpt><trkpt lat="37.0032511" lon="15.0492704"><ele>494.0</ele><time>2026-04-04T09:19:09.289Z</time></trkpt><trkpt lat="37.003388" lon="15.0494218"><ele>491.3333333333333</ele><time>2026-04-04T09:19:10.294Z</time></trkpt><trkpt lat="37.003522" lon="15.0495903"><ele>488.66666666666663</ele><time>2026-04-04T09:19:11.283Z</time></trkpt><trkpt lat="37.0036416" lon="15.0497673"><ele>486.0</ele><time>2026-04-04T09:19:12.301Z</time></trkpt><trkpt lat="37.0037564" lon="15.0499571"><ele>485.0</ele><time>2026-04-04T09:19:13.279Z</time></trkpt><trkpt lat="37.0038549" lon="15.0501427"><ele>484.0</ele><time>2026-04-04T09:19:14.294Z</time></trkpt><trkpt lat="37.0039636" lon="15.0503338"><ele>483.0</ele><time>2026-04-04T09:19:15.292Z</time></trkpt><trkpt lat="37.0040619" lon="15.0505114"><ele>483.0</ele><time>2026-04-04T09:19:16.295Z</time></trkpt><trkpt lat="37.0041417" lon="15.0506877"><ele>483.0</ele><time>2026-04-04T09:19:17.299Z</time></trkpt><trkpt lat="37.0042082" lon="15.0508522"><ele>483.0</ele><time>2026-04-04T09:19:18.278Z</time></trkpt><trkpt lat="37.0042815" lon="15.0510022"><ele>483.0</ele><time>2026-04-04T09:19:19.291Z</time></trkpt><trkpt lat="37.0043428" lon="15.0511436"><ele>484.75</ele><time>2026-04-04T09:19:20.278Z</time></trkpt><trkpt lat="37.0044053" lon="15.051299"><ele>486.5</ele><time>2026-04-04T09:19:21.286Z</time></trkpt><trkpt lat="37.0044567" lon="15.0514571"><ele>488.25</ele><time>2026-04-04T09:19:22.297Z</time></trkpt><trkpt lat="37.0044992" lon="15.0516124"><ele>490.0</ele><time>2026-04-04T09:19:23.303Z</time></trkpt><trkpt lat="37.0045282" lon="15.05178"><ele>490.0</ele><time>2026-04-04T09:19:24.293Z</time></trkpt><trkpt lat="37.0045514" lon="15.0519834"><ele>490.0</ele><time>2026-04-04T09:19:25.296Z</time></trkpt><trkpt lat="37.0045574" lon="15.0522127"><ele>490.0</ele><time>2026-04-04T09:19:26.285Z</time></trkpt><trkpt lat="37.0045349" lon="15.0524469"><ele>487.75</ele><time>2026-04-04T09:19:27.285Z</time></trkpt><trkpt lat="37.0045322" lon="15.0526566"><ele>485.5</ele><time>2026-04-04T09:19:28.287Z</time></trkpt><trkpt lat="37.0045124" lon="15.0528427"><ele>483.25</ele><time>2026-04-04T09:19:29.291Z</time></trkpt><trkpt lat="37.0045164" lon="15.052979"><ele>481.0</ele><time>2026-04-04T09:19:30.305Z</time></trkpt><trkpt lat="37.0045655" lon="15.0530321"><ele>481.0</ele><time>2026-04-04T09:19:32.43Z</time></trkpt><trkpt lat="37.0046498" lon="15.0529721"><ele>481.0</ele><time>2026-04-04T09:19:34.412Z</time></trkpt><trkpt lat="37.0048121" lon="15.0528633"><ele>481.0</ele><time>2026-04-04T09:19:36.265Z</time></trkpt><trkpt lat="37.004932" lon="15.0527807"><ele>481.0</ele><time>2026-04-04T09:19:37.302Z</time></trkpt><trkpt lat="37.0050572" lon="15.0526792"><ele>480.33333333333337</ele><time>2026-04-04T09:19:38.3Z</time></trkpt><trkpt lat="37.0051893" lon="15.0525438"><ele>479.66666666666663</ele><time>2026-04-04T09:19:39.271Z</time></trkpt><trkpt lat="37.0052959" lon="15.0523868"><ele>479.0</ele><time>2026-04-04T09:19:40.267Z</time></trkpt><trkpt lat="37.0054133" lon="15.052214"><ele>479.0</ele><time>2026-04-04T09:19:41.363Z</time></trkpt><trkpt lat="37.0055055" lon="15.0520256"><ele>479.0</ele><time>2026-04-04T09:19:42.282Z</time></trkpt><trkpt lat="37.005602" lon="15.05186"><ele>479.0</ele><time>2026-04-04T09:19:43.299Z</time></trkpt><trkpt lat="37.0057027" lon="15.051713"><ele>477.3333333333333</ele><time>2026-04-04T09:19:44.253Z</time></trkpt><trkpt lat="37.0058095" lon="15.0515733"><ele>475.66666666666663</ele><time>2026-04-04T09:19:45.291Z</time></trkpt><trkpt lat="37.005917" lon="15.0514409"><ele>474.0</ele><time>2026-04-04T09:19:46.293Z</time></trkpt><trkpt lat="37.0060468" lon="15.051309"><ele>474.0</ele><time>2026-04-04T09:19:47.315Z</time></trkpt><trkpt lat="37.0061843" lon="15.0511706"><ele>474.0</ele><time>2026-04-04T09:19:48.294Z</time></trkpt><trkpt lat="37.006336" lon="15.051033"><ele>474.0</ele><time>2026-04-04T09:19:49.272Z</time></trkpt><trkpt lat="37.0064934" lon="15.0508946"><ele>477.33333333333337</ele><time>2026-04-04T09:19:50.285Z</time></trkpt><trkpt lat="37.0066488" lon="15.0507547"><ele>480.6666666666667</ele><time>2026-04-04T09:19:51.311Z</time></trkpt><trkpt lat="37.0067899" lon="15.0506115"><ele>484.0</ele><time>2026-04-04T09:19:52.282Z</time></trkpt><trkpt lat="37.0069385" lon="15.0504634"><ele>476.0</ele><time>2026-04-04T09:19:53.275Z</time></trkpt><trkpt lat="37.007089" lon="15.0503215"><ele>468.0</ele><time>2026-04-04T09:19:54.293Z</time></trkpt><trkpt lat="37.0072351" lon="15.0501794"><ele>460.0</ele><time>2026-04-04T09:19:55.28Z</time></trkpt><trkpt lat="37.0073562" lon="15.0500409"><ele>460.33333333333337</ele><time>2026-04-04T09:19:56.326Z</time></trkpt><trkpt lat="37.007482" lon="15.0498992"><ele>460.66666666666663</ele><time>2026-04-04T09:19:57.292Z</time></trkpt><trkpt lat="37.0075912" lon="15.0497577"><ele>461.0</ele><time>2026-04-04T09:19:58.306Z</time></trkpt><trkpt lat="37.0077076" lon="15.0496389"><ele>458.4</ele><time>2026-04-04T09:19:59.3Z</time></trkpt><trkpt lat="37.0078053" lon="15.0495305"><ele>455.8</ele><time>2026-04-04T09:20:00.28Z</time></trkpt><trkpt lat="37.007892" lon="15.049449"><ele>453.19999999999993</ele><time>2026-04-04T09:20:01.291Z</time></trkpt><trkpt lat="37.007979" lon="15.0494137"><ele>450.59999999999997</ele><time>2026-04-04T09:20:02.296Z</time></trkpt><trkpt lat="37.0080761" lon="15.0494017"><ele>448.0</ele><time>2026-04-04T09:20:03.305Z</time></trkpt><trkpt lat="37.0081645" lon="15.0494284"><ele>448.0</ele><time>2026-04-04T09:20:04.289Z</time></trkpt><trkpt lat="37.0082451" lon="15.0495025"><ele>448.0</ele><time>2026-04-04T09:20:05.293Z</time></trkpt><trkpt lat="37.0083199" lon="15.0496092"><ele>448.0</ele><time>2026-04-04T09:20:06.264Z</time></trkpt><trkpt lat="37.0083884" lon="15.0497439"><ele>448.0</ele><time>2026-04-04T09:20:07.293Z</time></trkpt><trkpt lat="37.008457" lon="15.0498718"><ele>445.59999999999997</ele><time>2026-04-04T09:20:08.293Z</time></trkpt><trkpt lat="37.0085352" lon="15.0499417"><ele>443.19999999999993</ele><time>2026-04-04T09:20:09.321Z</time></trkpt><trkpt lat="37.0086284" lon="15.0499379"><ele>440.8</ele><time>2026-04-04T09:20:10.291Z</time></trkpt><trkpt lat="37.0087175" lon="15.0498945"><ele>438.4</ele><time>2026-04-04T09:20:11.287Z</time></trkpt><trkpt lat="37.0088174" lon="15.0498023"><ele>436.0</ele><time>2026-04-04T09:20:12.297Z</time></trkpt><trkpt lat="37.008937" lon="15.0496891"><ele>436.0</ele><time>2026-04-04T09:20:13.283Z</time></trkpt><trkpt lat="37.0090646" lon="15.04956"><ele>436.0</ele><time>2026-04-04T09:20:14.306Z</time></trkpt><trkpt lat="37.0091705" lon="15.0494437"><ele>436.0</ele><time>2026-04-04T09:20:15.285Z</time></trkpt><trkpt lat="37.0092696" lon="15.0493332"><ele>436.0</ele><time>2026-04-04T09:20:16.295Z</time></trkpt><trkpt lat="37.0093692" lon="15.0492436"><ele>434.6666666666667</ele><time>2026-04-04T09:20:17.277Z</time></trkpt><trkpt lat="37.0095064" lon="15.0491831"><ele>433.33333333333337</ele><time>2026-04-04T09:20:18.266Z</time></trkpt><trkpt lat="37.0096604" lon="15.0491291"><ele>432.0</ele><time>2026-04-04T09:20:19.284Z</time></trkpt><trkpt lat="37.0098187" lon="15.0490848"><ele>432.0</ele><time>2026-04-04T09:20:20.292Z</time></trkpt><trkpt lat="37.0099608" lon="15.0490652"><ele>432.0</ele><time>2026-04-04T09:20:21.282Z</time></trkpt><trkpt lat="37.0100949" lon="15.0490355"><ele>432.0</ele><time>2026-04-04T09:20:22.278Z</time></trkpt><trkpt lat="37.0101986" lon="15.0490094"><ele>432.0</ele><time>2026-04-04T09:20:23.3Z</time></trkpt><trkpt lat="37.0103008" lon="15.0490092"><ele>430.75</ele><time>2026-04-04T09:20:24.268Z</time></trkpt><trkpt lat="37.0104259" lon="15.0490486"><ele>429.5</ele><time>2026-04-04T09:20:25.281Z</time></trkpt><trkpt lat="37.0105799" lon="15.0491145"><ele>428.25</ele><time>2026-04-04T09:20:26.289Z</time></trkpt><trkpt lat="37.0107251" lon="15.0491742"><ele>427.0</ele><time>2026-04-04T09:20:27.316Z</time></trkpt><trkpt lat="37.0108367" lon="15.0492096"><ele>425.83333333333337</ele><time>2026-04-04T09:20:28.308Z</time></trkpt><trkpt lat="37.0109489" lon="15.049252"><ele>424.6666666666667</ele><time>2026-04-04T09:20:29.308Z</time></trkpt><trkpt lat="37.0110296" lon="15.0492755"><ele>423.5</ele><time>2026-04-04T09:20:30.309Z</time></trkpt><trkpt lat="37.0110961" lon="15.0492605"><ele>422.33333333333337</ele><time>2026-04-04T09:20:31.297Z</time></trkpt><trkpt lat="37.0111609" lon="15.0492178"><ele>421.1666666666667</ele><time>2026-04-04T09:20:32.296Z</time></trkpt><trkpt lat="37.0112028" lon="15.049122"><ele>420.0</ele><time>2026-04-04T09:20:33.316Z</time></trkpt><trkpt lat="37.011241" lon="15.0489933"><ele>420.0</ele><time>2026-04-04T09:20:34.288Z</time></trkpt><trkpt lat="37.01126" lon="15.0488343"><ele>420.0</ele><time>2026-04-04T09:20:35.296Z</time></trkpt><trkpt lat="37.011307" lon="15.0486435"><ele>420.0</ele><time>2026-04-04T09:20:36.26Z</time></trkpt><trkpt lat="37.0113854" lon="15.0484568"><ele>421.33333333333337</ele><time>2026-04-04T09:20:37.3Z</time></trkpt><trkpt lat="37.0114732" lon="15.0482635"><ele>422.6666666666667</ele><time>2026-04-04T09:20:38.266Z</time></trkpt><trkpt lat="37.011559" lon="15.0480882"><ele>424.0</ele><time>2026-04-04T09:20:39.263Z</time></trkpt><trkpt lat="37.011645" lon="15.0479436"><ele>423.25</ele><time>2026-04-04T09:20:40.285Z</time></trkpt><trkpt lat="37.0117447" lon="15.047806"><ele>422.5</ele><time>2026-04-04T09:20:41.312Z</time></trkpt><trkpt lat="37.0118209" lon="15.0476981"><ele>421.75</ele><time>2026-04-04T09:20:42.282Z</time></trkpt><trkpt lat="37.0119268" lon="15.0476098"><ele>421.0</ele><time>2026-04-04T09:20:43.274Z</time></trkpt><trkpt lat="37.0120592" lon="15.0475369"><ele>421.0</ele><time>2026-04-04T09:20:44.279Z</time></trkpt><trkpt lat="37.0121978" lon="15.0474655"><ele>421.0</ele><time>2026-04-04T09:20:45.301Z</time></trkpt><trkpt lat="37.0123311" lon="15.0473935"><ele>421.0</ele><time>2026-04-04T09:20:46.304Z</time></trkpt><trkpt lat="37.0124569" lon="15.0473138"><ele>421.0</ele><time>2026-04-04T09:20:47.273Z</time></trkpt><trkpt lat="37.0125699" lon="15.0472556"><ele>424.0</ele><time>2026-04-04T09:20:48.279Z</time></trkpt><trkpt lat="37.0126679" lon="15.0472022"><ele>427.0</ele><time>2026-04-04T09:20:49.297Z</time></trkpt><trkpt lat="37.0127488" lon="15.0471332"><ele>430.0</ele><time>2026-04-04T09:20:50.301Z</time></trkpt><trkpt lat="37.0128234" lon="15.0470655"><ele>433.0</ele><time>2026-04-04T09:20:51.297Z</time></trkpt><trkpt lat="37.0128665" lon="15.0470029"><ele>436.0</ele><time>2026-04-04T09:20:52.294Z</time></trkpt><trkpt lat="37.0129126" lon="15.0468819"><ele>436.00000000000006</ele><time>2026-04-04T09:20:54.284Z</time></trkpt><trkpt lat="37.0129018" lon="15.0467833"><ele>436.0</ele><time>2026-04-04T09:20:56.295Z</time></trkpt><trkpt lat="37.0128221" lon="15.0467681"><ele>436.0</ele><time>2026-04-04T09:20:58.289Z</time></trkpt><trkpt lat="37.0127325" lon="15.0468046"><ele>436.0</ele><time>2026-04-04T09:21:00.291Z</time></trkpt><trkpt lat="37.0126452" lon="15.046829"><ele>436.00000000000006</ele><time>2026-04-04T09:21:02.283Z</time></trkpt><trkpt lat="37.0125561" lon="15.0468644"><ele>436.0</ele><time>2026-04-04T09:21:04.278Z</time></trkpt><trkpt lat="37.0124706" lon="15.0468796"><ele>433.6666666666667</ele><time>2026-04-04T09:21:06.283Z</time></trkpt><trkpt lat="37.0123995" lon="15.0469114"><ele>431.33333333333337</ele><time>2026-04-04T09:21:08.276Z</time></trkpt><trkpt lat="37.0123191" lon="15.0469332"><ele>429.0</ele><time>2026-04-04T09:21:11.273Z</time></trkpt><trkpt lat="37.0122331" lon="15.0469609"><ele>426.66666666666663</ele><time>2026-04-04T09:21:15.285Z</time></trkpt><trkpt lat="37.0121631" lon="15.0469829"><ele>424.3333333333333</ele><time>2026-04-04T09:21:18.288Z</time></trkpt><trkpt lat="37.0120864" lon="15.0470314"><ele>422.0</ele><time>2026-04-04T09:21:21.266Z</time></trkpt><trkpt lat="37.0120189" lon="15.0470634"><ele>421.99999999999994</ele><time>2026-04-04T09:21:25.272Z</time></trkpt><trkpt lat="37.0119236" lon="15.0470827"><ele>422.0</ele><time>2026-04-04T09:21:30.286Z</time></trkpt><trkpt lat="37.0118658" lon="15.0471418"><ele>422.0</ele><time>2026-04-04T09:21:33.285Z</time></trkpt><trkpt lat="37.011792" lon="15.0471805"><ele>422.0</ele><time>2026-04-04T09:21:38.259Z</time></trkpt><trkpt lat="37.0117221" lon="15.0472029"><ele>421.99999999999994</ele><time>2026-04-04T09:21:41.269Z</time></trkpt><trkpt lat="37.0116453" lon="15.0472131"><ele>422.0</ele><time>2026-04-04T09:21:44.273Z</time></trkpt><trkpt lat="37.0115688" lon="15.0472108"><ele>422.42857142857144</ele><time>2026-04-04T09:21:48.373Z</time></trkpt><trkpt lat="37.0115073" lon="15.0472376"><ele>422.8571428571429</ele><time>2026-04-04T09:21:56.277Z</time></trkpt><trkpt lat="37.0114571" lon="15.0472901"><ele>423.2857142857143</ele><time>2026-04-04T09:22:03.262Z</time></trkpt><trkpt lat="37.0114834" lon="15.0473724"><ele>423.7142857142857</ele><time>2026-04-04T09:22:11.263Z</time></trkpt><trkpt lat="37.0114613" lon="15.0472957"><ele>424.1428571428571</ele><time>2026-04-04T09:22:34.27Z</time></trkpt><trkpt lat="37.0114388" lon="15.0472084"><ele>424.57142857142856</ele><time>2026-04-04T09:22:37.246Z</time></trkpt><trkpt lat="37.0114029" lon="15.0471409"><ele>425.0</ele><time>2026-04-04T09:22:42.273Z</time></trkpt><trkpt lat="37.0113507" lon="15.047096"><ele>425.0</ele><time>2026-04-04T09:22:51.279Z</time></trkpt><trkpt lat="37.0113933" lon="15.047159"><ele>425.0</ele><time>2026-04-04T09:22:59.277Z</time></trkpt><trkpt lat="37.011419" lon="15.0470818"><ele>425.0</ele><time>2026-04-04T09:23:15.271Z</time></trkpt><trkpt lat="37.0114109" lon="15.0469934"><ele>425.0</ele><time>2026-04-04T09:23:21.278Z</time></trkpt><trkpt lat="37.0113397" lon="15.0469674"><ele>425.0</ele><time>2026-04-04T09:23:36.265Z</time></trkpt><trkpt lat="37.0112936" lon="15.0468925"><ele>425.0</ele><time>2026-04-04T09:24:03.421Z</time></trkpt><trkpt lat="37.0112344" lon="15.046816"><ele>425.0</ele><time>2026-04-04T09:24:07.28Z</time></trkpt><trkpt lat="37.0111751" lon="15.0467602"><ele>425.0</ele><time>2026-04-04T09:24:13.289Z</time></trkpt><trkpt lat="37.0111058" lon="15.0467447"><ele>425.0</ele><time>2026-04-04T09:24:16.299Z</time></trkpt><trkpt lat="37.0110363" lon="15.0466988"><ele>425.0</ele><time>2026-04-04T09:24:49.296Z</time></trkpt><trkpt lat="37.0109748" lon="15.0466809"><ele>425.0</ele><time>2026-04-04T09:24:56.293Z</time></trkpt><trkpt lat="37.0109027" lon="15.0466398"><ele>425.0</ele><time>2026-04-04T09:25:00.291Z</time></trkpt><trkpt lat="37.0108324" lon="15.0466213"><ele>425.0</ele><time>2026-04-04T09:25:06.268Z</time></trkpt><trkpt lat="37.0107691" lon="15.0466434"><ele>425.0</ele><time>2026-04-04T09:25:47.284Z</time></trkpt><trkpt lat="37.0107128" lon="15.0465969"><ele>427.8333333333333</ele><time>2026-04-04T09:25:51.278Z</time></trkpt><trkpt lat="37.0106361" lon="15.0465793"><ele>430.66666666666663</ele><time>2026-04-04T09:25:55.271Z</time></trkpt><trkpt lat="37.0105613" lon="15.046514"><ele>433.5</ele><time>2026-04-04T09:27:06.289Z</time></trkpt><trkpt lat="37.0104986" lon="15.0465223"><ele>436.33333333333337</ele><time>2026-04-04T09:27:11.289Z</time></trkpt><trkpt lat="37.0104974" lon="15.0466103"><ele>439.1666666666667</ele><time>2026-04-04T09:27:50.286Z</time></trkpt><trkpt lat="37.0104209" lon="15.046521"><ele>442.0</ele><time>2026-04-04T09:27:54.284Z</time></trkpt><trkpt lat="37.0103567" lon="15.0464796"><ele>442.00000000000006</ele><time>2026-04-04T09:27:57.278Z</time></trkpt><trkpt lat="37.0103245" lon="15.0464118"><ele>442.0</ele><time>2026-04-04T09:28:01.263Z</time></trkpt><trkpt lat="37.0102618" lon="15.0463636"><ele>442.0</ele><time>2026-04-04T09:28:04.274Z</time></trkpt><trkpt lat="37.0102056" lon="15.0463161"><ele>442.0</ele><time>2026-04-04T09:28:07.314Z</time></trkpt><trkpt lat="37.0101515" lon="15.0462735"><ele>442.0</ele><time>2026-04-04T09:28:10.301Z</time></trkpt><trkpt lat="37.0100822" lon="15.04619"><ele>442.00000000000006</ele><time>2026-04-04T09:28:14.305Z</time></trkpt><trkpt lat="37.0100317" lon="15.0461168"><ele>442.0</ele><time>2026-04-04T09:28:17.282Z</time></trkpt><trkpt lat="37.0099746" lon="15.046037"><ele>444.50000000000006</ele><time>2026-04-04T09:28:20.293Z</time></trkpt><trkpt lat="37.0099292" lon="15.0459699"><ele>447.0</ele><time>2026-04-04T09:28:23.295Z</time></trkpt><trkpt lat="37.0098836" lon="15.0459094"><ele>449.5</ele><time>2026-04-04T09:28:27.305Z</time></trkpt><trkpt lat="37.0098341" lon="15.045848"><ele>452.0</ele><time>2026-04-04T09:28:31.276Z</time></trkpt><trkpt lat="37.0097822" lon="15.0458007"><ele>454.50000000000006</ele><time>2026-04-04T09:28:36.279Z</time></trkpt><trkpt lat="37.0097039" lon="15.0456724"><ele>457.0</ele><time>2026-04-04T09:28:41.291Z</time></trkpt><trkpt lat="37.0096655" lon="15.0455865"><ele>458.8571428571429</ele><time>2026-04-04T09:28:45.295Z</time></trkpt><trkpt lat="37.009617" lon="15.0455333"><ele>460.7142857142857</ele><time>2026-04-04T09:28:49.303Z</time></trkpt><trkpt lat="37.0095475" lon="15.0455231"><ele>462.57142857142856</ele><time>2026-04-04T09:29:48.294Z</time></trkpt><trkpt lat="37.0095662" lon="15.0454384"><ele>464.42857142857144</ele><time>2026-04-04T09:30:16.285Z</time></trkpt><trkpt lat="37.0096296" lon="15.0454348"><ele>466.2857142857142</ele><time>2026-04-04T09:31:48.288Z</time></trkpt><trkpt lat="37.0095732" lon="15.0454886"><ele>468.1428571428571</ele><time>2026-04-04T09:32:02.298Z</time></trkpt><trkpt lat="37.0095386" lon="15.0455747"><ele>470.0</ele><time>2026-04-04T09:32:06.284Z</time></trkpt><trkpt lat="37.009532" lon="15.0456708"><ele>470.0</ele><time>2026-04-04T09:32:10.296Z</time></trkpt><trkpt lat="37.009468" lon="15.0456473"><ele>469.99999999999994</ele><time>2026-04-04T09:32:11.289Z</time></trkpt><trkpt lat="37.0094077" lon="15.0456799"><ele>470.0</ele><time>2026-04-04T09:32:13.291Z</time></trkpt><trkpt lat="37.0094229" lon="15.0455938"><ele>470.0</ele><time>2026-04-04T09:32:14.279Z</time></trkpt><trkpt lat="37.0094932" lon="15.045539"><ele>469.99999999999994</ele><time>2026-04-04T09:32:17.28Z</time></trkpt><trkpt lat="37.0094814" lon="15.0454436"><ele>470.0</ele><time>2026-04-04T09:32:21.306Z</time></trkpt><trkpt lat="37.0095338" lon="15.0453948"><ele>470.0</ele><time>2026-04-04T09:32:47.297Z</time></trkpt><trkpt lat="37.009469" lon="15.0453965"><ele>470.0</ele><time>2026-04-04T09:33:12.289Z</time></trkpt><trkpt lat="37.0095305" lon="15.0453679"><ele>469.99999999999994</ele><time>2026-04-04T09:34:24.295Z</time></trkpt><trkpt lat="37.0095887" lon="15.0453228"><ele>470.0</ele><time>2026-04-04T09:34:40.284Z</time></trkpt><trkpt lat="37.0095275" lon="15.0453424"><ele>470.0</ele><time>2026-04-04T09:35:16.302Z</time></trkpt><trkpt lat="37.0095038" lon="15.0454332"><ele>469.99999999999994</ele><time>2026-04-04T09:36:24.296Z</time></trkpt><trkpt lat="37.0095557" lon="15.0454794"><ele>470.0</ele><time>2026-04-04T09:38:13.28Z</time></trkpt><trkpt lat="37.0095045" lon="15.0454094"><ele>470.0</ele><time>2026-04-04T09:38:52.282Z</time></trkpt><trkpt lat="37.0094388" lon="15.0453838"><ele>470.0</ele><time>2026-04-04T09:47:39.273Z</time></trkpt><trkpt lat="37.0095053" lon="15.0454206"><ele>469.99999999999994</ele><time>2026-04-04T09:50:11.267Z</time></trkpt><trkpt lat="37.0094778" lon="15.045493"><ele>470.0</ele><time>2026-04-04T09:50:21.281Z</time></trkpt><trkpt lat="37.0094638" lon="15.0453962"><ele>470.0</ele><time>2026-04-04T09:50:41.244Z</time></trkpt><trkpt lat="37.009504" lon="15.0453202"><ele>469.99999999999994</ele><time>2026-04-04T09:51:58.276Z</time></trkpt><trkpt lat="37.0094464" lon="15.0453894"><ele>470.0</ele><time>2026-04-04T09:52:38.271Z</time></trkpt><trkpt lat="37.0095095" lon="15.0454388"><ele>470.0</ele><time>2026-04-04T09:57:41.274Z</time></trkpt><trkpt lat="37.0095628" lon="15.0454895"><ele>470.0</ele><time>2026-04-04T09:57:47.289Z</time></trkpt><trkpt lat="37.0096095" lon="15.0455494"><ele>469.99999999999994</ele><time>2026-04-04T09:57:50.292Z</time></trkpt><trkpt lat="37.0096774" lon="15.0456096"><ele>470.0</ele><time>2026-04-04T09:57:54.291Z</time></trkpt><trkpt lat="37.0097189" lon="15.0456825"><ele>470.0</ele><time>2026-04-04T09:58:04.292Z</time></trkpt><trkpt lat="37.0096698" lon="15.0457664"><ele>469.99999999999994</ele><time>2026-04-04T09:58:09.274Z</time></trkpt><trkpt lat="37.0096271" lon="15.0458272"><ele>470.0</ele><time>2026-04-04T09:58:13.267Z</time></trkpt><trkpt lat="37.0096569" lon="15.0458977"><ele>470.0</ele><time>2026-04-04T09:58:17.293Z</time></trkpt><trkpt lat="37.0097231" lon="15.0459447"><ele>467.8333333333333</ele><time>2026-04-04T09:58:21.269Z</time></trkpt><trkpt lat="37.0098151" lon="15.045966"><ele>465.66666666666663</ele><time>2026-04-04T09:58:23.285Z</time></trkpt><trkpt lat="37.0098813" lon="15.046009"><ele>463.5</ele><time>2026-04-04T09:58:25.294Z</time></trkpt><trkpt lat="37.0099486" lon="15.046056"><ele>461.33333333333337</ele><time>2026-04-04T09:58:27.3Z</time></trkpt><trkpt lat="37.0100026" lon="15.0461085"><ele>459.1666666666667</ele><time>2026-04-04T09:58:30.296Z</time></trkpt><trkpt lat="37.0100666" lon="15.0461563"><ele>457.0</ele><time>2026-04-04T09:58:37.291Z</time></trkpt><trkpt lat="37.0101147" lon="15.0462151"><ele>454.85714285714295</ele><time>2026-04-04T09:58:40.286Z</time></trkpt><trkpt lat="37.0101749" lon="15.046272"><ele>452.7142857142857</ele><time>2026-04-04T09:58:44.293Z</time></trkpt><trkpt lat="37.010236" lon="15.0463162"><ele>450.5714285714286</ele><time>2026-04-04T09:58:48.292Z</time></trkpt><trkpt lat="37.0102716" lon="15.046387"><ele>448.42857142857144</ele><time>2026-04-04T09:58:52.29Z</time></trkpt><trkpt lat="37.0103298" lon="15.0464342"><ele>446.28571428571433</ele><time>2026-04-04T09:58:57.28Z</time></trkpt><trkpt lat="37.0103808" lon="15.0464859"><ele>444.14285714285717</ele><time>2026-04-04T09:59:01.299Z</time></trkpt><trkpt lat="37.0104523" lon="15.0465169"><ele>442.0</ele><time>2026-04-04T09:59:04.297Z</time></trkpt><trkpt lat="37.0105195" lon="15.0465482"><ele>442.00000000000006</ele><time>2026-04-04T09:59:07.29Z</time></trkpt><trkpt lat="37.0105831" lon="15.0465643"><ele>442.0</ele><time>2026-04-04T09:59:12.265Z</time></trkpt><trkpt lat="37.0106537" lon="15.0465801"><ele>442.0</ele><time>2026-04-04T09:59:16.303Z</time></trkpt><trkpt lat="37.0107349" lon="15.0466156"><ele>442.0</ele><time>2026-04-04T09:59:19.309Z</time></trkpt><trkpt lat="37.0108137" lon="15.0466126"><ele>442.0</ele><time>2026-04-04T09:59:23.263Z</time></trkpt><trkpt lat="37.0108761" lon="15.0466423"><ele>442.00000000000006</ele><time>2026-04-04T09:59:27.272Z</time></trkpt><trkpt lat="37.0109468" lon="15.0466843"><ele>442.0</ele><time>2026-04-04T09:59:30.285Z</time></trkpt><trkpt lat="37.0110024" lon="15.0467317"><ele>439.5714285714286</ele><time>2026-04-04T09:59:33.27Z</time></trkpt><trkpt lat="37.011066" lon="15.0467488"><ele>437.14285714285717</ele><time>2026-04-04T09:59:36.299Z</time></trkpt><trkpt lat="37.0111313" lon="15.0467809"><ele>434.7142857142857</ele><time>2026-04-04T09:59:40.311Z</time></trkpt><trkpt lat="37.0111873" lon="15.0468182"><ele>432.28571428571433</ele><time>2026-04-04T09:59:44.274Z</time></trkpt><trkpt lat="37.0112427" lon="15.0468681"><ele>429.85714285714283</ele><time>2026-04-04T09:59:48.303Z</time></trkpt><trkpt lat="37.0112929" lon="15.04692"><ele>427.42857142857144</ele><time>2026-04-04T09:59:53.295Z</time></trkpt><trkpt lat="37.0113311" lon="15.046991"><ele>425.0</ele><time>2026-04-04T09:59:57.299Z</time></trkpt><trkpt lat="37.0113443" lon="15.0470751"><ele>425.0</ele><time>2026-04-04T10:00:02.298Z</time></trkpt><trkpt lat="37.0113701" lon="15.0471669"><ele>425.0</ele><time>2026-04-04T10:00:05.286Z</time></trkpt><trkpt lat="37.011399" lon="15.0472448"><ele>425.0</ele><time>2026-04-04T10:00:08.31Z</time></trkpt><trkpt lat="37.0114037" lon="15.0473252"><ele>425.0</ele><time>2026-04-04T10:00:11.307Z</time></trkpt><trkpt lat="37.0114572" lon="15.0472754"><ele>425.0</ele><time>2026-04-04T10:01:21.287Z</time></trkpt><trkpt lat="37.0114088" lon="15.0473534"><ele>425.0</ele><time>2026-04-04T10:02:05.283Z</time></trkpt><trkpt lat="37.0114763" lon="15.0473658"><ele>425.0</ele><time>2026-04-04T10:02:09.286Z</time></trkpt><trkpt lat="37.011535" lon="15.0473249"><ele>425.0</ele><time>2026-04-04T10:02:12.301Z</time></trkpt><trkpt lat="37.0115965" lon="15.0473062"><ele>425.0</ele><time>2026-04-04T10:02:14.302Z</time></trkpt><trkpt lat="37.0116597" lon="15.0472906"><ele>425.0</ele><time>2026-04-04T10:02:16.296Z</time></trkpt><trkpt lat="37.0117491" lon="15.047272"><ele>425.0</ele><time>2026-04-04T10:02:18.272Z</time></trkpt><trkpt lat="37.0118266" lon="15.0472403"><ele>425.0</ele><time>2026-04-04T10:02:20.273Z</time></trkpt><trkpt lat="37.0118919" lon="15.0471927"><ele>425.0</ele><time>2026-04-04T10:02:23.297Z</time></trkpt><trkpt lat="37.0119532" lon="15.0471535"><ele>425.0</ele><time>2026-04-04T10:02:26.28Z</time></trkpt><trkpt lat="37.012032" lon="15.0471306"><ele>424.57142857142856</ele><time>2026-04-04T10:02:30.301Z</time></trkpt><trkpt lat="37.0121005" lon="15.0471194"><ele>424.1428571428571</ele><time>2026-04-04T10:02:38.277Z</time></trkpt><trkpt lat="37.01217" lon="15.047081"><ele>423.7142857142857</ele><time>2026-04-04T10:02:41.27Z</time></trkpt><trkpt lat="37.0122341" lon="15.047057"><ele>423.2857142857143</ele><time>2026-04-04T10:02:43.268Z</time></trkpt><trkpt lat="37.0122939" lon="15.047023"><ele>422.8571428571429</ele><time>2026-04-04T10:02:47.363Z</time></trkpt><trkpt lat="37.0123748" lon="15.0469873"><ele>422.42857142857144</ele><time>2026-04-04T10:02:51.253Z</time></trkpt><trkpt lat="37.0124379" lon="15.0469309"><ele>422.0</ele><time>2026-04-04T10:02:54.288Z</time></trkpt><trkpt lat="37.0124978" lon="15.0468932"><ele>424.3333333333333</ele><time>2026-04-04T10:02:57.286Z</time></trkpt><trkpt lat="37.0125576" lon="15.0468678"><ele>426.66666666666663</ele><time>2026-04-04T10:03:00.303Z</time></trkpt><trkpt lat="37.0126189" lon="15.0468401"><ele>429.0</ele><time>2026-04-04T10:03:02.31Z</time></trkpt><trkpt lat="37.0127022" lon="15.0467961"><ele>431.33333333333337</ele><time>2026-04-04T10:03:04.28Z</time></trkpt><trkpt lat="37.0127778" lon="15.0467326"><ele>433.6666666666667</ele><time>2026-04-04T10:03:06.284Z</time></trkpt><trkpt lat="37.0128488" lon="15.0466531"><ele>436.0</ele><time>2026-04-04T10:03:08.302Z</time></trkpt><trkpt lat="37.0129247" lon="15.0467011"><ele>436.00000000000006</ele><time>2026-04-04T10:03:11.298Z</time></trkpt><trkpt lat="37.0128657" lon="15.0468191"><ele>436.0</ele><time>2026-04-04T10:03:13.288Z</time></trkpt><trkpt lat="37.0128173" lon="15.0468817"><ele>436.0</ele><time>2026-04-04T10:03:14.291Z</time></trkpt><trkpt lat="37.0127619" lon="15.0469483"><ele>436.0</ele><time>2026-04-04T10:03:15.28Z</time></trkpt><trkpt lat="37.012694" lon="15.0470104"><ele>436.00000000000006</ele><time>2026-04-04T10:03:16.289Z</time></trkpt><trkpt lat="37.0126183" lon="15.0470601"><ele>436.0</ele><time>2026-04-04T10:03:17.277Z</time></trkpt><trkpt lat="37.0125408" lon="15.0471099"><ele>433.20000000000005</ele><time>2026-04-04T10:03:18.303Z</time></trkpt><trkpt lat="37.012464" lon="15.047158"><ele>430.40000000000003</ele><time>2026-04-04T10:03:19.292Z</time></trkpt><trkpt lat="37.0123877" lon="15.0472076"><ele>427.6</ele><time>2026-04-04T10:03:20.314Z</time></trkpt><trkpt lat="37.0123116" lon="15.0472636"><ele>424.8</ele><time>2026-04-04T10:03:21.305Z</time></trkpt><trkpt lat="37.012232" lon="15.047327"><ele>422.0</ele><time>2026-04-04T10:03:22.4Z</time></trkpt><trkpt lat="37.0120744" lon="15.0474509"><ele>421.66666666666663</ele><time>2026-04-04T10:03:24.412Z</time></trkpt><trkpt lat="37.0119043" lon="15.0475742"><ele>421.33333333333337</ele><time>2026-04-04T10:03:26.37Z</time></trkpt><trkpt lat="37.0117323" lon="15.0477345"><ele>421.0</ele><time>2026-04-04T10:03:28.369Z</time></trkpt><trkpt lat="37.0116599" lon="15.0478372"><ele>420.8</ele><time>2026-04-04T10:03:29.302Z</time></trkpt><trkpt lat="37.0115869" lon="15.0479612"><ele>420.6</ele><time>2026-04-04T10:03:30.358Z</time></trkpt><trkpt lat="37.0115237" lon="15.0480801"><ele>420.4</ele><time>2026-04-04T10:03:31.304Z</time></trkpt><trkpt lat="37.0114614" lon="15.0481937"><ele>420.2</ele><time>2026-04-04T10:03:32.38Z</time></trkpt><trkpt lat="37.0114096" lon="15.0483004"><ele>420.0</ele><time>2026-04-04T10:03:33.326Z</time></trkpt><trkpt lat="37.0113637" lon="15.0484135"><ele>420.0</ele><time>2026-04-04T10:03:34.307Z</time></trkpt><trkpt lat="37.0113151" lon="15.0485251"><ele>420.0</ele><time>2026-04-04T10:03:35.298Z</time></trkpt><trkpt lat="37.011267" lon="15.048638"><ele>420.0</ele><time>2026-04-04T10:03:36.268Z</time></trkpt><trkpt lat="37.0112245" lon="15.0487553"><ele>420.0</ele><time>2026-04-04T10:03:37.282Z</time></trkpt><trkpt lat="37.0111911" lon="15.0488742"><ele>420.0</ele><time>2026-04-04T10:03:38.297Z</time></trkpt><trkpt lat="37.0111714" lon="15.048994"><ele>420.0</ele><time>2026-04-04T10:03:39.282Z</time></trkpt><trkpt lat="37.0111501" lon="15.0491133"><ele>420.0</ele><time>2026-04-04T10:03:40.291Z</time></trkpt><trkpt lat="37.0111274" lon="15.0492218"><ele>420.0</ele><time>2026-04-04T10:03:41.31Z</time></trkpt><trkpt lat="37.0110946" lon="15.049301"><ele>420.0</ele><time>2026-04-04T10:03:42.3Z</time></trkpt><trkpt lat="37.0109645" lon="15.0493166"><ele>420.0</ele><time>2026-04-04T10:03:44.289Z</time></trkpt><trkpt lat="37.0108824" lon="15.0493009"><ele>420.4</ele><time>2026-04-04T10:03:45.292Z</time></trkpt><trkpt lat="37.010796" lon="15.0492651"><ele>420.8</ele><time>2026-04-04T10:03:46.309Z</time></trkpt><trkpt lat="37.010706" lon="15.0492055"><ele>421.20000000000005</ele><time>2026-04-04T10:03:47.303Z</time></trkpt><trkpt lat="37.0106131" lon="15.0491447"><ele>421.6</ele><time>2026-04-04T10:03:48.304Z</time></trkpt><trkpt lat="37.0105214" lon="15.0491026"><ele>422.0</ele><time>2026-04-04T10:03:49.31Z</time></trkpt><trkpt lat="37.0104347" lon="15.0490684"><ele>422.8333333333333</ele><time>2026-04-04T10:03:50.305Z</time></trkpt><trkpt lat="37.0103509" lon="15.0490379"><ele>423.66666666666663</ele><time>2026-04-04T10:03:51.306Z</time></trkpt><trkpt lat="37.0102701" lon="15.0490046"><ele>424.5</ele><time>2026-04-04T10:03:52.312Z</time></trkpt><trkpt lat="37.0101847" lon="15.0489837"><ele>425.33333333333337</ele><time>2026-04-04T10:03:53.301Z</time></trkpt><trkpt lat="37.0101024" lon="15.0489936"><ele>426.1666666666667</ele><time>2026-04-04T10:03:54.305Z</time></trkpt><trkpt lat="37.0100291" lon="15.0490211"><ele>427.0</ele><time>2026-04-04T10:03:55.297Z</time></trkpt><trkpt lat="37.0099628" lon="15.0490491"><ele>427.00000000000006</ele><time>2026-04-04T10:03:56.363Z</time></trkpt><trkpt lat="37.0098668" lon="15.0490896"><ele>427.0</ele><time>2026-04-04T10:03:58.32Z</time></trkpt><trkpt lat="37.0097991" lon="15.0490883"><ele>427.0</ele><time>2026-04-04T10:04:01.303Z</time></trkpt><trkpt lat="37.0098861" lon="15.049077"><ele>427.0</ele><time>2026-04-04T10:04:07.314Z</time></trkpt><trkpt lat="37.0099486" lon="15.0490589"><ele>427.00000000000006</ele><time>2026-04-04T10:04:08.285Z</time></trkpt><trkpt lat="37.0100228" lon="15.0490351"><ele>427.0</ele><time>2026-04-04T10:04:09.307Z</time></trkpt><trkpt lat="37.0101" lon="15.0490159"><ele>427.0</ele><time>2026-04-04T10:04:10.314Z</time></trkpt><trkpt lat="37.0101778" lon="15.049001"><ele>427.00000000000006</ele><time>2026-04-04T10:04:11.294Z</time></trkpt><trkpt lat="37.0102532" lon="15.0490069"><ele>427.00000000000006</ele><time>2026-04-04T10:04:12.293Z</time></trkpt><trkpt lat="37.0103484" lon="15.0490467"><ele>427.0</ele><time>2026-04-04T10:04:13.281Z</time></trkpt><trkpt lat="37.0104556" lon="15.0490921"><ele>427.0</ele><time>2026-04-04T10:04:14.29Z</time></trkpt><trkpt lat="37.010559" lon="15.0491421"><ele>426.0</ele><time>2026-04-04T10:04:15.279Z</time></trkpt><trkpt lat="37.0106556" lon="15.0491845"><ele>425.00000000000006</ele><time>2026-04-04T10:04:16.294Z</time></trkpt><trkpt lat="37.0107491" lon="15.0492277"><ele>424.0</ele><time>2026-04-04T10:04:17.281Z</time></trkpt><trkpt lat="37.010832" lon="15.0492741"><ele>423.0</ele><time>2026-04-04T10:04:18.297Z</time></trkpt><trkpt lat="37.0108968" lon="15.0493139"><ele>422.0</ele><time>2026-04-04T10:04:19.293Z</time></trkpt><trkpt lat="37.0109957" lon="15.0493378"><ele>422.0</ele><time>2026-04-04T10:04:21.257Z</time></trkpt><trkpt lat="37.0109477" lon="15.0492534"><ele>422.0</ele><time>2026-04-04T10:04:27.305Z</time></trkpt><trkpt lat="37.0108374" lon="15.0492212"><ele>422.0</ele><time>2026-04-04T10:04:29.306Z</time></trkpt><trkpt lat="37.0107351" lon="15.049186"><ele>422.0</ele><time>2026-04-04T10:04:31.31Z</time></trkpt><trkpt lat="37.0106251" lon="15.0491434"><ele>422.0</ele><time>2026-04-04T10:04:33.303Z</time></trkpt><trkpt lat="37.0105505" lon="15.0491163"><ele>423.0</ele><time>2026-04-04T10:04:34.295Z</time></trkpt><trkpt lat="37.0104675" lon="15.0490814"><ele>424.0</ele><time>2026-04-04T10:04:35.306Z</time></trkpt><trkpt lat="37.0103787" lon="15.0490437"><ele>425.00000000000006</ele><time>2026-04-04T10:04:36.306Z</time></trkpt><trkpt lat="37.0102833" lon="15.0490068"><ele>426.0</ele><time>2026-04-04T10:04:37.317Z</time></trkpt><trkpt lat="37.0101905" lon="15.048985"><ele>427.0</ele><time>2026-04-04T10:04:38.306Z</time></trkpt><trkpt lat="37.0101047" lon="15.0489846"><ele>427.0</ele><time>2026-04-04T10:04:39.292Z</time></trkpt><trkpt lat="37.0100155" lon="15.049014"><ele>427.00000000000006</ele><time>2026-04-04T10:04:40.28Z</time></trkpt><trkpt lat="37.0099179" lon="15.0490516"><ele>427.00000000000006</ele><time>2026-04-04T10:04:41.301Z</time></trkpt><trkpt lat="37.0098188" lon="15.0490819"><ele>427.0</ele><time>2026-04-04T10:04:42.29Z</time></trkpt><trkpt lat="37.009727" lon="15.0490995"><ele>427.0</ele><time>2026-04-04T10:04:43.288Z</time></trkpt><trkpt lat="37.0096319" lon="15.0491114"><ele>427.40000000000003</ele><time>2026-04-04T10:04:44.273Z</time></trkpt><trkpt lat="37.0095341" lon="15.0491166"><ele>427.80000000000007</ele><time>2026-04-04T10:04:45.282Z</time></trkpt><trkpt lat="37.0094375" lon="15.0491288"><ele>428.2</ele><time>2026-04-04T10:04:46.289Z</time></trkpt><trkpt lat="37.0093438" lon="15.0491578"><ele>428.6</ele><time>2026-04-04T10:04:47.296Z</time></trkpt><trkpt lat="37.0092589" lon="15.0492009"><ele>429.0</ele><time>2026-04-04T10:04:48.3Z</time></trkpt><trkpt lat="37.0091797" lon="15.0492667"><ele>430.75</ele><time>2026-04-04T10:04:49.291Z</time></trkpt><trkpt lat="37.0090934" lon="15.0493559"><ele>432.5</ele><time>2026-04-04T10:04:50.277Z</time></trkpt><trkpt lat="37.0090005" lon="15.0494517"><ele>434.25</ele><time>2026-04-04T10:04:51.31Z</time></trkpt><trkpt lat="37.0089039" lon="15.0495523"><ele>436.0</ele><time>2026-04-04T10:04:52.294Z</time></trkpt><trkpt lat="37.0088068" lon="15.0496462"><ele>436.0</ele><time>2026-04-04T10:04:53.303Z</time></trkpt><trkpt lat="37.0087173" lon="15.0497237"><ele>436.0</ele><time>2026-04-04T10:04:54.268Z</time></trkpt><trkpt lat="37.0086321" lon="15.0497787"><ele>436.0</ele><time>2026-04-04T10:04:55.262Z</time></trkpt><trkpt lat="37.0085472" lon="15.0497867"><ele>436.0</ele><time>2026-04-04T10:04:56.307Z</time></trkpt><trkpt lat="37.0084721" lon="15.0497577"><ele>436.0</ele><time>2026-04-04T10:04:57.305Z</time></trkpt><trkpt lat="37.0084071" lon="15.0496949"><ele>436.00000000000006</ele><time>2026-04-04T10:04:58.275Z</time></trkpt><trkpt lat="37.0083548" lon="15.0496107"><ele>436.0</ele><time>2026-04-04T10:04:59.293Z</time></trkpt><trkpt lat="37.0083073" lon="15.0495158"><ele>436.0</ele><time>2026-04-04T10:05:00.291Z</time></trkpt><trkpt lat="37.0082516" lon="15.0494189"><ele>436.0</ele><time>2026-04-04T10:05:01.314Z</time></trkpt><trkpt lat="37.0081912" lon="15.0493378"><ele>436.00000000000006</ele><time>2026-04-04T10:05:02.299Z</time></trkpt><trkpt lat="37.0081119" lon="15.0492844"><ele>436.0</ele><time>2026-04-04T10:05:03.29Z</time></trkpt><trkpt lat="37.0080151" lon="15.04927"><ele>438.4</ele><time>2026-04-04T10:05:04.314Z</time></trkpt><trkpt lat="37.0079153" lon="15.0492954"><ele>440.8</ele><time>2026-04-04T10:05:05.315Z</time></trkpt><trkpt lat="37.0078324" lon="15.0493558"><ele>443.19999999999993</ele><time>2026-04-04T10:05:06.288Z</time></trkpt><trkpt lat="37.0077534" lon="15.0494442"><ele>445.59999999999997</ele><time>2026-04-04T10:05:07.318Z</time></trkpt><trkpt lat="37.0076674" lon="15.049546"><ele>448.0</ele><time>2026-04-04T10:05:08.3Z</time></trkpt><trkpt lat="37.0075843" lon="15.0496372"><ele>448.0</ele><time>2026-04-04T10:05:09.307Z</time></trkpt><trkpt lat="37.0074983" lon="15.0497377"><ele>448.0</ele><time>2026-04-04T10:05:10.299Z</time></trkpt><trkpt lat="37.0074073" lon="15.0498511"><ele>448.0</ele><time>2026-04-04T10:05:11.297Z</time></trkpt><trkpt lat="37.0072989" lon="15.049972"><ele>448.0</ele><time>2026-04-04T10:05:12.285Z</time></trkpt><trkpt lat="37.0071846" lon="15.050092"><ele>451.0</ele><time>2026-04-04T10:05:13.303Z</time></trkpt><trkpt lat="37.0070817" lon="15.0501967"><ele>454.0</ele><time>2026-04-04T10:05:14.294Z</time></trkpt><trkpt lat="37.0069833" lon="15.0503035"><ele>457.0</ele><time>2026-04-04T10:05:15.286Z</time></trkpt><trkpt lat="37.0068752" lon="15.0504159"><ele>460.0</ele><time>2026-04-04T10:05:16.296Z</time></trkpt><trkpt lat="37.006764" lon="15.0505279"><ele>460.0</ele><time>2026-04-04T10:05:17.314Z</time></trkpt><trkpt lat="37.0066735" lon="15.0506226"><ele>460.0</ele><time>2026-04-04T10:05:18.322Z</time></trkpt><trkpt lat="37.00659" lon="15.0507129"><ele>460.0</ele><time>2026-04-04T10:05:19.309Z</time></trkpt><trkpt lat="37.0065158" lon="15.0508012"><ele>460.0</ele><time>2026-04-04T10:05:20.298Z</time></trkpt><trkpt lat="37.0064422" lon="15.0508701"><ele>460.0</ele><time>2026-04-04T10:05:21.261Z</time></trkpt><trkpt lat="37.0063579" lon="15.0509359"><ele>462.8</ele><time>2026-04-04T10:05:22.301Z</time></trkpt><trkpt lat="37.0062709" lon="15.0510172"><ele>465.6</ele><time>2026-04-04T10:05:23.294Z</time></trkpt><trkpt lat="37.0061854" lon="15.0511005"><ele>468.4</ele><time>2026-04-04T10:05:24.271Z</time></trkpt><trkpt lat="37.0061082" lon="15.0511829"><ele>471.2</ele><time>2026-04-04T10:05:25.261Z</time></trkpt><trkpt lat="37.0060389" lon="15.0512537"><ele>474.0</ele><time>2026-04-04T10:05:26.292Z</time></trkpt><trkpt lat="37.0059758" lon="15.0513202"><ele>474.0</ele><time>2026-04-04T10:05:27.292Z</time></trkpt><trkpt lat="37.0059157" lon="15.0513934"><ele>474.0</ele><time>2026-04-04T10:05:28.298Z</time></trkpt><trkpt lat="37.0058497" lon="15.0514595"><ele>474.0</ele><time>2026-04-04T10:05:29.308Z</time></trkpt><trkpt lat="37.0057736" lon="15.0515428"><ele>474.0</ele><time>2026-04-04T10:05:30.296Z</time></trkpt><trkpt lat="37.0057079" lon="15.0516456"><ele>474.0</ele><time>2026-04-04T10:05:31.282Z</time></trkpt><trkpt lat="37.0056465" lon="15.0517713"><ele>475.25</ele><time>2026-04-04T10:05:32.29Z</time></trkpt><trkpt lat="37.0055831" lon="15.0518999"><ele>476.5</ele><time>2026-04-04T10:05:33.312Z</time></trkpt><trkpt lat="37.0055229" lon="15.0520239"><ele>477.75</ele><time>2026-04-04T10:05:34.316Z</time></trkpt><trkpt lat="37.0054613" lon="15.0521534"><ele>479.0</ele><time>2026-04-04T10:05:35.312Z</time></trkpt><trkpt lat="37.0053969" lon="15.0522863"><ele>479.0</ele><time>2026-04-04T10:05:36.323Z</time></trkpt><trkpt lat="37.0053354" lon="15.0524065"><ele>479.0</ele><time>2026-04-04T10:05:37.292Z</time></trkpt><trkpt lat="37.0052767" lon="15.052512"><ele>479.0</ele><time>2026-04-04T10:05:38.294Z</time></trkpt><trkpt lat="37.0052125" lon="15.0526065"><ele>479.0</ele><time>2026-04-04T10:05:39.317Z</time></trkpt><trkpt lat="37.005139" lon="15.0526878"><ele>479.0</ele><time>2026-04-04T10:05:40.308Z</time></trkpt><trkpt lat="37.0050557" lon="15.0527601"><ele>479.3333333333333</ele><time>2026-04-04T10:05:41.307Z</time></trkpt><trkpt lat="37.0049676" lon="15.0528137"><ele>479.66666666666663</ele><time>2026-04-04T10:05:42.284Z</time></trkpt><trkpt lat="37.0048883" lon="15.0528639"><ele>480.0</ele><time>2026-04-04T10:05:43.29Z</time></trkpt><trkpt lat="37.0048173" lon="15.0529014"><ele>480.33333333333337</ele><time>2026-04-04T10:05:44.296Z</time></trkpt><trkpt lat="37.0047558" lon="15.0529434"><ele>480.6666666666667</ele><time>2026-04-04T10:05:45.305Z</time></trkpt><trkpt lat="37.0046718" lon="15.0529825"><ele>481.0</ele><time>2026-04-04T10:05:47.285Z</time></trkpt><trkpt lat="37.0046282" lon="15.0528887"><ele>481.0</ele><time>2026-04-04T10:05:49.271Z</time></trkpt><trkpt lat="37.0046422" lon="15.0528087"><ele>481.0</ele><time>2026-04-04T10:05:50.254Z</time></trkpt><trkpt lat="37.004652" lon="15.0527056"><ele>481.0</ele><time>2026-04-04T10:05:51.262Z</time></trkpt><trkpt lat="37.0046598" lon="15.0525637"><ele>481.0</ele><time>2026-04-04T10:05:52.303Z</time></trkpt><trkpt lat="37.0046713" lon="15.0523942"><ele>481.0</ele><time>2026-04-04T10:05:53.286Z</time></trkpt><trkpt lat="37.0046772" lon="15.0522336"><ele>482.50000000000006</ele><time>2026-04-04T10:05:54.305Z</time></trkpt><trkpt lat="37.0046843" lon="15.0521008"><ele>484.0</ele><time>2026-04-04T10:05:55.3Z</time></trkpt><trkpt lat="37.004685" lon="15.0519793"><ele>485.5</ele><time>2026-04-04T10:05:56.313Z</time></trkpt><trkpt lat="37.0046862" lon="15.0518694"><ele>487.0</ele><time>2026-04-04T10:05:57.297Z</time></trkpt><trkpt lat="37.0046814" lon="15.0517686"><ele>488.50000000000006</ele><time>2026-04-04T10:05:58.299Z</time></trkpt><trkpt lat="37.0046694" lon="15.0516771"><ele>490.0</ele><time>2026-04-04T10:05:59.283Z</time></trkpt><trkpt lat="37.0046328" lon="15.05152"><ele>490.1666666666667</ele><time>2026-04-04T10:06:01.3Z</time></trkpt><trkpt lat="37.004609" lon="15.051438"><ele>490.33333333333337</ele><time>2026-04-04T10:06:02.299Z</time></trkpt><trkpt lat="37.0045836" lon="15.0513526"><ele>490.5</ele><time>2026-04-04T10:06:03.284Z</time></trkpt><trkpt lat="37.004554" lon="15.0512669"><ele>490.66666666666663</ele><time>2026-04-04T10:06:04.28Z</time></trkpt><trkpt lat="37.0045207" lon="15.0511776"><ele>490.8333333333333</ele><time>2026-04-04T10:06:05.317Z</time></trkpt><trkpt lat="37.0044829" lon="15.051086"><ele>491.0</ele><time>2026-04-04T10:06:06.307Z</time></trkpt><trkpt lat="37.0044423" lon="15.0510016"><ele>490.99999999999994</ele><time>2026-04-04T10:06:07.311Z</time></trkpt><trkpt lat="37.0044039" lon="15.0509238"><ele>491.0</ele><time>2026-04-04T10:06:08.3Z</time></trkpt><trkpt lat="37.0043674" lon="15.0508498"><ele>491.0</ele><time>2026-04-04T10:06:09.291Z</time></trkpt><trkpt lat="37.0043281" lon="15.0507728"><ele>491.0</ele><time>2026-04-04T10:06:10.294Z</time></trkpt><trkpt lat="37.0042827" lon="15.0506917"><ele>490.99999999999994</ele><time>2026-04-04T10:06:11.321Z</time></trkpt><trkpt lat="37.0042353" lon="15.0506034"><ele>491.0</ele><time>2026-04-04T10:06:12.306Z</time></trkpt><trkpt lat="37.0041838" lon="15.0505132"><ele>489.4</ele><time>2026-04-04T10:06:13.303Z</time></trkpt><trkpt lat="37.0041282" lon="15.0504271"><ele>487.8</ele><time>2026-04-04T10:06:14.299Z</time></trkpt><trkpt lat="37.0040763" lon="15.0503401"><ele>486.19999999999993</ele><time>2026-04-04T10:06:15.289Z</time></trkpt><trkpt lat="37.00403" lon="15.0502428"><ele>484.59999999999997</ele><time>2026-04-04T10:06:16.3Z</time></trkpt><trkpt lat="37.003976" lon="15.0501445"><ele>483.0</ele><time>2026-04-04T10:06:17.271Z</time></trkpt><trkpt lat="37.003924" lon="15.0500419"><ele>483.59999999999997</ele><time>2026-04-04T10:06:18.299Z</time></trkpt><trkpt lat="37.0038682" lon="15.0499454"><ele>484.19999999999993</ele><time>2026-04-04T10:06:19.298Z</time></trkpt><trkpt lat="37.0038108" lon="15.049848"><ele>484.8</ele><time>2026-04-04T10:06:20.294Z</time></trkpt><trkpt lat="37.0037559" lon="15.0497511"><ele>485.4</ele><time>2026-04-04T10:06:21.332Z</time></trkpt><trkpt lat="37.0036998" lon="15.0496494"><ele>486.0</ele><time>2026-04-04T10:06:22.298Z</time></trkpt><trkpt lat="37.0036393" lon="15.0495432"><ele>486.0</ele><time>2026-04-04T10:06:23.295Z</time></trkpt><trkpt lat="37.0035754" lon="15.0494377"><ele>486.0</ele><time>2026-04-04T10:06:24.301Z</time></trkpt><trkpt lat="37.0035069" lon="15.0493369"><ele>486.0</ele><time>2026-04-04T10:06:25.297Z</time></trkpt><trkpt lat="37.003432" lon="15.0492482"><ele>486.0</ele><time>2026-04-04T10:06:26.266Z</time></trkpt><trkpt lat="37.0033511" lon="15.049165"><ele>486.0</ele><time>2026-04-04T10:06:27.291Z</time></trkpt><trkpt lat="37.0032734" lon="15.049082"><ele>487.6</ele><time>2026-04-04T10:06:28.291Z</time></trkpt><trkpt lat="37.0031977" lon="15.049002"><ele>489.20000000000005</ele><time>2026-04-04T10:06:29.313Z</time></trkpt><trkpt lat="37.0031182" lon="15.0489213"><ele>490.79999999999995</ele><time>2026-04-04T10:06:30.296Z</time></trkpt><trkpt lat="37.003032" lon="15.0488371"><ele>492.4</ele><time>2026-04-04T10:06:31.3Z</time></trkpt><trkpt lat="37.0029434" lon="15.0487581"><ele>494.0</ele><time>2026-04-04T10:06:32.299Z</time></trkpt><trkpt lat="37.0028554" lon="15.0486647"><ele>494.0</ele><time>2026-04-04T10:06:33.298Z</time></trkpt><trkpt lat="37.002775" lon="15.0485509"><ele>494.0</ele><time>2026-04-04T10:06:34.293Z</time></trkpt><trkpt lat="37.0026973" lon="15.0484126"><ele>494.0</ele><time>2026-04-04T10:06:35.287Z</time></trkpt><trkpt lat="37.0026224" lon="15.048252"><ele>494.0</ele><time>2026-04-04T10:06:36.298Z</time></trkpt><trkpt lat="37.0025335" lon="15.0480821"><ele>495.0</ele><time>2026-04-04T10:06:37.265Z</time></trkpt><trkpt lat="37.0024305" lon="15.0479131"><ele>496.0</ele><time>2026-04-04T10:06:38.289Z</time></trkpt><trkpt lat="37.0023334" lon="15.0477547"><ele>497.0</ele><time>2026-04-04T10:06:39.294Z</time></trkpt><trkpt lat="37.0022395" lon="15.0476108"><ele>497.0</ele><time>2026-04-04T10:06:40.292Z</time></trkpt><trkpt lat="37.0021366" lon="15.0474828"><ele>497.0</ele><time>2026-04-04T10:06:41.294Z</time></trkpt><trkpt lat="37.00203" lon="15.0473615"><ele>497.0</ele><time>2026-04-04T10:06:42.294Z</time></trkpt><trkpt lat="37.0019175" lon="15.0472506"><ele>497.0</ele><time>2026-04-04T10:06:43.29Z</time></trkpt><trkpt lat="37.0018" lon="15.0471587"><ele>496.75</ele><time>2026-04-04T10:06:44.295Z</time></trkpt><trkpt lat="37.0016701" lon="15.0470784"><ele>496.5</ele><time>2026-04-04T10:06:45.291Z</time></trkpt><trkpt lat="37.0015334" lon="15.0470096"><ele>496.25</ele><time>2026-04-04T10:06:46.294Z</time></trkpt><trkpt lat="37.0013996" lon="15.0469355"><ele>496.0</ele><time>2026-04-04T10:06:47.3Z</time></trkpt><trkpt lat="37.0012726" lon="15.0468663"><ele>496.0</ele><time>2026-04-04T10:06:48.292Z</time></trkpt><trkpt lat="37.0011519" lon="15.0467998"><ele>496.0</ele><time>2026-04-04T10:06:49.293Z</time></trkpt><trkpt lat="37.0010333" lon="15.0467351"><ele>496.0</ele><time>2026-04-04T10:06:50.283Z</time></trkpt><trkpt lat="37.0009174" lon="15.0466675"><ele>496.0</ele><time>2026-04-04T10:06:51.3Z</time></trkpt><trkpt lat="37.000804" lon="15.0466016"><ele>495.5</ele><time>2026-04-04T10:06:52.275Z</time></trkpt><trkpt lat="37.0006877" lon="15.0465384"><ele>495.0</ele><time>2026-04-04T10:06:53.308Z</time></trkpt><trkpt lat="37.0005775" lon="15.0464783"><ele>494.5</ele><time>2026-04-04T10:06:54.26Z</time></trkpt><trkpt lat="37.0004709" lon="15.0464188"><ele>494.0</ele><time>2026-04-04T10:06:55.294Z</time></trkpt><trkpt lat="37.000368" lon="15.0463582"><ele>494.0</ele><time>2026-04-04T10:06:56.308Z</time></trkpt><trkpt lat="37.0002746" lon="15.0463022"><ele>494.0</ele><time>2026-04-04T10:06:57.302Z</time></trkpt><trkpt lat="37.0001887" lon="15.0462447"><ele>494.0</ele><time>2026-04-04T10:06:58.288Z</time></trkpt><trkpt lat="37.0000927" lon="15.0461669"><ele>494.0</ele><time>2026-04-04T10:06:59.314Z</time></trkpt><trkpt lat="36.9999906" lon="15.0460723"><ele>494.0</ele><time>2026-04-04T10:07:00.301Z</time></trkpt><trkpt lat="36.9998984" lon="15.0459674"><ele>494.0</ele><time>2026-04-04T10:07:01.291Z</time></trkpt><trkpt lat="36.9998158" lon="15.0458791"><ele>494.0</ele><time>2026-04-04T10:07:02.289Z</time></trkpt><trkpt lat="36.99974" lon="15.0457982"><ele>494.0</ele><time>2026-04-04T10:07:03.297Z</time></trkpt><trkpt lat="36.9996747" lon="15.0457252"><ele>494.0</ele><time>2026-04-04T10:07:04.295Z</time></trkpt><trkpt lat="36.9995972" lon="15.0456428"><ele>494.0</ele><time>2026-04-04T10:07:05.31Z</time></trkpt><trkpt lat="36.999496" lon="15.0455433"><ele>494.2</ele><time>2026-04-04T10:07:06.281Z</time></trkpt><trkpt lat="36.9993893" lon="15.0454294"><ele>494.4</ele><time>2026-04-04T10:07:07.291Z</time></trkpt><trkpt lat="36.9993021" lon="15.0453316"><ele>494.6</ele><time>2026-04-04T10:07:08.29Z</time></trkpt><trkpt lat="36.9992344" lon="15.0452481"><ele>494.8</ele><time>2026-04-04T10:07:09.272Z</time></trkpt><trkpt lat="36.9991839" lon="15.0451687"><ele>495.0</ele><time>2026-04-04T10:07:10.29Z</time></trkpt><trkpt lat="36.9991362" lon="15.0450704"><ele>494.0</ele><time>2026-04-04T10:07:11.293Z</time></trkpt><trkpt lat="36.999103" lon="15.044955"><ele>493.0</ele><time>2026-04-04T10:07:12.3Z</time></trkpt><trkpt lat="36.9990848" lon="15.0448357"><ele>492.0</ele><time>2026-04-04T10:07:13.299Z</time></trkpt><trkpt lat="36.99909" lon="15.0447084"><ele>491.0</ele><time>2026-04-04T10:07:14.359Z</time></trkpt><trkpt lat="36.9991204" lon="15.0445592"><ele>490.0</ele><time>2026-04-04T10:07:15.3Z</time></trkpt><trkpt lat="36.9991612" lon="15.0443766"><ele>490.33333333333337</ele><time>2026-04-04T10:07:16.28Z</time></trkpt><trkpt lat="36.9992016" lon="15.044181"><ele>490.66666666666663</ele><time>2026-04-04T10:07:17.301Z</time></trkpt><trkpt lat="36.999247" lon="15.0439779"><ele>491.0</ele><time>2026-04-04T10:07:18.299Z</time></trkpt><trkpt lat="36.9993006" lon="15.0437796"><ele>491.25</ele><time>2026-04-04T10:07:19.314Z</time></trkpt><trkpt lat="36.9993406" lon="15.0435896"><ele>491.5</ele><time>2026-04-04T10:07:20.298Z</time></trkpt><trkpt lat="36.9993736" lon="15.0434041"><ele>491.75</ele><time>2026-04-04T10:07:21.308Z</time></trkpt><trkpt lat="36.9993989" lon="15.0432351"><ele>492.0</ele><time>2026-04-04T10:07:22.307Z</time></trkpt><trkpt lat="36.9994158" lon="15.0430761"><ele>492.0</ele><time>2026-04-04T10:07:23.295Z</time></trkpt><trkpt lat="36.9994215" lon="15.0429214"><ele>492.0</ele><time>2026-04-04T10:07:24.304Z</time></trkpt><trkpt lat="36.9994175" lon="15.0427582"><ele>492.0</ele><time>2026-04-04T10:07:25.318Z</time></trkpt><trkpt lat="36.999405" lon="15.0425942"><ele>492.0</ele><time>2026-04-04T10:07:26.301Z</time></trkpt><trkpt lat="36.9993919" lon="15.0424457"><ele>491.0</ele><time>2026-04-04T10:07:27.316Z</time></trkpt><trkpt lat="36.9993762" lon="15.0422915"><ele>490.0</ele><time>2026-04-04T10:07:28.301Z</time></trkpt><trkpt lat="36.9993576" lon="15.0421435"><ele>489.0</ele><time>2026-04-04T10:07:29.288Z</time></trkpt><trkpt lat="36.9993332" lon="15.0420064"><ele>488.0</ele><time>2026-04-04T10:07:30.299Z</time></trkpt><trkpt lat="36.9992935" lon="15.0418844"><ele>488.0</ele><time>2026-04-04T10:07:31.312Z</time></trkpt><trkpt lat="36.9992358" lon="15.0417891"><ele>488.0</ele><time>2026-04-04T10:07:32.28Z</time></trkpt><trkpt lat="36.9991436" lon="15.0417186"><ele>488.0</ele><time>2026-04-04T10:07:33.309Z</time></trkpt><trkpt lat="36.9990256" lon="15.0416581"><ele>488.0</ele><time>2026-04-04T10:07:34.381Z</time></trkpt><trkpt lat="36.9989032" lon="15.0416249"><ele>486.25</ele><time>2026-04-04T10:07:35.311Z</time></trkpt><trkpt lat="36.9987672" lon="15.0416285"><ele>484.5</ele><time>2026-04-04T10:07:36.308Z</time></trkpt><trkpt lat="36.998613" lon="15.0416598"><ele>482.75</ele><time>2026-04-04T10:07:37.291Z</time></trkpt><trkpt lat="36.9984684" lon="15.0416842"><ele>481.0</ele><time>2026-04-04T10:07:38.298Z</time></trkpt><trkpt lat="36.9983508" lon="15.0416968"><ele>479.25</ele><time>2026-04-04T10:07:39.301Z</time></trkpt><trkpt lat="36.9982446" lon="15.0416882"><ele>477.5</ele><time>2026-04-04T10:07:40.26Z</time></trkpt><trkpt lat="36.9981319" lon="15.0416426"><ele>475.75</ele><time>2026-04-04T10:07:41.294Z</time></trkpt><trkpt lat="36.9980064" lon="15.0415778"><ele>474.0</ele><time>2026-04-04T10:07:42.296Z</time></trkpt><trkpt lat="36.9978865" lon="15.0415158"><ele>474.0</ele><time>2026-04-04T10:07:43.306Z</time></trkpt><trkpt lat="36.9977703" lon="15.0414525"><ele>474.0</ele><time>2026-04-04T10:07:44.293Z</time></trkpt><trkpt lat="36.9976639" lon="15.0413776"><ele>474.0</ele><time>2026-04-04T10:07:45.286Z</time></trkpt><trkpt lat="36.997569" lon="15.0412797"><ele>474.0</ele><time>2026-04-04T10:07:46.302Z</time></trkpt><trkpt lat="36.9974767" lon="15.0411625"><ele>474.25</ele><time>2026-04-04T10:07:47.299Z</time></trkpt><trkpt lat="36.9973862" lon="15.0410443"><ele>474.5</ele><time>2026-04-04T10:07:48.297Z</time></trkpt><trkpt lat="36.9972836" lon="15.0409437"><ele>474.75</ele><time>2026-04-04T10:07:49.305Z</time></trkpt><trkpt lat="36.9971711" lon="15.0408537"><ele>475.0</ele><time>2026-04-04T10:07:50.308Z</time></trkpt><trkpt lat="36.9970553" lon="15.0407652"><ele>475.0</ele><time>2026-04-04T10:07:51.291Z</time></trkpt><trkpt lat="36.9969379" lon="15.0406833"><ele>475.0</ele><time>2026-04-04T10:07:52.327Z</time></trkpt><trkpt lat="36.9968307" lon="15.0406057"><ele>475.0</ele><time>2026-04-04T10:07:53.292Z</time></trkpt><trkpt lat="36.996732" lon="15.0405396"><ele>475.0</ele><time>2026-04-04T10:07:54.274Z</time></trkpt><trkpt lat="36.9966257" lon="15.0404865"><ele>474.8</ele><time>2026-04-04T10:07:55.281Z</time></trkpt><trkpt lat="36.996517" lon="15.040452"><ele>474.6</ele><time>2026-04-04T10:07:56.284Z</time></trkpt><trkpt lat="36.9964092" lon="15.0404426"><ele>474.4</ele><time>2026-04-04T10:07:57.291Z</time></trkpt><trkpt lat="36.9963183" lon="15.0404481"><ele>474.2</ele><time>2026-04-04T10:07:58.302Z</time></trkpt><trkpt lat="36.9962489" lon="15.0404514"><ele>474.0</ele><time>2026-04-04T10:07:59.303Z</time></trkpt><trkpt lat="36.9961321" lon="15.0404079"><ele>474.0</ele><time>2026-04-04T10:08:01.26Z</time></trkpt><trkpt lat="36.9960708" lon="15.0403429"><ele>474.0</ele><time>2026-04-04T10:08:02.303Z</time></trkpt><trkpt lat="36.9959876" lon="15.040264"><ele>474.0</ele><time>2026-04-04T10:08:03.305Z</time></trkpt><trkpt lat="36.9958861" lon="15.0401845"><ele>474.0</ele><time>2026-04-04T10:08:04.292Z</time></trkpt><trkpt lat="36.9957876" lon="15.0401055"><ele>474.0</ele><time>2026-04-04T10:08:05.3Z</time></trkpt><trkpt lat="36.9956864" lon="15.0400317"><ele>474.25</ele><time>2026-04-04T10:08:06.288Z</time></trkpt><trkpt lat="36.9955803" lon="15.0399544"><ele>474.5</ele><time>2026-04-04T10:08:07.303Z</time></trkpt><trkpt lat="36.9954694" lon="15.0398585"><ele>474.75</ele><time>2026-04-04T10:08:08.301Z</time></trkpt><trkpt lat="36.9953539" lon="15.0397618"><ele>475.0</ele><time>2026-04-04T10:08:09.282Z</time></trkpt><trkpt lat="36.995231" lon="15.0396643"><ele>475.0</ele><time>2026-04-04T10:08:10.278Z</time></trkpt><trkpt lat="36.9951106" lon="15.0395749"><ele>475.0</ele><time>2026-04-04T10:08:11.287Z</time></trkpt><trkpt lat="36.9949953" lon="15.0394837"><ele>475.0</ele><time>2026-04-04T10:08:12.288Z</time></trkpt><trkpt lat="36.9948831" lon="15.0393913"><ele>475.0</ele><time>2026-04-04T10:08:13.278Z</time></trkpt><trkpt lat="36.994773" lon="15.0393004"><ele>473.4</ele><time>2026-04-04T10:08:14.289Z</time></trkpt><trkpt lat="36.9946698" lon="15.0392107"><ele>471.8</ele><time>2026-04-04T10:08:15.297Z</time></trkpt><trkpt lat="36.9945802" lon="15.0391274"><ele>470.20000000000005</ele><time>2026-04-04T10:08:16.291Z</time></trkpt><trkpt lat="36.9944989" lon="15.0390617"><ele>468.6</ele><time>2026-04-04T10:08:17.283Z</time></trkpt><trkpt lat="36.9944346" lon="15.0390197"><ele>467.0</ele><time>2026-04-04T10:08:18.302Z</time></trkpt><trkpt lat="36.9943755" lon="15.0389456"><ele>466.40000000000003</ele><time>2026-04-04T10:08:20.296Z</time></trkpt><trkpt lat="36.9944218" lon="15.038834"><ele>465.80000000000007</ele><time>2026-04-04T10:08:22.288Z</time></trkpt><trkpt lat="36.9944825" lon="15.0387556"><ele>465.2</ele><time>2026-04-04T10:08:23.283Z</time></trkpt><trkpt lat="36.99454" lon="15.0386596"><ele>464.6</ele><time>2026-04-04T10:08:24.264Z</time></trkpt><trkpt lat="36.994604" lon="15.0385479"><ele>464.0</ele><time>2026-04-04T10:08:25.261Z</time></trkpt><trkpt lat="36.9946697" lon="15.0384397"><ele>464.0</ele><time>2026-04-04T10:08:26.287Z</time></trkpt><trkpt lat="36.9947486" lon="15.0383218"><ele>464.0</ele><time>2026-04-04T10:08:27.299Z</time></trkpt><trkpt lat="36.9948428" lon="15.0381772"><ele>464.0</ele><time>2026-04-04T10:08:28.268Z</time></trkpt><trkpt lat="36.994947" lon="15.0380148"><ele>464.0</ele><time>2026-04-04T10:08:29.309Z</time></trkpt><trkpt lat="36.9950466" lon="15.0378597"><ele>464.16666666666663</ele><time>2026-04-04T10:08:30.313Z</time></trkpt><trkpt lat="36.99512" lon="15.0377385"><ele>464.3333333333333</ele><time>2026-04-04T10:08:31.32Z</time></trkpt><trkpt lat="36.9951736" lon="15.0376511"><ele>464.5</ele><time>2026-04-04T10:08:32.301Z</time></trkpt><trkpt lat="36.9952186" lon="15.0375688"><ele>464.66666666666663</ele><time>2026-04-04T10:08:33.268Z</time></trkpt><trkpt lat="36.9952558" lon="15.0374976"><ele>464.8333333333333</ele><time>2026-04-04T10:08:34.289Z</time></trkpt><trkpt lat="36.9953051" lon="15.037431"><ele>465.0</ele><time>2026-04-04T10:08:35.31Z</time></trkpt><trkpt lat="36.9953533" lon="15.0373571"><ele>465.0</ele><time>2026-04-04T10:08:36.302Z</time></trkpt><trkpt lat="36.995405" lon="15.0372797"><ele>465.0</ele><time>2026-04-04T10:08:37.287Z</time></trkpt><trkpt lat="36.995455" lon="15.0372062"><ele>465.0</ele><time>2026-04-04T10:08:38.266Z</time></trkpt><trkpt lat="36.9954946" lon="15.0371399"><ele>465.0</ele><time>2026-04-04T10:08:39.313Z</time></trkpt><trkpt lat="36.9955353" lon="15.0370793"><ele>465.0</ele><time>2026-04-04T10:08:40.298Z</time></trkpt><trkpt lat="36.9955804" lon="15.0370175"><ele>465.0</ele><time>2026-04-04T10:08:41.294Z</time></trkpt><trkpt lat="36.9956235" lon="15.0369531"><ele>465.0</ele><time>2026-04-04T10:08:42.281Z</time></trkpt><trkpt lat="36.9956633" lon="15.0368855"><ele>465.0</ele><time>2026-04-04T10:08:43.283Z</time></trkpt><trkpt lat="36.9957048" lon="15.0368119"><ele>465.0</ele><time>2026-04-04T10:08:44.249Z</time></trkpt><trkpt lat="36.9957526" lon="15.036726"><ele>465.0</ele><time>2026-04-04T10:08:45.294Z</time></trkpt><trkpt lat="36.9958104" lon="15.0366349"><ele>465.0</ele><time>2026-04-04T10:08:46.295Z</time></trkpt><trkpt lat="36.9958713" lon="15.0365409"><ele>465.0</ele><time>2026-04-04T10:08:47.29Z</time></trkpt><trkpt lat="36.9959276" lon="15.0364595"><ele>465.0</ele><time>2026-04-04T10:08:48.271Z</time></trkpt><trkpt lat="36.9959745" lon="15.036387"><ele>465.8</ele><time>2026-04-04T10:08:49.309Z</time></trkpt><trkpt lat="36.9960523" lon="15.0362782"><ele>466.6</ele><time>2026-04-04T10:08:51.281Z</time></trkpt><trkpt lat="36.9961021" lon="15.0362246"><ele>467.4</ele><time>2026-04-04T10:08:52.26Z</time></trkpt><trkpt lat="36.9961593" lon="15.0361757"><ele>468.2</ele><time>2026-04-04T10:08:53.282Z</time></trkpt><trkpt lat="36.9962401" lon="15.0360931"><ele>469.0</ele><time>2026-04-04T10:08:55.303Z</time></trkpt><trkpt lat="36.9963242" lon="15.0360022"><ele>469.0</ele><time>2026-04-04T10:08:57.287Z</time></trkpt><trkpt lat="36.9964075" lon="15.0359209"><ele>469.0</ele><time>2026-04-04T10:08:59.278Z</time></trkpt><trkpt lat="36.9964683" lon="15.0358576"><ele>469.0</ele><time>2026-04-04T10:09:01.256Z</time></trkpt><trkpt lat="36.9965214" lon="15.0357768"><ele>469.0</ele><time>2026-04-04T10:09:03.262Z</time></trkpt><trkpt lat="36.9965812" lon="15.0356856"><ele>469.0</ele><time>2026-04-04T10:09:05.297Z</time></trkpt><trkpt lat="36.9966297" lon="15.0355941"><ele>468.83333333333337</ele><time>2026-04-04T10:09:07.275Z</time></trkpt><trkpt lat="36.9966771" lon="15.0354909"><ele>468.6666666666667</ele><time>2026-04-04T10:09:09.287Z</time></trkpt><trkpt lat="36.9966993" lon="15.0354055"><ele>468.5</ele><time>2026-04-04T10:09:11.291Z</time></trkpt><trkpt lat="36.9967281" lon="15.0353255"><ele>468.33333333333337</ele><time>2026-04-04T10:09:13.296Z</time></trkpt><trkpt lat="36.9967636" lon="15.0352358"><ele>468.1666666666667</ele><time>2026-04-04T10:09:15.298Z</time></trkpt><trkpt lat="36.9967936" lon="15.0351358"><ele>468.0</ele><time>2026-04-04T10:09:17.282Z</time></trkpt><trkpt lat="36.9968057" lon="15.0350213"><ele>467.2</ele><time>2026-04-04T10:09:20.263Z</time></trkpt><trkpt lat="36.9968156" lon="15.034937"><ele>466.4</ele><time>2026-04-04T10:09:22.281Z</time></trkpt><trkpt lat="36.9968307" lon="15.0348385"><ele>465.59999999999997</ele><time>2026-04-04T10:09:24.273Z</time></trkpt><trkpt lat="36.9968439" lon="15.0347365"><ele>464.79999999999995</ele><time>2026-04-04T10:09:26.281Z</time></trkpt><trkpt lat="36.9968747" lon="15.0345899"><ele>464.0</ele><time>2026-04-04T10:09:28.294Z</time></trkpt><trkpt lat="36.9969006" lon="15.0344658"><ele>464.0</ele><time>2026-04-04T10:09:30.26Z</time></trkpt><trkpt lat="36.9969648" lon="15.0343394"><ele>464.0</ele><time>2026-04-04T10:09:32.285Z</time></trkpt><trkpt lat="36.9970135" lon="15.0342828"><ele>464.0</ele><time>2026-04-04T10:09:33.29Z</time></trkpt><trkpt lat="36.9971097" lon="15.0341735"><ele>464.0</ele><time>2026-04-04T10:09:35.291Z</time></trkpt><trkpt lat="36.9971597" lon="15.034112"><ele>464.0</ele><time>2026-04-04T10:09:36.311Z</time></trkpt><trkpt lat="36.9972306" lon="15.0340223"><ele>463.99999999999994</ele><time>2026-04-04T10:09:38.292Z</time></trkpt><trkpt lat="36.9972865" lon="15.033933"><ele>464.0</ele><time>2026-04-04T10:09:41.298Z</time></trkpt><trkpt lat="36.9973507" lon="15.0338805"><ele>464.0</ele><time>2026-04-04T10:09:44.291Z</time></trkpt><trkpt lat="36.9974232" lon="15.0338334"><ele>464.0</ele><time>2026-04-04T10:09:46.279Z</time></trkpt><trkpt lat="36.9974637" lon="15.0337325"><ele>463.99999999999994</ele><time>2026-04-04T10:09:49.265Z</time></trkpt><trkpt lat="36.9975065" lon="15.0336655"><ele>464.0</ele><time>2026-04-04T10:09:51.287Z</time></trkpt><trkpt lat="36.9975511" lon="15.0336025"><ele>465.49999999999994</ele><time>2026-04-04T10:09:53.295Z</time></trkpt><trkpt lat="36.9976224" lon="15.0335453"><ele>467.0</ele><time>2026-04-04T10:09:56.29Z</time></trkpt><trkpt lat="36.9976769" lon="15.0334727"><ele>468.5</ele><time>2026-04-04T10:09:59.277Z</time></trkpt><trkpt lat="36.9977343" lon="15.0333882"><ele>470.0</ele><time>2026-04-04T10:10:02.287Z</time></trkpt><trkpt lat="36.997788" lon="15.0333306"><ele>471.49999999999994</ele><time>2026-04-04T10:10:04.3Z</time></trkpt><trkpt lat="36.9978401" lon="15.033271"><ele>473.0</ele><time>2026-04-04T10:10:06.288Z</time></trkpt><trkpt lat="36.9979072" lon="15.0331901"><ele>472.99999999999994</ele><time>2026-04-04T10:10:08.296Z</time></trkpt><trkpt lat="36.9979595" lon="15.0331293"><ele>473.0</ele><time>2026-04-04T10:10:10.286Z</time></trkpt><trkpt lat="36.9980503" lon="15.0330386"><ele>473.0</ele><time>2026-04-04T10:10:12.296Z</time></trkpt><trkpt lat="36.9981023" lon="15.0329875"><ele>473.0</ele><time>2026-04-04T10:10:13.292Z</time></trkpt><trkpt lat="36.9981482" lon="15.032932"><ele>472.99999999999994</ele><time>2026-04-04T10:10:14.301Z</time></trkpt><trkpt lat="36.9982239" lon="15.0328254"><ele>473.0</ele><time>2026-04-04T10:10:16.294Z</time></trkpt><trkpt lat="36.9982868" lon="15.0327321"><ele>472.99999999999994</ele><time>2026-04-04T10:10:18.272Z</time></trkpt><trkpt lat="36.9983399" lon="15.0326117"><ele>473.0</ele><time>2026-04-04T10:10:20.288Z</time></trkpt><trkpt lat="36.9983694" lon="15.0325378"><ele>473.0</ele><time>2026-04-04T10:10:21.276Z</time></trkpt><trkpt lat="36.9984085" lon="15.032466"><ele>473.0</ele><time>2026-04-04T10:10:22.29Z</time></trkpt><trkpt lat="36.9984696" lon="15.0323726"><ele>472.99999999999994</ele><time>2026-04-04T10:10:24.277Z</time></trkpt><trkpt lat="36.9985279" lon="15.0322721"><ele>473.0</ele><time>2026-04-04T10:10:26.278Z</time></trkpt><trkpt lat="36.9985639" lon="15.0321671"><ele>471.66666666666663</ele><time>2026-04-04T10:10:28.31Z</time></trkpt><trkpt lat="36.998596" lon="15.0320601"><ele>470.3333333333333</ele><time>2026-04-04T10:10:30.293Z</time></trkpt><trkpt lat="36.9986211" lon="15.0319518"><ele>469.0</ele><time>2026-04-04T10:10:32.287Z</time></trkpt><trkpt lat="36.9986486" lon="15.0318379"><ele>467.66666666666663</ele><time>2026-04-04T10:10:34.282Z</time></trkpt><trkpt lat="36.9986716" lon="15.0317294"><ele>466.3333333333333</ele><time>2026-04-04T10:10:36.304Z</time></trkpt><trkpt lat="36.9987003" lon="15.031634"><ele>465.0</ele><time>2026-04-04T10:10:38.288Z</time></trkpt><trkpt lat="36.9987305" lon="15.0315252"><ele>464.1666666666667</ele><time>2026-04-04T10:10:40.317Z</time></trkpt><trkpt lat="36.9987463" lon="15.0314289"><ele>463.33333333333337</ele><time>2026-04-04T10:10:42.299Z</time></trkpt><trkpt lat="36.9987771" lon="15.031326"><ele>462.5</ele><time>2026-04-04T10:10:44.321Z</time></trkpt><trkpt lat="36.9988128" lon="15.0312385"><ele>461.6666666666667</ele><time>2026-04-04T10:10:46.311Z</time></trkpt><trkpt lat="36.9988505" lon="15.0311306"><ele>460.83333333333337</ele><time>2026-04-04T10:10:48.284Z</time></trkpt><trkpt lat="36.9988845" lon="15.0310116"><ele>460.0</ele><time>2026-04-04T10:10:50.296Z</time></trkpt><trkpt lat="36.9989281" lon="15.0308893"><ele>458.6666666666667</ele><time>2026-04-04T10:10:52.271Z</time></trkpt><trkpt lat="36.9989636" lon="15.0307845"><ele>457.33333333333337</ele><time>2026-04-04T10:10:54.311Z</time></trkpt><trkpt lat="36.9989939" lon="15.0307047"><ele>456.0</ele><time>2026-04-04T10:10:56.277Z</time></trkpt><trkpt lat="36.9990363" lon="15.0306325"><ele>454.66666666666663</ele><time>2026-04-04T10:10:59.357Z</time></trkpt><trkpt lat="36.9990894" lon="15.0305843"><ele>453.3333333333333</ele><time>2026-04-04T10:11:03.269Z</time></trkpt><trkpt lat="36.9991607" lon="15.0305211"><ele>452.0</ele><time>2026-04-04T10:11:06.267Z</time></trkpt><trkpt lat="36.999213" lon="15.0304277"><ele>451.99999999999994</ele><time>2026-04-04T10:11:09.293Z</time></trkpt><trkpt lat="36.9992581" lon="15.0303356"><ele>452.0</ele><time>2026-04-04T10:11:11.292Z</time></trkpt><trkpt lat="36.9992773" lon="15.0302539"><ele>452.0</ele><time>2026-04-04T10:11:14.285Z</time></trkpt><trkpt lat="36.9992806" lon="15.0301714"><ele>452.0</ele><time>2026-04-04T10:11:16.31Z</time></trkpt><trkpt lat="36.999266" lon="15.0300674"><ele>451.99999999999994</ele><time>2026-04-04T10:11:19.321Z</time></trkpt><trkpt lat="36.9992754" lon="15.0299552"><ele>452.0</ele><time>2026-04-04T10:11:22.289Z</time></trkpt><trkpt lat="36.9993011" lon="15.029852"><ele>452.16666666666663</ele><time>2026-04-04T10:11:25.291Z</time></trkpt><trkpt lat="36.9993235" lon="15.029744"><ele>452.3333333333333</ele><time>2026-04-04T10:11:28.288Z</time></trkpt><trkpt lat="36.9993272" lon="15.0296449"><ele>452.5</ele><time>2026-04-04T10:11:31.262Z</time></trkpt><trkpt lat="36.9992902" lon="15.0295729"><ele>452.66666666666663</ele><time>2026-04-04T10:11:34.301Z</time></trkpt><trkpt lat="36.9992526" lon="15.0295028"><ele>452.8333333333333</ele><time>2026-04-04T10:11:37.295Z</time></trkpt><trkpt lat="36.9992457" lon="15.029415"><ele>453.0</ele><time>2026-04-04T10:11:39.27Z</time></trkpt><trkpt lat="36.999231" lon="15.0293108"><ele>453.0</ele><time>2026-04-04T10:11:42.279Z</time></trkpt><trkpt lat="36.999226" lon="15.0292284"><ele>453.0</ele><time>2026-04-04T10:11:50.293Z</time></trkpt><trkpt lat="36.9992125" lon="15.0291453"><ele>453.0</ele><time>2026-04-04T10:13:09.314Z</time></trkpt><trkpt lat="36.999125" lon="15.0291223"><ele>453.0</ele><time>2026-04-04T10:13:14.265Z</time></trkpt><trkpt lat="36.999046" lon="15.0290856"><ele>453.0</ele><time>2026-04-04T10:13:16.308Z</time></trkpt><trkpt lat="36.9989734" lon="15.0290403"><ele>453.0</ele><time>2026-04-04T10:13:17.292Z</time></trkpt><trkpt lat="36.9989081" lon="15.0289957"><ele>452.6666666666667</ele><time>2026-04-04T10:13:18.268Z</time></trkpt><trkpt lat="36.9988447" lon="15.028963"><ele>452.33333333333337</ele><time>2026-04-04T10:13:19.308Z</time></trkpt><trkpt lat="36.9987833" lon="15.0289343"><ele>452.0</ele><time>2026-04-04T10:13:20.288Z</time></trkpt><trkpt lat="36.9987203" lon="15.0289127"><ele>451.6666666666667</ele><time>2026-04-04T10:13:21.285Z</time></trkpt><trkpt lat="36.9985938" lon="15.0288785"><ele>451.33333333333337</ele><time>2026-04-04T10:13:23.298Z</time></trkpt><trkpt lat="36.9985183" lon="15.0288562"><ele>451.0</ele><time>2026-04-04T10:13:24.309Z</time></trkpt><trkpt lat="36.9984397" lon="15.0288376"><ele>451.0</ele><time>2026-04-04T10:13:25.305Z</time></trkpt><trkpt lat="36.9983733" lon="15.0288281"><ele>451.0</ele><time>2026-04-04T10:13:26.294Z</time></trkpt><trkpt lat="36.9982641" lon="15.0287886"><ele>451.0</ele><time>2026-04-04T10:13:28.295Z</time></trkpt><trkpt lat="36.9981631" lon="15.0287181"><ele>451.0</ele><time>2026-04-04T10:13:30.289Z</time></trkpt><trkpt lat="36.9981038" lon="15.0286107"><ele>451.0</ele><time>2026-04-04T10:13:32.314Z</time></trkpt><trkpt lat="36.998064" lon="15.0285477"><ele>450.83333333333337</ele><time>2026-04-04T10:13:33.304Z</time></trkpt><trkpt lat="36.9980095" lon="15.0284625"><ele>450.6666666666667</ele><time>2026-04-04T10:13:34.269Z</time></trkpt><trkpt lat="36.9979362" lon="15.0283759"><ele>450.5</ele><time>2026-04-04T10:13:35.292Z</time></trkpt><trkpt lat="36.9978651" lon="15.0282927"><ele>450.33333333333337</ele><time>2026-04-04T10:13:36.288Z</time></trkpt><trkpt lat="36.9978069" lon="15.0282157"><ele>450.1666666666667</ele><time>2026-04-04T10:13:37.281Z</time></trkpt><trkpt lat="36.9977673" lon="15.0281393"><ele>450.0</ele><time>2026-04-04T10:13:38.306Z</time></trkpt><trkpt lat="36.9977301" lon="15.0280544"><ele>450.0</ele><time>2026-04-04T10:13:39.297Z</time></trkpt><trkpt lat="36.9976625" lon="15.0279399"><ele>450.0</ele><time>2026-04-04T10:13:41.299Z</time></trkpt><trkpt lat="36.9975773" lon="15.0278412"><ele>450.0</ele><time>2026-04-04T10:13:43.303Z</time></trkpt><trkpt lat="36.997496" lon="15.0277374"><ele>450.0</ele><time>2026-04-04T10:13:45.304Z</time></trkpt><trkpt lat="36.9974078" lon="15.0276267"><ele>450.3333333333333</ele><time>2026-04-04T10:13:47.275Z</time></trkpt><trkpt lat="36.9973574" lon="15.027558"><ele>450.66666666666663</ele><time>2026-04-04T10:13:48.291Z</time></trkpt><trkpt lat="36.9973028" lon="15.027491"><ele>451.0</ele><time>2026-04-04T10:13:49.291Z</time></trkpt><trkpt lat="36.9972567" lon="15.0274252"><ele>451.3333333333333</ele><time>2026-04-04T10:13:50.293Z</time></trkpt><trkpt lat="36.997202" lon="15.0273346"><ele>451.66666666666663</ele><time>2026-04-04T10:13:52.275Z</time></trkpt><trkpt lat="36.9972062" lon="15.0272198"><ele>452.0</ele><time>2026-04-04T10:13:55.294Z</time></trkpt><trkpt lat="36.9972804" lon="15.0270992"><ele>452.0</ele><time>2026-04-04T10:13:57.306Z</time></trkpt><trkpt lat="36.9973268" lon="15.0269555"><ele>452.00000000000006</ele><time>2026-04-04T10:13:59.292Z</time></trkpt><trkpt lat="36.9973434" lon="15.026876"><ele>452.00000000000006</ele><time>2026-04-04T10:14:00.315Z</time></trkpt><trkpt lat="36.9973887" lon="15.0267386"><ele>452.0</ele><time>2026-04-04T10:14:02.309Z</time></trkpt><trkpt lat="36.9974277" lon="15.0266554"><ele>452.0</ele><time>2026-04-04T10:14:03.29Z</time></trkpt><trkpt lat="36.9974718" lon="15.0265655"><ele>452.16666666666663</ele><time>2026-04-04T10:14:04.295Z</time></trkpt><trkpt lat="36.9975297" lon="15.0264582"><ele>452.3333333333333</ele><time>2026-04-04T10:14:05.291Z</time></trkpt><trkpt lat="36.9975781" lon="15.0263532"><ele>452.5</ele><time>2026-04-04T10:14:06.318Z</time></trkpt><trkpt lat="36.9976213" lon="15.0262619"><ele>452.66666666666663</ele><time>2026-04-04T10:14:07.293Z</time></trkpt><trkpt lat="36.9976514" lon="15.0261772"><ele>452.8333333333333</ele><time>2026-04-04T10:14:08.298Z</time></trkpt><trkpt lat="36.9976707" lon="15.0260707"><ele>453.0</ele><time>2026-04-04T10:14:10.299Z</time></trkpt><trkpt lat="36.9976076" lon="15.0260048"><ele>453.0</ele><time>2026-04-04T10:14:12.295Z</time></trkpt><trkpt lat="36.9975538" lon="15.0259541"><ele>452.99999999999994</ele><time>2026-04-04T10:14:13.3Z</time></trkpt><trkpt lat="36.9974721" lon="15.0258633"><ele>452.99999999999994</ele><time>2026-04-04T10:14:15.297Z</time></trkpt><trkpt lat="36.9973997" lon="15.0257675"><ele>453.0</ele><time>2026-04-04T10:14:17.304Z</time></trkpt><trkpt lat="36.997314" lon="15.0256633"><ele>453.0</ele><time>2026-04-04T10:14:19.308Z</time></trkpt><trkpt lat="36.9972228" lon="15.02557"><ele>451.2</ele><time>2026-04-04T10:14:21.293Z</time></trkpt><trkpt lat="36.9971126" lon="15.0255105"><ele>449.4</ele><time>2026-04-04T10:14:23.318Z</time></trkpt><trkpt lat="36.9970114" lon="15.0254368"><ele>447.59999999999997</ele><time>2026-04-04T10:14:25.266Z</time></trkpt><trkpt lat="36.996908" lon="15.0253342"><ele>445.79999999999995</ele><time>2026-04-04T10:14:27.291Z</time></trkpt><trkpt lat="36.9968525" lon="15.0252809"><ele>444.0</ele><time>2026-04-04T10:14:28.288Z</time></trkpt><trkpt lat="36.996796" lon="15.0252249"><ele>444.0</ele><time>2026-04-04T10:14:29.294Z</time></trkpt><trkpt lat="36.9967302" lon="15.0251648"><ele>444.0</ele><time>2026-04-04T10:14:30.289Z</time></trkpt><trkpt lat="36.9966621" lon="15.0250963"><ele>444.0</ele><time>2026-04-04T10:14:31.302Z</time></trkpt><trkpt lat="36.9965973" lon="15.0250262"><ele>444.0</ele><time>2026-04-04T10:14:32.287Z</time></trkpt><trkpt lat="36.9965271" lon="15.0249573"><ele>444.0</ele><time>2026-04-04T10:14:33.304Z</time></trkpt><trkpt lat="36.9964479" lon="15.0248824"><ele>444.0</ele><time>2026-04-04T10:14:34.288Z</time></trkpt><trkpt lat="36.9963657" lon="15.024807"><ele>443.5</ele><time>2026-04-04T10:14:35.28Z</time></trkpt><trkpt lat="36.9962875" lon="15.0247393"><ele>443.0</ele><time>2026-04-04T10:14:36.295Z</time></trkpt><trkpt lat="36.9962121" lon="15.024662"><ele>442.5</ele><time>2026-04-04T10:14:37.289Z</time></trkpt><trkpt lat="36.9961432" lon="15.024597"><ele>442.0</ele><time>2026-04-04T10:14:38.292Z</time></trkpt><trkpt lat="36.9960828" lon="15.0245396"><ele>441.5</ele><time>2026-04-04T10:14:39.293Z</time></trkpt><trkpt lat="36.9960306" lon="15.0244896"><ele>441.0</ele><time>2026-04-04T10:14:40.303Z</time></trkpt><trkpt lat="36.9959418" lon="15.024402"><ele>441.0</ele><time>2026-04-04T10:14:42.286Z</time></trkpt><trkpt lat="36.995871" lon="15.024336"><ele>441.0</ele><time>2026-04-04T10:14:44.305Z</time></trkpt><trkpt lat="36.9958135" lon="15.0242837"><ele>441.0</ele><time>2026-04-04T10:14:47.279Z</time></trkpt><trkpt lat="36.9957302" lon="15.0242309"><ele>441.0</ele><time>2026-04-04T10:15:00.265Z</time></trkpt><trkpt lat="36.9956357" lon="15.024304"><ele>441.0</ele><time>2026-04-04T10:15:02.269Z</time></trkpt><trkpt lat="36.9955745" lon="15.0243785"><ele>441.0</ele><time>2026-04-04T10:15:03.29Z</time></trkpt><trkpt lat="36.9955077" lon="15.0244602"><ele>441.20000000000005</ele><time>2026-04-04T10:15:04.275Z</time></trkpt><trkpt lat="36.9954274" lon="15.0245426"><ele>441.40000000000003</ele><time>2026-04-04T10:15:05.307Z</time></trkpt><trkpt lat="36.995345" lon="15.0246179"><ele>441.6</ele><time>2026-04-04T10:15:06.269Z</time></trkpt><trkpt lat="36.9952603" lon="15.0246891"><ele>441.8</ele><time>2026-04-04T10:15:07.302Z</time></trkpt><trkpt lat="36.9951755" lon="15.0247554"><ele>442.0</ele><time>2026-04-04T10:15:08.288Z</time></trkpt><trkpt lat="36.9950764" lon="15.024827"><ele>442.0</ele><time>2026-04-04T10:15:09.306Z</time></trkpt><trkpt lat="36.9949642" lon="15.0248944"><ele>442.0</ele><time>2026-04-04T10:15:10.295Z</time></trkpt><trkpt lat="36.9948514" lon="15.024951"><ele>442.0</ele><time>2026-04-04T10:15:11.304Z</time></trkpt><trkpt lat="36.9947315" lon="15.0250009"><ele>442.0</ele><time>2026-04-04T10:15:12.292Z</time></trkpt><trkpt lat="36.9946072" lon="15.0250401"><ele>442.0</ele><time>2026-04-04T10:15:13.298Z</time></trkpt><trkpt lat="36.9944788" lon="15.0250779"><ele>442.0</ele><time>2026-04-04T10:15:14.315Z</time></trkpt><trkpt lat="36.9943447" lon="15.0251198"><ele>442.0</ele><time>2026-04-04T10:15:15.3Z</time></trkpt><trkpt lat="36.9942136" lon="15.0251575"><ele>442.0</ele><time>2026-04-04T10:15:16.292Z</time></trkpt><trkpt lat="36.9940862" lon="15.0251861"><ele>441.75</ele><time>2026-04-04T10:15:17.334Z</time></trkpt><trkpt lat="36.9939716" lon="15.0252151"><ele>441.5</ele><time>2026-04-04T10:15:18.301Z</time></trkpt><trkpt lat="36.9938594" lon="15.0252442"><ele>441.25</ele><time>2026-04-04T10:15:19.299Z</time></trkpt><trkpt lat="36.9937453" lon="15.0252791"><ele>441.0</ele><time>2026-04-04T10:15:20.309Z</time></trkpt><trkpt lat="36.9936325" lon="15.0253194"><ele>441.0</ele><time>2026-04-04T10:15:21.296Z</time></trkpt><trkpt lat="36.9935181" lon="15.0253493"><ele>441.0</ele><time>2026-04-04T10:15:22.292Z</time></trkpt><trkpt lat="36.9934048" lon="15.0253829"><ele>441.0</ele><time>2026-04-04T10:15:23.313Z</time></trkpt><trkpt lat="36.9932852" lon="15.0254136"><ele>441.0</ele><time>2026-04-04T10:15:24.317Z</time></trkpt><trkpt lat="36.9931624" lon="15.0254477"><ele>440.25</ele><time>2026-04-04T10:15:25.308Z</time></trkpt><trkpt lat="36.9930364" lon="15.0254867"><ele>439.5</ele><time>2026-04-04T10:15:26.302Z</time></trkpt><trkpt lat="36.9929091" lon="15.0255229"><ele>438.75</ele><time>2026-04-04T10:15:27.315Z</time></trkpt><trkpt lat="36.9927743" lon="15.0255572"><ele>438.0</ele><time>2026-04-04T10:15:28.304Z</time></trkpt><trkpt lat="36.9926377" lon="15.0255928"><ele>438.25</ele><time>2026-04-04T10:15:29.294Z</time></trkpt><trkpt lat="36.9925044" lon="15.025634"><ele>438.5</ele><time>2026-04-04T10:15:30.307Z</time></trkpt><trkpt lat="36.992378" lon="15.0256743"><ele>438.75</ele><time>2026-04-04T10:15:31.295Z</time></trkpt><trkpt lat="36.9922616" lon="15.0257041"><ele>439.0</ele><time>2026-04-04T10:15:32.301Z</time></trkpt><trkpt lat="36.9921497" lon="15.0257351"><ele>439.0</ele><time>2026-04-04T10:15:33.433Z</time></trkpt><trkpt lat="36.9920395" lon="15.0257669"><ele>439.0</ele><time>2026-04-04T10:15:34.361Z</time></trkpt><trkpt lat="36.9919339" lon="15.0257978"><ele>439.0</ele><time>2026-04-04T10:15:35.422Z</time></trkpt><trkpt lat="36.9918266" lon="15.0258244"><ele>439.0</ele><time>2026-04-04T10:15:36.442Z</time></trkpt><trkpt lat="36.9916168" lon="15.0258776"><ele>438.4</ele><time>2026-04-04T10:15:38.299Z</time></trkpt><trkpt lat="36.9915137" lon="15.0259059"><ele>437.79999999999995</ele><time>2026-04-04T10:15:39.282Z</time></trkpt><trkpt lat="36.9914085" lon="15.0259374"><ele>437.20000000000005</ele><time>2026-04-04T10:15:40.423Z</time></trkpt><trkpt lat="36.9913073" lon="15.0259632"><ele>436.6</ele><time>2026-04-04T10:15:41.36Z</time></trkpt><trkpt lat="36.9911986" lon="15.0259925"><ele>436.0</ele><time>2026-04-04T10:15:42.277Z</time></trkpt><trkpt lat="36.9910828" lon="15.0260289"><ele>436.0</ele><time>2026-04-04T10:15:43.294Z</time></trkpt><trkpt lat="36.9909583" lon="15.0260634"><ele>436.0</ele><time>2026-04-04T10:15:44.304Z</time></trkpt><trkpt lat="36.9908415" lon="15.0260955"><ele>436.0</ele><time>2026-04-04T10:15:45.3Z</time></trkpt><trkpt lat="36.9907452" lon="15.0261246"><ele>436.0</ele><time>2026-04-04T10:15:46.359Z</time></trkpt><trkpt lat="36.9906581" lon="15.0261537"><ele>436.0</ele><time>2026-04-04T10:15:47.323Z</time></trkpt><trkpt lat="36.9905811" lon="15.0261787"><ele>434.83333333333337</ele><time>2026-04-04T10:15:48.409Z</time></trkpt><trkpt lat="36.9905123" lon="15.0261987"><ele>433.6666666666667</ele><time>2026-04-04T10:15:49.309Z</time></trkpt><trkpt lat="36.9904083" lon="15.0262231"><ele>432.5</ele><time>2026-04-04T10:15:51.303Z</time></trkpt><trkpt lat="36.9903527" lon="15.0261848"><ele>431.33333333333337</ele><time>2026-04-04T10:15:54.311Z</time></trkpt><trkpt lat="36.9903226" lon="15.0260974"><ele>430.1666666666667</ele><time>2026-04-04T10:16:01.294Z</time></trkpt><trkpt lat="36.9902935" lon="15.0259988"><ele>429.0</ele><time>2026-04-04T10:16:07.295Z</time></trkpt><trkpt lat="36.9902857" lon="15.0259128"><ele>429.0</ele><time>2026-04-04T10:16:10.296Z</time></trkpt><trkpt lat="36.990326" lon="15.0258496"><ele>429.0</ele><time>2026-04-04T10:16:13.287Z</time></trkpt><trkpt lat="36.9903901" lon="15.0258044"><ele>429.0</ele><time>2026-04-04T10:16:16.279Z</time></trkpt><trkpt lat="36.9904583" lon="15.0257642"><ele>429.0</ele><time>2026-04-04T10:16:18.282Z</time></trkpt><trkpt lat="36.9905197" lon="15.0257105"><ele>429.0</ele><time>2026-04-04T10:16:20.269Z</time></trkpt><trkpt lat="36.9906235" lon="15.0256351"><ele>429.0</ele><time>2026-04-04T10:16:22.296Z</time></trkpt><trkpt lat="36.9906939" lon="15.02561"><ele>429.0</ele><time>2026-04-04T10:16:23.279Z</time></trkpt><trkpt lat="36.9907941" lon="15.0255232"><ele>429.0</ele><time>2026-04-04T10:16:25.278Z</time></trkpt><trkpt lat="36.9908489" lon="15.0254708"><ele>429.0</ele><time>2026-04-04T10:16:26.293Z</time></trkpt><trkpt lat="36.9908955" lon="15.0254135"><ele>429.0</ele><time>2026-04-04T10:16:27.292Z</time></trkpt><trkpt lat="36.9909393" lon="15.0253507"><ele>429.0</ele><time>2026-04-04T10:16:28.302Z</time></trkpt><trkpt lat="36.9909859" lon="15.0252969"><ele>429.0</ele><time>2026-04-04T10:16:29.286Z</time></trkpt><trkpt lat="36.991044" lon="15.0252371"><ele>429.0</ele><time>2026-04-04T10:16:30.303Z</time></trkpt><trkpt lat="36.9911163" lon="15.0251644"><ele>429.0</ele><time>2026-04-04T10:16:31.306Z</time></trkpt><trkpt lat="36.9911794" lon="15.0250909"><ele>429.0</ele><time>2026-04-04T10:16:32.295Z</time></trkpt><trkpt lat="36.991229" lon="15.0250234"><ele>429.0</ele><time>2026-04-04T10:16:33.276Z</time></trkpt><trkpt lat="36.991261" lon="15.0249467"><ele>429.0</ele><time>2026-04-04T10:16:34.289Z</time></trkpt><trkpt lat="36.9913251" lon="15.0248131"><ele>429.0</ele><time>2026-04-04T10:16:36.29Z</time></trkpt><trkpt lat="36.9913888" lon="15.0247031"><ele>426.6</ele><time>2026-04-04T10:16:38.306Z</time></trkpt><trkpt lat="36.9914094" lon="15.0246117"><ele>424.2</ele><time>2026-04-04T10:16:40.269Z</time></trkpt><trkpt lat="36.9914377" lon="15.0244988"><ele>421.8</ele><time>2026-04-04T10:16:42.288Z</time></trkpt><trkpt lat="36.9915104" lon="15.0244175"><ele>419.40000000000003</ele><time>2026-04-04T10:16:44.289Z</time></trkpt><trkpt lat="36.9915762" lon="15.0243379"><ele>417.0</ele><time>2026-04-04T10:16:46.281Z</time></trkpt><trkpt lat="36.9916288" lon="15.0242458"><ele>417.0</ele><time>2026-04-04T10:16:48.291Z</time></trkpt><trkpt lat="36.9916445" lon="15.0241507"><ele>417.0</ele><time>2026-04-04T10:16:51.291Z</time></trkpt><trkpt lat="36.9915957" lon="15.0240996"><ele>417.0</ele><time>2026-04-04T10:16:54.29Z</time></trkpt><trkpt lat="36.9915391" lon="15.024051"><ele>417.0</ele><time>2026-04-04T10:17:32.25Z</time></trkpt><trkpt lat="36.9915104" lon="15.0244175"><ele>417.0</ele><time>2026-04-04T10:16:44.289Z</time></trkpt><trkpt lat="36.9915762" lon="15.0243379"><ele>417.0</ele><time>2026-04-04T10:16:46.281Z</time></trkpt><trkpt lat="36.9916288" lon="15.0242458"><ele>417.0</ele><time>2026-04-04T10:16:48.291Z</time></trkpt><trkpt lat="36.9916445" lon="15.0241507"><ele>417.0</ele><time>2026-04-04T10:16:51.291Z</time></trkpt><trkpt lat="36.9915957" lon="15.0240996"><ele>417.0</ele><time>2026-04-04T10:16:54.29Z</time></trkpt><trkpt lat="36.9915391" lon="15.024051"><ele>417.0</ele><time>2026-04-04T10:17:32.25Z</time></trkpt><trkpt lat="36.991472" lon="15.0240438"><ele>417.0</ele><time>2026-04-04T10:17:35.257Z</time></trkpt><trkpt lat="36.9913982" lon="15.0240736"><ele>417.0</ele><time>2026-04-04T10:17:37.26Z</time></trkpt><trkpt lat="36.9913168" lon="15.024069"><ele>417.0</ele><time>2026-04-04T10:17:40.256Z</time></trkpt><trkpt lat="36.9912462" lon="15.0240661"><ele>417.0</ele><time>2026-04-04T10:17:45.28Z</time></trkpt><trkpt lat="36.9911683" lon="15.024094"><ele>417.0</ele><time>2026-04-04T10:17:51.289Z</time></trkpt><trkpt lat="36.9911038" lon="15.0241469"><ele>417.0</ele><time>2026-04-04T10:17:58.274Z</time></trkpt><trkpt lat="36.9910397" lon="15.0241558"><ele>417.0</ele><time>2026-04-04T10:18:00.303Z</time></trkpt><trkpt lat="36.9909579" lon="15.0241721"><ele>417.0</ele><time>2026-04-04T10:18:02.291Z</time></trkpt><trkpt lat="36.9908818" lon="15.0242062"><ele>417.0</ele><time>2026-04-04T10:18:05.27Z</time></trkpt><trkpt lat="36.9908187" lon="15.0241893"><ele>417.0</ele><time>2026-04-04T10:18:07.3Z</time></trkpt><trkpt lat="36.9907422" lon="15.0241931"><ele>417.0</ele><time>2026-04-04T10:18:09.283Z</time></trkpt><trkpt lat="36.9906648" lon="15.0242215"><ele>417.0</ele><time>2026-04-04T10:18:11.294Z</time></trkpt><trkpt lat="36.9905964" lon="15.0242319"><ele>417.5</ele><time>2026-04-04T10:18:12.259Z</time></trkpt><trkpt lat="36.9905053" lon="15.0242357"><ele>418.0</ele><time>2026-04-04T10:18:13.292Z</time></trkpt><trkpt lat="36.9904135" lon="15.0242256"><ele>418.5</ele><time>2026-04-04T10:18:14.29Z</time></trkpt><trkpt lat="36.9903467" lon="15.0242204"><ele>419.0</ele><time>2026-04-04T10:18:15.261Z</time></trkpt><trkpt lat="36.9902821" lon="15.0242113"><ele>419.5</ele><time>2026-04-04T10:18:16.253Z</time></trkpt><trkpt lat="36.9902213" lon="15.0241806"><ele>420.0</ele><time>2026-04-04T10:18:17.25Z</time></trkpt><trkpt lat="36.9901602" lon="15.0241215"><ele>420.0</ele><time>2026-04-04T10:18:18.282Z</time></trkpt><trkpt lat="36.9900921" lon="15.0240493"><ele>420.0</ele><time>2026-04-04T10:18:19.262Z</time></trkpt><trkpt lat="36.9900384" lon="15.0239908"><ele>420.0</ele><time>2026-04-04T10:18:20.255Z</time></trkpt><trkpt lat="36.9899968" lon="15.0238695"><ele>420.0</ele><time>2026-04-04T10:18:22.271Z</time></trkpt><trkpt lat="36.9899478" lon="15.023767"><ele>420.0</ele><time>2026-04-04T10:18:24.265Z</time></trkpt><trkpt lat="36.9898596" lon="15.0237386"><ele>419.6666666666667</ele><time>2026-04-04T10:18:26.265Z</time></trkpt><trkpt lat="36.9897697" lon="15.0237344"><ele>419.33333333333337</ele><time>2026-04-04T10:18:29.255Z</time></trkpt><trkpt lat="36.9896933" lon="15.0237101"><ele>419.0</ele><time>2026-04-04T10:18:35.287Z</time></trkpt><trkpt lat="36.9896213" lon="15.0237367"><ele>418.6666666666667</ele><time>2026-04-04T10:18:40.277Z</time></trkpt><trkpt lat="36.9895471" lon="15.0237796"><ele>418.33333333333337</ele><time>2026-04-04T10:18:44.291Z</time></trkpt><trkpt lat="36.9894818" lon="15.0237833"><ele>418.0</ele><time>2026-04-04T10:18:46.288Z</time></trkpt><trkpt lat="36.989418" lon="15.0237406"><ele>418.00000000000006</ele><time>2026-04-04T10:18:48.292Z</time></trkpt><trkpt lat="36.9893475" lon="15.0236947"><ele>418.0</ele><time>2026-04-04T10:18:50.287Z</time></trkpt><trkpt lat="36.9892709" lon="15.0236932"><ele>418.0</ele><time>2026-04-04T10:18:52.281Z</time></trkpt><trkpt lat="36.989196" lon="15.023696"><ele>418.0</ele><time>2026-04-04T10:18:54.288Z</time></trkpt><trkpt lat="36.9891241" lon="15.0236955"><ele>418.00000000000006</ele><time>2026-04-04T10:18:56.293Z</time></trkpt><trkpt lat="36.9890209" lon="15.0237187"><ele>418.0</ele><time>2026-04-04T10:18:58.308Z</time></trkpt><trkpt lat="36.9889175" lon="15.0237512"><ele>417.79999999999995</ele><time>2026-04-04T10:19:00.272Z</time></trkpt><trkpt lat="36.9888213" lon="15.0237833"><ele>417.6</ele><time>2026-04-04T10:19:02.265Z</time></trkpt><trkpt lat="36.9887284" lon="15.0238061"><ele>417.4</ele><time>2026-04-04T10:19:04.301Z</time></trkpt><trkpt lat="36.9886338" lon="15.0238667"><ele>417.20000000000005</ele><time>2026-04-04T10:19:06.282Z</time></trkpt><trkpt lat="36.9885293" lon="15.0239519"><ele>417.0</ele><time>2026-04-04T10:19:08.294Z</time></trkpt><trkpt lat="36.9884622" lon="15.0239956"><ele>417.0</ele><time>2026-04-04T10:19:09.247Z</time></trkpt><trkpt lat="36.9883985" lon="15.0240341"><ele>417.0</ele><time>2026-04-04T10:19:10.285Z</time></trkpt><trkpt lat="36.9883399" lon="15.0240732"><ele>417.0</ele><time>2026-04-04T10:19:11.289Z</time></trkpt><trkpt lat="36.9882839" lon="15.0241155"><ele>417.0</ele><time>2026-04-04T10:19:12.299Z</time></trkpt><trkpt lat="36.9881835" lon="15.0241894"><ele>417.0</ele><time>2026-04-04T10:19:14.293Z</time></trkpt><trkpt lat="36.988082" lon="15.0242714"><ele>417.0</ele><time>2026-04-04T10:19:16.296Z</time></trkpt><trkpt lat="36.9880274" lon="15.0243159"><ele>415.7142857142857</ele><time>2026-04-04T10:19:17.256Z</time></trkpt><trkpt lat="36.9879672" lon="15.0243605"><ele>414.4285714285714</ele><time>2026-04-04T10:19:18.264Z</time></trkpt><trkpt lat="36.9879053" lon="15.0244007"><ele>413.1428571428571</ele><time>2026-04-04T10:19:19.295Z</time></trkpt><trkpt lat="36.9878422" lon="15.0244386"><ele>411.8571428571429</ele><time>2026-04-04T10:19:20.287Z</time></trkpt><trkpt lat="36.9877808" lon="15.0244688"><ele>410.57142857142856</ele><time>2026-04-04T10:19:21.288Z</time></trkpt><trkpt lat="36.9876875" lon="15.0245062"><ele>409.2857142857143</ele><time>2026-04-04T10:19:23.275Z</time></trkpt><trkpt lat="36.9876354" lon="15.0245524"><ele>408.0</ele><time>2026-04-04T10:19:26.301Z</time></trkpt><trkpt lat="36.987571" lon="15.0246081"><ele>408.0</ele><time>2026-04-04T10:20:03.27Z</time></trkpt><trkpt lat="36.9875215" lon="15.0246679"><ele>408.0</ele><time>2026-04-04T10:20:05.273Z</time></trkpt><trkpt lat="36.9874557" lon="15.0247383"><ele>408.0</ele><time>2026-04-04T10:20:07.298Z</time></trkpt><trkpt lat="36.9873979" lon="15.024784"><ele>408.0</ele><time>2026-04-04T10:20:09.278Z</time></trkpt><trkpt lat="36.9873427" lon="15.0248292"><ele>408.0</ele><time>2026-04-04T10:20:15.271Z</time></trkpt><trkpt lat="36.9873012" lon="15.0248905"><ele>408.0</ele><time>2026-04-04T10:20:17.288Z</time></trkpt><trkpt lat="36.9872611" lon="15.0249695"><ele>408.0</ele><time>2026-04-04T10:20:19.335Z</time></trkpt><trkpt lat="36.9872171" lon="15.0250524"><ele>407.8333333333333</ele><time>2026-04-04T10:20:22.306Z</time></trkpt><trkpt lat="36.9872491" lon="15.0251415"><ele>407.66666666666663</ele><time>2026-04-04T10:20:30.298Z</time></trkpt><trkpt lat="36.9872889" lon="15.0252172"><ele>407.5</ele><time>2026-04-04T10:20:32.286Z</time></trkpt><trkpt lat="36.9873185" lon="15.0253101"><ele>407.3333333333333</ele><time>2026-04-04T10:20:35.284Z</time></trkpt><trkpt lat="36.9872703" lon="15.0253617"><ele>407.16666666666663</ele><time>2026-04-04T10:20:39.289Z</time></trkpt><trkpt lat="36.9871842" lon="15.0253761"><ele>407.0</ele><time>2026-04-04T10:20:42.291Z</time></trkpt><trkpt lat="36.9871211" lon="15.0254174"><ele>406.99999999999994</ele><time>2026-04-04T10:20:47.285Z</time></trkpt><trkpt lat="36.9870889" lon="15.025489"><ele>407.0</ele><time>2026-04-04T10:20:51.269Z</time></trkpt><trkpt lat="36.9870452" lon="15.025572"><ele>407.0</ele><time>2026-04-04T10:20:56.283Z</time></trkpt><trkpt lat="36.9869755" lon="15.0255197"><ele>407.0</ele><time>2026-04-04T10:21:00.264Z</time></trkpt><trkpt lat="36.9869012" lon="15.0254736"><ele>406.99999999999994</ele><time>2026-04-04T10:21:03.304Z</time></trkpt><trkpt lat="36.9868067" lon="15.0254342"><ele>407.0</ele><time>2026-04-04T10:21:05.291Z</time></trkpt><trkpt lat="36.9867371" lon="15.0253896"><ele>406.99999999999994</ele><time>2026-04-04T10:21:07.29Z</time></trkpt><trkpt lat="36.9867467" lon="15.025301"><ele>407.0</ele><time>2026-04-04T10:21:09.284Z</time></trkpt><trkpt lat="36.986773" lon="15.0252239"><ele>407.0</ele><time>2026-04-04T10:21:10.282Z</time></trkpt><trkpt lat="36.9868154" lon="15.0250763"><ele>407.0</ele><time>2026-04-04T10:21:12.3Z</time></trkpt><trkpt lat="36.9868525" lon="15.0250029"><ele>406.99999999999994</ele><time>2026-04-04T10:21:14.275Z</time></trkpt><trkpt lat="36.9868951" lon="15.0249126"><ele>407.0</ele><time>2026-04-04T10:21:16.305Z</time></trkpt><trkpt lat="36.9869483" lon="15.0247881"><ele>407.6</ele><time>2026-04-04T10:21:18.285Z</time></trkpt><trkpt lat="36.9869613" lon="15.0246688"><ele>408.20000000000005</ele><time>2026-04-04T10:21:20.299Z</time></trkpt><trkpt lat="36.9869145" lon="15.0245906"><ele>408.8</ele><time>2026-04-04T10:21:22.3Z</time></trkpt><trkpt lat="36.9868437" lon="15.0246469"><ele>409.4</ele><time>2026-04-04T10:21:26.283Z</time></trkpt><trkpt lat="36.9867954" lon="15.0248192"><ele>410.0</ele><time>2026-04-04T10:21:28.273Z</time></trkpt><trkpt lat="36.9867662" lon="15.0249329"><ele>409.0</ele><time>2026-04-04T10:21:29.278Z</time></trkpt><trkpt lat="36.9867363" lon="15.0250787"><ele>408.0</ele><time>2026-04-04T10:21:30.427Z</time></trkpt><trkpt lat="36.986705" lon="15.025232"><ele>407.0</ele><time>2026-04-04T10:21:31.445Z</time></trkpt><trkpt lat="36.986636" lon="15.0255041"><ele>409.0</ele><time>2026-04-04T10:21:33.292Z</time></trkpt><trkpt lat="36.9866163" lon="15.0255976"><ele>411.0</ele><time>2026-04-04T10:21:34.381Z</time></trkpt><trkpt lat="36.9866603" lon="15.025786"><ele>413.0</ele><time>2026-04-04T10:21:36.301Z</time></trkpt><trkpt lat="36.9866646" lon="15.0258729"><ele>415.0</ele><time>2026-04-04T10:21:37.287Z</time></trkpt><trkpt lat="36.9866592" lon="15.0259695"><ele>417.0</ele><time>2026-04-04T10:21:38.294Z</time></trkpt><trkpt lat="36.9866484" lon="15.0260583"><ele>417.1666666666667</ele><time>2026-04-04T10:21:39.347Z</time></trkpt><trkpt lat="36.9866307" lon="15.0261646"><ele>417.33333333333337</ele><time>2026-04-04T10:21:40.29Z</time></trkpt><trkpt lat="36.9866075" lon="15.0262739"><ele>417.5</ele><time>2026-04-04T10:21:41.356Z</time></trkpt><trkpt lat="36.9865765" lon="15.0263518"><ele>417.6666666666667</ele><time>2026-04-04T10:21:42.29Z</time></trkpt><trkpt lat="36.9865122" lon="15.0264231"><ele>417.83333333333337</ele><time>2026-04-04T10:21:44.27Z</time></trkpt><trkpt lat="36.9864078" lon="15.0263952"><ele>418.0</ele><time>2026-04-04T10:21:46.294Z</time></trkpt><trkpt lat="36.986324" lon="15.0263927"><ele>418.0</ele><time>2026-04-04T10:21:47.287Z</time></trkpt><trkpt lat="36.986241" lon="15.0264544"><ele>418.0</ele><time>2026-04-04T10:21:48.369Z</time></trkpt><trkpt lat="36.9861679" lon="15.0265763"><ele>418.0</ele><time>2026-04-04T10:21:49.288Z</time></trkpt><trkpt lat="36.9861099" lon="15.0267306"><ele>418.0</ele><time>2026-04-04T10:21:50.31Z</time></trkpt><trkpt lat="36.9860575" lon="15.0269142"><ele>418.6666666666667</ele><time>2026-04-04T10:21:51.296Z</time></trkpt><trkpt lat="36.9859967" lon="15.0271027"><ele>419.33333333333337</ele><time>2026-04-04T10:21:52.298Z</time></trkpt><trkpt lat="36.9859261" lon="15.0272717"><ele>420.0</ele><time>2026-04-04T10:21:53.308Z</time></trkpt><trkpt lat="36.9858501" lon="15.0274287"><ele>421.75</ele><time>2026-04-04T10:21:54.297Z</time></trkpt><trkpt lat="36.9857613" lon="15.0275699"><ele>423.5</ele><time>2026-04-04T10:21:55.312Z</time></trkpt><trkpt lat="36.9856645" lon="15.0276945"><ele>425.25</ele><time>2026-04-04T10:21:56.294Z</time></trkpt><trkpt lat="36.9855543" lon="15.0278135"><ele>427.0</ele><time>2026-04-04T10:21:57.318Z</time></trkpt><trkpt lat="36.9854281" lon="15.0279087"><ele>427.0</ele><time>2026-04-04T10:21:58.306Z</time></trkpt><trkpt lat="36.9852852" lon="15.0279826"><ele>427.0</ele><time>2026-04-04T10:21:59.303Z</time></trkpt><trkpt lat="36.9851429" lon="15.0280551"><ele>427.0</ele><time>2026-04-04T10:22:00.309Z</time></trkpt><trkpt lat="36.9849786" lon="15.0281182"><ele>429.33333333333337</ele><time>2026-04-04T10:22:01.273Z</time></trkpt><trkpt lat="36.9847972" lon="15.0281696"><ele>431.66666666666663</ele><time>2026-04-04T10:22:02.266Z</time></trkpt><trkpt lat="36.9846217" lon="15.0282219"><ele>434.0</ele><time>2026-04-04T10:22:03.289Z</time></trkpt><trkpt lat="36.9844586" lon="15.0282713"><ele>433.66666666666663</ele><time>2026-04-04T10:22:04.325Z</time></trkpt><trkpt lat="36.9842905" lon="15.0283239"><ele>433.33333333333337</ele><time>2026-04-04T10:22:05.303Z</time></trkpt><trkpt lat="36.9841187" lon="15.0283843"><ele>433.0</ele><time>2026-04-04T10:22:06.277Z</time></trkpt><trkpt lat="36.9839397" lon="15.0284476"><ele>433.0</ele><time>2026-04-04T10:22:07.309Z</time></trkpt><trkpt lat="36.9837598" lon="15.0285117"><ele>433.0</ele><time>2026-04-04T10:22:08.261Z</time></trkpt><trkpt lat="36.9835749" lon="15.0285744"><ele>433.0</ele><time>2026-04-04T10:22:09.29Z</time></trkpt><trkpt lat="36.9833961" lon="15.0286348"><ele>433.5</ele><time>2026-04-04T10:22:10.41Z</time></trkpt><trkpt lat="36.9830289" lon="15.028765"><ele>434.0</ele><time>2026-04-04T10:22:12.308Z</time></trkpt><trkpt lat="36.9828372" lon="15.0288454"><ele>434.0</ele><time>2026-04-04T10:22:13.305Z</time></trkpt><trkpt lat="36.9826522" lon="15.0289397"><ele>434.0</ele><time>2026-04-04T10:22:14.295Z</time></trkpt><trkpt lat="36.9824675" lon="15.0290501"><ele>434.0</ele><time>2026-04-04T10:22:15.353Z</time></trkpt><trkpt lat="36.9822892" lon="15.0291644"><ele>433.66666666666663</ele><time>2026-04-04T10:22:16.293Z</time></trkpt><trkpt lat="36.9821251" lon="15.0292758"><ele>433.33333333333337</ele><time>2026-04-04T10:22:17.269Z</time></trkpt><trkpt lat="36.9819597" lon="15.0293802"><ele>433.0</ele><time>2026-04-04T10:22:18.299Z</time></trkpt><trkpt lat="36.9817886" lon="15.0294882"><ele>433.6666666666667</ele><time>2026-04-04T10:22:19.287Z</time></trkpt><trkpt lat="36.9816095" lon="15.0296093"><ele>434.33333333333337</ele><time>2026-04-04T10:22:20.308Z</time></trkpt><trkpt lat="36.9814265" lon="15.0297286"><ele>435.0</ele><time>2026-04-04T10:22:21.286Z</time></trkpt><trkpt lat="36.981235" lon="15.0298569"><ele>435.0</ele><time>2026-04-04T10:22:22.274Z</time></trkpt><trkpt lat="36.981045" lon="15.0299858"><ele>435.0</ele><time>2026-04-04T10:22:23.313Z</time></trkpt><trkpt lat="36.9808719" lon="15.030103"><ele>435.0</ele><time>2026-04-04T10:22:24.303Z</time></trkpt><trkpt lat="36.9807101" lon="15.0302102"><ele>435.66666666666663</ele><time>2026-04-04T10:22:25.289Z</time></trkpt><trkpt lat="36.9805529" lon="15.0303091"><ele>436.3333333333333</ele><time>2026-04-04T10:22:26.295Z</time></trkpt><trkpt lat="36.9803927" lon="15.030409"><ele>437.0</ele><time>2026-04-04T10:22:27.302Z</time></trkpt><trkpt lat="36.9802367" lon="15.030509"><ele>437.0</ele><time>2026-04-04T10:22:28.307Z</time></trkpt><trkpt lat="36.9800829" lon="15.0306176"><ele>437.0</ele><time>2026-04-04T10:22:29.4Z</time></trkpt><trkpt lat="36.979788" lon="15.0308278"><ele>437.0</ele><time>2026-04-04T10:22:31.302Z</time></trkpt><trkpt lat="36.9796581" lon="15.0309108"><ele>437.0</ele><time>2026-04-04T10:22:32.303Z</time></trkpt><trkpt lat="36.9795295" lon="15.0309769"><ele>437.0</ele><time>2026-04-04T10:22:33.293Z</time></trkpt><trkpt lat="36.9794079" lon="15.0310142"><ele>437.0</ele><time>2026-04-04T10:22:34.302Z</time></trkpt><trkpt lat="36.9792878" lon="15.0310254"><ele>437.75</ele><time>2026-04-04T10:22:35.289Z</time></trkpt><trkpt lat="36.9791673" lon="15.0310005"><ele>438.5</ele><time>2026-04-04T10:22:36.297Z</time></trkpt><trkpt lat="36.9790432" lon="15.030932"><ele>439.25</ele><time>2026-04-04T10:22:37.305Z</time></trkpt><trkpt lat="36.9789233" lon="15.0308503"><ele>440.0</ele><time>2026-04-04T10:22:38.3Z</time></trkpt><trkpt lat="36.9788203" lon="15.030764"><ele>441.66666666666663</ele><time>2026-04-04T10:22:39.278Z</time></trkpt><trkpt lat="36.9787313" lon="15.0306976"><ele>443.3333333333333</ele><time>2026-04-04T10:22:40.283Z</time></trkpt><trkpt lat="36.9786543" lon="15.0306461"><ele>445.0</ele><time>2026-04-04T10:22:41.271Z</time></trkpt><trkpt lat="36.9785898" lon="15.0306025"><ele>446.66666666666663</ele><time>2026-04-04T10:22:42.293Z</time></trkpt><trkpt lat="36.9785415" lon="15.0305506"><ele>448.3333333333333</ele><time>2026-04-04T10:22:43.284Z</time></trkpt><trkpt lat="36.9784983" lon="15.0304921"><ele>450.0</ele><time>2026-04-04T10:22:44.352Z</time></trkpt><trkpt lat="36.9784528" lon="15.0303959"><ele>450.0</ele><time>2026-04-04T10:22:45.31Z</time></trkpt><trkpt lat="36.9784065" lon="15.0302786"><ele>450.0</ele><time>2026-04-04T10:22:46.3Z</time></trkpt><trkpt lat="36.9783623" lon="15.0301493"><ele>450.0</ele><time>2026-04-04T10:22:47.303Z</time></trkpt><trkpt lat="36.9783026" lon="15.0299996"><ele>450.0</ele><time>2026-04-04T10:22:48.296Z</time></trkpt><trkpt lat="36.9782231" lon="15.0298483"><ele>449.75</ele><time>2026-04-04T10:22:49.301Z</time></trkpt><trkpt lat="36.9781412" lon="15.0297089"><ele>449.5</ele><time>2026-04-04T10:22:50.3Z</time></trkpt><trkpt lat="36.9780577" lon="15.0295781"><ele>449.25</ele><time>2026-04-04T10:22:51.288Z</time></trkpt><trkpt lat="36.9779481" lon="15.029438"><ele>449.0</ele><time>2026-04-04T10:22:52.281Z</time></trkpt><trkpt lat="36.9778274" lon="15.0293089"><ele>449.0</ele><time>2026-04-04T10:22:53.3Z</time></trkpt><trkpt lat="36.9777187" lon="15.0291755"><ele>449.0</ele><time>2026-04-04T10:22:54.265Z</time></trkpt><trkpt lat="36.9776282" lon="15.0290875"><ele>449.0</ele><time>2026-04-04T10:22:55.311Z</time></trkpt><trkpt lat="36.9775323" lon="15.0290214"><ele>449.0</ele><time>2026-04-04T10:22:56.31Z</time></trkpt><trkpt lat="36.9774162" lon="15.0289594"><ele>448.75</ele><time>2026-04-04T10:22:57.298Z</time></trkpt><trkpt lat="36.977289" lon="15.028904"><ele>448.5</ele><time>2026-04-04T10:22:58.324Z</time></trkpt><trkpt lat="36.9771506" lon="15.028832"><ele>448.25</ele><time>2026-04-04T10:22:59.296Z</time></trkpt><trkpt lat="36.9769998" lon="15.0287546"><ele>448.0</ele><time>2026-04-04T10:23:00.304Z</time></trkpt><trkpt lat="36.9768552" lon="15.0286682"><ele>448.0</ele><time>2026-04-04T10:23:01.296Z</time></trkpt><trkpt lat="36.976727" lon="15.0285901"><ele>448.0</ele><time>2026-04-04T10:23:02.314Z</time></trkpt><trkpt lat="36.9766039" lon="15.0285244"><ele>448.0</ele><time>2026-04-04T10:23:03.311Z</time></trkpt><trkpt lat="36.9764957" lon="15.0284632"><ele>448.0</ele><time>2026-04-04T10:23:04.301Z</time></trkpt><trkpt lat="36.9764073" lon="15.0283826"><ele>449.0</ele><time>2026-04-04T10:23:05.297Z</time></trkpt><trkpt lat="36.9763175" lon="15.0282883"><ele>450.0</ele><time>2026-04-04T10:23:06.307Z</time></trkpt><trkpt lat="36.9762258" lon="15.0281418"><ele>451.0</ele><time>2026-04-04T10:23:07.3Z</time></trkpt><trkpt lat="36.9761289" lon="15.0279915"><ele>452.0</ele><time>2026-04-04T10:23:08.274Z</time></trkpt><trkpt lat="36.9760406" lon="15.0278593"><ele>452.0</ele><time>2026-04-04T10:23:09.302Z</time></trkpt><trkpt lat="36.9759577" lon="15.0277358"><ele>452.0</ele><time>2026-04-04T10:23:10.283Z</time></trkpt><trkpt lat="36.9758751" lon="15.0276289"><ele>452.0</ele><time>2026-04-04T10:23:11.289Z</time></trkpt><trkpt lat="36.9757846" lon="15.0275248"><ele>452.0</ele><time>2026-04-04T10:23:12.299Z</time></trkpt><trkpt lat="36.9756778" lon="15.0274255"><ele>454.8</ele><time>2026-04-04T10:23:13.455Z</time></trkpt><trkpt lat="36.9755773" lon="15.0273462"><ele>457.6</ele><time>2026-04-04T10:23:14.382Z</time></trkpt><trkpt lat="36.9754885" lon="15.0272859"><ele>460.40000000000003</ele><time>2026-04-04T10:23:15.289Z</time></trkpt><trkpt lat="36.9754122" lon="15.0272089"><ele>463.20000000000005</ele><time>2026-04-04T10:23:17.292Z</time></trkpt><trkpt lat="36.9754163" lon="15.0271164"><ele>466.0</ele><time>2026-04-04T10:23:19.296Z</time></trkpt><trkpt lat="36.9755225" lon="15.0270141"><ele>466.0</ele><time>2026-04-04T10:23:21.302Z</time></trkpt><trkpt lat="36.975512" lon="15.026934"><ele>466.0</ele><time>2026-04-04T10:23:24.303Z</time></trkpt><trkpt lat="36.9753905" lon="15.0268909"><ele>466.0</ele><time>2026-04-04T10:23:26.29Z</time></trkpt><trkpt lat="36.9753006" lon="15.0268873"><ele>466.0</ele><time>2026-04-04T10:23:27.291Z</time></trkpt><trkpt lat="36.9751907" lon="15.0269142"><ele>466.0</ele><time>2026-04-04T10:23:28.298Z</time></trkpt><trkpt lat="36.9750739" lon="15.0269436"><ele>465.50000000000006</ele><time>2026-04-04T10:23:29.291Z</time></trkpt><trkpt lat="36.9749642" lon="15.0269643"><ele>465.0</ele><time>2026-04-04T10:23:30.307Z</time></trkpt><trkpt lat="36.9748857" lon="15.0269794"><ele>464.5</ele><time>2026-04-04T10:23:31.308Z</time></trkpt><trkpt lat="36.9748009" lon="15.0269696"><ele>464.0</ele><time>2026-04-04T10:23:33.302Z</time></trkpt><trkpt lat="36.9747209" lon="15.0269081"><ele>463.50000000000006</ele><time>2026-04-04T10:23:35.29Z</time></trkpt><trkpt lat="36.9746458" lon="15.02688"><ele>463.0</ele><time>2026-04-04T10:23:37.301Z</time></trkpt><trkpt lat="36.9745672" lon="15.0268707"><ele>463.00000000000006</ele><time>2026-04-04T10:23:40.278Z</time></trkpt><trkpt lat="36.9744952" lon="15.0268872"><ele>463.0</ele><time>2026-04-04T10:23:42.287Z</time></trkpt><trkpt lat="36.9744272" lon="15.0268074"><ele>463.0</ele><time>2026-04-04T10:23:45.285Z</time></trkpt><trkpt lat="36.974377" lon="15.0267368"><ele>463.0</ele><time>2026-04-04T10:23:47.281Z</time></trkpt><trkpt lat="36.9743169" lon="15.0266689"><ele>463.00000000000006</ele><time>2026-04-04T10:23:50.288Z</time></trkpt><trkpt lat="36.9742642" lon="15.0266202"><ele>463.0</ele><time>2026-04-04T10:23:52.27Z</time></trkpt><trkpt lat="36.9741952" lon="15.0266085"><ele>461.1666666666667</ele><time>2026-04-04T10:23:54.294Z</time></trkpt><trkpt lat="36.9741229" lon="15.02658"><ele>459.33333333333337</ele><time>2026-04-04T10:23:56.283Z</time></trkpt><trkpt lat="36.9740628" lon="15.0265419"><ele>457.5</ele><time>2026-04-04T10:23:58.269Z</time></trkpt><trkpt lat="36.9739991" lon="15.0264892"><ele>455.66666666666663</ele><time>2026-04-04T10:24:00.284Z</time></trkpt><trkpt lat="36.9739493" lon="15.02642"><ele>453.8333333333333</ele><time>2026-04-04T10:24:02.275Z</time></trkpt><trkpt lat="36.9738884" lon="15.0263258"><ele>452.0</ele><time>2026-04-04T10:24:04.283Z</time></trkpt><trkpt lat="36.9738282" lon="15.0262679"><ele>451.99999999999994</ele><time>2026-04-04T10:24:06.282Z</time></trkpt><trkpt lat="36.9737629" lon="15.0262521"><ele>452.0</ele><time>2026-04-04T10:24:08.29Z</time></trkpt><trkpt lat="36.9737091" lon="15.0261742"><ele>452.0</ele><time>2026-04-04T10:24:11.301Z</time></trkpt><trkpt lat="36.9736808" lon="15.0261017"><ele>452.0</ele><time>2026-04-04T10:24:12.293Z</time></trkpt><trkpt lat="36.9736393" lon="15.0260244"><ele>451.99999999999994</ele><time>2026-04-04T10:24:13.284Z</time></trkpt><trkpt lat="36.9735978" lon="15.0259419"><ele>452.0</ele><time>2026-04-04T10:24:14.312Z</time></trkpt><trkpt lat="36.9735508" lon="15.0258108"><ele>452.49999999999994</ele><time>2026-04-04T10:24:16.296Z</time></trkpt><trkpt lat="36.9735401" lon="15.0257314"><ele>453.0</ele><time>2026-04-04T10:24:17.299Z</time></trkpt><trkpt lat="36.9735357" lon="15.0256482"><ele>453.5</ele><time>2026-04-04T10:24:18.289Z</time></trkpt><trkpt lat="36.9735231" lon="15.0255528"><ele>454.0</ele><time>2026-04-04T10:24:19.294Z</time></trkpt><trkpt lat="36.9734836" lon="15.0254451"><ele>454.49999999999994</ele><time>2026-04-04T10:24:21.294Z</time></trkpt><trkpt lat="36.9734281" lon="15.0253792"><ele>455.0</ele><time>2026-04-04T10:24:23.293Z</time></trkpt><trkpt lat="36.973357" lon="15.0253591"><ele>455.6</ele><time>2026-04-04T10:24:25.282Z</time></trkpt><trkpt lat="36.9732468" lon="15.0252974"><ele>456.2</ele><time>2026-04-04T10:24:27.308Z</time></trkpt><trkpt lat="36.9731419" lon="15.0252138"><ele>456.79999999999995</ele><time>2026-04-04T10:24:29.301Z</time></trkpt><trkpt lat="36.9730729" lon="15.0251467"><ele>457.4</ele><time>2026-04-04T10:24:31.309Z</time></trkpt><trkpt lat="36.9729782" lon="15.0251144"><ele>458.0</ele><time>2026-04-04T10:24:33.285Z</time></trkpt><trkpt lat="36.972863" lon="15.0250598"><ele>457.99999999999994</ele><time>2026-04-04T10:24:35.299Z</time></trkpt><trkpt lat="36.9727837" lon="15.0250447"><ele>458.0</ele><time>2026-04-04T10:24:39.289Z</time></trkpt><trkpt lat="36.97271" lon="15.0251309"><ele>458.0</ele><time>2026-04-04T10:24:41.289Z</time></trkpt><trkpt lat="36.9726574" lon="15.0252051"><ele>458.0</ele><time>2026-04-04T10:24:42.278Z</time></trkpt><trkpt lat="36.9726103" lon="15.0252663"><ele>457.99999999999994</ele><time>2026-04-04T10:24:43.296Z</time></trkpt><trkpt lat="36.9725583" lon="15.0253484"><ele>458.0</ele><time>2026-04-04T10:24:45.296Z</time></trkpt><trkpt lat="36.972483" lon="15.0253995"><ele>458.3333333333333</ele><time>2026-04-04T10:24:47.27Z</time></trkpt><trkpt lat="36.9723978" lon="15.0254446"><ele>458.66666666666663</ele><time>2026-04-04T10:24:50.303Z</time></trkpt><trkpt lat="36.9723166" lon="15.0254907"><ele>459.0</ele><time>2026-04-04T10:24:54.285Z</time></trkpt><trkpt lat="36.9722674" lon="15.0255602"><ele>459.33333333333337</ele><time>2026-04-04T10:24:57.288Z</time></trkpt><trkpt lat="36.97222" lon="15.0256473"><ele>459.6666666666667</ele><time>2026-04-04T10:25:01.305Z</time></trkpt><trkpt lat="36.9721622" lon="15.0257206"><ele>460.0</ele><time>2026-04-04T10:25:04.3Z</time></trkpt><trkpt lat="36.9721012" lon="15.0257453"><ele>459.99999999999994</ele><time>2026-04-04T10:25:09.281Z</time></trkpt><trkpt lat="36.9720613" lon="15.025807"><ele>460.0</ele><time>2026-04-04T10:25:12.307Z</time></trkpt><trkpt lat="36.9720223" lon="15.0258758"><ele>459.99999999999994</ele><time>2026-04-04T10:25:55.289Z</time></trkpt><trkpt lat="36.9719742" lon="15.025789"><ele>459.99999999999994</ele><time>2026-04-04T10:26:49.271Z</time></trkpt><trkpt lat="36.9719304" lon="15.0257284"><ele>460.0</ele><time>2026-04-04T10:27:44.347Z</time></trkpt><trkpt lat="36.9719449" lon="15.0256515"><ele>459.99999999999994</ele><time>2026-04-04T10:28:33.279Z</time></trkpt><trkpt lat="36.9718946" lon="15.025708"><ele>459.99999999999994</ele><time>2026-04-04T10:29:00.311Z</time></trkpt><trkpt lat="36.9718085" lon="15.0257088"><ele>460.00000000000006</ele><time>2026-04-04T10:29:11.289Z</time></trkpt><trkpt lat="36.9717347" lon="15.0256441"><ele>460.0</ele><time>2026-04-04T10:29:14.264Z</time></trkpt><trkpt lat="36.9716838" lon="15.0255482"><ele>460.0</ele><time>2026-04-04T10:29:16.296Z</time></trkpt><trkpt lat="36.9716289" lon="15.0254629"><ele>460.0</ele><time>2026-04-04T10:29:18.284Z</time></trkpt><trkpt lat="36.9715593" lon="15.0253871"><ele>460.00000000000006</ele><time>2026-04-04T10:29:20.278Z</time></trkpt><trkpt lat="36.9715083" lon="15.0253188"><ele>460.0</ele><time>2026-04-04T10:29:22.3Z</time></trkpt><trkpt lat="36.9714557" lon="15.0252752"><ele>460.1666666666667</ele><time>2026-04-04T10:29:24.29Z</time></trkpt><trkpt lat="36.9713913" lon="15.0252032"><ele>460.33333333333337</ele><time>2026-04-04T10:29:26.27Z</time></trkpt><trkpt lat="36.9713472" lon="15.0251406"><ele>460.5</ele><time>2026-04-04T10:29:28.283Z</time></trkpt><trkpt lat="36.9712841" lon="15.0251013"><ele>460.66666666666663</ele><time>2026-04-04T10:29:30.288Z</time></trkpt><trkpt lat="36.9711883" lon="15.0250723"><ele>460.8333333333333</ele><time>2026-04-04T10:29:33.298Z</time></trkpt><trkpt lat="36.9711179" lon="15.0250838"><ele>461.0</ele><time>2026-04-04T10:29:35.272Z</time></trkpt><trkpt lat="36.971048" lon="15.0250418"><ele>460.99999999999994</ele><time>2026-04-04T10:29:38.279Z</time></trkpt><trkpt lat="36.970989" lon="15.0250089"><ele>461.0</ele><time>2026-04-04T10:29:40.285Z</time></trkpt><trkpt lat="36.9709289" lon="15.0249657"><ele>461.0</ele><time>2026-04-04T10:29:42.295Z</time></trkpt><trkpt lat="36.9708747" lon="15.0249068"><ele>461.0</ele><time>2026-04-04T10:29:45.302Z</time></trkpt><trkpt lat="36.9707857" lon="15.0249654"><ele>460.99999999999994</ele><time>2026-04-04T10:29:47.307Z</time></trkpt><trkpt lat="36.9707223" lon="15.0250297"><ele>461.0</ele><time>2026-04-04T10:29:48.303Z</time></trkpt><trkpt lat="36.9706652" lon="15.0250855"><ele>459.16666666666663</ele><time>2026-04-04T10:29:49.289Z</time></trkpt><trkpt lat="36.9706058" lon="15.0251476"><ele>457.3333333333333</ele><time>2026-04-04T10:29:50.289Z</time></trkpt><trkpt lat="36.9705466" lon="15.0252106"><ele>455.5</ele><time>2026-04-04T10:29:51.311Z</time></trkpt><trkpt lat="36.9704793" lon="15.0252741"><ele>453.66666666666663</ele><time>2026-04-04T10:29:52.284Z</time></trkpt><trkpt lat="36.9704136" lon="15.0253622"><ele>451.8333333333333</ele><time>2026-04-04T10:29:53.299Z</time></trkpt><trkpt lat="36.9703541" lon="15.0254724"><ele>450.0</ele><time>2026-04-04T10:29:54.279Z</time></trkpt><trkpt lat="36.9703307" lon="15.0256099"><ele>450.0</ele><time>2026-04-04T10:29:55.317Z</time></trkpt><trkpt lat="36.9703396" lon="15.0257799"><ele>450.0</ele><time>2026-04-04T10:29:56.308Z</time></trkpt><trkpt lat="36.9703567" lon="15.0259659"><ele>450.0</ele><time>2026-04-04T10:29:57.278Z</time></trkpt><trkpt lat="36.9703674" lon="15.0261481"><ele>450.0</ele><time>2026-04-04T10:29:58.302Z</time></trkpt><trkpt lat="36.9703584" lon="15.0263353"><ele>455.0</ele><time>2026-04-04T10:29:59.301Z</time></trkpt><trkpt lat="36.9702406" lon="15.0268687"><ele>460.0</ele><time>2026-04-04T10:30:02.312Z</time></trkpt><trkpt lat="36.9701891" lon="15.0270589"><ele>460.0</ele><time>2026-04-04T10:30:03.435Z</time></trkpt><trkpt lat="36.9700823" lon="15.0274467"><ele>460.0</ele><time>2026-04-04T10:30:05.259Z</time></trkpt><trkpt lat="36.970023" lon="15.0276404"><ele>456.33333333333337</ele><time>2026-04-04T10:30:06.297Z</time></trkpt><trkpt lat="36.9699649" lon="15.0278384"><ele>452.66666666666663</ele><time>2026-04-04T10:30:07.313Z</time></trkpt><trkpt lat="36.9699049" lon="15.0280301"><ele>449.0</ele><time>2026-04-04T10:30:08.299Z</time></trkpt><trkpt lat="36.9698434" lon="15.0282038"><ele>450.5</ele><time>2026-04-04T10:30:09.305Z</time></trkpt><trkpt lat="36.9697968" lon="15.0283721"><ele>452.0</ele><time>2026-04-04T10:30:10.301Z</time></trkpt><trkpt lat="36.9697655" lon="15.0285257"><ele>453.5</ele><time>2026-04-04T10:30:11.3Z</time></trkpt><trkpt lat="36.969744" lon="15.0286736"><ele>455.0</ele><time>2026-04-04T10:30:12.284Z</time></trkpt><trkpt lat="36.9697327" lon="15.0288224"><ele>455.0</ele><time>2026-04-04T10:30:13.303Z</time></trkpt><trkpt lat="36.9697272" lon="15.0289732"><ele>455.0</ele><time>2026-04-04T10:30:14.29Z</time></trkpt><trkpt lat="36.9697206" lon="15.029125"><ele>455.0</ele><time>2026-04-04T10:30:15.301Z</time></trkpt><trkpt lat="36.9697188" lon="15.0292733"><ele>455.0</ele><time>2026-04-04T10:30:16.294Z</time></trkpt><trkpt lat="36.9697051" lon="15.0294196"><ele>454.5</ele><time>2026-04-04T10:30:17.305Z</time></trkpt><trkpt lat="36.9696837" lon="15.0295775"><ele>454.0</ele><time>2026-04-04T10:30:18.302Z</time></trkpt><trkpt lat="36.9696596" lon="15.0297327"><ele>453.5</ele><time>2026-04-04T10:30:19.318Z</time></trkpt><trkpt lat="36.9696228" lon="15.0298702"><ele>453.0</ele><time>2026-04-04T10:30:20.298Z</time></trkpt><trkpt lat="36.9695676" lon="15.0299937"><ele>450.79999999999995</ele><time>2026-04-04T10:30:21.297Z</time></trkpt><trkpt lat="36.9694931" lon="15.0301122"><ele>448.59999999999997</ele><time>2026-04-04T10:30:22.27Z</time></trkpt><trkpt lat="36.9694213" lon="15.0302148"><ele>446.40000000000003</ele><time>2026-04-04T10:30:23.298Z</time></trkpt><trkpt lat="36.9693653" lon="15.0302952"><ele>444.20000000000005</ele><time>2026-04-04T10:30:24.316Z</time></trkpt><trkpt lat="36.9693386" lon="15.0303673"><ele>442.0</ele><time>2026-04-04T10:30:25.287Z</time></trkpt><trkpt lat="36.969399" lon="15.0304718"><ele>442.0</ele><time>2026-04-04T10:30:27.3Z</time></trkpt><trkpt lat="36.969465" lon="15.0304509"><ele>442.00000000000006</ele><time>2026-04-04T10:30:28.289Z</time></trkpt><trkpt lat="36.9695421" lon="15.0303839"><ele>442.00000000000006</ele><time>2026-04-04T10:30:29.292Z</time></trkpt><trkpt lat="36.9696401" lon="15.0302903"><ele>442.0</ele><time>2026-04-04T10:30:30.303Z</time></trkpt><trkpt lat="36.9697564" lon="15.0302002"><ele>442.0</ele><time>2026-04-04T10:30:31.314Z</time></trkpt><trkpt lat="36.9698573" lon="15.0301521"><ele>442.0</ele><time>2026-04-04T10:30:32.303Z</time></trkpt><trkpt lat="36.969943" lon="15.0301626"><ele>442.00000000000006</ele><time>2026-04-04T10:30:33.306Z</time></trkpt><trkpt lat="36.9700229" lon="15.03022"><ele>442.00000000000006</ele><time>2026-04-04T10:30:34.313Z</time></trkpt><trkpt lat="36.9700926" lon="15.0302986"><ele>442.0</ele><time>2026-04-04T10:30:35.308Z</time></trkpt><trkpt lat="36.9701499" lon="15.0304308"><ele>442.0</ele><time>2026-04-04T10:30:36.308Z</time></trkpt><trkpt lat="36.9702087" lon="15.0306009"><ele>440.33333333333337</ele><time>2026-04-04T10:30:37.299Z</time></trkpt><trkpt lat="36.9702739" lon="15.0307998"><ele>438.66666666666663</ele><time>2026-04-04T10:30:38.282Z</time></trkpt><trkpt lat="36.9703252" lon="15.0310155"><ele>437.0</ele><time>2026-04-04T10:30:39.273Z</time></trkpt><trkpt lat="36.9703719" lon="15.031253"><ele>436.66666666666663</ele><time>2026-04-04T10:30:40.309Z</time></trkpt><trkpt lat="36.9704182" lon="15.0314975"><ele>436.33333333333337</ele><time>2026-04-04T10:30:41.299Z</time></trkpt><trkpt lat="36.9704637" lon="15.0317345"><ele>436.0</ele><time>2026-04-04T10:30:42.298Z</time></trkpt><trkpt lat="36.9705096" lon="15.0319571"><ele>436.5</ele><time>2026-04-04T10:30:43.311Z</time></trkpt><trkpt lat="36.9705392" lon="15.0321642"><ele>437.0</ele><time>2026-04-04T10:30:44.297Z</time></trkpt><trkpt lat="36.9705525" lon="15.0323584"><ele>437.5</ele><time>2026-04-04T10:30:45.265Z</time></trkpt><trkpt lat="36.9705326" lon="15.0325113"><ele>438.0</ele><time>2026-04-04T10:30:46.304Z</time></trkpt><trkpt lat="36.9704953" lon="15.0326228"><ele>438.0</ele><time>2026-04-04T10:30:47.313Z</time></trkpt><trkpt lat="36.9704424" lon="15.0326942"><ele>437.99999999999994</ele><time>2026-04-04T10:30:48.298Z</time></trkpt><trkpt lat="36.9703518" lon="15.0327653"><ele>437.99999999999994</ele><time>2026-04-04T10:30:49.303Z</time></trkpt><trkpt lat="36.9702469" lon="15.0328132"><ele>438.0</ele><time>2026-04-04T10:30:50.292Z</time></trkpt><trkpt lat="36.9701238" lon="15.032862"><ele>438.0</ele><time>2026-04-04T10:30:51.293Z</time></trkpt><trkpt lat="36.9699907" lon="15.0329241"><ele>438.0</ele><time>2026-04-04T10:30:52.308Z</time></trkpt><trkpt lat="36.9698586" lon="15.033011"><ele>438.0</ele><time>2026-04-04T10:30:53.299Z</time></trkpt><trkpt lat="36.9697623" lon="15.0331027"><ele>438.0</ele><time>2026-04-04T10:30:54.312Z</time></trkpt><trkpt lat="36.9697023" lon="15.0331841"><ele>438.0</ele><time>2026-04-04T10:30:55.289Z</time></trkpt><trkpt lat="36.9696193" lon="15.0332727"><ele>439.0</ele><time>2026-04-04T10:30:57.279Z</time></trkpt><trkpt lat="36.969535" lon="15.0333211"><ele>440.0</ele><time>2026-04-04T10:30:58.283Z</time></trkpt><trkpt lat="36.969429" lon="15.0333532"><ele>441.0</ele><time>2026-04-04T10:30:59.301Z</time></trkpt><trkpt lat="36.9693067" lon="15.0333965"><ele>442.0</ele><time>2026-04-04T10:31:00.298Z</time></trkpt><trkpt lat="36.9691613" lon="15.0334546"><ele>442.0</ele><time>2026-04-04T10:31:01.305Z</time></trkpt><trkpt lat="36.9689987" lon="15.0335198"><ele>442.0</ele><time>2026-04-04T10:31:02.32Z</time></trkpt><trkpt lat="36.9688164" lon="15.033586"><ele>442.0</ele><time>2026-04-04T10:31:03.319Z</time></trkpt><trkpt lat="36.9686276" lon="15.033652"><ele>442.0</ele><time>2026-04-04T10:31:04.324Z</time></trkpt><trkpt lat="36.9684378" lon="15.0337086"><ele>442.0</ele><time>2026-04-04T10:31:05.315Z</time></trkpt><trkpt lat="36.9682492" lon="15.0337567"><ele>442.0</ele><time>2026-04-04T10:31:06.315Z</time></trkpt><trkpt lat="36.9680545" lon="15.0338123"><ele>441.6666666666667</ele><time>2026-04-04T10:31:07.317Z</time></trkpt><trkpt lat="36.9678576" lon="15.0338648"><ele>441.33333333333337</ele><time>2026-04-04T10:31:08.319Z</time></trkpt><trkpt lat="36.9676558" lon="15.0339188"><ele>441.0</ele><time>2026-04-04T10:31:09.271Z</time></trkpt><trkpt lat="36.9674599" lon="15.0339686"><ele>440.0</ele><time>2026-04-04T10:31:10.286Z</time></trkpt><trkpt lat="36.967266" lon="15.0340147"><ele>439.0</ele><time>2026-04-04T10:31:11.322Z</time></trkpt><trkpt lat="36.9670837" lon="15.0340644"><ele>438.0</ele><time>2026-04-04T10:31:12.302Z</time></trkpt><trkpt lat="36.9669044" lon="15.0341062"><ele>438.0</ele><time>2026-04-04T10:31:13.289Z</time></trkpt><trkpt lat="36.9667241" lon="15.0341462"><ele>438.0</ele><time>2026-04-04T10:31:14.293Z</time></trkpt><trkpt lat="36.9665466" lon="15.0341918"><ele>438.0</ele><time>2026-04-04T10:31:15.298Z</time></trkpt><trkpt lat="36.9663731" lon="15.0342341"><ele>438.0</ele><time>2026-04-04T10:31:16.302Z</time></trkpt><trkpt lat="36.9662224" lon="15.0342674"><ele>438.0</ele><time>2026-04-04T10:31:17.315Z</time></trkpt><trkpt lat="36.9661063" lon="15.0342971"><ele>438.0</ele><time>2026-04-04T10:31:18.282Z</time></trkpt><trkpt lat="36.9660093" lon="15.0343352"><ele>438.0</ele><time>2026-04-04T10:31:19.3Z</time></trkpt><trkpt lat="36.9659335" lon="15.0343873"><ele>438.0</ele><time>2026-04-04T10:31:20.294Z</time></trkpt><trkpt lat="36.965877" lon="15.0344592"><ele>438.0</ele><time>2026-04-04T10:31:21.312Z</time></trkpt><trkpt lat="36.9658374" lon="15.0345536"><ele>438.0</ele><time>2026-04-04T10:31:22.32Z</time></trkpt><trkpt lat="36.9658014" lon="15.0346403"><ele>438.0</ele><time>2026-04-04T10:31:23.292Z</time></trkpt><trkpt lat="36.9657608" lon="15.0347055"><ele>438.0</ele><time>2026-04-04T10:31:24.302Z</time></trkpt><trkpt lat="36.9656787" lon="15.0347627"><ele>438.0</ele><time>2026-04-04T10:31:25.303Z</time></trkpt><trkpt lat="36.9655782" lon="15.0348158"><ele>438.0</ele><time>2026-04-04T10:31:26.313Z</time></trkpt><trkpt lat="36.9654583" lon="15.0348871"><ele>438.0</ele><time>2026-04-04T10:31:27.307Z</time></trkpt><trkpt lat="36.9653182" lon="15.034985"><ele>438.0</ele><time>2026-04-04T10:31:28.297Z</time></trkpt><trkpt lat="36.9651733" lon="15.0350909"><ele>438.0</ele><time>2026-04-04T10:31:29.264Z</time></trkpt><trkpt lat="36.9650359" lon="15.0352055"><ele>438.0</ele><time>2026-04-04T10:31:30.313Z</time></trkpt><trkpt lat="36.9649032" lon="15.0353043"><ele>438.0</ele><time>2026-04-04T10:31:31.305Z</time></trkpt><trkpt lat="36.9647908" lon="15.0353727"><ele>438.0</ele><time>2026-04-04T10:31:32.31Z</time></trkpt><trkpt lat="36.9646972" lon="15.0354378"><ele>438.0</ele><time>2026-04-04T10:31:33.276Z</time></trkpt><trkpt lat="36.9646061" lon="15.0355097"><ele>438.0</ele><time>2026-04-04T10:31:34.284Z</time></trkpt><trkpt lat="36.9645109" lon="15.0356075"><ele>438.0</ele><time>2026-04-04T10:31:35.3Z</time></trkpt><trkpt lat="36.9644087" lon="15.0357297"><ele>438.0</ele><time>2026-04-04T10:31:36.318Z</time></trkpt><trkpt lat="36.964302" lon="15.0358653"><ele>436.75</ele><time>2026-04-04T10:31:37.308Z</time></trkpt><trkpt lat="36.9642061" lon="15.0359995"><ele>435.5</ele><time>2026-04-04T10:31:38.296Z</time></trkpt><trkpt lat="36.9641123" lon="15.0361302"><ele>434.25</ele><time>2026-04-04T10:31:39.321Z</time></trkpt><trkpt lat="36.9640228" lon="15.0362599"><ele>433.0</ele><time>2026-04-04T10:31:40.289Z</time></trkpt><trkpt lat="36.963932" lon="15.0363842"><ele>432.75</ele><time>2026-04-04T10:31:41.311Z</time></trkpt><trkpt lat="36.9638396" lon="15.036506"><ele>432.5</ele><time>2026-04-04T10:31:42.298Z</time></trkpt><trkpt lat="36.9637533" lon="15.0366177"><ele>432.25</ele><time>2026-04-04T10:31:43.321Z</time></trkpt><trkpt lat="36.9636688" lon="15.036741"><ele>432.0</ele><time>2026-04-04T10:31:44.252Z</time></trkpt><trkpt lat="36.9635754" lon="15.0368585"><ele>430.25</ele><time>2026-04-04T10:31:45.261Z</time></trkpt><trkpt lat="36.9634718" lon="15.0369783"><ele>428.5</ele><time>2026-04-04T10:31:46.265Z</time></trkpt><trkpt lat="36.9633656" lon="15.0371025"><ele>426.75</ele><time>2026-04-04T10:31:47.259Z</time></trkpt><trkpt lat="36.9632607" lon="15.0372298"><ele>425.0</ele><time>2026-04-04T10:31:48.26Z</time></trkpt><trkpt lat="36.9631531" lon="15.037353"><ele>424.2</ele><time>2026-04-04T10:31:49.257Z</time></trkpt><trkpt lat="36.9630562" lon="15.0374634"><ele>423.4</ele><time>2026-04-04T10:31:50.29Z</time></trkpt><trkpt lat="36.9629642" lon="15.0375574"><ele>422.6</ele><time>2026-04-04T10:31:51.261Z</time></trkpt><trkpt lat="36.9628811" lon="15.0376282"><ele>421.8</ele><time>2026-04-04T10:31:52.298Z</time></trkpt><trkpt lat="36.9627977" lon="15.0376846"><ele>421.0</ele><time>2026-04-04T10:31:53.32Z</time></trkpt><trkpt lat="36.9627269" lon="15.037725"><ele>420.4</ele><time>2026-04-04T10:31:54.291Z</time></trkpt><trkpt lat="36.962657" lon="15.0377781"><ele>419.8</ele><time>2026-04-04T10:31:55.297Z</time></trkpt><trkpt lat="36.9625715" lon="15.0378428"><ele>419.2</ele><time>2026-04-04T10:31:56.269Z</time></trkpt><trkpt lat="36.962464" lon="15.0379026"><ele>418.59999999999997</ele><time>2026-04-04T10:31:57.278Z</time></trkpt><trkpt lat="36.9623495" lon="15.0379576"><ele>418.0</ele><time>2026-04-04T10:31:58.298Z</time></trkpt><trkpt lat="36.962224" lon="15.0380084"><ele>417.25</ele><time>2026-04-04T10:31:59.291Z</time></trkpt><trkpt lat="36.9621016" lon="15.038055"><ele>416.5</ele><time>2026-04-04T10:32:00.312Z</time></trkpt><trkpt lat="36.9619881" lon="15.0380994"><ele>415.75</ele><time>2026-04-04T10:32:01.312Z</time></trkpt><trkpt lat="36.9618797" lon="15.0381528"><ele>415.0</ele><time>2026-04-04T10:32:02.321Z</time></trkpt><trkpt lat="36.9617675" lon="15.0382233"><ele>414.0</ele><time>2026-04-04T10:32:03.309Z</time></trkpt><trkpt lat="36.9616571" lon="15.0383011"><ele>413.0</ele><time>2026-04-04T10:32:04.313Z</time></trkpt><trkpt lat="36.9615384" lon="15.0383933"><ele>412.0</ele><time>2026-04-04T10:32:05.3Z</time></trkpt><trkpt lat="36.9614299" lon="15.0384859"><ele>411.0</ele><time>2026-04-04T10:32:06.299Z</time></trkpt><trkpt lat="36.9613256" lon="15.0385963"><ele>411.0</ele><time>2026-04-04T10:32:07.315Z</time></trkpt><trkpt lat="36.9612271" lon="15.0387064"><ele>411.0</ele><time>2026-04-04T10:32:08.315Z</time></trkpt><trkpt lat="36.9611398" lon="15.0388157"><ele>411.0</ele><time>2026-04-04T10:32:09.309Z</time></trkpt><trkpt lat="36.9610598" lon="15.038934"><ele>411.0</ele><time>2026-04-04T10:32:10.301Z</time></trkpt><trkpt lat="36.9609951" lon="15.0390421"><ele>411.0</ele><time>2026-04-04T10:32:11.319Z</time></trkpt><trkpt lat="36.9609516" lon="15.0391183"><ele>411.0</ele><time>2026-04-04T10:32:12.297Z</time></trkpt><trkpt lat="36.9609468" lon="15.0392569"><ele>411.0</ele><time>2026-04-04T10:32:14.316Z</time></trkpt><trkpt lat="36.9609653" lon="15.0393434"><ele>411.0</ele><time>2026-04-04T10:32:15.317Z</time></trkpt><trkpt lat="36.9609801" lon="15.0394407"><ele>411.0</ele><time>2026-04-04T10:32:16.378Z</time></trkpt><trkpt lat="36.9609791" lon="15.0395487"><ele>411.0</ele><time>2026-04-04T10:32:17.318Z</time></trkpt><trkpt lat="36.9609619" lon="15.0396702"><ele>410.5</ele><time>2026-04-04T10:32:18.318Z</time></trkpt><trkpt lat="36.9609341" lon="15.0398174"><ele>410.0</ele><time>2026-04-04T10:32:19.264Z</time></trkpt><trkpt lat="36.9609067" lon="15.0399789"><ele>409.5</ele><time>2026-04-04T10:32:20.284Z</time></trkpt><trkpt lat="36.9608897" lon="15.0401294"><ele>409.0</ele><time>2026-04-04T10:32:21.308Z</time></trkpt><trkpt lat="36.9608814" lon="15.0402648"><ele>408.4</ele><time>2026-04-04T10:32:22.304Z</time></trkpt><trkpt lat="36.96087" lon="15.0403994"><ele>407.79999999999995</ele><time>2026-04-04T10:32:23.305Z</time></trkpt><trkpt lat="36.9608616" lon="15.0405206"><ele>407.20000000000005</ele><time>2026-04-04T10:32:24.292Z</time></trkpt><trkpt lat="36.9608629" lon="15.0406395"><ele>406.6</ele><time>2026-04-04T10:32:25.307Z</time></trkpt><trkpt lat="36.9608279" lon="15.040761"><ele>406.0</ele><time>2026-04-04T10:32:27.31Z</time></trkpt><trkpt lat="36.960782" lon="15.0408752"><ele>406.0</ele><time>2026-04-04T10:32:29.274Z</time></trkpt><trkpt lat="36.9607486" lon="15.0409498"><ele>406.0</ele><time>2026-04-04T10:32:30.281Z</time></trkpt><trkpt lat="36.9607049" lon="15.0410196"><ele>406.0</ele><time>2026-04-04T10:32:31.293Z</time></trkpt><trkpt lat="36.9606515" lon="15.0410754"><ele>406.0</ele><time>2026-04-04T10:32:32.293Z</time></trkpt><trkpt lat="36.9605984" lon="15.0411287"><ele>406.0</ele><time>2026-04-04T10:32:33.305Z</time></trkpt><trkpt lat="36.960545" lon="15.0411788"><ele>406.0</ele><time>2026-04-04T10:32:34.312Z</time></trkpt><trkpt lat="36.9604922" lon="15.0412328"><ele>406.0</ele><time>2026-04-04T10:32:35.317Z</time></trkpt><trkpt lat="36.9603984" lon="15.041334"><ele>406.00000000000006</ele><time>2026-04-04T10:32:37.306Z</time></trkpt><trkpt lat="36.9603442" lon="15.0413811"><ele>406.0</ele><time>2026-04-04T10:32:38.3Z</time></trkpt><trkpt lat="36.9602866" lon="15.0414223"><ele>406.0</ele><time>2026-04-04T10:32:39.3Z</time></trkpt><trkpt lat="36.9602283" lon="15.0414648"><ele>406.0</ele><time>2026-04-04T10:32:40.296Z</time></trkpt><trkpt lat="36.9601744" lon="15.0415102"><ele>406.00000000000006</ele><time>2026-04-04T10:32:41.303Z</time></trkpt><trkpt lat="36.9600819" lon="15.0416207"><ele>406.0</ele><time>2026-04-04T10:32:43.302Z</time></trkpt><trkpt lat="36.9600386" lon="15.0416855"><ele>405.0</ele><time>2026-04-04T10:32:44.307Z</time></trkpt><trkpt lat="36.9599911" lon="15.0417468"><ele>404.0</ele><time>2026-04-04T10:32:45.301Z</time></trkpt><trkpt lat="36.9599213" lon="15.0418303"><ele>403.0</ele><time>2026-04-04T10:32:47.302Z</time></trkpt><trkpt lat="36.959865" lon="15.0419077"><ele>402.0</ele><time>2026-04-04T10:32:49.271Z</time></trkpt><trkpt lat="36.95979" lon="15.0419955"><ele>401.0</ele><time>2026-04-04T10:32:51.296Z</time></trkpt><trkpt lat="36.9597087" lon="15.042099"><ele>401.0</ele><time>2026-04-04T10:32:53.325Z</time></trkpt><trkpt lat="36.959613" lon="15.0421929"><ele>401.0</ele><time>2026-04-04T10:32:55.327Z</time></trkpt><trkpt lat="36.9595559" lon="15.042301"><ele>401.0</ele><time>2026-04-04T10:32:57.297Z</time></trkpt><trkpt lat="36.9595042" lon="15.0423681"><ele>401.0</ele><time>2026-04-04T10:32:59.282Z</time></trkpt><trkpt lat="36.9594398" lon="15.0424123"><ele>401.0</ele><time>2026-04-04T10:33:00.299Z</time></trkpt><trkpt lat="36.9593572" lon="15.0424545"><ele>399.49999999999994</ele><time>2026-04-04T10:33:01.296Z</time></trkpt><trkpt lat="36.9592817" lon="15.0424929"><ele>398.0</ele><time>2026-04-04T10:33:02.301Z</time></trkpt><trkpt lat="36.9592218" lon="15.0425365"><ele>396.5</ele><time>2026-04-04T10:33:03.296Z</time></trkpt><trkpt lat="36.9591398" lon="15.0426414"><ele>395.0</ele><time>2026-04-04T10:33:05.312Z</time></trkpt><trkpt lat="36.9590867" lon="15.0427072"><ele>393.49999999999994</ele><time>2026-04-04T10:33:07.304Z</time></trkpt><trkpt lat="36.9590008" lon="15.0427474"><ele>392.0</ele><time>2026-04-04T10:33:10.305Z</time></trkpt><trkpt lat="36.9589093" lon="15.0427445"><ele>390.57142857142856</ele><time>2026-04-04T10:33:12.298Z</time></trkpt><trkpt lat="36.9588246" lon="15.0427176"><ele>389.1428571428571</ele><time>2026-04-04T10:33:14.283Z</time></trkpt><trkpt lat="36.9587622" lon="15.0426965"><ele>387.7142857142857</ele><time>2026-04-04T10:33:16.278Z</time></trkpt><trkpt lat="36.9586814" lon="15.0427272"><ele>386.2857142857143</ele><time>2026-04-04T10:33:20.29Z</time></trkpt><trkpt lat="36.9586272" lon="15.0427675"><ele>384.85714285714283</ele><time>2026-04-04T10:33:23.318Z</time></trkpt><trkpt lat="36.9586063" lon="15.0428523"><ele>383.42857142857144</ele><time>2026-04-04T10:33:26.304Z</time></trkpt><trkpt lat="36.9585673" lon="15.042923"><ele>382.0</ele><time>2026-04-04T10:33:29.3Z</time></trkpt><trkpt lat="36.9585277" lon="15.0430425"><ele>382.0</ele><time>2026-04-04T10:33:31.292Z</time></trkpt><trkpt lat="36.9584837" lon="15.0431719"><ele>382.0</ele><time>2026-04-04T10:33:33.295Z</time></trkpt><trkpt lat="36.9584308" lon="15.0432896"><ele>382.0</ele><time>2026-04-04T10:33:35.304Z</time></trkpt><trkpt lat="36.958379" lon="15.0434071"><ele>382.0</ele><time>2026-04-04T10:33:37.31Z</time></trkpt><trkpt lat="36.958324" lon="15.043535"><ele>382.0</ele><time>2026-04-04T10:33:39.311Z</time></trkpt><trkpt lat="36.9582871" lon="15.0436026"><ele>381.7142857142857</ele><time>2026-04-04T10:33:40.302Z</time></trkpt><trkpt lat="36.9582494" lon="15.0436706"><ele>381.4285714285714</ele><time>2026-04-04T10:33:41.322Z</time></trkpt><trkpt lat="36.9582155" lon="15.0437536"><ele>381.1428571428571</ele><time>2026-04-04T10:33:42.296Z</time></trkpt><trkpt lat="36.9581772" lon="15.0438369"><ele>380.8571428571429</ele><time>2026-04-04T10:33:43.302Z</time></trkpt><trkpt lat="36.9581434" lon="15.0439266"><ele>380.57142857142856</ele><time>2026-04-04T10:33:44.313Z</time></trkpt><trkpt lat="36.9581288" lon="15.0440194"><ele>380.2857142857143</ele><time>2026-04-04T10:33:46.298Z</time></trkpt><trkpt lat="36.9580983" lon="15.0440918"><ele>380.0</ele><time>2026-04-04T10:33:49.325Z</time></trkpt><trkpt lat="36.958052" lon="15.0441466"><ele>380.0</ele><time>2026-04-04T10:33:51.298Z</time></trkpt><trkpt lat="36.9579751" lon="15.044196"><ele>380.0</ele><time>2026-04-04T10:33:54.299Z</time></trkpt><trkpt lat="36.957909" lon="15.0442329"><ele>380.0</ele><time>2026-04-04T10:33:56.313Z</time></trkpt><trkpt lat="36.957836" lon="15.0442721"><ele>380.0</ele><time>2026-04-04T10:33:58.282Z</time></trkpt><trkpt lat="36.9577626" lon="15.044307"><ele>380.0</ele><time>2026-04-04T10:34:01.292Z</time></trkpt><trkpt lat="36.9577091" lon="15.0443602"><ele>380.0</ele><time>2026-04-04T10:34:03.292Z</time></trkpt><trkpt lat="36.9576174" lon="15.0444146"><ele>378.4</ele><time>2026-04-04T10:34:05.304Z</time></trkpt><trkpt lat="36.9575143" lon="15.0444674"><ele>376.8</ele><time>2026-04-04T10:34:07.302Z</time></trkpt><trkpt lat="36.9574615" lon="15.0445174"><ele>375.20000000000005</ele><time>2026-04-04T10:34:08.297Z</time></trkpt><trkpt lat="36.9573881" lon="15.0446228"><ele>373.6</ele><time>2026-04-04T10:34:10.279Z</time></trkpt><trkpt lat="36.9573251" lon="15.0446962"><ele>372.0</ele><time>2026-04-04T10:34:12.319Z</time></trkpt><trkpt lat="36.9572407" lon="15.0447402"><ele>372.0</ele><time>2026-04-04T10:34:14.299Z</time></trkpt><trkpt lat="36.9571568" lon="15.0447772"><ele>372.0</ele><time>2026-04-04T10:34:16.291Z</time></trkpt><trkpt lat="36.9570615" lon="15.0448212"><ele>372.0</ele><time>2026-04-04T10:34:18.313Z</time></trkpt><trkpt lat="36.9569765" lon="15.0449041"><ele>372.0</ele><time>2026-04-04T10:34:20.321Z</time></trkpt><trkpt lat="36.9569091" lon="15.0449831"><ele>372.0</ele><time>2026-04-04T10:34:22.293Z</time></trkpt><trkpt lat="36.9568547" lon="15.0450782"><ele>371.8</ele><time>2026-04-04T10:34:24.305Z</time></trkpt><trkpt lat="36.9567854" lon="15.0452196"><ele>371.6</ele><time>2026-04-04T10:34:26.311Z</time></trkpt><trkpt lat="36.9567535" lon="15.0453061"><ele>371.40000000000003</ele><time>2026-04-04T10:34:27.313Z</time></trkpt><trkpt lat="36.9567237" lon="15.0453869"><ele>371.20000000000005</ele><time>2026-04-04T10:34:28.306Z</time></trkpt><trkpt lat="36.9566901" lon="15.0455003"><ele>371.0</ele><time>2026-04-04T10:34:30.302Z</time></trkpt><trkpt lat="36.9566296" lon="15.0455662"><ele>371.0</ele><time>2026-04-04T10:34:32.291Z</time></trkpt><trkpt lat="36.9565357" lon="15.0455808"><ele>371.0</ele><time>2026-04-04T10:34:35.299Z</time></trkpt><trkpt lat="36.9564667" lon="15.0455568"><ele>371.0</ele><time>2026-04-04T10:34:37.305Z</time></trkpt><trkpt lat="36.9564039" lon="15.0455024"><ele>371.0</ele><time>2026-04-04T10:34:39.304Z</time></trkpt><trkpt lat="36.9563325" lon="15.0454195"><ele>371.0</ele><time>2026-04-04T10:34:41.3Z</time></trkpt><trkpt lat="36.9562441" lon="15.0453204"><ele>371.0</ele><time>2026-04-04T10:34:43.327Z</time></trkpt><trkpt lat="36.956191" lon="15.0452722"><ele>371.0</ele><time>2026-04-04T10:34:44.32Z</time></trkpt><trkpt lat="36.9561217" lon="15.0452318"><ele>371.0</ele><time>2026-04-04T10:34:45.299Z</time></trkpt><trkpt lat="36.9560592" lon="15.0451894"><ele>371.0</ele><time>2026-04-04T10:34:46.304Z</time></trkpt><trkpt lat="36.9560038" lon="15.0451421"><ele>371.0</ele><time>2026-04-04T10:34:47.308Z</time></trkpt><trkpt lat="36.9559633" lon="15.0450695"><ele>371.0</ele><time>2026-04-04T10:34:48.281Z</time></trkpt><trkpt lat="36.9559272" lon="15.044968"><ele>371.0</ele><time>2026-04-04T10:34:49.312Z</time></trkpt><trkpt lat="36.9558939" lon="15.0448518"><ele>370.83333333333337</ele><time>2026-04-04T10:34:50.322Z</time></trkpt><trkpt lat="36.9558578" lon="15.0447461"><ele>370.6666666666667</ele><time>2026-04-04T10:34:51.301Z</time></trkpt><trkpt lat="36.9558309" lon="15.0446498"><ele>370.5</ele><time>2026-04-04T10:34:52.304Z</time></trkpt><trkpt lat="36.9558239" lon="15.0445707"><ele>370.3333333333333</ele><time>2026-04-04T10:34:53.333Z</time></trkpt><trkpt lat="36.955854" lon="15.0444428"><ele>370.16666666666663</ele><time>2026-04-04T10:34:55.273Z</time></trkpt><trkpt lat="36.9558862" lon="15.0443628"><ele>370.0</ele><time>2026-04-04T10:34:56.296Z</time></trkpt><trkpt lat="36.9559272" lon="15.0442779"><ele>370.0</ele><time>2026-04-04T10:34:57.289Z</time></trkpt><trkpt lat="36.9559702" lon="15.0441891"><ele>370.0</ele><time>2026-04-04T10:34:58.292Z</time></trkpt><trkpt lat="36.9560069" lon="15.0440855"><ele>370.0</ele><time>2026-04-04T10:34:59.301Z</time></trkpt><trkpt lat="36.9560467" lon="15.0439645"><ele>370.0</ele><time>2026-04-04T10:35:00.312Z</time></trkpt><trkpt lat="36.9560834" lon="15.0438426"><ele>370.0</ele><time>2026-04-04T10:35:01.285Z</time></trkpt><trkpt lat="36.9561137" lon="15.0437235"><ele>369.75</ele><time>2026-04-04T10:35:02.287Z</time></trkpt><trkpt lat="36.956122" lon="15.0435964"><ele>369.5</ele><time>2026-04-04T10:35:03.28Z</time></trkpt><trkpt lat="36.9561198" lon="15.0434558"><ele>369.25</ele><time>2026-04-04T10:35:04.29Z</time></trkpt><trkpt lat="36.956121" lon="15.0432956"><ele>369.0</ele><time>2026-04-04T10:35:05.304Z</time></trkpt><trkpt lat="36.9561362" lon="15.043134"><ele>369.79999999999995</ele><time>2026-04-04T10:35:06.303Z</time></trkpt><trkpt lat="36.9561449" lon="15.0429869"><ele>370.59999999999997</ele><time>2026-04-04T10:35:07.323Z</time></trkpt><trkpt lat="36.9561381" lon="15.0428563"><ele>371.4</ele><time>2026-04-04T10:35:08.33Z</time></trkpt><trkpt lat="36.9561097" lon="15.0427399"><ele>372.2</ele><time>2026-04-04T10:35:09.299Z</time></trkpt><trkpt lat="36.95607" lon="15.0426318"><ele>373.0</ele><time>2026-04-04T10:35:10.323Z</time></trkpt><trkpt lat="36.9560188" lon="15.0425321"><ele>373.66666666666663</ele><time>2026-04-04T10:35:11.321Z</time></trkpt><trkpt lat="36.9559596" lon="15.0424423"><ele>374.3333333333333</ele><time>2026-04-04T10:35:12.316Z</time></trkpt><trkpt lat="36.9558906" lon="15.0423646"><ele>375.0</ele><time>2026-04-04T10:35:13.322Z</time></trkpt><trkpt lat="36.9558106" lon="15.0423094"><ele>375.6666666666667</ele><time>2026-04-04T10:35:14.304Z</time></trkpt><trkpt lat="36.9557405" lon="15.0422811"><ele>376.33333333333337</ele><time>2026-04-04T10:35:15.264Z</time></trkpt><trkpt lat="36.9556674" lon="15.0422581"><ele>377.0</ele><time>2026-04-04T10:35:16.3Z</time></trkpt><trkpt lat="36.9556098" lon="15.0422203"><ele>377.0</ele><time>2026-04-04T10:35:17.327Z</time></trkpt><trkpt lat="36.955567" lon="15.042158"><ele>377.0</ele><time>2026-04-04T10:35:18.273Z</time></trkpt><trkpt lat="36.9555306" lon="15.0420701"><ele>377.0</ele><time>2026-04-04T10:35:19.302Z</time></trkpt><trkpt lat="36.9554984" lon="15.0419733"><ele>377.0</ele><time>2026-04-04T10:35:20.309Z</time></trkpt><trkpt lat="36.9554631" lon="15.0418634"><ele>377.0</ele><time>2026-04-04T10:35:21.322Z</time></trkpt><trkpt lat="36.9554186" lon="15.0417669"><ele>377.0</ele><time>2026-04-04T10:35:22.34Z</time></trkpt><trkpt lat="36.9553687" lon="15.0416835"><ele>377.5</ele><time>2026-04-04T10:35:23.324Z</time></trkpt><trkpt lat="36.9553253" lon="15.0415992"><ele>378.0</ele><time>2026-04-04T10:35:24.317Z</time></trkpt><trkpt lat="36.9552732" lon="15.0415217"><ele>378.5</ele><time>2026-04-04T10:35:25.268Z</time></trkpt><trkpt lat="36.9552282" lon="15.0414516"><ele>379.0</ele><time>2026-04-04T10:35:26.307Z</time></trkpt><trkpt lat="36.9551599" lon="15.041372"><ele>379.5</ele><time>2026-04-04T10:35:28.29Z</time></trkpt><trkpt lat="36.9550816" lon="15.0413947"><ele>380.0</ele><time>2026-04-04T10:35:31.261Z</time></trkpt><trkpt lat="36.955032" lon="15.0414665"><ele>376.25</ele><time>2026-04-04T10:35:32.282Z</time></trkpt><trkpt lat="36.9549702" lon="15.0415504"><ele>372.5</ele><time>2026-04-04T10:35:33.282Z</time></trkpt><trkpt lat="36.9548818" lon="15.0416456"><ele>368.75</ele><time>2026-04-04T10:35:34.305Z</time></trkpt><trkpt lat="36.9547803" lon="15.0417355"><ele>365.0</ele><time>2026-04-04T10:35:35.296Z</time></trkpt><trkpt lat="36.9546687" lon="15.0418344"><ele>364.6666666666667</ele><time>2026-04-04T10:35:36.298Z</time></trkpt><trkpt lat="36.9545454" lon="15.0419314"><ele>364.3333333333333</ele><time>2026-04-04T10:35:37.292Z</time></trkpt><trkpt lat="36.9544148" lon="15.0420442"><ele>364.0</ele><time>2026-04-04T10:35:38.289Z</time></trkpt><trkpt lat="36.9542774" lon="15.0421657"><ele>363.0</ele><time>2026-04-04T10:35:39.302Z</time></trkpt><trkpt lat="36.9541355" lon="15.0422865"><ele>362.0</ele><time>2026-04-04T10:35:40.298Z</time></trkpt><trkpt lat="36.954001" lon="15.0424212"><ele>361.0</ele><time>2026-04-04T10:35:41.297Z</time></trkpt><trkpt lat="36.9538786" lon="15.04257"><ele>361.0</ele><time>2026-04-04T10:35:42.293Z</time></trkpt><trkpt lat="36.9537662" lon="15.0427393"><ele>361.0</ele><time>2026-04-04T10:35:43.315Z</time></trkpt><trkpt lat="36.953662" lon="15.0429267"><ele>361.0</ele><time>2026-04-04T10:35:44.396Z</time></trkpt><trkpt lat="36.9535495" lon="15.0431009"><ele>361.0</ele><time>2026-04-04T10:35:45.297Z</time></trkpt><trkpt lat="36.953438" lon="15.043278"><ele>361.0</ele><time>2026-04-04T10:35:46.3Z</time></trkpt><trkpt lat="36.9533339" lon="15.0434459"><ele>361.0</ele><time>2026-04-04T10:35:47.306Z</time></trkpt><trkpt lat="36.9532344" lon="15.0436132"><ele>361.3333333333333</ele><time>2026-04-04T10:35:48.331Z</time></trkpt><trkpt lat="36.953132" lon="15.043776"><ele>361.6666666666667</ele><time>2026-04-04T10:35:49.321Z</time></trkpt><trkpt lat="36.9530377" lon="15.0439405"><ele>362.0</ele><time>2026-04-04T10:35:50.313Z</time></trkpt><trkpt lat="36.9529446" lon="15.0440952"><ele>361.33333333333337</ele><time>2026-04-04T10:35:51.306Z</time></trkpt><trkpt lat="36.952851" lon="15.0442513"><ele>360.6666666666667</ele><time>2026-04-04T10:35:52.311Z</time></trkpt><trkpt lat="36.9527584" lon="15.0444013"><ele>360.0</ele><time>2026-04-04T10:35:53.307Z</time></trkpt><trkpt lat="36.9526608" lon="15.0445477"><ele>360.0</ele><time>2026-04-04T10:35:54.311Z</time></trkpt><trkpt lat="36.9525761" lon="15.0446945"><ele>360.0</ele><time>2026-04-04T10:35:55.315Z</time></trkpt><trkpt lat="36.9524951" lon="15.0448245"><ele>360.0</ele><time>2026-04-04T10:35:56.291Z</time></trkpt><trkpt lat="36.9524202" lon="15.0449484"><ele>360.0</ele><time>2026-04-04T10:35:57.306Z</time></trkpt><trkpt lat="36.9523533" lon="15.0450703"><ele>360.6666666666667</ele><time>2026-04-04T10:35:58.314Z</time></trkpt><trkpt lat="36.9522976" lon="15.0451756"><ele>361.3333333333333</ele><time>2026-04-04T10:35:59.313Z</time></trkpt><trkpt lat="36.9522426" lon="15.0452459"><ele>362.0</ele><time>2026-04-04T10:36:01.301Z</time></trkpt><trkpt lat="36.952182" lon="15.0452118"><ele>362.66666666666663</ele><time>2026-04-04T10:36:03.321Z</time></trkpt><trkpt lat="36.952138" lon="15.0451519"><ele>363.3333333333333</ele><time>2026-04-04T10:36:04.306Z</time></trkpt><trkpt lat="36.9520973" lon="15.0450895"><ele>364.0</ele><time>2026-04-04T10:36:05.304Z</time></trkpt><trkpt lat="36.9520179" lon="15.0449717"><ele>364.4</ele><time>2026-04-04T10:36:07.275Z</time></trkpt><trkpt lat="36.9519512" lon="15.0448767"><ele>364.79999999999995</ele><time>2026-04-04T10:36:09.285Z</time></trkpt><trkpt lat="36.9519259" lon="15.0447914"><ele>365.20000000000005</ele><time>2026-04-04T10:36:11.276Z</time></trkpt><trkpt lat="36.9519779" lon="15.0446467"><ele>365.6</ele><time>2026-04-04T10:36:13.261Z</time></trkpt><trkpt lat="36.9520303" lon="15.0445227"><ele>366.0</ele><time>2026-04-04T10:36:14.293Z</time></trkpt><trkpt lat="36.9520571" lon="15.0444208"><ele>366.0</ele><time>2026-04-04T10:36:15.319Z</time></trkpt><trkpt lat="36.9520481" lon="15.0443232"><ele>366.0</ele><time>2026-04-04T10:36:16.304Z</time></trkpt><trkpt lat="36.9520114" lon="15.0442263"><ele>366.0</ele><time>2026-04-04T10:36:17.305Z</time></trkpt><trkpt lat="36.9519543" lon="15.0441591"><ele>366.0</ele><time>2026-04-04T10:36:18.289Z</time></trkpt><trkpt lat="36.9518207" lon="15.0441333"><ele>366.0</ele><time>2026-04-04T10:36:20.302Z</time></trkpt><trkpt lat="36.9517488" lon="15.0441148"><ele>366.0</ele><time>2026-04-04T10:36:21.316Z</time></trkpt><trkpt lat="36.9516384" lon="15.0440662"><ele>366.0</ele><time>2026-04-04T10:36:23.296Z</time></trkpt><trkpt lat="36.9516091" lon="15.0439799"><ele>366.0</ele><time>2026-04-04T10:36:27.292Z</time></trkpt><trkpt lat="36.9516417" lon="15.043912"><ele>366.0</ele><time>2026-04-04T10:36:29.297Z</time></trkpt><trkpt lat="36.9516841" lon="15.0438312"><ele>366.0</ele><time>2026-04-04T10:36:32.286Z</time></trkpt><trkpt lat="36.9517351" lon="15.0437612"><ele>366.0</ele><time>2026-04-04T10:36:36.3Z</time></trkpt><trkpt lat="36.9517705" lon="15.0436808"><ele>366.0</ele><time>2026-04-04T10:36:40.29Z</time></trkpt><trkpt lat="36.9518159" lon="15.0435958"><ele>366.0</ele><time>2026-04-04T10:36:57.309Z</time></trkpt><trkpt lat="36.9517787" lon="15.0435116"><ele>366.0</ele><time>2026-04-04T10:37:02.31Z</time></trkpt><trkpt lat="36.9517029" lon="15.0434933"><ele>366.0</ele><time>2026-04-04T10:37:05.293Z</time></trkpt><trkpt lat="36.9516393" lon="15.0434632"><ele>366.0</ele><time>2026-04-04T10:37:43.302Z</time></trkpt><trkpt lat="36.9515714" lon="15.0434691"><ele>366.0</ele><time>2026-04-04T10:37:45.295Z</time></trkpt><trkpt lat="36.9514763" lon="15.0434717"><ele>365.20000000000005</ele><time>2026-04-04T10:37:48.297Z</time></trkpt><trkpt lat="36.9513911" lon="15.0434506"><ele>364.40000000000003</ele><time>2026-04-04T10:37:51.312Z</time></trkpt><trkpt lat="36.9513311" lon="15.0433341"><ele>363.6</ele><time>2026-04-04T10:37:53.302Z</time></trkpt><trkpt lat="36.9512875" lon="15.0432045"><ele>362.8</ele><time>2026-04-04T10:37:55.308Z</time></trkpt><trkpt lat="36.9512718" lon="15.0430969"><ele>362.0</ele><time>2026-04-04T10:37:57.324Z</time></trkpt><trkpt lat="36.9512494" lon="15.043001"><ele>361.6666666666667</ele><time>2026-04-04T10:38:00.292Z</time></trkpt><trkpt lat="36.951277" lon="15.0429258"><ele>361.33333333333337</ele><time>2026-04-04T10:38:09.288Z</time></trkpt><trkpt lat="36.9513039" lon="15.0428281"><ele>361.0</ele><time>2026-04-04T10:39:09.303Z</time></trkpt><trkpt lat="36.9512645" lon="15.0427611"><ele>360.6666666666667</ele><time>2026-04-04T10:39:11.37Z</time></trkpt><trkpt lat="36.9511984" lon="15.0428393"><ele>360.3333333333333</ele><time>2026-04-04T10:39:14.294Z</time></trkpt><trkpt lat="36.9511778" lon="15.0429366"><ele>360.0</ele><time>2026-04-04T10:39:16.302Z</time></trkpt><trkpt lat="36.9510918" lon="15.0429482"><ele>360.0</ele><time>2026-04-04T10:39:19.305Z</time></trkpt><trkpt lat="36.9510339" lon="15.0429826"><ele>360.0</ele><time>2026-04-04T10:39:21.294Z</time></trkpt><trkpt lat="36.9509765" lon="15.0430253"><ele>360.0</ele><time>2026-04-04T10:39:24.309Z</time></trkpt><trkpt lat="36.9509576" lon="15.0431065"><ele>360.0</ele><time>2026-04-04T10:39:49.313Z</time></trkpt><trkpt lat="36.9509817" lon="15.0432019"><ele>360.0</ele><time>2026-04-04T10:39:53.29Z</time></trkpt><trkpt lat="36.9509617" lon="15.0432849"><ele>360.0</ele><time>2026-04-04T10:40:02.31Z</time></trkpt><trkpt lat="36.9509644" lon="15.0433918"><ele>360.0</ele><time>2026-04-04T10:40:07.296Z</time></trkpt><trkpt lat="36.9509261" lon="15.0434632"><ele>360.3333333333333</ele><time>2026-04-04T10:40:09.293Z</time></trkpt><trkpt lat="36.9508767" lon="15.043524"><ele>360.6666666666667</ele><time>2026-04-04T10:40:17.305Z</time></trkpt><trkpt lat="36.9508883" lon="15.043631"><ele>361.0</ele><time>2026-04-04T10:40:25.307Z</time></trkpt><trkpt lat="36.9508513" lon="15.0437069"><ele>361.33333333333337</ele><time>2026-04-04T10:40:32.299Z</time></trkpt><trkpt lat="36.950884" lon="15.0437775"><ele>361.6666666666667</ele><time>2026-04-04T10:40:47.3Z</time></trkpt><trkpt lat="36.950907" lon="15.0438717"><ele>362.0</ele><time>2026-04-04T10:40:54.3Z</time></trkpt><trkpt lat="36.9508671" lon="15.0439761"><ele>362.1666666666667</ele><time>2026-04-04T10:40:57.297Z</time></trkpt><trkpt lat="36.9507939" lon="15.0440206"><ele>362.33333333333337</ele><time>2026-04-04T10:41:12.305Z</time></trkpt><trkpt lat="36.9507396" lon="15.0440817"><ele>362.5</ele><time>2026-04-04T10:41:14.338Z</time></trkpt><trkpt lat="36.9507615" lon="15.0441922"><ele>362.6666666666667</ele><time>2026-04-04T10:41:18.304Z</time></trkpt><trkpt lat="36.9508135" lon="15.0442804"><ele>362.8333333333333</ele><time>2026-04-04T10:41:20.299Z</time></trkpt><trkpt lat="36.9508473" lon="15.0443674"><ele>363.0</ele><time>2026-04-04T10:41:22.299Z</time></trkpt><trkpt lat="36.9508952" lon="15.0444348"><ele>363.0</ele><time>2026-04-04T10:41:26.3Z</time></trkpt><trkpt lat="36.9509702" lon="15.0444498"><ele>363.0</ele><time>2026-04-04T10:41:29.286Z</time></trkpt><trkpt lat="36.9510293" lon="15.0443933"><ele>363.0</ele><time>2026-04-04T10:41:34.304Z</time></trkpt><trkpt lat="36.9510456" lon="15.0443172"><ele>363.0</ele><time>2026-04-04T10:41:36.313Z</time></trkpt><trkpt lat="36.9510694" lon="15.044224"><ele>363.0</ele><time>2026-04-04T10:41:38.294Z</time></trkpt><trkpt lat="36.951158" lon="15.0442209"><ele>363.0</ele><time>2026-04-04T10:41:42.296Z</time></trkpt><trkpt lat="36.9512341" lon="15.0442707"><ele>362.99999999999994</ele><time>2026-04-04T10:41:44.318Z</time></trkpt><trkpt lat="36.9512858" lon="15.0443169"><ele>363.0</ele><time>2026-04-04T10:41:58.311Z</time></trkpt><trkpt lat="36.9513301" lon="15.0443831"><ele>363.0</ele><time>2026-04-04T10:42:00.301Z</time></trkpt><trkpt lat="36.9513486" lon="15.0444623"><ele>363.0</ele><time>2026-04-04T10:42:26.317Z</time></trkpt><trkpt lat="36.9513641" lon="15.0445547"><ele>363.0</ele><time>2026-04-04T10:42:29.313Z</time></trkpt><trkpt lat="36.9513028" lon="15.0446012"><ele>362.99999999999994</ele><time>2026-04-04T10:42:31.3Z</time></trkpt><trkpt lat="36.9512445" lon="15.044663"><ele>363.0</ele><time>2026-04-04T10:42:38.284Z</time></trkpt><trkpt lat="36.9511858" lon="15.0447269"><ele>363.0</ele><time>2026-04-04T10:42:41.29Z</time></trkpt><trkpt lat="36.9511065" lon="15.0447564"><ele>363.0</ele><time>2026-04-04T10:42:43.29Z</time></trkpt><trkpt lat="36.9509869" lon="15.0447249"><ele>363.0</ele><time>2026-04-04T10:42:45.284Z</time></trkpt><trkpt lat="36.9508849" lon="15.0447201"><ele>363.0</ele><time>2026-04-04T10:42:47.317Z</time></trkpt><trkpt lat="36.9507728" lon="15.0447794"><ele>363.0</ele><time>2026-04-04T10:42:49.3Z</time></trkpt><trkpt lat="36.9506633" lon="15.0448404"><ele>362.1666666666667</ele><time>2026-04-04T10:42:51.281Z</time></trkpt><trkpt lat="36.9505915" lon="15.0448659"><ele>361.3333333333333</ele><time>2026-04-04T10:42:52.319Z</time></trkpt><trkpt lat="36.9505121" lon="15.0448953"><ele>360.5</ele><time>2026-04-04T10:42:53.328Z</time></trkpt><trkpt lat="36.9504281" lon="15.0449257"><ele>359.66666666666663</ele><time>2026-04-04T10:42:54.314Z</time></trkpt><trkpt lat="36.9503594" lon="15.0449669"><ele>358.8333333333333</ele><time>2026-04-04T10:42:55.307Z</time></trkpt><trkpt lat="36.9502976" lon="15.0450072"><ele>358.0</ele><time>2026-04-04T10:42:56.315Z</time></trkpt><trkpt lat="36.95023" lon="15.0450428"><ele>358.0</ele><time>2026-04-04T10:42:57.302Z</time></trkpt><trkpt lat="36.9501655" lon="15.045066"><ele>358.0</ele><time>2026-04-04T10:42:58.29Z</time></trkpt><trkpt lat="36.9500851" lon="15.0451156"><ele>358.0</ele><time>2026-04-04T10:43:00.301Z</time></trkpt><trkpt lat="36.9500313" lon="15.045235"><ele>358.0</ele><time>2026-04-04T10:43:02.308Z</time></trkpt><trkpt lat="36.9499489" lon="15.045331"><ele>358.0</ele><time>2026-04-04T10:43:04.273Z</time></trkpt><trkpt lat="36.9498814" lon="15.0453716"><ele>356.2</ele><time>2026-04-04T10:43:06.31Z</time></trkpt><trkpt lat="36.9498202" lon="15.0453357"><ele>354.4</ele><time>2026-04-04T10:43:08.307Z</time></trkpt><trkpt lat="36.9497649" lon="15.045281"><ele>352.59999999999997</ele><time>2026-04-04T10:43:10.295Z</time></trkpt><trkpt lat="36.949814" lon="15.045159"><ele>350.79999999999995</ele><time>2026-04-04T10:43:13.278Z</time></trkpt><trkpt lat="36.9498839" lon="15.045031"><ele>349.0</ele><time>2026-04-04T10:43:15.27Z</time></trkpt><trkpt lat="36.9499624" lon="15.0448974"><ele>348.6</ele><time>2026-04-04T10:43:17.304Z</time></trkpt><trkpt lat="36.9500105" lon="15.0448069"><ele>348.2</ele><time>2026-04-04T10:43:18.287Z</time></trkpt><trkpt lat="36.950033" lon="15.0446985"><ele>347.8</ele><time>2026-04-04T10:43:19.283Z</time></trkpt><trkpt lat="36.9500405" lon="15.0445731"><ele>347.40000000000003</ele><time>2026-04-04T10:43:20.295Z</time></trkpt><trkpt lat="36.9500411" lon="15.0444424"><ele>347.0</ele><time>2026-04-04T10:43:21.307Z</time></trkpt><trkpt lat="36.9500405" lon="15.044327"><ele>347.0</ele><time>2026-04-04T10:43:22.301Z</time></trkpt><trkpt lat="36.9500424" lon="15.0442121"><ele>347.0</ele><time>2026-04-04T10:43:23.298Z</time></trkpt><trkpt lat="36.9500465" lon="15.0440955"><ele>347.0</ele><time>2026-04-04T10:43:24.277Z</time></trkpt><trkpt lat="36.9500493" lon="15.0439805"><ele>347.0</ele><time>2026-04-04T10:43:25.31Z</time></trkpt><trkpt lat="36.9500456" lon="15.0438635"><ele>347.0</ele><time>2026-04-04T10:43:26.309Z</time></trkpt><trkpt lat="36.9500385" lon="15.0437414"><ele>346.75</ele><time>2026-04-04T10:43:27.309Z</time></trkpt><trkpt lat="36.9500319" lon="15.0436041"><ele>346.5</ele><time>2026-04-04T10:43:28.307Z</time></trkpt><trkpt lat="36.9500282" lon="15.0434491"><ele>346.25</ele><time>2026-04-04T10:43:29.285Z</time></trkpt><trkpt lat="36.950032" lon="15.0432908"><ele>346.0</ele><time>2026-04-04T10:43:30.319Z</time></trkpt><trkpt lat="36.9500441" lon="15.0431194"><ele>347.25</ele><time>2026-04-04T10:43:31.296Z</time></trkpt><trkpt lat="36.9500549" lon="15.0429523"><ele>348.5</ele><time>2026-04-04T10:43:32.311Z</time></trkpt><trkpt lat="36.9500669" lon="15.0427763"><ele>349.75</ele><time>2026-04-04T10:43:33.29Z</time></trkpt><trkpt lat="36.9500803" lon="15.0425991"><ele>351.0</ele><time>2026-04-04T10:43:34.28Z</time></trkpt><trkpt lat="36.950098" lon="15.0424229"><ele>351.0</ele><time>2026-04-04T10:43:35.301Z</time></trkpt><trkpt lat="36.9501124" lon="15.0422437"><ele>351.0</ele><time>2026-04-04T10:43:36.274Z</time></trkpt><trkpt lat="36.9501257" lon="15.0420587"><ele>351.0</ele><time>2026-04-04T10:43:37.293Z</time></trkpt><trkpt lat="36.950139" lon="15.0418778"><ele>351.0</ele><time>2026-04-04T10:43:38.291Z</time></trkpt><trkpt lat="36.9501487" lon="15.0416965"><ele>351.3333333333333</ele><time>2026-04-04T10:43:39.317Z</time></trkpt><trkpt lat="36.9501474" lon="15.0415055"><ele>351.66666666666663</ele><time>2026-04-04T10:43:40.295Z</time></trkpt><trkpt lat="36.9501402" lon="15.0412978"><ele>352.0</ele><time>2026-04-04T10:43:41.308Z</time></trkpt><trkpt lat="36.950133" lon="15.0410922"><ele>352.0</ele><time>2026-04-04T10:43:42.306Z</time></trkpt><trkpt lat="36.9501285" lon="15.0408904"><ele>352.0</ele><time>2026-04-04T10:43:43.291Z</time></trkpt><trkpt lat="36.9501176" lon="15.0407026"><ele>352.0</ele><time>2026-04-04T10:43:44.315Z</time></trkpt><trkpt lat="36.9500847" lon="15.0405262"><ele>351.0</ele><time>2026-04-04T10:43:45.295Z</time></trkpt><trkpt lat="36.9500216" lon="15.0403437"><ele>350.0</ele><time>2026-04-04T10:43:46.292Z</time></trkpt><trkpt lat="36.9499456" lon="15.0401575"><ele>349.0</ele><time>2026-04-04T10:43:47.304Z</time></trkpt><trkpt lat="36.9498613" lon="15.0399796"><ele>348.25</ele><time>2026-04-04T10:43:48.316Z</time></trkpt><trkpt lat="36.9497815" lon="15.03982"><ele>347.5</ele><time>2026-04-04T10:43:49.299Z</time></trkpt><trkpt lat="36.9497214" lon="15.03968"><ele>346.75</ele><time>2026-04-04T10:43:50.324Z</time></trkpt><trkpt lat="36.9496749" lon="15.0395682"><ele>346.0</ele><time>2026-04-04T10:43:51.34Z</time></trkpt><trkpt lat="36.9496483" lon="15.0394815"><ele>346.0</ele><time>2026-04-04T10:43:52.318Z</time></trkpt><trkpt lat="36.9496653" lon="15.0393237"><ele>346.0</ele><time>2026-04-04T10:43:54.302Z</time></trkpt><trkpt lat="36.9496943" lon="15.0392214"><ele>346.0</ele><time>2026-04-04T10:43:55.309Z</time></trkpt><trkpt lat="36.9497039" lon="15.0391039"><ele>346.0</ele><time>2026-04-04T10:43:56.302Z</time></trkpt><trkpt lat="36.9497001" lon="15.0389967"><ele>346.0</ele><time>2026-04-04T10:43:57.312Z</time></trkpt><trkpt lat="36.94969" lon="15.0389061"><ele>346.4</ele><time>2026-04-04T10:43:58.313Z</time></trkpt><trkpt lat="36.9496122" lon="15.0388403"><ele>346.8</ele><time>2026-04-04T10:44:00.298Z</time></trkpt><trkpt lat="36.9495374" lon="15.0388552"><ele>347.2</ele><time>2026-04-04T10:44:01.306Z</time></trkpt><trkpt lat="36.9494403" lon="15.0388812"><ele>347.59999999999997</ele><time>2026-04-04T10:44:02.282Z</time></trkpt><trkpt lat="36.9493307" lon="15.0388817"><ele>348.0</ele><time>2026-04-04T10:44:03.313Z</time></trkpt><trkpt lat="36.9492001" lon="15.0388538"><ele>346.6666666666667</ele><time>2026-04-04T10:44:04.288Z</time></trkpt><trkpt lat="36.9490605" lon="15.038798"><ele>345.33333333333337</ele><time>2026-04-04T10:44:05.288Z</time></trkpt><trkpt lat="36.9489065" lon="15.0387428"><ele>344.0</ele><time>2026-04-04T10:44:06.314Z</time></trkpt><trkpt lat="36.9487553" lon="15.0386956"><ele>344.0</ele><time>2026-04-04T10:44:07.296Z</time></trkpt><trkpt lat="36.9486077" lon="15.0386622"><ele>344.0</ele><time>2026-04-04T10:44:08.308Z</time></trkpt><trkpt lat="36.9484543" lon="15.0386362"><ele>344.0</ele><time>2026-04-04T10:44:09.304Z</time></trkpt><trkpt lat="36.948298" lon="15.0386243"><ele>344.0</ele><time>2026-04-04T10:44:10.297Z</time></trkpt><trkpt lat="36.9481505" lon="15.038631"><ele>344.0</ele><time>2026-04-04T10:44:11.313Z</time></trkpt><trkpt lat="36.9480266" lon="15.0386547"><ele>344.0</ele><time>2026-04-04T10:44:12.302Z</time></trkpt><trkpt lat="36.947898" lon="15.0386959"><ele>344.0</ele><time>2026-04-04T10:44:13.301Z</time></trkpt><trkpt lat="36.9477526" lon="15.0387587"><ele>344.0</ele><time>2026-04-04T10:44:14.318Z</time></trkpt><trkpt lat="36.9476107" lon="15.0388228"><ele>344.0</ele><time>2026-04-04T10:44:15.302Z</time></trkpt><trkpt lat="36.9474842" lon="15.03892"><ele>344.0</ele><time>2026-04-04T10:44:16.305Z</time></trkpt><trkpt lat="36.9473607" lon="15.039038"><ele>342.33333333333337</ele><time>2026-04-04T10:44:17.312Z</time></trkpt><trkpt lat="36.9472292" lon="15.0391532"><ele>340.6666666666667</ele><time>2026-04-04T10:44:18.304Z</time></trkpt><trkpt lat="36.9470886" lon="15.0392365"><ele>339.0</ele><time>2026-04-04T10:44:19.309Z</time></trkpt><trkpt lat="36.9469282" lon="15.0393203"><ele>339.0</ele><time>2026-04-04T10:44:20.302Z</time></trkpt><trkpt lat="36.946768" lon="15.0393969"><ele>339.0</ele><time>2026-04-04T10:44:21.308Z</time></trkpt><trkpt lat="36.9466039" lon="15.0394896"><ele>339.0</ele><time>2026-04-04T10:44:22.306Z</time></trkpt><trkpt lat="36.9464424" lon="15.0395856"><ele>342.6666666666667</ele><time>2026-04-04T10:44:23.314Z</time></trkpt><trkpt lat="36.9462722" lon="15.0396898"><ele>346.33333333333337</ele><time>2026-04-04T10:44:24.294Z</time></trkpt><trkpt lat="36.9461078" lon="15.0397997"><ele>350.0</ele><time>2026-04-04T10:44:25.303Z</time></trkpt><trkpt lat="36.9459491" lon="15.0399204"><ele>350.33333333333337</ele><time>2026-04-04T10:44:26.318Z</time></trkpt><trkpt lat="36.9458023" lon="15.0400573"><ele>350.6666666666667</ele><time>2026-04-04T10:44:27.295Z</time></trkpt><trkpt lat="36.9456502" lon="15.0402011"><ele>351.0</ele><time>2026-04-04T10:44:28.315Z</time></trkpt><trkpt lat="36.9454951" lon="15.0403464"><ele>351.0</ele><time>2026-04-04T10:44:29.315Z</time></trkpt><trkpt lat="36.9453337" lon="15.0404789"><ele>351.0</ele><time>2026-04-04T10:44:30.318Z</time></trkpt><trkpt lat="36.9451735" lon="15.0406138"><ele>351.0</ele><time>2026-04-04T10:44:31.297Z</time></trkpt><trkpt lat="36.9450221" lon="15.0407619"><ele>350.3333333333333</ele><time>2026-04-04T10:44:32.312Z</time></trkpt><trkpt lat="36.9448672" lon="15.0409198"><ele>349.66666666666663</ele><time>2026-04-04T10:44:33.312Z</time></trkpt><trkpt lat="36.9447124" lon="15.0411024"><ele>349.0</ele><time>2026-04-04T10:44:34.3Z</time></trkpt><trkpt lat="36.9445555" lon="15.0413034"><ele>349.0</ele><time>2026-04-04T10:44:35.293Z</time></trkpt><trkpt lat="36.9444044" lon="15.0414986"><ele>349.0</ele><time>2026-04-04T10:44:36.31Z</time></trkpt><trkpt lat="36.9442717" lon="15.0416704"><ele>349.0</ele><time>2026-04-04T10:44:37.311Z</time></trkpt><trkpt lat="36.9441303" lon="15.0418111"><ele>347.3333333333333</ele><time>2026-04-04T10:44:38.313Z</time></trkpt><trkpt lat="36.9439734" lon="15.0419396"><ele>345.6666666666667</ele><time>2026-04-04T10:44:39.317Z</time></trkpt><trkpt lat="36.9438101" lon="15.0420483"><ele>344.0</ele><time>2026-04-04T10:44:40.309Z</time></trkpt><trkpt lat="36.9436547" lon="15.0421501"><ele>344.0</ele><time>2026-04-04T10:44:41.302Z</time></trkpt><trkpt lat="36.9435054" lon="15.0422473"><ele>344.0</ele><time>2026-04-04T10:44:42.286Z</time></trkpt><trkpt lat="36.9433681" lon="15.0423421"><ele>344.0</ele><time>2026-04-04T10:44:43.304Z</time></trkpt><trkpt lat="36.9432356" lon="15.0424311"><ele>343.0</ele><time>2026-04-04T10:44:44.298Z</time></trkpt><trkpt lat="36.943101" lon="15.0425324"><ele>342.0</ele><time>2026-04-04T10:44:45.313Z</time></trkpt><trkpt lat="36.9429704" lon="15.0426533"><ele>341.0</ele><time>2026-04-04T10:44:46.31Z</time></trkpt><trkpt lat="36.9428499" lon="15.0427858"><ele>341.0</ele><time>2026-04-04T10:44:47.313Z</time></trkpt><trkpt lat="36.942742" lon="15.0429474"><ele>341.0</ele><time>2026-04-04T10:44:48.313Z</time></trkpt><trkpt lat="36.9426421" lon="15.0431225"><ele>341.0</ele><time>2026-04-04T10:44:49.303Z</time></trkpt><trkpt lat="36.9425507" lon="15.0433196"><ele>341.0</ele><time>2026-04-04T10:44:50.297Z</time></trkpt><trkpt lat="36.9424748" lon="15.0435209"><ele>341.0</ele><time>2026-04-04T10:44:51.31Z</time></trkpt><trkpt lat="36.9423986" lon="15.043727"><ele>341.0</ele><time>2026-04-04T10:44:52.32Z</time></trkpt><trkpt lat="36.942313" lon="15.043937"><ele>339.33333333333337</ele><time>2026-04-04T10:44:53.326Z</time></trkpt><trkpt lat="36.9422134" lon="15.0441415"><ele>337.6666666666667</ele><time>2026-04-04T10:44:54.31Z</time></trkpt><trkpt lat="36.9420941" lon="15.0443391"><ele>336.0</ele><time>2026-04-04T10:44:55.323Z</time></trkpt><trkpt lat="36.9419673" lon="15.0445138"><ele>336.0</ele><time>2026-04-04T10:44:56.327Z</time></trkpt><trkpt lat="36.9418518" lon="15.0446766"><ele>336.0</ele><time>2026-04-04T10:44:57.304Z</time></trkpt><trkpt lat="36.9417328" lon="15.0448436"><ele>336.0</ele><time>2026-04-04T10:44:58.323Z</time></trkpt><trkpt lat="36.9416009" lon="15.0449958"><ele>336.6666666666667</ele><time>2026-04-04T10:44:59.272Z</time></trkpt><trkpt lat="36.9414676" lon="15.0451292"><ele>337.33333333333337</ele><time>2026-04-04T10:45:00.324Z</time></trkpt><trkpt lat="36.9413224" lon="15.0452555"><ele>338.0</ele><time>2026-04-04T10:45:01.304Z</time></trkpt><trkpt lat="36.9411799" lon="15.0453593"><ele>338.0</ele><time>2026-04-04T10:45:02.326Z</time></trkpt><trkpt lat="36.9410458" lon="15.0454594"><ele>338.0</ele><time>2026-04-04T10:45:03.307Z</time></trkpt><trkpt lat="36.940903" lon="15.0455394"><ele>338.0</ele><time>2026-04-04T10:45:04.318Z</time></trkpt><trkpt lat="36.9407546" lon="15.0456015"><ele>340.6666666666667</ele><time>2026-04-04T10:45:05.308Z</time></trkpt><trkpt lat="36.9405948" lon="15.0456503"><ele>343.3333333333333</ele><time>2026-04-04T10:45:06.3Z</time></trkpt><trkpt lat="36.9404321" lon="15.0456974"><ele>346.0</ele><time>2026-04-04T10:45:07.283Z</time></trkpt><trkpt lat="36.9402642" lon="15.0457526"><ele>344.0</ele><time>2026-04-04T10:45:08.311Z</time></trkpt><trkpt lat="36.9400974" lon="15.0458225"><ele>342.0</ele><time>2026-04-04T10:45:09.318Z</time></trkpt><trkpt lat="36.9399262" lon="15.0458991"><ele>340.0</ele><time>2026-04-04T10:45:10.301Z</time></trkpt><trkpt lat="36.9397543" lon="15.045978"><ele>340.0</ele><time>2026-04-04T10:45:11.302Z</time></trkpt><trkpt lat="36.9395872" lon="15.0460583"><ele>340.0</ele><time>2026-04-04T10:45:12.312Z</time></trkpt><trkpt lat="36.9394316" lon="15.0461359"><ele>340.0</ele><time>2026-04-04T10:45:13.302Z</time></trkpt><trkpt lat="36.9392857" lon="15.0461955"><ele>341.66666666666663</ele><time>2026-04-04T10:45:14.294Z</time></trkpt><trkpt lat="36.9391399" lon="15.0462308"><ele>343.3333333333333</ele><time>2026-04-04T10:45:15.299Z</time></trkpt><trkpt lat="36.9389722" lon="15.0462504"><ele>345.0</ele><time>2026-04-04T10:45:16.32Z</time></trkpt><trkpt lat="36.9387949" lon="15.0462771"><ele>345.0</ele><time>2026-04-04T10:45:17.326Z</time></trkpt><trkpt lat="36.938621" lon="15.0463162"><ele>345.0</ele><time>2026-04-04T10:45:18.309Z</time></trkpt><trkpt lat="36.9384489" lon="15.0463613"><ele>345.0</ele><time>2026-04-04T10:45:19.323Z</time></trkpt><trkpt lat="36.938308" lon="15.0463925"><ele>344.6</ele><time>2026-04-04T10:45:20.308Z</time></trkpt><trkpt lat="36.9381849" lon="15.046416"><ele>344.2</ele><time>2026-04-04T10:45:21.305Z</time></trkpt><trkpt lat="36.9380685" lon="15.046419"><ele>343.79999999999995</ele><time>2026-04-04T10:45:22.293Z</time></trkpt><trkpt lat="36.9379634" lon="15.0464057"><ele>343.4</ele><time>2026-04-04T10:45:23.263Z</time></trkpt><trkpt lat="36.9378705" lon="15.0463862"><ele>343.0</ele><time>2026-04-04T10:45:24.313Z</time></trkpt><trkpt lat="36.9377856" lon="15.0463828"><ele>343.0</ele><time>2026-04-04T10:45:25.293Z</time></trkpt><trkpt lat="36.9377186" lon="15.0464193"><ele>343.0</ele><time>2026-04-04T10:45:26.273Z</time></trkpt><trkpt lat="36.9376529" lon="15.0464914"><ele>343.0</ele><time>2026-04-04T10:45:27.262Z</time></trkpt><trkpt lat="36.9375767" lon="15.0465958"><ele>343.0</ele><time>2026-04-04T10:45:28.267Z</time></trkpt><trkpt lat="36.9374877" lon="15.0467069"><ele>343.0</ele><time>2026-04-04T10:45:29.265Z</time></trkpt><trkpt lat="36.9373647" lon="15.0468141"><ele>341.25</ele><time>2026-04-04T10:45:30.292Z</time></trkpt><trkpt lat="36.9372461" lon="15.0469033"><ele>339.5</ele><time>2026-04-04T10:45:31.294Z</time></trkpt><trkpt lat="36.9371329" lon="15.0469921"><ele>337.75</ele><time>2026-04-04T10:45:32.296Z</time></trkpt><trkpt lat="36.9370201" lon="15.0470929"><ele>336.0</ele><time>2026-04-04T10:45:33.298Z</time></trkpt><trkpt lat="36.936915" lon="15.0472047"><ele>336.0</ele><time>2026-04-04T10:45:34.299Z</time></trkpt><trkpt lat="36.9368034" lon="15.0473148"><ele>336.0</ele><time>2026-04-04T10:45:35.302Z</time></trkpt><trkpt lat="36.9367012" lon="15.0474312"><ele>336.0</ele><time>2026-04-04T10:45:36.29Z</time></trkpt><trkpt lat="36.9366107" lon="15.0475615"><ele>336.0</ele><time>2026-04-04T10:45:37.307Z</time></trkpt><trkpt lat="36.93651" lon="15.0477221"><ele>333.3333333333333</ele><time>2026-04-04T10:45:38.288Z</time></trkpt><trkpt lat="36.9364087" lon="15.0478995"><ele>330.66666666666663</ele><time>2026-04-04T10:45:39.294Z</time></trkpt><trkpt lat="36.9363045" lon="15.0480762"><ele>328.0</ele><time>2026-04-04T10:45:40.296Z</time></trkpt><trkpt lat="36.9362079" lon="15.0482426"><ele>328.0</ele><time>2026-04-04T10:45:41.299Z</time></trkpt><trkpt lat="36.9361251" lon="15.0483898"><ele>328.0</ele><time>2026-04-04T10:45:42.312Z</time></trkpt><trkpt lat="36.936058" lon="15.0485153"><ele>328.0</ele><time>2026-04-04T10:45:43.297Z</time></trkpt><trkpt lat="36.9360157" lon="15.0486063"><ele>328.0</ele><time>2026-04-04T10:45:44.313Z</time></trkpt><trkpt lat="36.9359538" lon="15.0487028"><ele>328.0</ele><time>2026-04-04T10:45:46.29Z</time></trkpt><trkpt lat="36.9358828" lon="15.0486996"><ele>328.0</ele><time>2026-04-04T10:45:48.292Z</time></trkpt><trkpt lat="36.9358135" lon="15.0486826"><ele>328.0</ele><time>2026-04-04T10:45:49.299Z</time></trkpt><trkpt lat="36.9357316" lon="15.0486593"><ele>328.0</ele><time>2026-04-04T10:45:50.291Z</time></trkpt><trkpt lat="36.9356377" lon="15.0486276"><ele>328.0</ele><time>2026-04-04T10:45:51.305Z</time></trkpt><trkpt lat="36.9355439" lon="15.048569"><ele>328.0</ele><time>2026-04-04T10:45:52.314Z</time></trkpt><trkpt lat="36.9354452" lon="15.0485034"><ele>328.0</ele><time>2026-04-04T10:45:53.316Z</time></trkpt><trkpt lat="36.9353429" lon="15.0484287"><ele>328.0</ele><time>2026-04-04T10:45:54.317Z</time></trkpt><trkpt lat="36.9352392" lon="15.048353"><ele>328.0</ele><time>2026-04-04T10:45:55.308Z</time></trkpt><trkpt lat="36.9351352" lon="15.0483037"><ele>328.0</ele><time>2026-04-04T10:45:56.306Z</time></trkpt><trkpt lat="36.9350239" lon="15.0482705"><ele>327.5</ele><time>2026-04-04T10:45:57.307Z</time></trkpt><trkpt lat="36.9349119" lon="15.04824"><ele>327.0</ele><time>2026-04-04T10:45:58.313Z</time></trkpt><trkpt lat="36.9347941" lon="15.0482209"><ele>326.5</ele><time>2026-04-04T10:45:59.302Z</time></trkpt><trkpt lat="36.9346718" lon="15.0482088"><ele>326.0</ele><time>2026-04-04T10:46:00.287Z</time></trkpt><trkpt lat="36.9345516" lon="15.0481978"><ele>326.0</ele><time>2026-04-04T10:46:01.303Z</time></trkpt><trkpt lat="36.9344371" lon="15.0481845"><ele>326.0</ele><time>2026-04-04T10:46:02.308Z</time></trkpt><trkpt lat="36.9343179" lon="15.048176"><ele>326.0</ele><time>2026-04-04T10:46:03.293Z</time></trkpt><trkpt lat="36.9342035" lon="15.0481756"><ele>326.0</ele><time>2026-04-04T10:46:04.322Z</time></trkpt><trkpt lat="36.9340986" lon="15.0481708"><ele>325.8</ele><time>2026-04-04T10:46:05.332Z</time></trkpt><trkpt lat="36.9339993" lon="15.0481492"><ele>325.6</ele><time>2026-04-04T10:46:06.346Z</time></trkpt><trkpt lat="36.9339011" lon="15.0481192"><ele>325.4</ele><time>2026-04-04T10:46:07.312Z</time></trkpt><trkpt lat="36.9338091" lon="15.0480735"><ele>325.2</ele><time>2026-04-04T10:46:08.319Z</time></trkpt><trkpt lat="36.933725" lon="15.0480254"><ele>325.0</ele><time>2026-04-04T10:46:09.295Z</time></trkpt><trkpt lat="36.9336482" lon="15.0479742"><ele>325.0</ele><time>2026-04-04T10:46:10.313Z</time></trkpt><trkpt lat="36.9335734" lon="15.0479185"><ele>325.0</ele><time>2026-04-04T10:46:11.297Z</time></trkpt><trkpt lat="36.9334937" lon="15.047865"><ele>325.0</ele><time>2026-04-04T10:46:12.313Z</time></trkpt><trkpt lat="36.9334092" lon="15.0478148"><ele>325.0</ele><time>2026-04-04T10:46:13.311Z</time></trkpt><trkpt lat="36.9333278" lon="15.0477672"><ele>325.0</ele><time>2026-04-04T10:46:14.285Z</time></trkpt><trkpt lat="36.9332691" lon="15.0477252"><ele>325.0</ele><time>2026-04-04T10:46:15.316Z</time></trkpt><trkpt lat="36.9332345" lon="15.0476346"><ele>325.0</ele><time>2026-04-04T10:46:17.318Z</time></trkpt><trkpt lat="36.9331889" lon="15.0475538"><ele>325.0</ele><time>2026-04-04T10:46:19.304Z</time></trkpt><trkpt lat="36.9331304" lon="15.0474978"><ele>325.0</ele><time>2026-04-04T10:46:21.313Z</time></trkpt><trkpt lat="36.9330774" lon="15.0474149"><ele>325.0</ele><time>2026-04-04T10:46:23.306Z</time></trkpt><trkpt lat="36.9330318" lon="15.0473564"><ele>325.0</ele><time>2026-04-04T10:46:25.328Z</time></trkpt><trkpt lat="36.9329754" lon="15.0472973"><ele>325.0</ele><time>2026-04-04T10:46:27.283Z</time></trkpt><trkpt lat="36.9329064" lon="15.047255"><ele>324.16666666666663</ele><time>2026-04-04T10:46:29.305Z</time></trkpt><trkpt lat="36.9328315" lon="15.0472254"><ele>323.3333333333333</ele><time>2026-04-04T10:46:31.295Z</time></trkpt><trkpt lat="36.9327598" lon="15.0471951"><ele>322.5</ele><time>2026-04-04T10:46:33.296Z</time></trkpt><trkpt lat="36.9326768" lon="15.0471804"><ele>321.6666666666667</ele><time>2026-04-04T10:46:35.316Z</time></trkpt><trkpt lat="36.9325903" lon="15.0471922"><ele>320.83333333333337</ele><time>2026-04-04T10:46:37.285Z</time></trkpt><trkpt lat="36.9325109" lon="15.0471862"><ele>320.0</ele><time>2026-04-04T10:46:39.302Z</time></trkpt><trkpt lat="36.9324309" lon="15.0472113"><ele>319.1666666666667</ele><time>2026-04-04T10:46:42.286Z</time></trkpt><trkpt lat="36.9323651" lon="15.0472319"><ele>318.33333333333337</ele><time>2026-04-04T10:46:44.299Z</time></trkpt><trkpt lat="36.9322798" lon="15.0472529"><ele>317.5</ele><time>2026-04-04T10:46:46.305Z</time></trkpt><trkpt lat="36.9322009" lon="15.0472616"><ele>316.6666666666667</ele><time>2026-04-04T10:46:48.287Z</time></trkpt><trkpt lat="36.9321006" lon="15.0472637"><ele>315.8333333333333</ele><time>2026-04-04T10:46:51.26Z</time></trkpt><trkpt lat="36.9320276" lon="15.0472692"><ele>315.0</ele><time>2026-04-04T10:46:53.268Z</time></trkpt><trkpt lat="36.9319479" lon="15.0472806"><ele>315.0</ele><time>2026-04-04T10:46:55.269Z</time></trkpt><trkpt lat="36.9318832" lon="15.0472751"><ele>315.0</ele><time>2026-04-04T10:46:56.314Z</time></trkpt><trkpt lat="36.9317841" lon="15.0472638"><ele>315.0</ele><time>2026-04-04T10:46:58.277Z</time></trkpt><trkpt lat="36.9316899" lon="15.0472666"><ele>315.0</ele><time>2026-04-04T10:47:00.286Z</time></trkpt><trkpt lat="36.9316253" lon="15.0472867"><ele>315.0</ele><time>2026-04-04T10:47:02.295Z</time></trkpt><trkpt lat="36.9315594" lon="15.0472986"><ele>315.0</ele><time>2026-04-04T10:47:04.308Z</time></trkpt><trkpt lat="36.9314964" lon="15.0473202"><ele>314.3333333333333</ele><time>2026-04-04T10:47:06.282Z</time></trkpt><trkpt lat="36.9314167" lon="15.0473413"><ele>313.6666666666667</ele><time>2026-04-04T10:47:09.307Z</time></trkpt><trkpt lat="36.9313362" lon="15.0473668"><ele>313.0</ele><time>2026-04-04T10:47:11.28Z</time></trkpt><trkpt lat="36.9312481" lon="15.0474075"><ele>312.33333333333337</ele><time>2026-04-04T10:47:13.293Z</time></trkpt><trkpt lat="36.9311894" lon="15.0474814"><ele>311.6666666666667</ele><time>2026-04-04T10:47:15.295Z</time></trkpt><trkpt lat="36.9311234" lon="15.0475493"><ele>311.0</ele><time>2026-04-04T10:47:18.292Z</time></trkpt><trkpt lat="36.931083" lon="15.0476162"><ele>311.0</ele><time>2026-04-04T10:47:20.304Z</time></trkpt><trkpt lat="36.931018" lon="15.0477054"><ele>311.0</ele><time>2026-04-04T10:47:22.285Z</time></trkpt><trkpt lat="36.9309456" lon="15.0477866"><ele>311.0</ele><time>2026-04-04T10:47:24.298Z</time></trkpt><trkpt lat="36.9308657" lon="15.0478458"><ele>311.0</ele><time>2026-04-04T10:47:26.297Z</time></trkpt><trkpt lat="36.930796" lon="15.0478779"><ele>311.0</ele><time>2026-04-04T10:47:28.288Z</time></trkpt><trkpt lat="36.9307346" lon="15.0479293"><ele>311.0</ele><time>2026-04-04T10:47:30.306Z</time></trkpt><trkpt lat="36.9306658" lon="15.0479838"><ele>310.0</ele><time>2026-04-04T10:47:32.271Z</time></trkpt><trkpt lat="36.9305745" lon="15.0480142"><ele>309.0</ele><time>2026-04-04T10:47:34.264Z</time></trkpt><trkpt lat="36.9304595" lon="15.0479956"><ele>308.0</ele><time>2026-04-04T10:47:36.269Z</time></trkpt><trkpt lat="36.9303359" lon="15.0479959"><ele>307.0</ele><time>2026-04-04T10:47:38.262Z</time></trkpt><trkpt lat="36.9302239" lon="15.047991"><ele>306.0</ele><time>2026-04-04T10:47:40.286Z</time></trkpt><trkpt lat="36.9300973" lon="15.0479443"><ele>306.2</ele><time>2026-04-04T10:47:42.318Z</time></trkpt><trkpt lat="36.9300295" lon="15.0479271"><ele>306.40000000000003</ele><time>2026-04-04T10:47:43.297Z</time></trkpt><trkpt lat="36.9299263" lon="15.0478944"><ele>306.6</ele><time>2026-04-04T10:47:45.299Z</time></trkpt><trkpt lat="36.9297951" lon="15.0478623"><ele>306.8</ele><time>2026-04-04T10:47:47.293Z</time></trkpt><trkpt lat="36.9297199" lon="15.0478454"><ele>307.0</ele><time>2026-04-04T10:47:48.322Z</time></trkpt><trkpt lat="36.9296357" lon="15.0478228"><ele>307.0</ele><time>2026-04-04T10:47:49.315Z</time></trkpt><trkpt lat="36.929574" lon="15.047795"><ele>307.0</ele><time>2026-04-04T10:47:50.304Z</time></trkpt><trkpt lat="36.9295028" lon="15.0477682"><ele>307.0</ele><time>2026-04-04T10:47:51.315Z</time></trkpt><trkpt lat="36.9294149" lon="15.0477525"><ele>307.0</ele><time>2026-04-04T10:47:52.311Z</time></trkpt><trkpt lat="36.9293152" lon="15.0477278"><ele>307.0</ele><time>2026-04-04T10:47:53.298Z</time></trkpt><trkpt lat="36.9292222" lon="15.0476939"><ele>307.0</ele><time>2026-04-04T10:47:54.294Z</time></trkpt><trkpt lat="36.9291264" lon="15.047665"><ele>305.66666666666663</ele><time>2026-04-04T10:47:55.312Z</time></trkpt><trkpt lat="36.9290143" lon="15.0476329"><ele>304.3333333333333</ele><time>2026-04-04T10:47:56.313Z</time></trkpt><trkpt lat="36.9289091" lon="15.0475974"><ele>303.0</ele><time>2026-04-04T10:47:57.333Z</time></trkpt><trkpt lat="36.9288332" lon="15.0475654"><ele>301.6666666666667</ele><time>2026-04-04T10:47:58.323Z</time></trkpt><trkpt lat="36.9287696" lon="15.0475354"><ele>300.33333333333337</ele><time>2026-04-04T10:47:59.31Z</time></trkpt><trkpt lat="36.928711" lon="15.0474999"><ele>299.0</ele><time>2026-04-04T10:48:00.318Z</time></trkpt><trkpt lat="36.9286512" lon="15.0474713"><ele>299.1666666666667</ele><time>2026-04-04T10:48:01.307Z</time></trkpt><trkpt lat="36.9285866" lon="15.0474486"><ele>299.33333333333337</ele><time>2026-04-04T10:48:02.313Z</time></trkpt><trkpt lat="36.9285183" lon="15.0474323"><ele>299.5</ele><time>2026-04-04T10:48:03.323Z</time></trkpt><trkpt lat="36.928447" lon="15.0474407"><ele>299.6666666666667</ele><time>2026-04-04T10:48:04.318Z</time></trkpt><trkpt lat="36.9283756" lon="15.0474603"><ele>299.8333333333333</ele><time>2026-04-04T10:48:05.308Z</time></trkpt><trkpt lat="36.928307" lon="15.0474752"><ele>300.0</ele><time>2026-04-04T10:48:06.324Z</time></trkpt><trkpt lat="36.9281917" lon="15.0474858"><ele>300.0</ele><time>2026-04-04T10:48:08.307Z</time></trkpt><trkpt lat="36.9280691" lon="15.0474831"><ele>300.0</ele><time>2026-04-04T10:48:10.308Z</time></trkpt><trkpt lat="36.9280073" lon="15.0474668"><ele>300.0</ele><time>2026-04-04T10:48:11.325Z</time></trkpt><trkpt lat="36.9279481" lon="15.047438"><ele>300.0</ele><time>2026-04-04T10:48:12.323Z</time></trkpt><trkpt lat="36.9278812" lon="15.0474154"><ele>300.0</ele><time>2026-04-04T10:48:13.315Z</time></trkpt><trkpt lat="36.9277761" lon="15.0473907"><ele>300.0</ele><time>2026-04-04T10:48:15.332Z</time></trkpt><trkpt lat="36.9276695" lon="15.0473916"><ele>299.2</ele><time>2026-04-04T10:48:17.311Z</time></trkpt><trkpt lat="36.9275468" lon="15.0474258"><ele>298.4</ele><time>2026-04-04T10:48:19.297Z</time></trkpt><trkpt lat="36.927421" lon="15.0474735"><ele>297.6</ele><time>2026-04-04T10:48:21.3Z</time></trkpt><trkpt lat="36.9273489" lon="15.0475315"><ele>296.8</ele><time>2026-04-04T10:48:22.275Z</time></trkpt><trkpt lat="36.927278" lon="15.0476014"><ele>296.0</ele><time>2026-04-04T10:48:23.288Z</time></trkpt><trkpt lat="36.9272054" lon="15.0476729"><ele>296.0</ele><time>2026-04-04T10:48:24.309Z</time></trkpt><trkpt lat="36.9271267" lon="15.0477511"><ele>296.0</ele><time>2026-04-04T10:48:25.313Z</time></trkpt><trkpt lat="36.9270488" lon="15.0478301"><ele>296.0</ele><time>2026-04-04T10:48:26.299Z</time></trkpt><trkpt lat="36.9269674" lon="15.0479071"><ele>296.0</ele><time>2026-04-04T10:48:27.298Z</time></trkpt><trkpt lat="36.9268766" lon="15.0479827"><ele>296.0</ele><time>2026-04-04T10:48:28.323Z</time></trkpt><trkpt lat="36.9267847" lon="15.0480603"><ele>294.5</ele><time>2026-04-04T10:48:29.32Z</time></trkpt><trkpt lat="36.926685" lon="15.0481417"><ele>293.0</ele><time>2026-04-04T10:48:30.289Z</time></trkpt><trkpt lat="36.9265841" lon="15.0482147"><ele>291.5</ele><time>2026-04-04T10:48:31.275Z</time></trkpt><trkpt lat="36.9264776" lon="15.0482936"><ele>290.0</ele><time>2026-04-04T10:48:32.304Z</time></trkpt><trkpt lat="36.9263666" lon="15.0483652"><ele>291.0</ele><time>2026-04-04T10:48:33.308Z</time></trkpt><trkpt lat="36.9262387" lon="15.0484343"><ele>292.0</ele><time>2026-04-04T10:48:34.305Z</time></trkpt><trkpt lat="36.9260985" lon="15.0484976"><ele>293.0</ele><time>2026-04-04T10:48:35.303Z</time></trkpt><trkpt lat="36.9259515" lon="15.0485649"><ele>294.0</ele><time>2026-04-04T10:48:36.302Z</time></trkpt><trkpt lat="36.9258007" lon="15.0486273"><ele>294.0</ele><time>2026-04-04T10:48:37.307Z</time></trkpt><trkpt lat="36.9256612" lon="15.0486871"><ele>294.0</ele><time>2026-04-04T10:48:38.313Z</time></trkpt><trkpt lat="36.9255337" lon="15.0487282"><ele>294.0</ele><time>2026-04-04T10:48:39.318Z</time></trkpt><trkpt lat="36.9254168" lon="15.0487638"><ele>294.0</ele><time>2026-04-04T10:48:40.335Z</time></trkpt><trkpt lat="36.9253067" lon="15.0487722"><ele>294.0</ele><time>2026-04-04T10:48:41.319Z</time></trkpt><trkpt lat="36.9252068" lon="15.0487601"><ele>294.0</ele><time>2026-04-04T10:48:42.3Z</time></trkpt><trkpt lat="36.9251097" lon="15.0487328"><ele>294.0</ele><time>2026-04-04T10:48:43.307Z</time></trkpt><trkpt lat="36.9250249" lon="15.0487074"><ele>294.0</ele><time>2026-04-04T10:48:44.328Z</time></trkpt><trkpt lat="36.9249569" lon="15.0487021"><ele>294.0</ele><time>2026-04-04T10:48:45.321Z</time></trkpt><trkpt lat="36.924858" lon="15.0487011"><ele>293.0</ele><time>2026-04-04T10:48:47.307Z</time></trkpt><trkpt lat="36.9247913" lon="15.0487108"><ele>292.0</ele><time>2026-04-04T10:48:48.314Z</time></trkpt><trkpt lat="36.9247124" lon="15.0487276"><ele>291.0</ele><time>2026-04-04T10:48:49.323Z</time></trkpt><trkpt lat="36.9246263" lon="15.0487404"><ele>290.0</ele><time>2026-04-04T10:48:50.32Z</time></trkpt><trkpt lat="36.9245304" lon="15.0487641"><ele>289.0</ele><time>2026-04-04T10:48:51.313Z</time></trkpt><trkpt lat="36.9244333" lon="15.0487886"><ele>288.0</ele><time>2026-04-04T10:48:52.299Z</time></trkpt><trkpt lat="36.9243292" lon="15.0488095"><ele>288.0</ele><time>2026-04-04T10:48:53.322Z</time></trkpt><trkpt lat="36.9242313" lon="15.0488236"><ele>288.0</ele><time>2026-04-04T10:48:54.301Z</time></trkpt><trkpt lat="36.9241312" lon="15.0488453"><ele>288.0</ele><time>2026-04-04T10:48:55.31Z</time></trkpt><trkpt lat="36.9240276" lon="15.048869"><ele>288.0</ele><time>2026-04-04T10:48:56.313Z</time></trkpt><trkpt lat="36.9239358" lon="15.0489134"><ele>288.0</ele><time>2026-04-04T10:48:57.311Z</time></trkpt><trkpt lat="36.9238699" lon="15.0489963"><ele>288.75</ele><time>2026-04-04T10:48:58.301Z</time></trkpt><trkpt lat="36.9238013" lon="15.049114"><ele>289.5</ele><time>2026-04-04T10:48:59.288Z</time></trkpt><trkpt lat="36.9237244" lon="15.0492473"><ele>290.25</ele><time>2026-04-04T10:49:00.306Z</time></trkpt><trkpt lat="36.923644" lon="15.0493856"><ele>291.0</ele><time>2026-04-04T10:49:01.326Z</time></trkpt><trkpt lat="36.9235642" lon="15.0495359"><ele>291.0</ele><time>2026-04-04T10:49:02.3Z</time></trkpt><trkpt lat="36.9234884" lon="15.0496691"><ele>291.0</ele><time>2026-04-04T10:49:03.299Z</time></trkpt><trkpt lat="36.9234135" lon="15.0497721"><ele>291.0</ele><time>2026-04-04T10:49:04.311Z</time></trkpt><trkpt lat="36.9233354" lon="15.0498536"><ele>291.0</ele><time>2026-04-04T10:49:05.266Z</time></trkpt><trkpt lat="36.9232513" lon="15.049909"><ele>291.0</ele><time>2026-04-04T10:49:06.295Z</time></trkpt><trkpt lat="36.9231633" lon="15.0499312"><ele>292.5</ele><time>2026-04-04T10:49:07.31Z</time></trkpt><trkpt lat="36.9230668" lon="15.0499362"><ele>294.0</ele><time>2026-04-04T10:49:08.293Z</time></trkpt><trkpt lat="36.922942" lon="15.0499299"><ele>295.5</ele><time>2026-04-04T10:49:09.3Z</time></trkpt><trkpt lat="36.9228022" lon="15.0499262"><ele>297.0</ele><time>2026-04-04T10:49:10.314Z</time></trkpt><trkpt lat="36.9226505" lon="15.0499222"><ele>295.3333333333333</ele><time>2026-04-04T10:49:11.301Z</time></trkpt><trkpt lat="36.9224808" lon="15.0499181"><ele>293.66666666666663</ele><time>2026-04-04T10:49:12.329Z</time></trkpt><trkpt lat="36.9223206" lon="15.0499141"><ele>292.0</ele><time>2026-04-04T10:49:13.316Z</time></trkpt><trkpt lat="36.9221681" lon="15.0499064"><ele>292.0</ele><time>2026-04-04T10:49:14.301Z</time></trkpt><trkpt lat="36.9220136" lon="15.0498754"><ele>292.0</ele><time>2026-04-04T10:49:15.315Z</time></trkpt><trkpt lat="36.92185" lon="15.0498136"><ele>292.0</ele><time>2026-04-04T10:49:16.328Z</time></trkpt><trkpt lat="36.9216724" lon="15.0497491"><ele>291.0</ele><time>2026-04-04T10:49:17.316Z</time></trkpt><trkpt lat="36.9214877" lon="15.0496922"><ele>290.0</ele><time>2026-04-04T10:49:18.314Z</time></trkpt><trkpt lat="36.9213017" lon="15.0496388"><ele>289.0</ele><time>2026-04-04T10:49:19.283Z</time></trkpt><trkpt lat="36.9211286" lon="15.0496006"><ele>289.0</ele><time>2026-04-04T10:49:20.297Z</time></trkpt><trkpt lat="36.9209702" lon="15.0495775"><ele>289.0</ele><time>2026-04-04T10:49:21.313Z</time></trkpt><trkpt lat="36.9208235" lon="15.0495545"><ele>289.0</ele><time>2026-04-04T10:49:22.313Z</time></trkpt><trkpt lat="36.9206806" lon="15.0495477"><ele>289.25</ele><time>2026-04-04T10:49:23.322Z</time></trkpt><trkpt lat="36.9205471" lon="15.0495306"><ele>289.5</ele><time>2026-04-04T10:49:24.292Z</time></trkpt><trkpt lat="36.9204211" lon="15.0495052"><ele>289.75</ele><time>2026-04-04T10:49:25.31Z</time></trkpt><trkpt lat="36.920312" lon="15.0494513"><ele>290.0</ele><time>2026-04-04T10:49:26.289Z</time></trkpt><trkpt lat="36.920206" lon="15.0493958"><ele>290.0</ele><time>2026-04-04T10:49:27.311Z</time></trkpt><trkpt lat="36.9201219" lon="15.049351"><ele>290.0</ele><time>2026-04-04T10:49:28.313Z</time></trkpt><trkpt lat="36.9200809" lon="15.0492871"><ele>290.0</ele><time>2026-04-04T10:49:29.29Z</time></trkpt><trkpt lat="36.9200402" lon="15.0492022"><ele>290.0</ele><time>2026-04-04T10:49:30.307Z</time></trkpt><trkpt lat="36.9199998" lon="15.0491236"><ele>290.0</ele><time>2026-04-04T10:49:31.286Z</time></trkpt><trkpt lat="36.9199089" lon="15.0490597"><ele>290.0</ele><time>2026-04-04T10:49:32.303Z</time></trkpt><trkpt lat="36.9197732" lon="15.0489943"><ele>285.33333333333337</ele><time>2026-04-04T10:49:33.31Z</time></trkpt><trkpt lat="36.9196228" lon="15.0489458"><ele>280.6666666666667</ele><time>2026-04-04T10:49:34.309Z</time></trkpt><trkpt lat="36.9194571" lon="15.0489081"><ele>276.0</ele><time>2026-04-04T10:49:35.278Z</time></trkpt><trkpt lat="36.9192744" lon="15.0488684"><ele>277.0</ele><time>2026-04-04T10:49:36.29Z</time></trkpt><trkpt lat="36.9190747" lon="15.0488124"><ele>278.0</ele><time>2026-04-04T10:49:37.309Z</time></trkpt><trkpt lat="36.9188752" lon="15.048749"><ele>279.0</ele><time>2026-04-04T10:49:38.305Z</time></trkpt><trkpt lat="36.9186899" lon="15.0486903"><ele>279.0</ele><time>2026-04-04T10:49:39.304Z</time></trkpt><trkpt lat="36.91852" lon="15.0486128"><ele>279.0</ele><time>2026-04-04T10:49:40.281Z</time></trkpt><trkpt lat="36.918354" lon="15.0485342"><ele>279.0</ele><time>2026-04-04T10:49:41.32Z</time></trkpt><trkpt lat="36.9181947" lon="15.0484547"><ele>279.0</ele><time>2026-04-04T10:49:42.307Z</time></trkpt><trkpt lat="36.9180401" lon="15.0483852"><ele>279.0</ele><time>2026-04-04T10:49:43.26Z</time></trkpt><trkpt lat="36.9178889" lon="15.048313"><ele>279.0</ele><time>2026-04-04T10:49:44.313Z</time></trkpt><trkpt lat="36.9177553" lon="15.048223"><ele>276.3333333333333</ele><time>2026-04-04T10:49:45.309Z</time></trkpt><trkpt lat="36.9176362" lon="15.0481008"><ele>273.66666666666663</ele><time>2026-04-04T10:49:46.289Z</time></trkpt><trkpt lat="36.9175123" lon="15.0479486"><ele>271.0</ele><time>2026-04-04T10:49:47.3Z</time></trkpt><trkpt lat="36.917369" lon="15.0478019"><ele>271.0</ele><time>2026-04-04T10:49:48.289Z</time></trkpt><trkpt lat="36.9172098" lon="15.0476769"><ele>271.0</ele><time>2026-04-04T10:49:49.315Z</time></trkpt><trkpt lat="36.9170677" lon="15.0475785"><ele>271.0</ele><time>2026-04-04T10:49:50.313Z</time></trkpt><trkpt lat="36.9169163" lon="15.0474943"><ele>268.66666666666663</ele><time>2026-04-04T10:49:51.316Z</time></trkpt><trkpt lat="36.9167668" lon="15.0474265"><ele>266.3333333333333</ele><time>2026-04-04T10:49:52.271Z</time></trkpt><trkpt lat="36.9166081" lon="15.0473849"><ele>264.0</ele><time>2026-04-04T10:49:53.321Z</time></trkpt><trkpt lat="36.9164512" lon="15.0473497"><ele>264.0</ele><time>2026-04-04T10:49:54.274Z</time></trkpt><trkpt lat="36.9162952" lon="15.0473274"><ele>264.0</ele><time>2026-04-04T10:49:55.267Z</time></trkpt><trkpt lat="36.9161605" lon="15.0472925"><ele>264.0</ele><time>2026-04-04T10:49:56.29Z</time></trkpt><trkpt lat="36.9160361" lon="15.04724"><ele>264.0</ele><time>2026-04-04T10:49:57.262Z</time></trkpt><trkpt lat="36.9159105" lon="15.047173"><ele>268.0</ele><time>2026-04-04T10:49:58.303Z</time></trkpt><trkpt lat="36.9157796" lon="15.0471031"><ele>272.0</ele><time>2026-04-04T10:49:59.298Z</time></trkpt><trkpt lat="36.9156432" lon="15.0470388"><ele>276.0</ele><time>2026-04-04T10:50:00.278Z</time></trkpt><trkpt lat="36.9155063" lon="15.0469774"><ele>280.0</ele><time>2026-04-04T10:50:01.281Z</time></trkpt><trkpt lat="36.9153609" lon="15.0469215"><ele>280.0</ele><time>2026-04-04T10:50:02.269Z</time></trkpt><trkpt lat="36.9152177" lon="15.0468581"><ele>280.0</ele><time>2026-04-04T10:50:03.273Z</time></trkpt><trkpt lat="36.9150786" lon="15.0468042"><ele>280.0</ele><time>2026-04-04T10:50:04.277Z</time></trkpt><trkpt lat="36.9149377" lon="15.0467536"><ele>280.0</ele><time>2026-04-04T10:50:05.274Z</time></trkpt><trkpt lat="36.9148076" lon="15.0467042"><ele>278.75</ele><time>2026-04-04T10:50:06.282Z</time></trkpt><trkpt lat="36.9146815" lon="15.0466573"><ele>277.5</ele><time>2026-04-04T10:50:07.315Z</time></trkpt><trkpt lat="36.9145688" lon="15.0466171"><ele>276.25</ele><time>2026-04-04T10:50:08.301Z</time></trkpt><trkpt lat="36.9144539" lon="15.0465797"><ele>275.0</ele><time>2026-04-04T10:50:09.291Z</time></trkpt><trkpt lat="36.9143476" lon="15.0465479"><ele>272.83333333333337</ele><time>2026-04-04T10:50:10.325Z</time></trkpt><trkpt lat="36.9142509" lon="15.0465222"><ele>270.6666666666667</ele><time>2026-04-04T10:50:11.286Z</time></trkpt><trkpt lat="36.9141709" lon="15.0464953"><ele>268.5</ele><time>2026-04-04T10:50:12.299Z</time></trkpt><trkpt lat="36.9141039" lon="15.046469"><ele>266.3333333333333</ele><time>2026-04-04T10:50:13.302Z</time></trkpt><trkpt lat="36.9139993" lon="15.0464302"><ele>264.16666666666663</ele><time>2026-04-04T10:50:15.323Z</time></trkpt><trkpt lat="36.9139326" lon="15.0464016"><ele>262.0</ele><time>2026-04-04T10:50:17.278Z</time></trkpt><trkpt lat="36.9138145" lon="15.0463726"><ele>262.0</ele><time>2026-04-04T10:50:19.301Z</time></trkpt><trkpt lat="36.9137336" lon="15.0463454"><ele>262.0</ele><time>2026-04-04T10:50:20.313Z</time></trkpt><trkpt lat="36.9136446" lon="15.0463119"><ele>262.0</ele><time>2026-04-04T10:50:21.3Z</time></trkpt><trkpt lat="36.9135421" lon="15.0462872"><ele>262.0</ele><time>2026-04-04T10:50:22.299Z</time></trkpt><trkpt lat="36.9134325" lon="15.046267"><ele>262.0</ele><time>2026-04-04T10:50:23.312Z</time></trkpt><trkpt lat="36.9133163" lon="15.046236"><ele>262.6</ele><time>2026-04-04T10:50:24.289Z</time></trkpt><trkpt lat="36.9131998" lon="15.0462026"><ele>263.2</ele><time>2026-04-04T10:50:25.294Z</time></trkpt><trkpt lat="36.9130883" lon="15.0461632"><ele>263.8</ele><time>2026-04-04T10:50:26.303Z</time></trkpt><trkpt lat="36.9129851" lon="15.0461216"><ele>264.4</ele><time>2026-04-04T10:50:27.285Z</time></trkpt><trkpt lat="36.912911" lon="15.0460999"><ele>265.0</ele><time>2026-04-04T10:50:28.302Z</time></trkpt><trkpt lat="36.9128436" lon="15.046095"><ele>265.0</ele><time>2026-04-04T10:50:29.308Z</time></trkpt><trkpt lat="36.9127567" lon="15.0461978"><ele>265.0</ele><time>2026-04-04T10:50:31.312Z</time></trkpt><trkpt lat="36.9127356" lon="15.046318"><ele>265.0</ele><time>2026-04-04T10:50:32.299Z</time></trkpt><trkpt lat="36.9127236" lon="15.046454"><ele>265.0</ele><time>2026-04-04T10:50:33.306Z</time></trkpt><trkpt lat="36.9126998" lon="15.0465778"><ele>265.0</ele><time>2026-04-04T10:50:34.298Z</time></trkpt><trkpt lat="36.9126539" lon="15.0466852"><ele>263.2</ele><time>2026-04-04T10:50:35.295Z</time></trkpt><trkpt lat="36.9125856" lon="15.0467792"><ele>261.4</ele><time>2026-04-04T10:50:36.293Z</time></trkpt><trkpt lat="36.912506" lon="15.0468665"><ele>259.6</ele><time>2026-04-04T10:50:37.308Z</time></trkpt><trkpt lat="36.9124146" lon="15.0469581"><ele>257.8</ele><time>2026-04-04T10:50:38.305Z</time></trkpt><trkpt lat="36.9123323" lon="15.0470502"><ele>256.0</ele><time>2026-04-04T10:50:39.312Z</time></trkpt><trkpt lat="36.9122855" lon="15.0471264"><ele>253.0</ele><time>2026-04-04T10:50:40.387Z</time></trkpt><trkpt lat="36.9122732" lon="15.0472981"><ele>250.00000000000003</ele><time>2026-04-04T10:50:42.299Z</time></trkpt><trkpt lat="36.9122897" lon="15.0474191"><ele>247.00000000000003</ele><time>2026-04-04T10:50:43.317Z</time></trkpt><trkpt lat="36.912305" lon="15.0475482"><ele>244.0</ele><time>2026-04-04T10:50:44.276Z</time></trkpt><trkpt lat="36.9123072" lon="15.0476618"><ele>241.0</ele><time>2026-04-04T10:50:45.321Z</time></trkpt><trkpt lat="36.9122878" lon="15.0477517"><ele>241.0</ele><time>2026-04-04T10:50:46.33Z</time></trkpt><trkpt lat="36.9121746" lon="15.0478697"><ele>241.0</ele><time>2026-04-04T10:50:48.315Z</time></trkpt><trkpt lat="36.9120725" lon="15.0479366"><ele>241.0</ele><time>2026-04-04T10:50:49.299Z</time></trkpt><trkpt lat="36.9119697" lon="15.0479972"><ele>241.0</ele><time>2026-04-04T10:50:50.273Z</time></trkpt><trkpt lat="36.9118688" lon="15.0480575"><ele>241.0</ele><time>2026-04-04T10:50:51.32Z</time></trkpt><trkpt lat="36.911768" lon="15.0480872"><ele>241.00000000000003</ele><time>2026-04-04T10:50:52.304Z</time></trkpt><trkpt lat="36.9116574" lon="15.0480804"><ele>241.00000000000003</ele><time>2026-04-04T10:50:53.321Z</time></trkpt><trkpt lat="36.9115426" lon="15.0480584"><ele>241.0</ele><time>2026-04-04T10:50:54.294Z</time></trkpt><trkpt lat="36.9114284" lon="15.0480174"><ele>241.0</ele><time>2026-04-04T10:50:55.282Z</time></trkpt><trkpt lat="36.9113141" lon="15.0479586"><ele>234.5</ele><time>2026-04-04T10:50:56.269Z</time></trkpt><trkpt lat="36.9111989" lon="15.047891"><ele>228.0</ele><time>2026-04-04T10:50:57.297Z</time></trkpt><trkpt lat="36.9110737" lon="15.0478219"><ele>221.5</ele><time>2026-04-04T10:50:58.293Z</time></trkpt><trkpt lat="36.9109554" lon="15.0477572"><ele>215.0</ele><time>2026-04-04T10:50:59.304Z</time></trkpt><trkpt lat="36.9108444" lon="15.0477114"><ele>212.0</ele><time>2026-04-04T10:51:00.28Z</time></trkpt><trkpt lat="36.9107282" lon="15.0476712"><ele>209.0</ele><time>2026-04-04T10:51:01.288Z</time></trkpt><trkpt lat="36.9106201" lon="15.047653"><ele>206.0</ele><time>2026-04-04T10:51:02.316Z</time></trkpt><trkpt lat="36.9105105" lon="15.0476649"><ele>203.0</ele><time>2026-04-04T10:51:03.289Z</time></trkpt><trkpt lat="36.910395" lon="15.047695"><ele>203.0</ele><time>2026-04-04T10:51:04.324Z</time></trkpt><trkpt lat="36.9102838" lon="15.0477232"><ele>203.0</ele><time>2026-04-04T10:51:05.3Z</time></trkpt><trkpt lat="36.91017" lon="15.0477536"><ele>203.0</ele><time>2026-04-04T10:51:06.272Z</time></trkpt><trkpt lat="36.910057" lon="15.0477779"><ele>203.0</ele><time>2026-04-04T10:51:07.294Z</time></trkpt><trkpt lat="36.9099485" lon="15.047794"><ele>200.8</ele><time>2026-04-04T10:51:08.31Z</time></trkpt><trkpt lat="36.9098483" lon="15.047795"><ele>198.60000000000002</ele><time>2026-04-04T10:51:09.293Z</time></trkpt><trkpt lat="36.909769" lon="15.0477787"><ele>196.39999999999998</ele><time>2026-04-04T10:51:10.325Z</time></trkpt><trkpt lat="36.9096944" lon="15.0477801"><ele>194.2</ele><time>2026-04-04T10:51:11.29Z</time></trkpt><trkpt lat="36.9096062" lon="15.0478099"><ele>192.0</ele><time>2026-04-04T10:51:12.304Z</time></trkpt><trkpt lat="36.9094926" lon="15.0478599"><ele>192.0</ele><time>2026-04-04T10:51:13.298Z</time></trkpt><trkpt lat="36.9093641" lon="15.0479168"><ele>192.0</ele><time>2026-04-04T10:51:14.318Z</time></trkpt><trkpt lat="36.9092452" lon="15.0479782"><ele>192.0</ele><time>2026-04-04T10:51:15.304Z</time></trkpt><trkpt lat="36.9091353" lon="15.0480354"><ele>192.0</ele><time>2026-04-04T10:51:16.306Z</time></trkpt><trkpt lat="36.9090343" lon="15.0481075"><ele>192.0</ele><time>2026-04-04T10:51:17.303Z</time></trkpt><trkpt lat="36.9089382" lon="15.0481904"><ele>192.0</ele><time>2026-04-04T10:51:18.308Z</time></trkpt><trkpt lat="36.9088381" lon="15.0482595"><ele>192.0</ele><time>2026-04-04T10:51:19.304Z</time></trkpt><trkpt lat="36.9087324" lon="15.0483217"><ele>192.0</ele><time>2026-04-04T10:51:20.319Z</time></trkpt><trkpt lat="36.9086351" lon="15.0483886"><ele>192.0</ele><time>2026-04-04T10:51:21.319Z</time></trkpt><trkpt lat="36.9085525" lon="15.048451"><ele>192.0</ele><time>2026-04-04T10:51:22.321Z</time></trkpt><trkpt lat="36.9084867" lon="15.0485266"><ele>192.0</ele><time>2026-04-04T10:51:23.312Z</time></trkpt><trkpt lat="36.908431" lon="15.0486127"><ele>192.0</ele><time>2026-04-04T10:51:24.313Z</time></trkpt><trkpt lat="36.9083669" lon="15.0487283"><ele>192.0</ele><time>2026-04-04T10:51:25.304Z</time></trkpt><trkpt lat="36.9082958" lon="15.0488604"><ele>185.75</ele><time>2026-04-04T10:51:26.3Z</time></trkpt><trkpt lat="36.9082292" lon="15.0489917"><ele>179.5</ele><time>2026-04-04T10:51:27.296Z</time></trkpt><trkpt lat="36.908158" lon="15.0491187"><ele>173.25</ele><time>2026-04-04T10:51:28.297Z</time></trkpt><trkpt lat="36.9080727" lon="15.0492366"><ele>167.0</ele><time>2026-04-04T10:51:29.32Z</time></trkpt><trkpt lat="36.9079763" lon="15.0493357"><ele>167.0</ele><time>2026-04-04T10:51:30.307Z</time></trkpt><trkpt lat="36.907871" lon="15.0494511"><ele>167.0</ele><time>2026-04-04T10:51:31.311Z</time></trkpt><trkpt lat="36.9077754" lon="15.0495862"><ele>167.0</ele><time>2026-04-04T10:51:32.309Z</time></trkpt><trkpt lat="36.9076811" lon="15.0497271"><ele>167.0</ele><time>2026-04-04T10:51:33.316Z</time></trkpt><trkpt lat="36.9075971" lon="15.0498423"><ele>163.0</ele><time>2026-04-04T10:51:34.32Z</time></trkpt><trkpt lat="36.9075289" lon="15.0499283"><ele>159.0</ele><time>2026-04-04T10:51:35.303Z</time></trkpt><trkpt lat="36.9074738" lon="15.0499956"><ele>155.0</ele><time>2026-04-04T10:51:36.3Z</time></trkpt><trkpt lat="36.9073598" lon="15.0500654"><ele>151.0</ele><time>2026-04-04T10:51:38.305Z</time></trkpt><trkpt lat="36.9072549" lon="15.0500301"><ele>147.0</ele><time>2026-04-04T10:51:40.308Z</time></trkpt><trkpt lat="36.9072217" lon="15.0499026"><ele>147.0</ele><time>2026-04-04T10:51:42.309Z</time></trkpt><trkpt lat="36.907172" lon="15.0498529"><ele>147.0</ele><time>2026-04-04T10:51:46.313Z</time></trkpt><trkpt lat="36.9071354" lon="15.0499209"><ele>147.0</ele><time>2026-04-04T10:51:51.323Z</time></trkpt><trkpt lat="36.9071386" lon="15.0500533"><ele>147.0</ele><time>2026-04-04T10:52:00.302Z</time></trkpt><trkpt lat="36.9071214" lon="15.0502117"><ele>147.0</ele><time>2026-04-04T10:52:02.309Z</time></trkpt><trkpt lat="36.9070987" lon="15.0503101"><ele>147.0</ele><time>2026-04-04T10:52:03.305Z</time></trkpt><trkpt lat="36.9070764" lon="15.0504209"><ele>147.0</ele><time>2026-04-04T10:52:04.293Z</time></trkpt><trkpt lat="36.9070497" lon="15.0505365"><ele>147.0</ele><time>2026-04-04T10:52:05.311Z</time></trkpt><trkpt lat="36.9070296" lon="15.0506533"><ele>147.0</ele><time>2026-04-04T10:52:06.275Z</time></trkpt><trkpt lat="36.9070139" lon="15.0507648"><ele>147.0</ele><time>2026-04-04T10:52:07.309Z</time></trkpt><trkpt lat="36.9069899" lon="15.0508761"><ele>147.0</ele><time>2026-04-04T10:52:08.315Z</time></trkpt><trkpt lat="36.9069632" lon="15.0509864"><ele>146.0</ele><time>2026-04-04T10:52:09.313Z</time></trkpt><trkpt lat="36.9069293" lon="15.0510979"><ele>145.0</ele><time>2026-04-04T10:52:10.298Z</time></trkpt><trkpt lat="36.9068834" lon="15.0512035"><ele>144.0</ele><time>2026-04-04T10:52:11.297Z</time></trkpt><trkpt lat="36.9068159" lon="15.0512985"><ele>143.0</ele><time>2026-04-04T10:52:12.31Z</time></trkpt><trkpt lat="36.9067349" lon="15.0513988"><ele>142.0</ele><time>2026-04-04T10:52:13.326Z</time></trkpt><trkpt lat="36.9066507" lon="15.0515146"><ele>137.5</ele><time>2026-04-04T10:52:14.319Z</time></trkpt><trkpt lat="36.9065586" lon="15.0516383"><ele>133.0</ele><time>2026-04-04T10:52:15.316Z</time></trkpt><trkpt lat="36.9064659" lon="15.0517662"><ele>128.5</ele><time>2026-04-04T10:52:16.313Z</time></trkpt><trkpt lat="36.9063759" lon="15.0518894"><ele>124.0</ele><time>2026-04-04T10:52:17.318Z</time></trkpt><trkpt lat="36.9062784" lon="15.0520167"><ele>124.0</ele><time>2026-04-04T10:52:18.329Z</time></trkpt><trkpt lat="36.906183" lon="15.052143"><ele>124.0</ele><time>2026-04-04T10:52:19.311Z</time></trkpt><trkpt lat="36.9060843" lon="15.0522733"><ele>124.0</ele><time>2026-04-04T10:52:20.3Z</time></trkpt><trkpt lat="36.9059821" lon="15.0524034"><ele>124.0</ele><time>2026-04-04T10:52:21.266Z</time></trkpt><trkpt lat="36.9058814" lon="15.0525338"><ele>121.75</ele><time>2026-04-04T10:52:22.298Z</time></trkpt><trkpt lat="36.905786" lon="15.0526641"><ele>119.5</ele><time>2026-04-04T10:52:23.277Z</time></trkpt><trkpt lat="36.9056907" lon="15.0527915"><ele>117.25</ele><time>2026-04-04T10:52:24.305Z</time></trkpt><trkpt lat="36.9055935" lon="15.0529213"><ele>115.0</ele><time>2026-04-04T10:52:25.294Z</time></trkpt><trkpt lat="36.9055013" lon="15.0530451"><ele>115.0</ele><time>2026-04-04T10:52:26.299Z</time></trkpt><trkpt lat="36.9054054" lon="15.053167"><ele>115.0</ele><time>2026-04-04T10:52:27.313Z</time></trkpt><trkpt lat="36.9053089" lon="15.0532937"><ele>115.0</ele><time>2026-04-04T10:52:28.304Z</time></trkpt><trkpt lat="36.9052151" lon="15.0534198"><ele>115.0</ele><time>2026-04-04T10:52:29.303Z</time></trkpt><trkpt lat="36.9051245" lon="15.053543"><ele>114.25</ele><time>2026-04-04T10:52:30.313Z</time></trkpt><trkpt lat="36.9050397" lon="15.0536645"><ele>113.5</ele><time>2026-04-04T10:52:31.297Z</time></trkpt><trkpt lat="36.9049458" lon="15.0537932"><ele>112.75</ele><time>2026-04-04T10:52:32.309Z</time></trkpt><trkpt lat="36.9048461" lon="15.0539241"><ele>112.0</ele><time>2026-04-04T10:52:33.317Z</time></trkpt><trkpt lat="36.9047446" lon="15.0540493"><ele>113.0</ele><time>2026-04-04T10:52:34.31Z</time></trkpt><trkpt lat="36.9046433" lon="15.0541718"><ele>114.0</ele><time>2026-04-04T10:52:35.296Z</time></trkpt><trkpt lat="36.9045489" lon="15.0542909"><ele>115.0</ele><time>2026-04-04T10:52:36.303Z</time></trkpt><trkpt lat="36.9044617" lon="15.0544037"><ele>116.0</ele><time>2026-04-04T10:52:37.268Z</time></trkpt><trkpt lat="36.9043736" lon="15.0545184"><ele>116.0</ele><time>2026-04-04T10:52:38.272Z</time></trkpt><trkpt lat="36.9043" lon="15.0546532"><ele>116.0</ele><time>2026-04-04T10:52:39.283Z</time></trkpt><trkpt lat="36.9042365" lon="15.05481"><ele>116.0</ele><time>2026-04-04T10:52:40.259Z</time></trkpt><trkpt lat="36.904187" lon="15.0549808"><ele>116.0</ele><time>2026-04-04T10:52:41.263Z</time></trkpt><trkpt lat="36.9041359" lon="15.0551613"><ele>115.25</ele><time>2026-04-04T10:52:42.269Z</time></trkpt><trkpt lat="36.9040921" lon="15.055327"><ele>114.5</ele><time>2026-04-04T10:52:43.296Z</time></trkpt><trkpt lat="36.9040508" lon="15.0554928"><ele>113.75</ele><time>2026-04-04T10:52:44.28Z</time></trkpt><trkpt lat="36.9040064" lon="15.0556559"><ele>113.0</ele><time>2026-04-04T10:52:45.316Z</time></trkpt><trkpt lat="36.9039628" lon="15.055816"><ele>113.0</ele><time>2026-04-04T10:52:46.307Z</time></trkpt><trkpt lat="36.9039107" lon="15.0559828"><ele>113.0</ele><time>2026-04-04T10:52:47.266Z</time></trkpt><trkpt lat="36.9038639" lon="15.0561551"><ele>113.0</ele><time>2026-04-04T10:52:48.305Z</time></trkpt><trkpt lat="36.9038064" lon="15.0563237"><ele>113.0</ele><time>2026-04-04T10:52:49.285Z</time></trkpt><trkpt lat="36.903743" lon="15.0564858"><ele>114.66666666666666</ele><time>2026-04-04T10:52:50.305Z</time></trkpt><trkpt lat="36.9036711" lon="15.0566526"><ele>116.33333333333334</ele><time>2026-04-04T10:52:51.317Z</time></trkpt><trkpt lat="36.9035961" lon="15.0568268"><ele>118.0</ele><time>2026-04-04T10:52:52.256Z</time></trkpt><trkpt lat="36.903521" lon="15.0570108"><ele>118.0</ele><time>2026-04-04T10:52:53.313Z</time></trkpt><trkpt lat="36.9034503" lon="15.0571903"><ele>118.0</ele><time>2026-04-04T10:52:54.285Z</time></trkpt><trkpt lat="36.9033879" lon="15.0573674"><ele>118.0</ele><time>2026-04-04T10:52:55.314Z</time></trkpt><trkpt lat="36.9033231" lon="15.0575423"><ele>118.0</ele><time>2026-04-04T10:52:56.303Z</time></trkpt><trkpt lat="36.9032605" lon="15.0577136"><ele>118.0</ele><time>2026-04-04T10:52:57.28Z</time></trkpt><trkpt lat="36.9031999" lon="15.0578791"><ele>118.0</ele><time>2026-04-04T10:52:58.291Z</time></trkpt><trkpt lat="36.9031389" lon="15.0580392"><ele>118.0</ele><time>2026-04-04T10:52:59.315Z</time></trkpt><trkpt lat="36.9030753" lon="15.0582051"><ele>121.33333333333334</ele><time>2026-04-04T10:53:00.295Z</time></trkpt><trkpt lat="36.9030065" lon="15.0583646"><ele>124.66666666666666</ele><time>2026-04-04T10:53:01.281Z</time></trkpt><trkpt lat="36.9029248" lon="15.0585171"><ele>128.0</ele><time>2026-04-04T10:53:02.294Z</time></trkpt><trkpt lat="36.9028149" lon="15.0586704"><ele>128.0</ele><time>2026-04-04T10:53:03.314Z</time></trkpt><trkpt lat="36.9026887" lon="15.0588153"><ele>128.0</ele><time>2026-04-04T10:53:04.321Z</time></trkpt><trkpt lat="36.9025546" lon="15.0589521"><ele>128.0</ele><time>2026-04-04T10:53:05.316Z</time></trkpt><trkpt lat="36.9024182" lon="15.0590888"><ele>129.33333333333331</ele><time>2026-04-04T10:53:06.306Z</time></trkpt><trkpt lat="36.9022843" lon="15.0592217"><ele>130.66666666666666</ele><time>2026-04-04T10:53:07.289Z</time></trkpt><trkpt lat="36.9021545" lon="15.0593554"><ele>132.0</ele><time>2026-04-04T10:53:08.336Z</time></trkpt><trkpt lat="36.9020238" lon="15.0594846"><ele>132.0</ele><time>2026-04-04T10:53:09.309Z</time></trkpt><trkpt lat="36.9018934" lon="15.0596053"><ele>132.0</ele><time>2026-04-04T10:53:10.3Z</time></trkpt><trkpt lat="36.9017586" lon="15.0597183"><ele>132.0</ele><time>2026-04-04T10:53:11.322Z</time></trkpt><trkpt lat="36.9016276" lon="15.0598253"><ele>133.33333333333334</ele><time>2026-04-04T10:53:12.332Z</time></trkpt><trkpt lat="36.9014996" lon="15.0599365"><ele>134.66666666666669</ele><time>2026-04-04T10:53:13.316Z</time></trkpt><trkpt lat="36.9013661" lon="15.0600471"><ele>136.0</ele><time>2026-04-04T10:53:14.327Z</time></trkpt><trkpt lat="36.9012299" lon="15.0601561"><ele>136.0</ele><time>2026-04-04T10:53:15.318Z</time></trkpt><trkpt lat="36.9010856" lon="15.0602717"><ele>136.0</ele><time>2026-04-04T10:53:16.314Z</time></trkpt><trkpt lat="36.9009435" lon="15.0603843"><ele>136.0</ele><time>2026-04-04T10:53:17.318Z</time></trkpt><trkpt lat="36.9008079" lon="15.0604885"><ele>134.0</ele><time>2026-04-04T10:53:18.304Z</time></trkpt><trkpt lat="36.9006792" lon="15.0605935"><ele>132.0</ele><time>2026-04-04T10:53:19.286Z</time></trkpt><trkpt lat="36.9005507" lon="15.060702"><ele>130.0</ele><time>2026-04-04T10:53:20.308Z</time></trkpt><trkpt lat="36.900422" lon="15.0608093"><ele>132.66666666666669</ele><time>2026-04-04T10:53:21.323Z</time></trkpt><trkpt lat="36.9002951" lon="15.0609173"><ele>135.33333333333334</ele><time>2026-04-04T10:53:22.312Z</time></trkpt><trkpt lat="36.9001692" lon="15.0610215"><ele>138.0</ele><time>2026-04-04T10:53:23.302Z</time></trkpt><trkpt lat="36.9000343" lon="15.0611442"><ele>138.0</ele><time>2026-04-04T10:53:24.306Z</time></trkpt><trkpt lat="36.8998995" lon="15.0612757"><ele>138.0</ele><time>2026-04-04T10:53:25.29Z</time></trkpt><trkpt lat="36.899765" lon="15.0614205"><ele>138.0</ele><time>2026-04-04T10:53:26.279Z</time></trkpt><trkpt lat="36.8996331" lon="15.0615586"><ele>137.33333333333334</ele><time>2026-04-04T10:53:27.286Z</time></trkpt><trkpt lat="36.8994993" lon="15.0616831"><ele>136.66666666666669</ele><time>2026-04-04T10:53:28.298Z</time></trkpt><trkpt lat="36.8993639" lon="15.0617797"><ele>136.0</ele><time>2026-04-04T10:53:29.319Z</time></trkpt><trkpt lat="36.8992253" lon="15.061855"><ele>135.0</ele><time>2026-04-04T10:53:30.287Z</time></trkpt><trkpt lat="36.899075" lon="15.0619087"><ele>134.0</ele><time>2026-04-04T10:53:31.314Z</time></trkpt><trkpt lat="36.8989188" lon="15.0619451"><ele>133.0</ele><time>2026-04-04T10:53:32.316Z</time></trkpt><trkpt lat="36.8987592" lon="15.0619586"><ele>133.0</ele><time>2026-04-04T10:53:33.307Z</time></trkpt><trkpt lat="36.8985765" lon="15.0619565"><ele>133.0</ele><time>2026-04-04T10:53:34.303Z</time></trkpt><trkpt lat="36.898381" lon="15.0619452"><ele>133.0</ele><time>2026-04-04T10:53:35.293Z</time></trkpt><trkpt lat="36.8981818" lon="15.0619318"><ele>131.66666666666669</ele><time>2026-04-04T10:53:36.299Z</time></trkpt><trkpt lat="36.8979953" lon="15.0619129"><ele>130.33333333333334</ele><time>2026-04-04T10:53:37.296Z</time></trkpt><trkpt lat="36.8978099" lon="15.061907"><ele>129.0</ele><time>2026-04-04T10:53:38.297Z</time></trkpt><trkpt lat="36.8976311" lon="15.0618886"><ele>125.66666666666666</ele><time>2026-04-04T10:53:39.291Z</time></trkpt><trkpt lat="36.8974559" lon="15.0618777"><ele>122.33333333333333</ele><time>2026-04-04T10:53:40.291Z</time></trkpt><trkpt lat="36.8972856" lon="15.061857"><ele>119.0</ele><time>2026-04-04T10:53:41.319Z</time></trkpt><trkpt lat="36.8971168" lon="15.0618311"><ele>119.0</ele><time>2026-04-04T10:53:42.324Z</time></trkpt><trkpt lat="36.8969451" lon="15.0618134"><ele>119.0</ele><time>2026-04-04T10:53:43.318Z</time></trkpt><trkpt lat="36.8967703" lon="15.0617943"><ele>119.0</ele><time>2026-04-04T10:53:44.313Z</time></trkpt><trkpt lat="36.8965942" lon="15.0617775"><ele>115.33333333333333</ele><time>2026-04-04T10:53:45.324Z</time></trkpt><trkpt lat="36.896416" lon="15.0617596"><ele>111.66666666666666</ele><time>2026-04-04T10:53:46.302Z</time></trkpt><trkpt lat="36.8962362" lon="15.0617359"><ele>108.0</ele><time>2026-04-04T10:53:47.318Z</time></trkpt><trkpt lat="36.8960586" lon="15.0617212"><ele>108.66666666666666</ele><time>2026-04-04T10:53:48.317Z</time></trkpt><trkpt lat="36.8958817" lon="15.0617178"><ele>109.33333333333333</ele><time>2026-04-04T10:53:49.322Z</time></trkpt><trkpt lat="36.8957065" lon="15.0617465"><ele>110.0</ele><time>2026-04-04T10:53:50.328Z</time></trkpt><trkpt lat="36.8955234" lon="15.0617993"><ele>110.0</ele><time>2026-04-04T10:53:51.309Z</time></trkpt><trkpt lat="36.8953482" lon="15.0618415"><ele>110.0</ele><time>2026-04-04T10:53:52.322Z</time></trkpt><trkpt lat="36.8951869" lon="15.0618653"><ele>110.0</ele><time>2026-04-04T10:53:53.314Z</time></trkpt><trkpt lat="36.8950446" lon="15.0618829"><ele>110.0</ele><time>2026-04-04T10:53:54.292Z</time></trkpt><trkpt lat="36.8949153" lon="15.0619021"><ele>110.0</ele><time>2026-04-04T10:53:55.31Z</time></trkpt><trkpt lat="36.894813" lon="15.0619112"><ele>110.0</ele><time>2026-04-04T10:53:56.328Z</time></trkpt><trkpt lat="36.8947302" lon="15.0619213"><ele>110.0</ele><time>2026-04-04T10:53:57.306Z</time></trkpt><trkpt lat="36.8946475" lon="15.0619404"><ele>110.0</ele><time>2026-04-04T10:54:05.271Z</time></trkpt><trkpt lat="36.8945313" lon="15.0619573"><ele>110.0</ele><time>2026-04-04T10:54:07.293Z</time></trkpt><trkpt lat="36.8944442" lon="15.0619533"><ele>110.0</ele><time>2026-04-04T10:54:08.298Z</time></trkpt><trkpt lat="36.8943518" lon="15.0619368"><ele>110.0</ele><time>2026-04-04T10:54:09.306Z</time></trkpt><trkpt lat="36.8942411" lon="15.0619195"><ele>110.0</ele><time>2026-04-04T10:54:10.311Z</time></trkpt><trkpt lat="36.8941251" lon="15.0619026"><ele>110.0</ele><time>2026-04-04T10:54:11.299Z</time></trkpt><trkpt lat="36.894006" lon="15.0618878"><ele>110.25</ele><time>2026-04-04T10:54:12.305Z</time></trkpt><trkpt lat="36.8938876" lon="15.0618674"><ele>110.5</ele><time>2026-04-04T10:54:13.289Z</time></trkpt><trkpt lat="36.8937727" lon="15.0618424"><ele>110.75</ele><time>2026-04-04T10:54:14.306Z</time></trkpt><trkpt lat="36.8936609" lon="15.0618052"><ele>111.0</ele><time>2026-04-04T10:54:15.307Z</time></trkpt><trkpt lat="36.8935613" lon="15.0617603"><ele>111.0</ele><time>2026-04-04T10:54:16.293Z</time></trkpt><trkpt lat="36.8934581" lon="15.0617138"><ele>111.0</ele><time>2026-04-04T10:54:17.305Z</time></trkpt><trkpt lat="36.8933509" lon="15.0616689"><ele>111.0</ele><time>2026-04-04T10:54:18.304Z</time></trkpt><trkpt lat="36.893235" lon="15.0616235"><ele>111.0</ele><time>2026-04-04T10:54:19.304Z</time></trkpt><trkpt lat="36.8931134" lon="15.0615705"><ele>108.25</ele><time>2026-04-04T10:54:20.323Z</time></trkpt><trkpt lat="36.8929849" lon="15.0615169"><ele>105.5</ele><time>2026-04-04T10:54:21.294Z</time></trkpt><trkpt lat="36.8928614" lon="15.0614634"><ele>102.75</ele><time>2026-04-04T10:54:22.319Z</time></trkpt><trkpt lat="36.8927381" lon="15.0614471"><ele>100.0</ele><time>2026-04-04T10:54:23.309Z</time></trkpt><trkpt lat="36.8926156" lon="15.061454"><ele>99.2</ele><time>2026-04-04T10:54:24.296Z</time></trkpt><trkpt lat="36.8924991" lon="15.0614787"><ele>98.4</ele><time>2026-04-04T10:54:25.299Z</time></trkpt><trkpt lat="36.8923875" lon="15.0615203"><ele>97.6</ele><time>2026-04-04T10:54:26.313Z</time></trkpt><trkpt lat="36.892282" lon="15.0615695"><ele>96.8</ele><time>2026-04-04T10:54:27.315Z</time></trkpt><trkpt lat="36.8922071" lon="15.0616143"><ele>96.0</ele><time>2026-04-04T10:54:28.308Z</time></trkpt><trkpt lat="36.8921165" lon="15.0616793"><ele>96.0</ele><time>2026-04-04T10:54:30.326Z</time></trkpt><trkpt lat="36.8920134" lon="15.0617443"><ele>96.0</ele><time>2026-04-04T10:54:32.302Z</time></trkpt><trkpt lat="36.8919414" lon="15.0617863"><ele>96.0</ele><time>2026-04-04T10:54:33.308Z</time></trkpt><trkpt lat="36.891867" lon="15.0618431"><ele>96.0</ele><time>2026-04-04T10:54:34.315Z</time></trkpt><trkpt lat="36.891797" lon="15.0619048"><ele>96.0</ele><time>2026-04-04T10:54:35.32Z</time></trkpt><trkpt lat="36.8917256" lon="15.061959"><ele>96.0</ele><time>2026-04-04T10:54:36.322Z</time></trkpt><trkpt lat="36.8916516" lon="15.0619911"><ele>96.0</ele><time>2026-04-04T10:54:37.321Z</time></trkpt><trkpt lat="36.891579" lon="15.0620315"><ele>96.0</ele><time>2026-04-04T10:54:38.308Z</time></trkpt><trkpt lat="36.8915071" lon="15.0620786"><ele>96.0</ele><time>2026-04-04T10:54:39.311Z</time></trkpt><trkpt lat="36.8914353" lon="15.0621281"><ele>96.0</ele><time>2026-04-04T10:54:40.304Z</time></trkpt><trkpt lat="36.8913639" lon="15.0621723"><ele>96.0</ele><time>2026-04-04T10:54:41.284Z</time></trkpt><trkpt lat="36.8912932" lon="15.0622181"><ele>95.99999999999999</ele><time>2026-04-04T10:54:42.295Z</time></trkpt><trkpt lat="36.8912307" lon="15.0622569"><ele>96.0</ele><time>2026-04-04T10:54:43.307Z</time></trkpt><trkpt lat="36.8911501" lon="15.0623077"><ele>96.0</ele><time>2026-04-04T10:54:45.307Z</time></trkpt><trkpt lat="36.8910854" lon="15.0622953"><ele>96.0</ele><time>2026-04-04T10:54:49.328Z</time></trkpt><trkpt lat="36.8911502" lon="15.0622279"><ele>96.0</ele><time>2026-04-04T10:56:07.305Z</time></trkpt><trkpt lat="36.8912007" lon="15.0621787"><ele>95.99999999999999</ele><time>2026-04-04T10:56:08.303Z</time></trkpt><trkpt lat="36.8912509" lon="15.0621255"><ele>96.0</ele><time>2026-04-04T10:56:09.272Z</time></trkpt><trkpt lat="36.8913211" lon="15.0620506"><ele>96.0</ele><time>2026-04-04T10:56:11.312Z</time></trkpt><trkpt lat="36.8913481" lon="15.0619643"><ele>96.0</ele><time>2026-04-04T10:56:13.311Z</time></trkpt><trkpt lat="36.8913241" lon="15.0618771"><ele>96.0</ele><time>2026-04-04T10:56:16.307Z</time></trkpt><trkpt lat="36.891262" lon="15.0618589"><ele>96.0</ele><time>2026-04-04T10:56:18.319Z</time></trkpt><trkpt lat="36.8911687" lon="15.0618591"><ele>96.0</ele><time>2026-04-04T10:56:20.306Z</time></trkpt><trkpt lat="36.8910739" lon="15.0618494"><ele>96.0</ele><time>2026-04-04T10:56:22.298Z</time></trkpt><trkpt lat="36.8910114" lon="15.0618233"><ele>96.0</ele><time>2026-04-04T10:56:24.311Z</time></trkpt><trkpt lat="36.8909485" lon="15.0618105"><ele>96.0</ele><time>2026-04-04T10:56:33.305Z</time></trkpt><trkpt lat="36.8909485" lon="15.0618105"><ele>96.0</ele><time>2026-04-04T10:56:33.305Z</time></trkpt></trkseg></trk></gpx>